<?xml version="1.0" encoding="UTF-8" standalone="no" ?>
<gpx xmlns="http://www.topografix.com/GPX/1/1" xmlns:xsi="http://www.w3.org/2001/XMLSchema-instance" xsi:schemaLocation="http://www.topografix.com/GPX/1/1 http://www.topografix.com/GPX/1/1/gpx.xsd" version="1.1" creator="VisuGPX - https://www.visugpx.com">
  <metadata>
    <name>LGT : Cap d\'Erquy</name>
    <desc><![CDATA[Une balade d\'environ 8 km au départ du nouveau parking du Cap. Le circuit vous emmènera d\'abord vers les Lacs Bleus à travers la lande de bruyères. Vous y découvrirez alors en contrebas Erquy et son port. Après avoir observé les 2 lacs suspendus, vous longerez alors la côte via le GR34 : c\'est l\'occasion d\'avoir une vue magnifique sur la Baie de Saint-Brieuc, le Cap Fréhel et les nombreuses et belles plages de ce magnifique Cap d\'Erquy.]]></desc>
  </metadata>
  <trk>
    <name><![CDATA[LGT : Cap d\'Erquy_1]]></name>
    <trkseg>
      <trkpt lat="48.64162" lon="-2.46367">
        <ele>35</ele>
        <time>2014-10-20T12:35:50.1Z</time>
      </trkpt>
      <trkpt lat="48.64161" lon="-2.46363">
        <ele>35</ele>
        <time>2014-10-20T12:35:53.1Z</time>
      </trkpt>
      <trkpt lat="48.64162" lon="-2.46358">
        <ele>35</ele>
        <time>2014-10-20T12:35:56.1Z</time>
      </trkpt>
      <trkpt lat="48.64162" lon="-2.46355">
        <ele>35</ele>
        <time>2014-10-20T12:35:58.1Z</time>
      </trkpt>
      <trkpt lat="48.64161" lon="-2.46352">
        <ele>35</ele>
        <time>2014-10-20T12:36:01.1Z</time>
      </trkpt>
      <trkpt lat="48.64161" lon="-2.4635">
        <ele>35</ele>
        <time>2014-10-20T12:36:03.1Z</time>
      </trkpt>
      <trkpt lat="48.6416" lon="-2.46348">
        <ele>35</ele>
        <time>2014-10-20T12:36:06.1Z</time>
      </trkpt>
      <trkpt lat="48.6416" lon="-2.46349">
        <ele>35</ele>
        <time>2014-10-20T12:36:10.1Z</time>
      </trkpt>
      <trkpt lat="48.6416" lon="-2.46349">
        <ele>35</ele>
        <time>2014-10-20T12:36:13.1Z</time>
      </trkpt>
      <trkpt lat="48.64161" lon="-2.46349">
        <ele>35</ele>
        <time>2014-10-20T12:36:16.1Z</time>
      </trkpt>
      <trkpt lat="48.64161" lon="-2.46349">
        <ele>36</ele>
        <time>2014-10-20T12:36:19.1Z</time>
      </trkpt>
      <trkpt lat="48.64162" lon="-2.46349">
        <ele>35</ele>
        <time>2014-10-20T12:36:21.1Z</time>
      </trkpt>
      <trkpt lat="48.64162" lon="-2.46349">
        <ele>35</ele>
        <time>2014-10-20T12:36:24.1Z</time>
      </trkpt>
      <trkpt lat="48.64162" lon="-2.46349">
        <ele>35</ele>
        <time>2014-10-20T12:36:27.1Z</time>
      </trkpt>
      <trkpt lat="48.64163" lon="-2.46349">
        <ele>35</ele>
        <time>2014-10-20T12:36:29.1Z</time>
      </trkpt>
      <trkpt lat="48.64163" lon="-2.46349">
        <ele>36</ele>
        <time>2014-10-20T12:36:32.1Z</time>
      </trkpt>
      <trkpt lat="48.64164" lon="-2.46348">
        <ele>35</ele>
        <time>2014-10-20T12:36:34.1Z</time>
      </trkpt>
      <trkpt lat="48.64166" lon="-2.46343">
        <ele>35</ele>
        <time>2014-10-20T12:36:36.1Z</time>
      </trkpt>
      <trkpt lat="48.64167" lon="-2.4634">
        <ele>35</ele>
        <time>2014-10-20T12:36:39.1Z</time>
      </trkpt>
      <trkpt lat="48.64169" lon="-2.46338">
        <ele>35</ele>
        <time>2014-10-20T12:36:42.1Z</time>
      </trkpt>
      <trkpt lat="48.64174" lon="-2.46338">
        <ele>34</ele>
        <time>2014-10-20T12:36:44.1Z</time>
      </trkpt>
      <trkpt lat="48.64177" lon="-2.46338">
        <ele>34</ele>
        <time>2014-10-20T12:36:47.1Z</time>
      </trkpt>
      <trkpt lat="48.64179" lon="-2.46338">
        <ele>34</ele>
        <time>2014-10-20T12:36:49.1Z</time>
      </trkpt>
      <trkpt lat="48.64183" lon="-2.46338">
        <ele>33</ele>
        <time>2014-10-20T12:36:52.1Z</time>
      </trkpt>
      <trkpt lat="48.64188" lon="-2.46338">
        <ele>33</ele>
        <time>2014-10-20T12:36:54.1Z</time>
      </trkpt>
      <trkpt lat="48.6419" lon="-2.46338">
        <ele>33</ele>
        <time>2014-10-20T12:36:57.1Z</time>
      </trkpt>
      <trkpt lat="48.64194" lon="-2.46338">
        <ele>33</ele>
        <time>2014-10-20T12:37:00.1Z</time>
      </trkpt>
      <trkpt lat="48.64199" lon="-2.46338">
        <ele>32</ele>
        <time>2014-10-20T12:37:03.1Z</time>
      </trkpt>
      <trkpt lat="48.64202" lon="-2.46337">
        <ele>32</ele>
        <time>2014-10-20T12:37:06.1Z</time>
      </trkpt>
      <trkpt lat="48.64206" lon="-2.46337">
        <ele>32</ele>
        <time>2014-10-20T12:37:08.1Z</time>
      </trkpt>
      <trkpt lat="48.64208" lon="-2.46338">
        <ele>32</ele>
        <time>2014-10-20T12:37:11.1Z</time>
      </trkpt>
      <trkpt lat="48.64212" lon="-2.46339">
        <ele>32</ele>
        <time>2014-10-20T12:37:14.1Z</time>
      </trkpt>
      <trkpt lat="48.64216" lon="-2.46338">
        <ele>32</ele>
        <time>2014-10-20T12:37:17.1Z</time>
      </trkpt>
      <trkpt lat="48.6422" lon="-2.46339">
        <ele>32</ele>
        <time>2014-10-20T12:37:20.1Z</time>
      </trkpt>
      <trkpt lat="48.64224" lon="-2.4634">
        <ele>32</ele>
        <time>2014-10-20T12:37:22.1Z</time>
      </trkpt>
      <trkpt lat="48.64226" lon="-2.4634">
        <ele>32</ele>
        <time>2014-10-20T12:37:25.1Z</time>
      </trkpt>
      <trkpt lat="48.6423" lon="-2.46341">
        <ele>32</ele>
        <time>2014-10-20T12:37:28.1Z</time>
      </trkpt>
      <trkpt lat="48.64233" lon="-2.4634">
        <ele>32</ele>
        <time>2014-10-20T12:37:30.1Z</time>
      </trkpt>
      <trkpt lat="48.64236" lon="-2.46341">
        <ele>32</ele>
        <time>2014-10-20T12:37:33.1Z</time>
      </trkpt>
      <trkpt lat="48.64239" lon="-2.46341">
        <ele>31</ele>
        <time>2014-10-20T12:37:36.1Z</time>
      </trkpt>
      <trkpt lat="48.64243" lon="-2.46341">
        <ele>30</ele>
        <time>2014-10-20T12:37:39.1Z</time>
      </trkpt>
      <trkpt lat="48.64247" lon="-2.46342">
        <ele>30</ele>
        <time>2014-10-20T12:37:41.1Z</time>
      </trkpt>
      <trkpt lat="48.6425" lon="-2.46342">
        <ele>30</ele>
        <time>2014-10-20T12:37:44.1Z</time>
      </trkpt>
      <trkpt lat="48.64254" lon="-2.46342">
        <ele>30</ele>
        <time>2014-10-20T12:37:47.1Z</time>
      </trkpt>
      <trkpt lat="48.64258" lon="-2.46342">
        <ele>30</ele>
        <time>2014-10-20T12:37:49.1Z</time>
      </trkpt>
      <trkpt lat="48.6426" lon="-2.46342">
        <ele>30</ele>
        <time>2014-10-20T12:37:52.1Z</time>
      </trkpt>
      <trkpt lat="48.64264" lon="-2.46342">
        <ele>29</ele>
        <time>2014-10-20T12:37:55.1Z</time>
      </trkpt>
      <trkpt lat="48.64268" lon="-2.46342">
        <ele>28</ele>
        <time>2014-10-20T12:37:57.1Z</time>
      </trkpt>
      <trkpt lat="48.6427" lon="-2.46342">
        <ele>28</ele>
        <time>2014-10-20T12:38:00.1Z</time>
      </trkpt>
      <trkpt lat="48.64272" lon="-2.46342">
        <ele>28</ele>
        <time>2014-10-20T12:38:02.1Z</time>
      </trkpt>
      <trkpt lat="48.64275" lon="-2.46342">
        <ele>28</ele>
        <time>2014-10-20T12:38:05.1Z</time>
      </trkpt>
      <trkpt lat="48.64279" lon="-2.46344">
        <ele>28</ele>
        <time>2014-10-20T12:38:08.1Z</time>
      </trkpt>
      <trkpt lat="48.64282" lon="-2.46344">
        <ele>28</ele>
        <time>2014-10-20T12:38:10.1Z</time>
      </trkpt>
      <trkpt lat="48.64285" lon="-2.46344">
        <ele>28</ele>
        <time>2014-10-20T12:38:13.1Z</time>
      </trkpt>
      <trkpt lat="48.64288" lon="-2.46345">
        <ele>28</ele>
        <time>2014-10-20T12:38:15.1Z</time>
      </trkpt>
      <trkpt lat="48.6429" lon="-2.46345">
        <ele>27</ele>
        <time>2014-10-20T12:38:18.1Z</time>
      </trkpt>
      <trkpt lat="48.64294" lon="-2.46346">
        <ele>27</ele>
        <time>2014-10-20T12:38:21.1Z</time>
      </trkpt>
      <trkpt lat="48.64297" lon="-2.46346">
        <ele>27</ele>
        <time>2014-10-20T12:38:23.1Z</time>
      </trkpt>
      <trkpt lat="48.64299" lon="-2.46346">
        <ele>27</ele>
        <time>2014-10-20T12:38:26.1Z</time>
      </trkpt>
      <trkpt lat="48.64303" lon="-2.46346">
        <ele>27</ele>
        <time>2014-10-20T12:38:29.1Z</time>
      </trkpt>
      <trkpt lat="48.64307" lon="-2.46347">
        <ele>26</ele>
        <time>2014-10-20T12:38:31.1Z</time>
      </trkpt>
      <trkpt lat="48.6431" lon="-2.46347">
        <ele>26</ele>
        <time>2014-10-20T12:38:34.1Z</time>
      </trkpt>
      <trkpt lat="48.64314" lon="-2.46348">
        <ele>26</ele>
        <time>2014-10-20T12:38:37.1Z</time>
      </trkpt>
      <trkpt lat="48.64318" lon="-2.46349">
        <ele>26</ele>
        <time>2014-10-20T12:38:40.1Z</time>
      </trkpt>
      <trkpt lat="48.64322" lon="-2.46348">
        <ele>26</ele>
        <time>2014-10-20T12:38:43.1Z</time>
      </trkpt>
      <trkpt lat="48.64326" lon="-2.46349">
        <ele>26</ele>
        <time>2014-10-20T12:38:45.1Z</time>
      </trkpt>
      <trkpt lat="48.64328" lon="-2.46349">
        <ele>26</ele>
        <time>2014-10-20T12:38:48.1Z</time>
      </trkpt>
      <trkpt lat="48.64332" lon="-2.46348">
        <ele>26</ele>
        <time>2014-10-20T12:38:51.1Z</time>
      </trkpt>
      <trkpt lat="48.64335" lon="-2.46349">
        <ele>25</ele>
        <time>2014-10-20T12:38:53.1Z</time>
      </trkpt>
      <trkpt lat="48.64339" lon="-2.46349">
        <ele>25</ele>
        <time>2014-10-20T12:38:56.1Z</time>
      </trkpt>
      <trkpt lat="48.64342" lon="-2.4635">
        <ele>24</ele>
        <time>2014-10-20T12:38:58.1Z</time>
      </trkpt>
      <trkpt lat="48.64345" lon="-2.4635">
        <ele>24</ele>
        <time>2014-10-20T12:39:01.1Z</time>
      </trkpt>
      <trkpt lat="48.64348" lon="-2.46351">
        <ele>24</ele>
        <time>2014-10-20T12:39:03.1Z</time>
      </trkpt>
      <trkpt lat="48.64351" lon="-2.4635">
        <ele>24</ele>
        <time>2014-10-20T12:39:06.1Z</time>
      </trkpt>
      <trkpt lat="48.64355" lon="-2.4635">
        <ele>24</ele>
        <time>2014-10-20T12:39:08.1Z</time>
      </trkpt>
      <trkpt lat="48.64357" lon="-2.46351">
        <ele>24</ele>
        <time>2014-10-20T12:39:11.1Z</time>
      </trkpt>
      <trkpt lat="48.6436" lon="-2.46351">
        <ele>24</ele>
        <time>2014-10-20T12:39:14.1Z</time>
      </trkpt>
      <trkpt lat="48.64364" lon="-2.46351">
        <ele>24</ele>
        <time>2014-10-20T12:39:16.1Z</time>
      </trkpt>
      <trkpt lat="48.64367" lon="-2.4635">
        <ele>24</ele>
        <time>2014-10-20T12:39:18.1Z</time>
      </trkpt>
      <trkpt lat="48.6437" lon="-2.4635">
        <ele>24</ele>
        <time>2014-10-20T12:39:21.1Z</time>
      </trkpt>
      <trkpt lat="48.64374" lon="-2.4635">
        <ele>24</ele>
        <time>2014-10-20T12:39:24.1Z</time>
      </trkpt>
      <trkpt lat="48.64378" lon="-2.4635">
        <ele>23</ele>
        <time>2014-10-20T12:39:26.1Z</time>
      </trkpt>
      <trkpt lat="48.6438" lon="-2.4635">
        <ele>23</ele>
        <time>2014-10-20T12:39:29.1Z</time>
      </trkpt>
      <trkpt lat="48.64382" lon="-2.4635">
        <ele>23</ele>
        <time>2014-10-20T12:39:31.1Z</time>
      </trkpt>
      <trkpt lat="48.64386" lon="-2.46351">
        <ele>23</ele>
        <time>2014-10-20T12:39:34.1Z</time>
      </trkpt>
      <trkpt lat="48.64389" lon="-2.46351">
        <ele>23</ele>
        <time>2014-10-20T12:39:36.1Z</time>
      </trkpt>
      <trkpt lat="48.64391" lon="-2.46351">
        <ele>23</ele>
        <time>2014-10-20T12:39:39.1Z</time>
      </trkpt>
      <trkpt lat="48.64394" lon="-2.46351">
        <ele>23</ele>
        <time>2014-10-20T12:39:42.1Z</time>
      </trkpt>
      <trkpt lat="48.64395" lon="-2.46352">
        <ele>23</ele>
        <time>2014-10-20T12:39:44.1Z</time>
      </trkpt>
      <trkpt lat="48.64399" lon="-2.46351">
        <ele>23</ele>
        <time>2014-10-20T12:39:47.1Z</time>
      </trkpt>
      <trkpt lat="48.64401" lon="-2.46349">
        <ele>23</ele>
        <time>2014-10-20T12:39:49.1Z</time>
      </trkpt>
      <trkpt lat="48.64403" lon="-2.46349">
        <ele>23</ele>
        <time>2014-10-20T12:39:52.1Z</time>
      </trkpt>
      <trkpt lat="48.64407" lon="-2.4635">
        <ele>23</ele>
        <time>2014-10-20T12:39:54.1Z</time>
      </trkpt>
      <trkpt lat="48.6441" lon="-2.46351">
        <ele>23</ele>
        <time>2014-10-20T12:39:57.1Z</time>
      </trkpt>
      <trkpt lat="48.64413" lon="-2.46352">
        <ele>23</ele>
        <time>2014-10-20T12:39:59.1Z</time>
      </trkpt>
      <trkpt lat="48.64414" lon="-2.46353">
        <ele>23</ele>
        <time>2014-10-20T12:40:02.1Z</time>
      </trkpt>
      <trkpt lat="48.64415" lon="-2.46355">
        <ele>23</ele>
        <time>2014-10-20T12:40:04.1Z</time>
      </trkpt>
      <trkpt lat="48.64415" lon="-2.46356">
        <ele>23</ele>
        <time>2014-10-20T12:40:07.1Z</time>
      </trkpt>
      <trkpt lat="48.64415" lon="-2.46358">
        <ele>23</ele>
        <time>2014-10-20T12:40:09.1Z</time>
      </trkpt>
      <trkpt lat="48.64414" lon="-2.46364">
        <ele>23</ele>
        <time>2014-10-20T12:40:12.1Z</time>
      </trkpt>
      <trkpt lat="48.64414" lon="-2.46367">
        <ele>23</ele>
        <time>2014-10-20T12:40:14.1Z</time>
      </trkpt>
      <trkpt lat="48.64416" lon="-2.4637">
        <ele>23</ele>
        <time>2014-10-20T12:40:17.1Z</time>
      </trkpt>
      <trkpt lat="48.64417" lon="-2.46376">
        <ele>23</ele>
        <time>2014-10-20T12:40:20.1Z</time>
      </trkpt>
      <trkpt lat="48.64418" lon="-2.46379">
        <ele>23</ele>
        <time>2014-10-20T12:40:22.1Z</time>
      </trkpt>
      <trkpt lat="48.64419" lon="-2.46384">
        <ele>23</ele>
        <time>2014-10-20T12:40:24.1Z</time>
      </trkpt>
      <trkpt lat="48.6442" lon="-2.46388">
        <ele>23</ele>
        <time>2014-10-20T12:40:27.1Z</time>
      </trkpt>
      <trkpt lat="48.64421" lon="-2.46394">
        <ele>23</ele>
        <time>2014-10-20T12:40:29.1Z</time>
      </trkpt>
      <trkpt lat="48.64422" lon="-2.46398">
        <ele>23</ele>
        <time>2014-10-20T12:40:31.1Z</time>
      </trkpt>
      <trkpt lat="48.64423" lon="-2.46401">
        <ele>23</ele>
        <time>2014-10-20T12:40:34.1Z</time>
      </trkpt>
      <trkpt lat="48.64425" lon="-2.46407">
        <ele>22</ele>
        <time>2014-10-20T12:40:37.1Z</time>
      </trkpt>
      <trkpt lat="48.64426" lon="-2.46412">
        <ele>22</ele>
        <time>2014-10-20T12:40:39.1Z</time>
      </trkpt>
      <trkpt lat="48.64427" lon="-2.46416">
        <ele>22</ele>
        <time>2014-10-20T12:40:42.1Z</time>
      </trkpt>
      <trkpt lat="48.64428" lon="-2.46421">
        <ele>22</ele>
        <time>2014-10-20T12:40:45.1Z</time>
      </trkpt>
      <trkpt lat="48.64429" lon="-2.46425">
        <ele>23</ele>
        <time>2014-10-20T12:40:47.1Z</time>
      </trkpt>
      <trkpt lat="48.6443" lon="-2.4643">
        <ele>23</ele>
        <time>2014-10-20T12:40:50.1Z</time>
      </trkpt>
      <trkpt lat="48.64431" lon="-2.46435">
        <ele>23</ele>
        <time>2014-10-20T12:40:52.1Z</time>
      </trkpt>
      <trkpt lat="48.64432" lon="-2.46439">
        <ele>23</ele>
        <time>2014-10-20T12:40:54.1Z</time>
      </trkpt>
      <trkpt lat="48.64433" lon="-2.46443">
        <ele>23</ele>
        <time>2014-10-20T12:40:57.1Z</time>
      </trkpt>
      <trkpt lat="48.64433" lon="-2.46447">
        <ele>23</ele>
        <time>2014-10-20T12:40:59.1Z</time>
      </trkpt>
      <trkpt lat="48.64434" lon="-2.46453">
        <ele>23</ele>
        <time>2014-10-20T12:41:02.1Z</time>
      </trkpt>
      <trkpt lat="48.64434" lon="-2.46456">
        <ele>23</ele>
        <time>2014-10-20T12:41:04.1Z</time>
      </trkpt>
      <trkpt lat="48.64435" lon="-2.4646">
        <ele>23</ele>
        <time>2014-10-20T12:41:07.1Z</time>
      </trkpt>
      <trkpt lat="48.64435" lon="-2.46465">
        <ele>23</ele>
        <time>2014-10-20T12:41:09.1Z</time>
      </trkpt>
      <trkpt lat="48.64436" lon="-2.46468">
        <ele>23</ele>
        <time>2014-10-20T12:41:12.1Z</time>
      </trkpt>
      <trkpt lat="48.64437" lon="-2.46472">
        <ele>23</ele>
        <time>2014-10-20T12:41:14.1Z</time>
      </trkpt>
      <trkpt lat="48.64438" lon="-2.46477">
        <ele>23</ele>
        <time>2014-10-20T12:41:17.1Z</time>
      </trkpt>
      <trkpt lat="48.64439" lon="-2.46483">
        <ele>23</ele>
        <time>2014-10-20T12:41:20.1Z</time>
      </trkpt>
      <trkpt lat="48.6444" lon="-2.46488">
        <ele>23</ele>
        <time>2014-10-20T12:41:23.1Z</time>
      </trkpt>
      <trkpt lat="48.64441" lon="-2.46493">
        <ele>23</ele>
        <time>2014-10-20T12:41:25.1Z</time>
      </trkpt>
      <trkpt lat="48.64442" lon="-2.46497">
        <ele>23</ele>
        <time>2014-10-20T12:41:28.1Z</time>
      </trkpt>
      <trkpt lat="48.64443" lon="-2.46502">
        <ele>23</ele>
        <time>2014-10-20T12:41:30.1Z</time>
      </trkpt>
      <trkpt lat="48.64443" lon="-2.46505">
        <ele>23</ele>
        <time>2014-10-20T12:41:33.1Z</time>
      </trkpt>
      <trkpt lat="48.64444" lon="-2.46511">
        <ele>23</ele>
        <time>2014-10-20T12:41:36.1Z</time>
      </trkpt>
      <trkpt lat="48.64445" lon="-2.46515">
        <ele>23</ele>
        <time>2014-10-20T12:41:38.1Z</time>
      </trkpt>
      <trkpt lat="48.64445" lon="-2.46519">
        <ele>23</ele>
        <time>2014-10-20T12:41:41.1Z</time>
      </trkpt>
      <trkpt lat="48.64446" lon="-2.46524">
        <ele>23</ele>
        <time>2014-10-20T12:41:43.1Z</time>
      </trkpt>
      <trkpt lat="48.64447" lon="-2.46528">
        <ele>23</ele>
        <time>2014-10-20T12:41:45.1Z</time>
      </trkpt>
      <trkpt lat="48.64447" lon="-2.46533">
        <ele>23</ele>
        <time>2014-10-20T12:41:48.1Z</time>
      </trkpt>
      <trkpt lat="48.64448" lon="-2.46537">
        <ele>23</ele>
        <time>2014-10-20T12:41:50.1Z</time>
      </trkpt>
      <trkpt lat="48.64449" lon="-2.4654">
        <ele>23</ele>
        <time>2014-10-20T12:41:53.1Z</time>
      </trkpt>
      <trkpt lat="48.64449" lon="-2.46546">
        <ele>23</ele>
        <time>2014-10-20T12:41:55.1Z</time>
      </trkpt>
      <trkpt lat="48.6445" lon="-2.4655">
        <ele>23</ele>
        <time>2014-10-20T12:41:58.1Z</time>
      </trkpt>
      <trkpt lat="48.64451" lon="-2.46555">
        <ele>23</ele>
        <time>2014-10-20T12:42:00.1Z</time>
      </trkpt>
      <trkpt lat="48.64452" lon="-2.46559">
        <ele>24</ele>
        <time>2014-10-20T12:42:02.1Z</time>
      </trkpt>
      <trkpt lat="48.64453" lon="-2.46565">
        <ele>23</ele>
        <time>2014-10-20T12:42:05.1Z</time>
      </trkpt>
      <trkpt lat="48.64454" lon="-2.46568">
        <ele>24</ele>
        <time>2014-10-20T12:42:08.1Z</time>
      </trkpt>
      <trkpt lat="48.64455" lon="-2.46573">
        <ele>23</ele>
        <time>2014-10-20T12:42:11.1Z</time>
      </trkpt>
      <trkpt lat="48.64457" lon="-2.46578">
        <ele>24</ele>
        <time>2014-10-20T12:42:13.1Z</time>
      </trkpt>
      <trkpt lat="48.64457" lon="-2.46581">
        <ele>24</ele>
        <time>2014-10-20T12:42:16.1Z</time>
      </trkpt>
      <trkpt lat="48.64458" lon="-2.46586">
        <ele>24</ele>
        <time>2014-10-20T12:42:18.1Z</time>
      </trkpt>
      <trkpt lat="48.64458" lon="-2.46593">
        <ele>23</ele>
        <time>2014-10-20T12:42:22.1Z</time>
      </trkpt>
      <trkpt lat="48.64458" lon="-2.46599">
        <ele>23</ele>
        <time>2014-10-20T12:42:24.1Z</time>
      </trkpt>
      <trkpt lat="48.64459" lon="-2.46602">
        <ele>24</ele>
        <time>2014-10-20T12:42:26.1Z</time>
      </trkpt>
      <trkpt lat="48.6446" lon="-2.46608">
        <ele>24</ele>
        <time>2014-10-20T12:42:30.1Z</time>
      </trkpt>
      <trkpt lat="48.6446" lon="-2.46614">
        <ele>24</ele>
        <time>2014-10-20T12:42:33.1Z</time>
      </trkpt>
      <trkpt lat="48.64461" lon="-2.46619">
        <ele>24</ele>
        <time>2014-10-20T12:42:35.1Z</time>
      </trkpt>
      <trkpt lat="48.64462" lon="-2.46624">
        <ele>24</ele>
        <time>2014-10-20T12:42:38.1Z</time>
      </trkpt>
      <trkpt lat="48.64463" lon="-2.46628">
        <ele>24</ele>
        <time>2014-10-20T12:42:40.1Z</time>
      </trkpt>
      <trkpt lat="48.64464" lon="-2.46634">
        <ele>24</ele>
        <time>2014-10-20T12:42:44.1Z</time>
      </trkpt>
      <trkpt lat="48.64465" lon="-2.46637">
        <ele>23</ele>
        <time>2014-10-20T12:42:46.1Z</time>
      </trkpt>
      <trkpt lat="48.64466" lon="-2.46642">
        <ele>24</ele>
        <time>2014-10-20T12:42:49.1Z</time>
      </trkpt>
      <trkpt lat="48.64466" lon="-2.46649">
        <ele>23</ele>
        <time>2014-10-20T12:42:51.1Z</time>
      </trkpt>
      <trkpt lat="48.64468" lon="-2.46654">
        <ele>23</ele>
        <time>2014-10-20T12:42:55.1Z</time>
      </trkpt>
      <trkpt lat="48.64468" lon="-2.46659">
        <ele>23</ele>
        <time>2014-10-20T12:42:57.1Z</time>
      </trkpt>
      <trkpt lat="48.64469" lon="-2.46662">
        <ele>24</ele>
        <time>2014-10-20T12:43:00.1Z</time>
      </trkpt>
      <trkpt lat="48.64469" lon="-2.46668">
        <ele>24</ele>
        <time>2014-10-20T12:43:02.1Z</time>
      </trkpt>
      <trkpt lat="48.6447" lon="-2.46672">
        <ele>24</ele>
        <time>2014-10-20T12:43:04.1Z</time>
      </trkpt>
      <trkpt lat="48.6447" lon="-2.46677">
        <ele>24</ele>
        <time>2014-10-20T12:43:07.1Z</time>
      </trkpt>
      <trkpt lat="48.64471" lon="-2.46681">
        <ele>24</ele>
        <time>2014-10-20T12:43:09.1Z</time>
      </trkpt>
      <trkpt lat="48.64471" lon="-2.46685">
        <ele>24</ele>
        <time>2014-10-20T12:43:12.1Z</time>
      </trkpt>
      <trkpt lat="48.64472" lon="-2.46691">
        <ele>24</ele>
        <time>2014-10-20T12:43:14.1Z</time>
      </trkpt>
      <trkpt lat="48.64473" lon="-2.46695">
        <ele>24</ele>
        <time>2014-10-20T12:43:17.1Z</time>
      </trkpt>
      <trkpt lat="48.64473" lon="-2.46701">
        <ele>24</ele>
        <time>2014-10-20T12:43:19.1Z</time>
      </trkpt>
      <trkpt lat="48.64474" lon="-2.46704">
        <ele>24</ele>
        <time>2014-10-20T12:43:21.1Z</time>
      </trkpt>
      <trkpt lat="48.64475" lon="-2.46708">
        <ele>24</ele>
        <time>2014-10-20T12:43:23.1Z</time>
      </trkpt>
      <trkpt lat="48.64476" lon="-2.46711">
        <ele>24</ele>
        <time>2014-10-20T12:43:26.1Z</time>
      </trkpt>
      <trkpt lat="48.64477" lon="-2.46716">
        <ele>24</ele>
        <time>2014-10-20T12:43:28.1Z</time>
      </trkpt>
      <trkpt lat="48.64479" lon="-2.46722">
        <ele>24</ele>
        <time>2014-10-20T12:43:31.1Z</time>
      </trkpt>
      <trkpt lat="48.64479" lon="-2.46726">
        <ele>24</ele>
        <time>2014-10-20T12:43:33.1Z</time>
      </trkpt>
      <trkpt lat="48.64481" lon="-2.46731">
        <ele>24</ele>
        <time>2014-10-20T12:43:36.1Z</time>
      </trkpt>
      <trkpt lat="48.64481" lon="-2.46734">
        <ele>24</ele>
        <time>2014-10-20T12:43:38.1Z</time>
      </trkpt>
      <trkpt lat="48.64481" lon="-2.46738">
        <ele>24</ele>
        <time>2014-10-20T12:43:41.1Z</time>
      </trkpt>
      <trkpt lat="48.64482" lon="-2.46744">
        <ele>24</ele>
        <time>2014-10-20T12:43:44.1Z</time>
      </trkpt>
      <trkpt lat="48.64483" lon="-2.46749">
        <ele>24</ele>
        <time>2014-10-20T12:43:46.1Z</time>
      </trkpt>
      <trkpt lat="48.64484" lon="-2.46753">
        <ele>24</ele>
        <time>2014-10-20T12:43:48.1Z</time>
      </trkpt>
      <trkpt lat="48.64483" lon="-2.46759">
        <ele>24</ele>
        <time>2014-10-20T12:43:51.1Z</time>
      </trkpt>
      <trkpt lat="48.64481" lon="-2.46761">
        <ele>25</ele>
        <time>2014-10-20T12:43:53.1Z</time>
      </trkpt>
      <trkpt lat="48.64479" lon="-2.46763">
        <ele>25</ele>
        <time>2014-10-20T12:43:56.1Z</time>
      </trkpt>
      <trkpt lat="48.64475" lon="-2.46764">
        <ele>25</ele>
        <time>2014-10-20T12:43:58.1Z</time>
      </trkpt>
      <trkpt lat="48.64471" lon="-2.46764">
        <ele>24</ele>
        <time>2014-10-20T12:44:01.1Z</time>
      </trkpt>
      <trkpt lat="48.64468" lon="-2.46764">
        <ele>24</ele>
        <time>2014-10-20T12:44:04.1Z</time>
      </trkpt>
      <trkpt lat="48.64465" lon="-2.46764">
        <ele>24</ele>
        <time>2014-10-20T12:44:06.1Z</time>
      </trkpt>
      <trkpt lat="48.64463" lon="-2.46764">
        <ele>24</ele>
        <time>2014-10-20T12:44:09.1Z</time>
      </trkpt>
      <trkpt lat="48.6446" lon="-2.46764">
        <ele>24</ele>
        <time>2014-10-20T12:44:11.1Z</time>
      </trkpt>
      <trkpt lat="48.64455" lon="-2.46764">
        <ele>24</ele>
        <time>2014-10-20T12:44:14.1Z</time>
      </trkpt>
      <trkpt lat="48.64453" lon="-2.46765">
        <ele>25</ele>
        <time>2014-10-20T12:44:17.1Z</time>
      </trkpt>
      <trkpt lat="48.64449" lon="-2.46765">
        <ele>25</ele>
        <time>2014-10-20T12:44:20.1Z</time>
      </trkpt>
      <trkpt lat="48.64445" lon="-2.46764">
        <ele>25</ele>
        <time>2014-10-20T12:44:24.1Z</time>
      </trkpt>
      <trkpt lat="48.64442" lon="-2.46765">
        <ele>25</ele>
        <time>2014-10-20T12:44:26.1Z</time>
      </trkpt>
      <trkpt lat="48.64438" lon="-2.46765">
        <ele>25</ele>
        <time>2014-10-20T12:44:29.1Z</time>
      </trkpt>
      <trkpt lat="48.64436" lon="-2.46764">
        <ele>25</ele>
        <time>2014-10-20T12:44:31.1Z</time>
      </trkpt>
      <trkpt lat="48.64432" lon="-2.46763">
        <ele>25</ele>
        <time>2014-10-20T12:44:35.1Z</time>
      </trkpt>
      <trkpt lat="48.64429" lon="-2.46763">
        <ele>25</ele>
        <time>2014-10-20T12:44:38.1Z</time>
      </trkpt>
      <trkpt lat="48.64426" lon="-2.46763">
        <ele>25</ele>
        <time>2014-10-20T12:44:40.1Z</time>
      </trkpt>
      <trkpt lat="48.64423" lon="-2.46763">
        <ele>26</ele>
        <time>2014-10-20T12:44:43.1Z</time>
      </trkpt>
      <trkpt lat="48.6442" lon="-2.46762">
        <ele>26</ele>
        <time>2014-10-20T12:44:45.1Z</time>
      </trkpt>
      <trkpt lat="48.64418" lon="-2.46762">
        <ele>26</ele>
        <time>2014-10-20T12:44:47.1Z</time>
      </trkpt>
      <trkpt lat="48.64417" lon="-2.46762">
        <ele>26</ele>
        <time>2014-10-20T12:44:49.1Z</time>
      </trkpt>
      <trkpt lat="48.64413" lon="-2.46762">
        <ele>26</ele>
        <time>2014-10-20T12:44:52.1Z</time>
      </trkpt>
      <trkpt lat="48.64411" lon="-2.46762">
        <ele>26</ele>
        <time>2014-10-20T12:44:54.1Z</time>
      </trkpt>
      <trkpt lat="48.64407" lon="-2.46761">
        <ele>27</ele>
        <time>2014-10-20T12:44:57.1Z</time>
      </trkpt>
      <trkpt lat="48.64405" lon="-2.4676">
        <ele>26</ele>
        <time>2014-10-20T12:44:59.1Z</time>
      </trkpt>
      <trkpt lat="48.644" lon="-2.4676">
        <ele>27</ele>
        <time>2014-10-20T12:45:02.1Z</time>
      </trkpt>
      <trkpt lat="48.64398" lon="-2.46759">
        <ele>27</ele>
        <time>2014-10-20T12:45:05.1Z</time>
      </trkpt>
      <trkpt lat="48.64395" lon="-2.46759">
        <ele>27</ele>
        <time>2014-10-20T12:45:08.1Z</time>
      </trkpt>
      <trkpt lat="48.64391" lon="-2.46757">
        <ele>27</ele>
        <time>2014-10-20T12:45:10.1Z</time>
      </trkpt>
      <trkpt lat="48.64387" lon="-2.46757">
        <ele>27</ele>
        <time>2014-10-20T12:45:13.1Z</time>
      </trkpt>
      <trkpt lat="48.64383" lon="-2.46756">
        <ele>28</ele>
        <time>2014-10-20T12:45:16.1Z</time>
      </trkpt>
      <trkpt lat="48.64381" lon="-2.46756">
        <ele>28</ele>
        <time>2014-10-20T12:45:19.1Z</time>
      </trkpt>
      <trkpt lat="48.64377" lon="-2.46756">
        <ele>28</ele>
        <time>2014-10-20T12:45:21.1Z</time>
      </trkpt>
      <trkpt lat="48.64375" lon="-2.46756">
        <ele>28</ele>
        <time>2014-10-20T12:45:23.1Z</time>
      </trkpt>
      <trkpt lat="48.64371" lon="-2.46755">
        <ele>29</ele>
        <time>2014-10-20T12:45:26.1Z</time>
      </trkpt>
      <trkpt lat="48.64368" lon="-2.46754">
        <ele>29</ele>
        <time>2014-10-20T12:45:28.1Z</time>
      </trkpt>
      <trkpt lat="48.64365" lon="-2.46754">
        <ele>29</ele>
        <time>2014-10-20T12:45:30.1Z</time>
      </trkpt>
      <trkpt lat="48.64362" lon="-2.46754">
        <ele>29</ele>
        <time>2014-10-20T12:45:33.1Z</time>
      </trkpt>
      <trkpt lat="48.6436" lon="-2.46754">
        <ele>29</ele>
        <time>2014-10-20T12:45:35.1Z</time>
      </trkpt>
      <trkpt lat="48.64356" lon="-2.46754">
        <ele>29</ele>
        <time>2014-10-20T12:45:38.1Z</time>
      </trkpt>
      <trkpt lat="48.64353" lon="-2.46754">
        <ele>29</ele>
        <time>2014-10-20T12:45:40.1Z</time>
      </trkpt>
      <trkpt lat="48.64349" lon="-2.46753">
        <ele>29</ele>
        <time>2014-10-20T12:45:43.1Z</time>
      </trkpt>
      <trkpt lat="48.64347" lon="-2.46754">
        <ele>29</ele>
        <time>2014-10-20T12:45:45.1Z</time>
      </trkpt>
      <trkpt lat="48.64344" lon="-2.46755">
        <ele>29</ele>
        <time>2014-10-20T12:45:48.1Z</time>
      </trkpt>
      <trkpt lat="48.64341" lon="-2.46755">
        <ele>29</ele>
        <time>2014-10-20T12:45:50.1Z</time>
      </trkpt>
      <trkpt lat="48.64338" lon="-2.46755">
        <ele>29</ele>
        <time>2014-10-20T12:45:53.1Z</time>
      </trkpt>
      <trkpt lat="48.64336" lon="-2.46756">
        <ele>29</ele>
        <time>2014-10-20T12:45:55.1Z</time>
      </trkpt>
      <trkpt lat="48.64334" lon="-2.46756">
        <ele>29</ele>
        <time>2014-10-20T12:45:58.1Z</time>
      </trkpt>
      <trkpt lat="48.64333" lon="-2.46759">
        <ele>29</ele>
        <time>2014-10-20T12:46:01.1Z</time>
      </trkpt>
      <trkpt lat="48.6433" lon="-2.46763">
        <ele>29</ele>
        <time>2014-10-20T12:46:03.1Z</time>
      </trkpt>
      <trkpt lat="48.64328" lon="-2.46767">
        <ele>29</ele>
        <time>2014-10-20T12:46:05.1Z</time>
      </trkpt>
      <trkpt lat="48.64326" lon="-2.4677">
        <ele>30</ele>
        <time>2014-10-20T12:46:08.1Z</time>
      </trkpt>
      <trkpt lat="48.64325" lon="-2.46774">
        <ele>30</ele>
        <time>2014-10-20T12:46:10.1Z</time>
      </trkpt>
      <trkpt lat="48.64323" lon="-2.46777">
        <ele>30</ele>
        <time>2014-10-20T12:46:13.1Z</time>
      </trkpt>
      <trkpt lat="48.64322" lon="-2.4678">
        <ele>30</ele>
        <time>2014-10-20T12:46:15.1Z</time>
      </trkpt>
      <trkpt lat="48.6432" lon="-2.46785">
        <ele>30</ele>
        <time>2014-10-20T12:46:17.1Z</time>
      </trkpt>
      <trkpt lat="48.64318" lon="-2.4679">
        <ele>31</ele>
        <time>2014-10-20T12:46:20.1Z</time>
      </trkpt>
      <trkpt lat="48.64317" lon="-2.46794">
        <ele>31</ele>
        <time>2014-10-20T12:46:22.1Z</time>
      </trkpt>
      <trkpt lat="48.64316" lon="-2.46799">
        <ele>31</ele>
        <time>2014-10-20T12:46:26.1Z</time>
      </trkpt>
      <trkpt lat="48.64316" lon="-2.46804">
        <ele>31</ele>
        <time>2014-10-20T12:46:28.1Z</time>
      </trkpt>
      <trkpt lat="48.64316" lon="-2.4681">
        <ele>31</ele>
        <time>2014-10-20T12:46:31.1Z</time>
      </trkpt>
      <trkpt lat="48.64315" lon="-2.46815">
        <ele>30</ele>
        <time>2014-10-20T12:46:34.1Z</time>
      </trkpt>
      <trkpt lat="48.64315" lon="-2.46819">
        <ele>30</ele>
        <time>2014-10-20T12:46:36.1Z</time>
      </trkpt>
      <trkpt lat="48.64315" lon="-2.46824">
        <ele>30</ele>
        <time>2014-10-20T12:46:39.1Z</time>
      </trkpt>
      <trkpt lat="48.64315" lon="-2.4683">
        <ele>30</ele>
        <time>2014-10-20T12:46:42.1Z</time>
      </trkpt>
      <trkpt lat="48.64316" lon="-2.46833">
        <ele>30</ele>
        <time>2014-10-20T12:46:45.1Z</time>
      </trkpt>
      <trkpt lat="48.64316" lon="-2.46838">
        <ele>30</ele>
        <time>2014-10-20T12:46:47.1Z</time>
      </trkpt>
      <trkpt lat="48.64316" lon="-2.46843">
        <ele>30</ele>
        <time>2014-10-20T12:46:50.1Z</time>
      </trkpt>
      <trkpt lat="48.64316" lon="-2.46847">
        <ele>30</ele>
        <time>2014-10-20T12:46:52.1Z</time>
      </trkpt>
      <trkpt lat="48.64317" lon="-2.46852">
        <ele>31</ele>
        <time>2014-10-20T12:46:55.1Z</time>
      </trkpt>
      <trkpt lat="48.64317" lon="-2.46857">
        <ele>31</ele>
        <time>2014-10-20T12:46:59.1Z</time>
      </trkpt>
      <trkpt lat="48.64316" lon="-2.46862">
        <ele>31</ele>
        <time>2014-10-20T12:47:01.1Z</time>
      </trkpt>
      <trkpt lat="48.64316" lon="-2.46868">
        <ele>30</ele>
        <time>2014-10-20T12:47:04.1Z</time>
      </trkpt>
      <trkpt lat="48.64315" lon="-2.46872">
        <ele>30</ele>
        <time>2014-10-20T12:47:07.1Z</time>
      </trkpt>
      <trkpt lat="48.64315" lon="-2.46876">
        <ele>30</ele>
        <time>2014-10-20T12:47:09.1Z</time>
      </trkpt>
      <trkpt lat="48.64315" lon="-2.46882">
        <ele>30</ele>
        <time>2014-10-20T12:47:12.1Z</time>
      </trkpt>
      <trkpt lat="48.64316" lon="-2.46886">
        <ele>30</ele>
        <time>2014-10-20T12:47:15.1Z</time>
      </trkpt>
      <trkpt lat="48.64315" lon="-2.46892">
        <ele>30</ele>
        <time>2014-10-20T12:47:17.1Z</time>
      </trkpt>
      <trkpt lat="48.64315" lon="-2.46895">
        <ele>30</ele>
        <time>2014-10-20T12:47:19.1Z</time>
      </trkpt>
      <trkpt lat="48.64315" lon="-2.46901">
        <ele>30</ele>
        <time>2014-10-20T12:47:22.1Z</time>
      </trkpt>
      <trkpt lat="48.64316" lon="-2.46905">
        <ele>31</ele>
        <time>2014-10-20T12:47:24.1Z</time>
      </trkpt>
      <trkpt lat="48.64316" lon="-2.46911">
        <ele>31</ele>
        <time>2014-10-20T12:47:27.1Z</time>
      </trkpt>
      <trkpt lat="48.64316" lon="-2.46915">
        <ele>31</ele>
        <time>2014-10-20T12:47:30.1Z</time>
      </trkpt>
      <trkpt lat="48.64317" lon="-2.46919">
        <ele>31</ele>
        <time>2014-10-20T12:47:32.1Z</time>
      </trkpt>
      <trkpt lat="48.64317" lon="-2.46923">
        <ele>31</ele>
        <time>2014-10-20T12:47:34.1Z</time>
      </trkpt>
      <trkpt lat="48.64317" lon="-2.46928">
        <ele>31</ele>
        <time>2014-10-20T12:47:37.1Z</time>
      </trkpt>
      <trkpt lat="48.64317" lon="-2.46932">
        <ele>32</ele>
        <time>2014-10-20T12:47:39.1Z</time>
      </trkpt>
      <trkpt lat="48.64317" lon="-2.46937">
        <ele>31</ele>
        <time>2014-10-20T12:47:42.1Z</time>
      </trkpt>
      <trkpt lat="48.64318" lon="-2.46939">
        <ele>31</ele>
        <time>2014-10-20T12:47:44.1Z</time>
      </trkpt>
      <trkpt lat="48.64317" lon="-2.46945">
        <ele>31</ele>
        <time>2014-10-20T12:47:47.1Z</time>
      </trkpt>
      <trkpt lat="48.64317" lon="-2.46948">
        <ele>31</ele>
        <time>2014-10-20T12:47:49.1Z</time>
      </trkpt>
      <trkpt lat="48.64317" lon="-2.46952">
        <ele>31</ele>
        <time>2014-10-20T12:47:51.1Z</time>
      </trkpt>
      <trkpt lat="48.64317" lon="-2.46956">
        <ele>31</ele>
        <time>2014-10-20T12:47:53.1Z</time>
      </trkpt>
      <trkpt lat="48.64317" lon="-2.46961">
        <ele>32</ele>
        <time>2014-10-20T12:47:56.1Z</time>
      </trkpt>
      <trkpt lat="48.64317" lon="-2.46965">
        <ele>32</ele>
        <time>2014-10-20T12:47:58.1Z</time>
      </trkpt>
      <trkpt lat="48.64316" lon="-2.4697">
        <ele>31</ele>
        <time>2014-10-20T12:48:01.1Z</time>
      </trkpt>
      <trkpt lat="48.64315" lon="-2.46975">
        <ele>31</ele>
        <time>2014-10-20T12:48:03.1Z</time>
      </trkpt>
      <trkpt lat="48.64315" lon="-2.46981">
        <ele>32</ele>
        <time>2014-10-20T12:48:06.1Z</time>
      </trkpt>
      <trkpt lat="48.64315" lon="-2.46985">
        <ele>33</ele>
        <time>2014-10-20T12:48:08.1Z</time>
      </trkpt>
      <trkpt lat="48.64315" lon="-2.46988">
        <ele>34</ele>
        <time>2014-10-20T12:48:10.1Z</time>
      </trkpt>
      <trkpt lat="48.64315" lon="-2.46994">
        <ele>33</ele>
        <time>2014-10-20T12:48:13.1Z</time>
      </trkpt>
      <trkpt lat="48.64315" lon="-2.46999">
        <ele>33</ele>
        <time>2014-10-20T12:48:16.1Z</time>
      </trkpt>
      <trkpt lat="48.64315" lon="-2.47003">
        <ele>33</ele>
        <time>2014-10-20T12:48:18.1Z</time>
      </trkpt>
      <trkpt lat="48.64315" lon="-2.47008">
        <ele>33</ele>
        <time>2014-10-20T12:48:21.1Z</time>
      </trkpt>
      <trkpt lat="48.64315" lon="-2.47011">
        <ele>33</ele>
        <time>2014-10-20T12:48:23.1Z</time>
      </trkpt>
      <trkpt lat="48.64315" lon="-2.47014">
        <ele>32</ele>
        <time>2014-10-20T12:48:25.1Z</time>
      </trkpt>
      <trkpt lat="48.64315" lon="-2.47018">
        <ele>31</ele>
        <time>2014-10-20T12:48:28.1Z</time>
      </trkpt>
      <trkpt lat="48.64314" lon="-2.47024">
        <ele>31</ele>
        <time>2014-10-20T12:48:30.1Z</time>
      </trkpt>
      <trkpt lat="48.64314" lon="-2.47027">
        <ele>31</ele>
        <time>2014-10-20T12:48:32.1Z</time>
      </trkpt>
      <trkpt lat="48.64313" lon="-2.47031">
        <ele>31</ele>
        <time>2014-10-20T12:48:34.1Z</time>
      </trkpt>
      <trkpt lat="48.64312" lon="-2.47036">
        <ele>32</ele>
        <time>2014-10-20T12:48:37.1Z</time>
      </trkpt>
      <trkpt lat="48.64311" lon="-2.4704">
        <ele>32</ele>
        <time>2014-10-20T12:48:39.1Z</time>
      </trkpt>
      <trkpt lat="48.6431" lon="-2.47043">
        <ele>32</ele>
        <time>2014-10-20T12:48:42.1Z</time>
      </trkpt>
      <trkpt lat="48.64308" lon="-2.47047">
        <ele>32</ele>
        <time>2014-10-20T12:48:44.1Z</time>
      </trkpt>
      <trkpt lat="48.64306" lon="-2.4705">
        <ele>32</ele>
        <time>2014-10-20T12:48:46.1Z</time>
      </trkpt>
      <trkpt lat="48.64304" lon="-2.47054">
        <ele>32</ele>
        <time>2014-10-20T12:48:49.1Z</time>
      </trkpt>
      <trkpt lat="48.64302" lon="-2.47057">
        <ele>32</ele>
        <time>2014-10-20T12:48:52.1Z</time>
      </trkpt>
      <trkpt lat="48.643" lon="-2.4706">
        <ele>32</ele>
        <time>2014-10-20T12:48:54.1Z</time>
      </trkpt>
      <trkpt lat="48.64298" lon="-2.47063">
        <ele>32</ele>
        <time>2014-10-20T12:48:57.1Z</time>
      </trkpt>
      <trkpt lat="48.64296" lon="-2.47066">
        <ele>33</ele>
        <time>2014-10-20T12:49:00.1Z</time>
      </trkpt>
      <trkpt lat="48.64294" lon="-2.47068">
        <ele>33</ele>
        <time>2014-10-20T12:49:02.1Z</time>
      </trkpt>
      <trkpt lat="48.64293" lon="-2.47069">
        <ele>33</ele>
        <time>2014-10-20T12:49:04.1Z</time>
      </trkpt>
      <trkpt lat="48.64291" lon="-2.47071">
        <ele>33</ele>
        <time>2014-10-20T12:49:07.1Z</time>
      </trkpt>
      <trkpt lat="48.64291" lon="-2.47072">
        <ele>33</ele>
        <time>2014-10-20T12:49:09.1Z</time>
      </trkpt>
      <trkpt lat="48.64291" lon="-2.47072">
        <ele>33</ele>
        <time>2014-10-20T12:49:12.1Z</time>
      </trkpt>
      <trkpt lat="48.6429" lon="-2.47072">
        <ele>33</ele>
        <time>2014-10-20T12:49:15.1Z</time>
      </trkpt>
      <trkpt lat="48.6429" lon="-2.47071">
        <ele>33</ele>
        <time>2014-10-20T12:49:17.1Z</time>
      </trkpt>
      <trkpt lat="48.64291" lon="-2.4707">
        <ele>33</ele>
        <time>2014-10-20T12:49:19.1Z</time>
      </trkpt>
      <trkpt lat="48.64294" lon="-2.47071">
        <ele>33</ele>
        <time>2014-10-20T12:49:22.1Z</time>
      </trkpt>
      <trkpt lat="48.64296" lon="-2.47073">
        <ele>32</ele>
        <time>2014-10-20T12:49:24.1Z</time>
      </trkpt>
      <trkpt lat="48.64296" lon="-2.47074">
        <ele>32</ele>
        <time>2014-10-20T12:49:26.1Z</time>
      </trkpt>
      <trkpt lat="48.64297" lon="-2.47074">
        <ele>32</ele>
        <time>2014-10-20T12:49:29.1Z</time>
      </trkpt>
      <trkpt lat="48.64297" lon="-2.47074">
        <ele>32</ele>
        <time>2014-10-20T12:49:31.1Z</time>
      </trkpt>
      <trkpt lat="48.64298" lon="-2.47074">
        <ele>32</ele>
        <time>2014-10-20T12:49:33.1Z</time>
      </trkpt>
      <trkpt lat="48.64299" lon="-2.47074">
        <ele>33</ele>
        <time>2014-10-20T12:49:35.1Z</time>
      </trkpt>
      <trkpt lat="48.643" lon="-2.47074">
        <ele>32</ele>
        <time>2014-10-20T12:49:38.1Z</time>
      </trkpt>
      <trkpt lat="48.64301" lon="-2.47073">
        <ele>32</ele>
        <time>2014-10-20T12:49:41.1Z</time>
      </trkpt>
      <trkpt lat="48.64302" lon="-2.47072">
        <ele>33</ele>
        <time>2014-10-20T12:49:44.1Z</time>
      </trkpt>
      <trkpt lat="48.64302" lon="-2.47071">
        <ele>33</ele>
        <time>2014-10-20T12:49:46.1Z</time>
      </trkpt>
      <trkpt lat="48.64301" lon="-2.4707">
        <ele>33</ele>
        <time>2014-10-20T12:49:48.1Z</time>
      </trkpt>
      <trkpt lat="48.643" lon="-2.47067">
        <ele>33</ele>
        <time>2014-10-20T12:49:51.1Z</time>
      </trkpt>
      <trkpt lat="48.64297" lon="-2.47067">
        <ele>33</ele>
        <time>2014-10-20T12:49:54.1Z</time>
      </trkpt>
      <trkpt lat="48.64296" lon="-2.47068">
        <ele>33</ele>
        <time>2014-10-20T12:49:56.1Z</time>
      </trkpt>
      <trkpt lat="48.64296" lon="-2.47068">
        <ele>33</ele>
        <time>2014-10-20T12:49:58.1Z</time>
      </trkpt>
      <trkpt lat="48.64295" lon="-2.47069">
        <ele>33</ele>
        <time>2014-10-20T12:50:01.1Z</time>
      </trkpt>
      <trkpt lat="48.64294" lon="-2.47069">
        <ele>33</ele>
        <time>2014-10-20T12:50:03.1Z</time>
      </trkpt>
      <trkpt lat="48.64292" lon="-2.47069">
        <ele>33</ele>
        <time>2014-10-20T12:50:06.1Z</time>
      </trkpt>
      <trkpt lat="48.64291" lon="-2.47069">
        <ele>34</ele>
        <time>2014-10-20T12:50:10.1Z</time>
      </trkpt>
      <trkpt lat="48.64291" lon="-2.47068">
        <ele>34</ele>
        <time>2014-10-20T12:50:12.1Z</time>
      </trkpt>
      <trkpt lat="48.64291" lon="-2.47068">
        <ele>35</ele>
        <time>2014-10-20T12:50:15.1Z</time>
      </trkpt>
      <trkpt lat="48.64291" lon="-2.47068">
        <ele>35</ele>
        <time>2014-10-20T12:50:17.1Z</time>
      </trkpt>
      <trkpt lat="48.64291" lon="-2.47068">
        <ele>34</ele>
        <time>2014-10-20T12:50:19.1Z</time>
      </trkpt>
      <trkpt lat="48.6429" lon="-2.47069">
        <ele>34</ele>
        <time>2014-10-20T12:50:21.1Z</time>
      </trkpt>
      <trkpt lat="48.6429" lon="-2.47069">
        <ele>34</ele>
        <time>2014-10-20T12:50:24.1Z</time>
      </trkpt>
      <trkpt lat="48.6429" lon="-2.4707">
        <ele>34</ele>
        <time>2014-10-20T12:50:26.1Z</time>
      </trkpt>
      <trkpt lat="48.64289" lon="-2.4707">
        <ele>34</ele>
        <time>2014-10-20T12:50:28.1Z</time>
      </trkpt>
      <trkpt lat="48.64289" lon="-2.47071">
        <ele>34</ele>
        <time>2014-10-20T12:50:31.1Z</time>
      </trkpt>
      <trkpt lat="48.64289" lon="-2.47071">
        <ele>34</ele>
        <time>2014-10-20T12:50:33.1Z</time>
      </trkpt>
      <trkpt lat="48.64289" lon="-2.47072">
        <ele>34</ele>
        <time>2014-10-20T12:50:36.1Z</time>
      </trkpt>
      <trkpt lat="48.64289" lon="-2.47073">
        <ele>33</ele>
        <time>2014-10-20T12:50:39.1Z</time>
      </trkpt>
      <trkpt lat="48.64289" lon="-2.47073">
        <ele>33</ele>
        <time>2014-10-20T12:50:42.1Z</time>
      </trkpt>
      <trkpt lat="48.64289" lon="-2.47074">
        <ele>33</ele>
        <time>2014-10-20T12:50:45.1Z</time>
      </trkpt>
      <trkpt lat="48.64289" lon="-2.47074">
        <ele>34</ele>
        <time>2014-10-20T12:50:47.1Z</time>
      </trkpt>
      <trkpt lat="48.64289" lon="-2.47074">
        <ele>34</ele>
        <time>2014-10-20T12:50:49.1Z</time>
      </trkpt>
      <trkpt lat="48.64289" lon="-2.47074">
        <ele>35</ele>
        <time>2014-10-20T12:50:55.1Z</time>
      </trkpt>
      <trkpt lat="48.64289" lon="-2.47074">
        <ele>35</ele>
        <time>2014-10-20T12:50:57.1Z</time>
      </trkpt>
      <trkpt lat="48.64288" lon="-2.47074">
        <ele>34</ele>
        <time>2014-10-20T12:51:00.1Z</time>
      </trkpt>
      <trkpt lat="48.64288" lon="-2.47074">
        <ele>34</ele>
        <time>2014-10-20T12:51:02.1Z</time>
      </trkpt>
      <trkpt lat="48.64289" lon="-2.47074">
        <ele>35</ele>
        <time>2014-10-20T12:51:05.1Z</time>
      </trkpt>
      <trkpt lat="48.64288" lon="-2.47075">
        <ele>35</ele>
        <time>2014-10-20T12:51:07.1Z</time>
      </trkpt>
      <trkpt lat="48.64288" lon="-2.47075">
        <ele>34</ele>
        <time>2014-10-20T12:51:09.1Z</time>
      </trkpt>
      <trkpt lat="48.64288" lon="-2.47075">
        <ele>34</ele>
        <time>2014-10-20T12:51:12.1Z</time>
      </trkpt>
      <trkpt lat="48.64288" lon="-2.47075">
        <ele>34</ele>
        <time>2014-10-20T12:51:16.1Z</time>
      </trkpt>
      <trkpt lat="48.64288" lon="-2.47075">
        <ele>34</ele>
        <time>2014-10-20T12:51:18.1Z</time>
      </trkpt>
      <trkpt lat="48.64288" lon="-2.47075">
        <ele>34</ele>
        <time>2014-10-20T12:51:21.1Z</time>
      </trkpt>
      <trkpt lat="48.64288" lon="-2.47075">
        <ele>34</ele>
        <time>2014-10-20T12:51:24.1Z</time>
      </trkpt>
      <trkpt lat="48.64288" lon="-2.47075">
        <ele>34</ele>
        <time>2014-10-20T12:51:29.1Z</time>
      </trkpt>
      <trkpt lat="48.64288" lon="-2.47075">
        <ele>35</ele>
        <time>2014-10-20T12:51:32.1Z</time>
      </trkpt>
      <trkpt lat="48.64288" lon="-2.47075">
        <ele>35</ele>
        <time>2014-10-20T12:51:36.1Z</time>
      </trkpt>
      <trkpt lat="48.64288" lon="-2.47075">
        <ele>35</ele>
        <time>2014-10-20T12:51:38.1Z</time>
      </trkpt>
      <trkpt lat="48.64288" lon="-2.47075">
        <ele>35</ele>
        <time>2014-10-20T12:51:41.1Z</time>
      </trkpt>
      <trkpt lat="48.64288" lon="-2.47075">
        <ele>35</ele>
        <time>2014-10-20T12:51:43.1Z</time>
      </trkpt>
      <trkpt lat="48.64288" lon="-2.47075">
        <ele>34</ele>
        <time>2014-10-20T12:51:46.1Z</time>
      </trkpt>
      <trkpt lat="48.64288" lon="-2.47076">
        <ele>34</ele>
        <time>2014-10-20T12:51:48.1Z</time>
      </trkpt>
      <trkpt lat="48.64288" lon="-2.47076">
        <ele>34</ele>
        <time>2014-10-20T12:51:51.1Z</time>
      </trkpt>
      <trkpt lat="48.64287" lon="-2.47075">
        <ele>34</ele>
        <time>2014-10-20T12:51:53.1Z</time>
      </trkpt>
      <trkpt lat="48.64287" lon="-2.47075">
        <ele>34</ele>
        <time>2014-10-20T12:51:56.1Z</time>
      </trkpt>
      <trkpt lat="48.64286" lon="-2.47076">
        <ele>34</ele>
        <time>2014-10-20T12:51:58.1Z</time>
      </trkpt>
      <trkpt lat="48.64284" lon="-2.47078">
        <ele>34</ele>
        <time>2014-10-20T12:52:01.1Z</time>
      </trkpt>
      <trkpt lat="48.64281" lon="-2.47079">
        <ele>34</ele>
        <time>2014-10-20T12:52:04.1Z</time>
      </trkpt>
      <trkpt lat="48.6428" lon="-2.4708">
        <ele>34</ele>
        <time>2014-10-20T12:52:06.1Z</time>
      </trkpt>
      <trkpt lat="48.64277" lon="-2.47081">
        <ele>34</ele>
        <time>2014-10-20T12:52:09.1Z</time>
      </trkpt>
      <trkpt lat="48.64275" lon="-2.4708">
        <ele>34</ele>
        <time>2014-10-20T12:52:12.1Z</time>
      </trkpt>
      <trkpt lat="48.64273" lon="-2.4708">
        <ele>34</ele>
        <time>2014-10-20T12:52:14.1Z</time>
      </trkpt>
      <trkpt lat="48.6427" lon="-2.4708">
        <ele>34</ele>
        <time>2014-10-20T12:52:17.1Z</time>
      </trkpt>
      <trkpt lat="48.64268" lon="-2.4708">
        <ele>34</ele>
        <time>2014-10-20T12:52:19.1Z</time>
      </trkpt>
      <trkpt lat="48.64266" lon="-2.47081">
        <ele>35</ele>
        <time>2014-10-20T12:52:22.1Z</time>
      </trkpt>
      <trkpt lat="48.64264" lon="-2.47082">
        <ele>35</ele>
        <time>2014-10-20T12:52:25.1Z</time>
      </trkpt>
      <trkpt lat="48.64261" lon="-2.47083">
        <ele>35</ele>
        <time>2014-10-20T12:52:27.1Z</time>
      </trkpt>
      <trkpt lat="48.64259" lon="-2.47083">
        <ele>34</ele>
        <time>2014-10-20T12:52:29.1Z</time>
      </trkpt>
      <trkpt lat="48.64257" lon="-2.47083">
        <ele>34</ele>
        <time>2014-10-20T12:52:32.1Z</time>
      </trkpt>
      <trkpt lat="48.64254" lon="-2.47083">
        <ele>35</ele>
        <time>2014-10-20T12:52:35.1Z</time>
      </trkpt>
      <trkpt lat="48.64251" lon="-2.47085">
        <ele>35</ele>
        <time>2014-10-20T12:52:38.1Z</time>
      </trkpt>
      <trkpt lat="48.64248" lon="-2.47086">
        <ele>35</ele>
        <time>2014-10-20T12:52:41.1Z</time>
      </trkpt>
      <trkpt lat="48.64245" lon="-2.47087">
        <ele>35</ele>
        <time>2014-10-20T12:52:44.1Z</time>
      </trkpt>
      <trkpt lat="48.64241" lon="-2.47087">
        <ele>35</ele>
        <time>2014-10-20T12:52:47.1Z</time>
      </trkpt>
      <trkpt lat="48.64238" lon="-2.47088">
        <ele>35</ele>
        <time>2014-10-20T12:52:50.1Z</time>
      </trkpt>
      <trkpt lat="48.64234" lon="-2.47088">
        <ele>35</ele>
        <time>2014-10-20T12:52:53.1Z</time>
      </trkpt>
      <trkpt lat="48.64231" lon="-2.47087">
        <ele>35</ele>
        <time>2014-10-20T12:52:56.1Z</time>
      </trkpt>
      <trkpt lat="48.64228" lon="-2.47087">
        <ele>36</ele>
        <time>2014-10-20T12:52:58.1Z</time>
      </trkpt>
      <trkpt lat="48.64225" lon="-2.47086">
        <ele>36</ele>
        <time>2014-10-20T12:53:01.1Z</time>
      </trkpt>
      <trkpt lat="48.64222" lon="-2.47085">
        <ele>36</ele>
        <time>2014-10-20T12:53:03.1Z</time>
      </trkpt>
      <trkpt lat="48.64219" lon="-2.47084">
        <ele>36</ele>
        <time>2014-10-20T12:53:06.1Z</time>
      </trkpt>
      <trkpt lat="48.64216" lon="-2.47085">
        <ele>36</ele>
        <time>2014-10-20T12:53:09.1Z</time>
      </trkpt>
      <trkpt lat="48.64213" lon="-2.47085">
        <ele>36</ele>
        <time>2014-10-20T12:53:12.1Z</time>
      </trkpt>
      <trkpt lat="48.64211" lon="-2.47086">
        <ele>36</ele>
        <time>2014-10-20T12:53:15.1Z</time>
      </trkpt>
      <trkpt lat="48.64209" lon="-2.47086">
        <ele>36</ele>
        <time>2014-10-20T12:53:17.1Z</time>
      </trkpt>
      <trkpt lat="48.64207" lon="-2.47086">
        <ele>36</ele>
        <time>2014-10-20T12:53:19.1Z</time>
      </trkpt>
      <trkpt lat="48.64204" lon="-2.47086">
        <ele>36</ele>
        <time>2014-10-20T12:53:22.1Z</time>
      </trkpt>
      <trkpt lat="48.64202" lon="-2.47086">
        <ele>36</ele>
        <time>2014-10-20T12:53:24.1Z</time>
      </trkpt>
      <trkpt lat="48.64201" lon="-2.47086">
        <ele>36</ele>
        <time>2014-10-20T12:53:26.1Z</time>
      </trkpt>
      <trkpt lat="48.64198" lon="-2.47085">
        <ele>36</ele>
        <time>2014-10-20T12:53:29.1Z</time>
      </trkpt>
      <trkpt lat="48.64196" lon="-2.47085">
        <ele>37</ele>
        <time>2014-10-20T12:53:31.1Z</time>
      </trkpt>
      <trkpt lat="48.64194" lon="-2.47084">
        <ele>37</ele>
        <time>2014-10-20T12:53:33.1Z</time>
      </trkpt>
      <trkpt lat="48.64191" lon="-2.47084">
        <ele>37</ele>
        <time>2014-10-20T12:53:36.1Z</time>
      </trkpt>
      <trkpt lat="48.64189" lon="-2.47083">
        <ele>37</ele>
        <time>2014-10-20T12:53:38.1Z</time>
      </trkpt>
      <trkpt lat="48.64186" lon="-2.47084">
        <ele>37</ele>
        <time>2014-10-20T12:53:40.1Z</time>
      </trkpt>
      <trkpt lat="48.64182" lon="-2.47085">
        <ele>38</ele>
        <time>2014-10-20T12:53:43.1Z</time>
      </trkpt>
      <trkpt lat="48.6418" lon="-2.47087">
        <ele>37</ele>
        <time>2014-10-20T12:53:45.1Z</time>
      </trkpt>
      <trkpt lat="48.64178" lon="-2.47089">
        <ele>38</ele>
        <time>2014-10-20T12:53:47.1Z</time>
      </trkpt>
      <trkpt lat="48.64176" lon="-2.47095">
        <ele>38</ele>
        <time>2014-10-20T12:53:50.1Z</time>
      </trkpt>
      <trkpt lat="48.64174" lon="-2.471">
        <ele>38</ele>
        <time>2014-10-20T12:53:53.1Z</time>
      </trkpt>
      <trkpt lat="48.64173" lon="-2.47104">
        <ele>38</ele>
        <time>2014-10-20T12:53:55.1Z</time>
      </trkpt>
      <trkpt lat="48.64173" lon="-2.47109">
        <ele>38</ele>
        <time>2014-10-20T12:53:58.1Z</time>
      </trkpt>
      <trkpt lat="48.64173" lon="-2.47114">
        <ele>38</ele>
        <time>2014-10-20T12:54:00.1Z</time>
      </trkpt>
      <trkpt lat="48.64172" lon="-2.47118">
        <ele>39</ele>
        <time>2014-10-20T12:54:02.1Z</time>
      </trkpt>
      <trkpt lat="48.64171" lon="-2.47124">
        <ele>39</ele>
        <time>2014-10-20T12:54:05.1Z</time>
      </trkpt>
      <trkpt lat="48.6417" lon="-2.4713">
        <ele>39</ele>
        <time>2014-10-20T12:54:08.1Z</time>
      </trkpt>
      <trkpt lat="48.64169" lon="-2.47134">
        <ele>39</ele>
        <time>2014-10-20T12:54:11.1Z</time>
      </trkpt>
      <trkpt lat="48.64169" lon="-2.47141">
        <ele>38</ele>
        <time>2014-10-20T12:54:13.1Z</time>
      </trkpt>
      <trkpt lat="48.64168" lon="-2.47147">
        <ele>39</ele>
        <time>2014-10-20T12:54:16.1Z</time>
      </trkpt>
      <trkpt lat="48.64168" lon="-2.47152">
        <ele>39</ele>
        <time>2014-10-20T12:54:19.1Z</time>
      </trkpt>
      <trkpt lat="48.64168" lon="-2.47157">
        <ele>39</ele>
        <time>2014-10-20T12:54:21.1Z</time>
      </trkpt>
      <trkpt lat="48.64167" lon="-2.47161">
        <ele>39</ele>
        <time>2014-10-20T12:54:23.1Z</time>
      </trkpt>
      <trkpt lat="48.64167" lon="-2.47166">
        <ele>39</ele>
        <time>2014-10-20T12:54:26.1Z</time>
      </trkpt>
      <trkpt lat="48.64167" lon="-2.47172">
        <ele>41</ele>
        <time>2014-10-20T12:54:29.1Z</time>
      </trkpt>
      <trkpt lat="48.64166" lon="-2.47176">
        <ele>41</ele>
        <time>2014-10-20T12:54:31.1Z</time>
      </trkpt>
      <trkpt lat="48.64166" lon="-2.47182">
        <ele>41</ele>
        <time>2014-10-20T12:54:34.1Z</time>
      </trkpt>
      <trkpt lat="48.64165" lon="-2.47189">
        <ele>40</ele>
        <time>2014-10-20T12:54:37.1Z</time>
      </trkpt>
      <trkpt lat="48.64165" lon="-2.47194">
        <ele>39</ele>
        <time>2014-10-20T12:54:40.1Z</time>
      </trkpt>
      <trkpt lat="48.64164" lon="-2.47198">
        <ele>40</ele>
        <time>2014-10-20T12:54:42.1Z</time>
      </trkpt>
      <trkpt lat="48.64164" lon="-2.47202">
        <ele>40</ele>
        <time>2014-10-20T12:54:44.1Z</time>
      </trkpt>
      <trkpt lat="48.64164" lon="-2.47207">
        <ele>41</ele>
        <time>2014-10-20T12:54:47.1Z</time>
      </trkpt>
      <trkpt lat="48.64164" lon="-2.47211">
        <ele>41</ele>
        <time>2014-10-20T12:54:49.1Z</time>
      </trkpt>
      <trkpt lat="48.64164" lon="-2.47215">
        <ele>41</ele>
        <time>2014-10-20T12:54:51.1Z</time>
      </trkpt>
      <trkpt lat="48.64164" lon="-2.47221">
        <ele>41</ele>
        <time>2014-10-20T12:54:54.1Z</time>
      </trkpt>
      <trkpt lat="48.64164" lon="-2.47226">
        <ele>40</ele>
        <time>2014-10-20T12:54:57.1Z</time>
      </trkpt>
      <trkpt lat="48.64164" lon="-2.4723">
        <ele>40</ele>
        <time>2014-10-20T12:54:59.1Z</time>
      </trkpt>
      <trkpt lat="48.64164" lon="-2.47235">
        <ele>40</ele>
        <time>2014-10-20T12:55:01.1Z</time>
      </trkpt>
      <trkpt lat="48.64164" lon="-2.4724">
        <ele>41</ele>
        <time>2014-10-20T12:55:04.1Z</time>
      </trkpt>
      <trkpt lat="48.64163" lon="-2.47244">
        <ele>41</ele>
        <time>2014-10-20T12:55:06.1Z</time>
      </trkpt>
      <trkpt lat="48.64163" lon="-2.47251">
        <ele>41</ele>
        <time>2014-10-20T12:55:09.1Z</time>
      </trkpt>
      <trkpt lat="48.64163" lon="-2.47254">
        <ele>41</ele>
        <time>2014-10-20T12:55:11.1Z</time>
      </trkpt>
      <trkpt lat="48.64163" lon="-2.4726">
        <ele>40</ele>
        <time>2014-10-20T12:55:14.1Z</time>
      </trkpt>
      <trkpt lat="48.64164" lon="-2.47266">
        <ele>40</ele>
        <time>2014-10-20T12:55:17.1Z</time>
      </trkpt>
      <trkpt lat="48.64164" lon="-2.47271">
        <ele>40</ele>
        <time>2014-10-20T12:55:20.1Z</time>
      </trkpt>
      <trkpt lat="48.64164" lon="-2.47276">
        <ele>40</ele>
        <time>2014-10-20T12:55:23.1Z</time>
      </trkpt>
      <trkpt lat="48.64163" lon="-2.4728">
        <ele>40</ele>
        <time>2014-10-20T12:55:25.1Z</time>
      </trkpt>
      <trkpt lat="48.64163" lon="-2.47282">
        <ele>40</ele>
        <time>2014-10-20T12:55:27.1Z</time>
      </trkpt>
      <trkpt lat="48.64162" lon="-2.47283">
        <ele>39</ele>
        <time>2014-10-20T12:55:30.1Z</time>
      </trkpt>
      <trkpt lat="48.64164" lon="-2.47285">
        <ele>39</ele>
        <time>2014-10-20T12:55:33.1Z</time>
      </trkpt>
      <trkpt lat="48.64167" lon="-2.47287">
        <ele>38</ele>
        <time>2014-10-20T12:55:35.1Z</time>
      </trkpt>
      <trkpt lat="48.64168" lon="-2.47287">
        <ele>38</ele>
        <time>2014-10-20T12:55:38.1Z</time>
      </trkpt>
      <trkpt lat="48.64169" lon="-2.47287">
        <ele>38</ele>
        <time>2014-10-20T12:55:40.1Z</time>
      </trkpt>
      <trkpt lat="48.64169" lon="-2.47287">
        <ele>38</ele>
        <time>2014-10-20T12:55:43.1Z</time>
      </trkpt>
      <trkpt lat="48.64169" lon="-2.47287">
        <ele>38</ele>
        <time>2014-10-20T12:55:46.1Z</time>
      </trkpt>
      <trkpt lat="48.64169" lon="-2.47288">
        <ele>38</ele>
        <time>2014-10-20T12:55:48.1Z</time>
      </trkpt>
      <trkpt lat="48.64169" lon="-2.47294">
        <ele>38</ele>
        <time>2014-10-20T12:55:51.1Z</time>
      </trkpt>
      <trkpt lat="48.64169" lon="-2.47298">
        <ele>38</ele>
        <time>2014-10-20T12:55:53.1Z</time>
      </trkpt>
      <trkpt lat="48.64168" lon="-2.47304">
        <ele>38</ele>
        <time>2014-10-20T12:55:56.1Z</time>
      </trkpt>
      <trkpt lat="48.64168" lon="-2.4731">
        <ele>37</ele>
        <time>2014-10-20T12:55:59.1Z</time>
      </trkpt>
      <trkpt lat="48.64168" lon="-2.47313">
        <ele>38</ele>
        <time>2014-10-20T12:56:01.1Z</time>
      </trkpt>
      <trkpt lat="48.64168" lon="-2.47317">
        <ele>38</ele>
        <time>2014-10-20T12:56:04.1Z</time>
      </trkpt>
      <trkpt lat="48.64168" lon="-2.47324">
        <ele>37</ele>
        <time>2014-10-20T12:56:06.1Z</time>
      </trkpt>
      <trkpt lat="48.64166" lon="-2.47331">
        <ele>37</ele>
        <time>2014-10-20T12:56:09.1Z</time>
      </trkpt>
      <trkpt lat="48.64165" lon="-2.47335">
        <ele>37</ele>
        <time>2014-10-20T12:56:11.1Z</time>
      </trkpt>
      <trkpt lat="48.64165" lon="-2.47339">
        <ele>37</ele>
        <time>2014-10-20T12:56:13.1Z</time>
      </trkpt>
      <trkpt lat="48.64164" lon="-2.47345">
        <ele>38</ele>
        <time>2014-10-20T12:56:16.1Z</time>
      </trkpt>
      <trkpt lat="48.64164" lon="-2.47352">
        <ele>38</ele>
        <time>2014-10-20T12:56:19.1Z</time>
      </trkpt>
      <trkpt lat="48.64164" lon="-2.47357">
        <ele>38</ele>
        <time>2014-10-20T12:56:21.1Z</time>
      </trkpt>
      <trkpt lat="48.64165" lon="-2.47361">
        <ele>37</ele>
        <time>2014-10-20T12:56:23.1Z</time>
      </trkpt>
      <trkpt lat="48.64164" lon="-2.4737">
        <ele>37</ele>
        <time>2014-10-20T12:56:26.1Z</time>
      </trkpt>
      <trkpt lat="48.64164" lon="-2.47376">
        <ele>37</ele>
        <time>2014-10-20T12:56:29.1Z</time>
      </trkpt>
      <trkpt lat="48.64164" lon="-2.4738">
        <ele>37</ele>
        <time>2014-10-20T12:56:31.1Z</time>
      </trkpt>
      <trkpt lat="48.64163" lon="-2.47384">
        <ele>37</ele>
        <time>2014-10-20T12:56:34.1Z</time>
      </trkpt>
      <trkpt lat="48.64162" lon="-2.47385">
        <ele>37</ele>
        <time>2014-10-20T12:56:36.1Z</time>
      </trkpt>
      <trkpt lat="48.64159" lon="-2.47385">
        <ele>36</ele>
        <time>2014-10-20T12:56:39.1Z</time>
      </trkpt>
      <trkpt lat="48.64157" lon="-2.47382">
        <ele>36</ele>
        <time>2014-10-20T12:56:42.1Z</time>
      </trkpt>
      <trkpt lat="48.64155" lon="-2.47379">
        <ele>37</ele>
        <time>2014-10-20T12:56:45.1Z</time>
      </trkpt>
      <trkpt lat="48.64155" lon="-2.47379">
        <ele>37</ele>
        <time>2014-10-20T12:56:48.1Z</time>
      </trkpt>
      <trkpt lat="48.64152" lon="-2.4738">
        <ele>37</ele>
        <time>2014-10-20T12:56:50.1Z</time>
      </trkpt>
      <trkpt lat="48.64148" lon="-2.47383">
        <ele>37</ele>
        <time>2014-10-20T12:56:53.1Z</time>
      </trkpt>
      <trkpt lat="48.64145" lon="-2.47384">
        <ele>37</ele>
        <time>2014-10-20T12:56:56.1Z</time>
      </trkpt>
      <trkpt lat="48.64143" lon="-2.47385">
        <ele>37</ele>
        <time>2014-10-20T12:56:58.1Z</time>
      </trkpt>
      <trkpt lat="48.6414" lon="-2.47385">
        <ele>36</ele>
        <time>2014-10-20T12:57:01.1Z</time>
      </trkpt>
      <trkpt lat="48.64138" lon="-2.47384">
        <ele>35</ele>
        <time>2014-10-20T12:57:04.1Z</time>
      </trkpt>
      <trkpt lat="48.64133" lon="-2.47384">
        <ele>36</ele>
        <time>2014-10-20T12:57:07.1Z</time>
      </trkpt>
      <trkpt lat="48.64129" lon="-2.47384">
        <ele>36</ele>
        <time>2014-10-20T12:57:10.1Z</time>
      </trkpt>
      <trkpt lat="48.64126" lon="-2.47384">
        <ele>36</ele>
        <time>2014-10-20T12:57:12.1Z</time>
      </trkpt>
      <trkpt lat="48.64123" lon="-2.47384">
        <ele>35</ele>
        <time>2014-10-20T12:57:15.1Z</time>
      </trkpt>
      <trkpt lat="48.64119" lon="-2.47385">
        <ele>35</ele>
        <time>2014-10-20T12:57:18.1Z</time>
      </trkpt>
      <trkpt lat="48.64115" lon="-2.47385">
        <ele>35</ele>
        <time>2014-10-20T12:57:21.1Z</time>
      </trkpt>
      <trkpt lat="48.64112" lon="-2.47386">
        <ele>34</ele>
        <time>2014-10-20T12:57:24.1Z</time>
      </trkpt>
      <trkpt lat="48.64109" lon="-2.47387">
        <ele>34</ele>
        <time>2014-10-20T12:57:26.1Z</time>
      </trkpt>
      <trkpt lat="48.64106" lon="-2.47387">
        <ele>34</ele>
        <time>2014-10-20T12:57:29.1Z</time>
      </trkpt>
      <trkpt lat="48.64104" lon="-2.47387">
        <ele>34</ele>
        <time>2014-10-20T12:57:31.1Z</time>
      </trkpt>
      <trkpt lat="48.64101" lon="-2.47388">
        <ele>34</ele>
        <time>2014-10-20T12:57:34.1Z</time>
      </trkpt>
      <trkpt lat="48.64099" lon="-2.47389">
        <ele>34</ele>
        <time>2014-10-20T12:57:36.1Z</time>
      </trkpt>
      <trkpt lat="48.64096" lon="-2.4739">
        <ele>34</ele>
        <time>2014-10-20T12:57:39.1Z</time>
      </trkpt>
      <trkpt lat="48.64093" lon="-2.47391">
        <ele>34</ele>
        <time>2014-10-20T12:57:42.1Z</time>
      </trkpt>
      <trkpt lat="48.64091" lon="-2.47392">
        <ele>34</ele>
        <time>2014-10-20T12:57:44.1Z</time>
      </trkpt>
      <trkpt lat="48.64088" lon="-2.47393">
        <ele>33</ele>
        <time>2014-10-20T12:57:47.1Z</time>
      </trkpt>
      <trkpt lat="48.64085" lon="-2.47394">
        <ele>33</ele>
        <time>2014-10-20T12:57:50.1Z</time>
      </trkpt>
      <trkpt lat="48.64082" lon="-2.47395">
        <ele>33</ele>
        <time>2014-10-20T12:57:52.1Z</time>
      </trkpt>
      <trkpt lat="48.64079" lon="-2.47396">
        <ele>33</ele>
        <time>2014-10-20T12:57:55.1Z</time>
      </trkpt>
      <trkpt lat="48.64075" lon="-2.47397">
        <ele>34</ele>
        <time>2014-10-20T12:57:58.1Z</time>
      </trkpt>
      <trkpt lat="48.64073" lon="-2.47398">
        <ele>34</ele>
        <time>2014-10-20T12:58:00.1Z</time>
      </trkpt>
      <trkpt lat="48.64069" lon="-2.47399">
        <ele>34</ele>
        <time>2014-10-20T12:58:03.1Z</time>
      </trkpt>
      <trkpt lat="48.64065" lon="-2.474">
        <ele>34</ele>
        <time>2014-10-20T12:58:06.1Z</time>
      </trkpt>
      <trkpt lat="48.64062" lon="-2.47401">
        <ele>34</ele>
        <time>2014-10-20T12:58:09.1Z</time>
      </trkpt>
      <trkpt lat="48.64059" lon="-2.47401">
        <ele>34</ele>
        <time>2014-10-20T12:58:11.1Z</time>
      </trkpt>
      <trkpt lat="48.64056" lon="-2.47402">
        <ele>34</ele>
        <time>2014-10-20T12:58:14.1Z</time>
      </trkpt>
      <trkpt lat="48.64054" lon="-2.47403">
        <ele>34</ele>
        <time>2014-10-20T12:58:16.1Z</time>
      </trkpt>
      <trkpt lat="48.64051" lon="-2.47404">
        <ele>35</ele>
        <time>2014-10-20T12:58:19.1Z</time>
      </trkpt>
      <trkpt lat="48.64047" lon="-2.47404">
        <ele>35</ele>
        <time>2014-10-20T12:58:22.1Z</time>
      </trkpt>
      <trkpt lat="48.64045" lon="-2.47405">
        <ele>36</ele>
        <time>2014-10-20T12:58:24.1Z</time>
      </trkpt>
      <trkpt lat="48.64042" lon="-2.47406">
        <ele>36</ele>
        <time>2014-10-20T12:58:27.1Z</time>
      </trkpt>
      <trkpt lat="48.64038" lon="-2.47408">
        <ele>36</ele>
        <time>2014-10-20T12:58:30.1Z</time>
      </trkpt>
      <trkpt lat="48.64036" lon="-2.47409">
        <ele>36</ele>
        <time>2014-10-20T12:58:33.1Z</time>
      </trkpt>
      <trkpt lat="48.64033" lon="-2.4741">
        <ele>36</ele>
        <time>2014-10-20T12:58:36.1Z</time>
      </trkpt>
      <trkpt lat="48.64031" lon="-2.4741">
        <ele>36</ele>
        <time>2014-10-20T12:58:38.1Z</time>
      </trkpt>
      <trkpt lat="48.64027" lon="-2.47412">
        <ele>36</ele>
        <time>2014-10-20T12:58:41.1Z</time>
      </trkpt>
      <trkpt lat="48.64024" lon="-2.47412">
        <ele>36</ele>
        <time>2014-10-20T12:58:44.1Z</time>
      </trkpt>
      <trkpt lat="48.64022" lon="-2.47413">
        <ele>36</ele>
        <time>2014-10-20T12:58:46.1Z</time>
      </trkpt>
      <trkpt lat="48.64019" lon="-2.47413">
        <ele>36</ele>
        <time>2014-10-20T12:58:49.1Z</time>
      </trkpt>
      <trkpt lat="48.64016" lon="-2.47414">
        <ele>37</ele>
        <time>2014-10-20T12:58:52.1Z</time>
      </trkpt>
      <trkpt lat="48.64014" lon="-2.47414">
        <ele>37</ele>
        <time>2014-10-20T12:58:54.1Z</time>
      </trkpt>
      <trkpt lat="48.6401" lon="-2.47415">
        <ele>37</ele>
        <time>2014-10-20T12:58:57.1Z</time>
      </trkpt>
      <trkpt lat="48.64007" lon="-2.47415">
        <ele>37</ele>
        <time>2014-10-20T12:58:59.1Z</time>
      </trkpt>
      <trkpt lat="48.64003" lon="-2.47415">
        <ele>37</ele>
        <time>2014-10-20T12:59:02.1Z</time>
      </trkpt>
      <trkpt lat="48.64" lon="-2.47415">
        <ele>38</ele>
        <time>2014-10-20T12:59:05.1Z</time>
      </trkpt>
      <trkpt lat="48.63997" lon="-2.47416">
        <ele>38</ele>
        <time>2014-10-20T12:59:08.1Z</time>
      </trkpt>
      <trkpt lat="48.63994" lon="-2.47417">
        <ele>38</ele>
        <time>2014-10-20T12:59:10.1Z</time>
      </trkpt>
      <trkpt lat="48.6399" lon="-2.47417">
        <ele>38</ele>
        <time>2014-10-20T12:59:13.1Z</time>
      </trkpt>
      <trkpt lat="48.63987" lon="-2.47418">
        <ele>38</ele>
        <time>2014-10-20T12:59:16.1Z</time>
      </trkpt>
      <trkpt lat="48.63984" lon="-2.47419">
        <ele>38</ele>
        <time>2014-10-20T12:59:18.1Z</time>
      </trkpt>
      <trkpt lat="48.63981" lon="-2.4742">
        <ele>38</ele>
        <time>2014-10-20T12:59:21.1Z</time>
      </trkpt>
      <trkpt lat="48.63977" lon="-2.47421">
        <ele>38</ele>
        <time>2014-10-20T12:59:24.1Z</time>
      </trkpt>
      <trkpt lat="48.63976" lon="-2.47422">
        <ele>38</ele>
        <time>2014-10-20T12:59:26.1Z</time>
      </trkpt>
      <trkpt lat="48.63972" lon="-2.47423">
        <ele>38</ele>
        <time>2014-10-20T12:59:29.1Z</time>
      </trkpt>
      <trkpt lat="48.6397" lon="-2.47423">
        <ele>38</ele>
        <time>2014-10-20T12:59:31.1Z</time>
      </trkpt>
      <trkpt lat="48.63968" lon="-2.47424">
        <ele>38</ele>
        <time>2014-10-20T12:59:33.1Z</time>
      </trkpt>
      <trkpt lat="48.63965" lon="-2.47425">
        <ele>38</ele>
        <time>2014-10-20T12:59:36.1Z</time>
      </trkpt>
      <trkpt lat="48.63963" lon="-2.47425">
        <ele>39</ele>
        <time>2014-10-20T12:59:38.1Z</time>
      </trkpt>
      <trkpt lat="48.63961" lon="-2.47426">
        <ele>39</ele>
        <time>2014-10-20T12:59:40.1Z</time>
      </trkpt>
      <trkpt lat="48.63958" lon="-2.47427">
        <ele>39</ele>
        <time>2014-10-20T12:59:43.1Z</time>
      </trkpt>
      <trkpt lat="48.63955" lon="-2.47429">
        <ele>39</ele>
        <time>2014-10-20T12:59:46.1Z</time>
      </trkpt>
      <trkpt lat="48.63952" lon="-2.47431">
        <ele>39</ele>
        <time>2014-10-20T12:59:49.1Z</time>
      </trkpt>
      <trkpt lat="48.63949" lon="-2.4743">
        <ele>40</ele>
        <time>2014-10-20T12:59:51.1Z</time>
      </trkpt>
      <trkpt lat="48.63947" lon="-2.4743">
        <ele>40</ele>
        <time>2014-10-20T12:59:53.1Z</time>
      </trkpt>
      <trkpt lat="48.63944" lon="-2.4743">
        <ele>40</ele>
        <time>2014-10-20T12:59:56.1Z</time>
      </trkpt>
      <trkpt lat="48.6394" lon="-2.4743">
        <ele>39</ele>
        <time>2014-10-20T12:59:59.1Z</time>
      </trkpt>
      <trkpt lat="48.63937" lon="-2.4743">
        <ele>39</ele>
        <time>2014-10-20T13:00:02.1Z</time>
      </trkpt>
      <trkpt lat="48.63934" lon="-2.47431">
        <ele>39</ele>
        <time>2014-10-20T13:00:05.1Z</time>
      </trkpt>
      <trkpt lat="48.63932" lon="-2.47431">
        <ele>39</ele>
        <time>2014-10-20T13:00:07.1Z</time>
      </trkpt>
      <trkpt lat="48.63929" lon="-2.47433">
        <ele>39</ele>
        <time>2014-10-20T13:00:10.1Z</time>
      </trkpt>
      <trkpt lat="48.63926" lon="-2.47434">
        <ele>39</ele>
        <time>2014-10-20T13:00:13.1Z</time>
      </trkpt>
      <trkpt lat="48.63923" lon="-2.47434">
        <ele>40</ele>
        <time>2014-10-20T13:00:15.1Z</time>
      </trkpt>
      <trkpt lat="48.6392" lon="-2.47435">
        <ele>40</ele>
        <time>2014-10-20T13:00:18.1Z</time>
      </trkpt>
      <trkpt lat="48.63917" lon="-2.47436">
        <ele>40</ele>
        <time>2014-10-20T13:00:20.1Z</time>
      </trkpt>
      <trkpt lat="48.63914" lon="-2.47436">
        <ele>40</ele>
        <time>2014-10-20T13:00:23.1Z</time>
      </trkpt>
      <trkpt lat="48.6391" lon="-2.47438">
        <ele>40</ele>
        <time>2014-10-20T13:00:26.1Z</time>
      </trkpt>
      <trkpt lat="48.63908" lon="-2.47438">
        <ele>40</ele>
        <time>2014-10-20T13:00:28.1Z</time>
      </trkpt>
      <trkpt lat="48.63905" lon="-2.47439">
        <ele>41</ele>
        <time>2014-10-20T13:00:31.1Z</time>
      </trkpt>
      <trkpt lat="48.63903" lon="-2.47439">
        <ele>41</ele>
        <time>2014-10-20T13:00:33.1Z</time>
      </trkpt>
      <trkpt lat="48.639" lon="-2.4744">
        <ele>41</ele>
        <time>2014-10-20T13:00:36.1Z</time>
      </trkpt>
      <trkpt lat="48.63897" lon="-2.47441">
        <ele>40</ele>
        <time>2014-10-20T13:00:39.1Z</time>
      </trkpt>
      <trkpt lat="48.63893" lon="-2.47442">
        <ele>40</ele>
        <time>2014-10-20T13:00:42.1Z</time>
      </trkpt>
      <trkpt lat="48.63891" lon="-2.47442">
        <ele>40</ele>
        <time>2014-10-20T13:00:44.1Z</time>
      </trkpt>
      <trkpt lat="48.63889" lon="-2.47442">
        <ele>41</ele>
        <time>2014-10-20T13:00:46.1Z</time>
      </trkpt>
      <trkpt lat="48.63887" lon="-2.47443">
        <ele>41</ele>
        <time>2014-10-20T13:00:48.1Z</time>
      </trkpt>
      <trkpt lat="48.63883" lon="-2.47444">
        <ele>41</ele>
        <time>2014-10-20T13:00:51.1Z</time>
      </trkpt>
      <trkpt lat="48.63881" lon="-2.47445">
        <ele>41</ele>
        <time>2014-10-20T13:00:53.1Z</time>
      </trkpt>
      <trkpt lat="48.63879" lon="-2.47446">
        <ele>41</ele>
        <time>2014-10-20T13:00:55.1Z</time>
      </trkpt>
      <trkpt lat="48.63876" lon="-2.47447">
        <ele>41</ele>
        <time>2014-10-20T13:00:58.1Z</time>
      </trkpt>
      <trkpt lat="48.63874" lon="-2.47448">
        <ele>40</ele>
        <time>2014-10-20T13:01:00.1Z</time>
      </trkpt>
      <trkpt lat="48.6387" lon="-2.47449">
        <ele>40</ele>
        <time>2014-10-20T13:01:03.1Z</time>
      </trkpt>
      <trkpt lat="48.63867" lon="-2.4745">
        <ele>41</ele>
        <time>2014-10-20T13:01:06.1Z</time>
      </trkpt>
      <trkpt lat="48.63865" lon="-2.47451">
        <ele>41</ele>
        <time>2014-10-20T13:01:09.1Z</time>
      </trkpt>
      <trkpt lat="48.63861" lon="-2.47453">
        <ele>40</ele>
        <time>2014-10-20T13:01:12.1Z</time>
      </trkpt>
      <trkpt lat="48.63858" lon="-2.47454">
        <ele>40</ele>
        <time>2014-10-20T13:01:14.1Z</time>
      </trkpt>
      <trkpt lat="48.63855" lon="-2.47456">
        <ele>40</ele>
        <time>2014-10-20T13:01:17.1Z</time>
      </trkpt>
      <trkpt lat="48.63851" lon="-2.47458">
        <ele>40</ele>
        <time>2014-10-20T13:01:20.1Z</time>
      </trkpt>
      <trkpt lat="48.63848" lon="-2.4746">
        <ele>41</ele>
        <time>2014-10-20T13:01:23.1Z</time>
      </trkpt>
      <trkpt lat="48.63845" lon="-2.47461">
        <ele>40</ele>
        <time>2014-10-20T13:01:25.1Z</time>
      </trkpt>
      <trkpt lat="48.63843" lon="-2.47462">
        <ele>40</ele>
        <time>2014-10-20T13:01:27.1Z</time>
      </trkpt>
      <trkpt lat="48.6384" lon="-2.47464">
        <ele>40</ele>
        <time>2014-10-20T13:01:30.1Z</time>
      </trkpt>
      <trkpt lat="48.63838" lon="-2.47465">
        <ele>40</ele>
        <time>2014-10-20T13:01:32.1Z</time>
      </trkpt>
      <trkpt lat="48.63835" lon="-2.47465">
        <ele>40</ele>
        <time>2014-10-20T13:01:35.1Z</time>
      </trkpt>
      <trkpt lat="48.63833" lon="-2.47466">
        <ele>40</ele>
        <time>2014-10-20T13:01:37.1Z</time>
      </trkpt>
      <trkpt lat="48.6383" lon="-2.47467">
        <ele>40</ele>
        <time>2014-10-20T13:01:40.1Z</time>
      </trkpt>
      <trkpt lat="48.63828" lon="-2.47467">
        <ele>40</ele>
        <time>2014-10-20T13:01:42.1Z</time>
      </trkpt>
      <trkpt lat="48.63825" lon="-2.47467">
        <ele>40</ele>
        <time>2014-10-20T13:01:45.1Z</time>
      </trkpt>
      <trkpt lat="48.63822" lon="-2.47466">
        <ele>40</ele>
        <time>2014-10-20T13:01:48.1Z</time>
      </trkpt>
      <trkpt lat="48.6382" lon="-2.47465">
        <ele>40</ele>
        <time>2014-10-20T13:01:51.1Z</time>
      </trkpt>
      <trkpt lat="48.63819" lon="-2.47463">
        <ele>40</ele>
        <time>2014-10-20T13:01:53.1Z</time>
      </trkpt>
      <trkpt lat="48.63818" lon="-2.47462">
        <ele>40</ele>
        <time>2014-10-20T13:01:55.1Z</time>
      </trkpt>
      <trkpt lat="48.63815" lon="-2.47459">
        <ele>40</ele>
        <time>2014-10-20T13:01:58.1Z</time>
      </trkpt>
      <trkpt lat="48.63814" lon="-2.47458">
        <ele>40</ele>
        <time>2014-10-20T13:02:00.1Z</time>
      </trkpt>
      <trkpt lat="48.63811" lon="-2.47455">
        <ele>40</ele>
        <time>2014-10-20T13:02:03.1Z</time>
      </trkpt>
      <trkpt lat="48.6381" lon="-2.47453">
        <ele>40</ele>
        <time>2014-10-20T13:02:05.1Z</time>
      </trkpt>
      <trkpt lat="48.63808" lon="-2.47451">
        <ele>40</ele>
        <time>2014-10-20T13:02:07.1Z</time>
      </trkpt>
      <trkpt lat="48.63806" lon="-2.4745">
        <ele>40</ele>
        <time>2014-10-20T13:02:09.1Z</time>
      </trkpt>
      <trkpt lat="48.63804" lon="-2.47448">
        <ele>40</ele>
        <time>2014-10-20T13:02:12.1Z</time>
      </trkpt>
      <trkpt lat="48.63802" lon="-2.47446">
        <ele>40</ele>
        <time>2014-10-20T13:02:14.1Z</time>
      </trkpt>
      <trkpt lat="48.63801" lon="-2.47444">
        <ele>40</ele>
        <time>2014-10-20T13:02:16.1Z</time>
      </trkpt>
      <trkpt lat="48.63798" lon="-2.47443">
        <ele>40</ele>
        <time>2014-10-20T13:02:19.1Z</time>
      </trkpt>
      <trkpt lat="48.63797" lon="-2.47443">
        <ele>41</ele>
        <time>2014-10-20T13:02:21.1Z</time>
      </trkpt>
      <trkpt lat="48.63794" lon="-2.47443">
        <ele>41</ele>
        <time>2014-10-20T13:02:24.1Z</time>
      </trkpt>
      <trkpt lat="48.63791" lon="-2.47443">
        <ele>41</ele>
        <time>2014-10-20T13:02:26.1Z</time>
      </trkpt>
      <trkpt lat="48.63789" lon="-2.47443">
        <ele>41</ele>
        <time>2014-10-20T13:02:28.1Z</time>
      </trkpt>
      <trkpt lat="48.63786" lon="-2.47441">
        <ele>41</ele>
        <time>2014-10-20T13:02:31.1Z</time>
      </trkpt>
      <trkpt lat="48.63784" lon="-2.47437">
        <ele>41</ele>
        <time>2014-10-20T13:02:34.1Z</time>
      </trkpt>
      <trkpt lat="48.63783" lon="-2.47433">
        <ele>41</ele>
        <time>2014-10-20T13:02:36.1Z</time>
      </trkpt>
      <trkpt lat="48.63781" lon="-2.47428">
        <ele>40</ele>
        <time>2014-10-20T13:02:39.1Z</time>
      </trkpt>
      <trkpt lat="48.6378" lon="-2.47423">
        <ele>40</ele>
        <time>2014-10-20T13:02:42.1Z</time>
      </trkpt>
      <trkpt lat="48.6378" lon="-2.47419">
        <ele>40</ele>
        <time>2014-10-20T13:02:44.1Z</time>
      </trkpt>
      <trkpt lat="48.63779" lon="-2.47414">
        <ele>40</ele>
        <time>2014-10-20T13:02:47.1Z</time>
      </trkpt>
      <trkpt lat="48.63778" lon="-2.47411">
        <ele>41</ele>
        <time>2014-10-20T13:02:49.1Z</time>
      </trkpt>
      <trkpt lat="48.63777" lon="-2.47407">
        <ele>41</ele>
        <time>2014-10-20T13:02:52.1Z</time>
      </trkpt>
      <trkpt lat="48.63776" lon="-2.47403">
        <ele>41</ele>
        <time>2014-10-20T13:02:54.1Z</time>
      </trkpt>
      <trkpt lat="48.63776" lon="-2.474">
        <ele>41</ele>
        <time>2014-10-20T13:02:56.1Z</time>
      </trkpt>
      <trkpt lat="48.63775" lon="-2.47395">
        <ele>41</ele>
        <time>2014-10-20T13:02:59.1Z</time>
      </trkpt>
      <trkpt lat="48.63774" lon="-2.47391">
        <ele>41</ele>
        <time>2014-10-20T13:03:01.1Z</time>
      </trkpt>
      <trkpt lat="48.63774" lon="-2.47388">
        <ele>41</ele>
        <time>2014-10-20T13:03:03.1Z</time>
      </trkpt>
      <trkpt lat="48.63773" lon="-2.47383">
        <ele>41</ele>
        <time>2014-10-20T13:03:06.1Z</time>
      </trkpt>
      <trkpt lat="48.63772" lon="-2.47379">
        <ele>41</ele>
        <time>2014-10-20T13:03:09.1Z</time>
      </trkpt>
      <trkpt lat="48.63771" lon="-2.47374">
        <ele>40</ele>
        <time>2014-10-20T13:03:12.1Z</time>
      </trkpt>
      <trkpt lat="48.6377" lon="-2.47369">
        <ele>40</ele>
        <time>2014-10-20T13:03:15.1Z</time>
      </trkpt>
      <trkpt lat="48.63769" lon="-2.47365">
        <ele>40</ele>
        <time>2014-10-20T13:03:17.1Z</time>
      </trkpt>
      <trkpt lat="48.63769" lon="-2.4736">
        <ele>40</ele>
        <time>2014-10-20T13:03:20.1Z</time>
      </trkpt>
      <trkpt lat="48.63769" lon="-2.47357">
        <ele>40</ele>
        <time>2014-10-20T13:03:22.1Z</time>
      </trkpt>
      <trkpt lat="48.63768" lon="-2.47353">
        <ele>39</ele>
        <time>2014-10-20T13:03:25.1Z</time>
      </trkpt>
      <trkpt lat="48.63768" lon="-2.4735">
        <ele>39</ele>
        <time>2014-10-20T13:03:27.1Z</time>
      </trkpt>
      <trkpt lat="48.63768" lon="-2.47347">
        <ele>39</ele>
        <time>2014-10-20T13:03:29.1Z</time>
      </trkpt>
      <trkpt lat="48.63768" lon="-2.47342">
        <ele>38</ele>
        <time>2014-10-20T13:03:32.1Z</time>
      </trkpt>
      <trkpt lat="48.63766" lon="-2.47339">
        <ele>38</ele>
        <time>2014-10-20T13:03:35.1Z</time>
      </trkpt>
      <trkpt lat="48.63765" lon="-2.47337">
        <ele>39</ele>
        <time>2014-10-20T13:03:37.1Z</time>
      </trkpt>
      <trkpt lat="48.63763" lon="-2.47333">
        <ele>38</ele>
        <time>2014-10-20T13:03:40.1Z</time>
      </trkpt>
      <trkpt lat="48.63761" lon="-2.47329">
        <ele>38</ele>
        <time>2014-10-20T13:03:43.1Z</time>
      </trkpt>
      <trkpt lat="48.63759" lon="-2.47326">
        <ele>38</ele>
        <time>2014-10-20T13:03:46.1Z</time>
      </trkpt>
      <trkpt lat="48.63757" lon="-2.47323">
        <ele>38</ele>
        <time>2014-10-20T13:03:49.1Z</time>
      </trkpt>
      <trkpt lat="48.63754" lon="-2.4732">
        <ele>37</ele>
        <time>2014-10-20T13:03:52.1Z</time>
      </trkpt>
      <trkpt lat="48.63752" lon="-2.47318">
        <ele>37</ele>
        <time>2014-10-20T13:03:54.1Z</time>
      </trkpt>
      <trkpt lat="48.6375" lon="-2.47316">
        <ele>37</ele>
        <time>2014-10-20T13:03:56.1Z</time>
      </trkpt>
      <trkpt lat="48.63747" lon="-2.47311">
        <ele>37</ele>
        <time>2014-10-20T13:03:59.1Z</time>
      </trkpt>
      <trkpt lat="48.63744" lon="-2.47308">
        <ele>37</ele>
        <time>2014-10-20T13:04:02.1Z</time>
      </trkpt>
      <trkpt lat="48.63743" lon="-2.47305">
        <ele>37</ele>
        <time>2014-10-20T13:04:04.1Z</time>
      </trkpt>
      <trkpt lat="48.63741" lon="-2.47303">
        <ele>37</ele>
        <time>2014-10-20T13:04:06.1Z</time>
      </trkpt>
      <trkpt lat="48.63737" lon="-2.47301">
        <ele>36</ele>
        <time>2014-10-20T13:04:09.1Z</time>
      </trkpt>
      <trkpt lat="48.63733" lon="-2.47298">
        <ele>36</ele>
        <time>2014-10-20T13:04:12.1Z</time>
      </trkpt>
      <trkpt lat="48.63728" lon="-2.47297">
        <ele>36</ele>
        <time>2014-10-20T13:04:15.1Z</time>
      </trkpt>
      <trkpt lat="48.63725" lon="-2.47296">
        <ele>36</ele>
        <time>2014-10-20T13:04:17.1Z</time>
      </trkpt>
      <trkpt lat="48.6372" lon="-2.47296">
        <ele>36</ele>
        <time>2014-10-20T13:04:20.1Z</time>
      </trkpt>
      <trkpt lat="48.63719" lon="-2.47296">
        <ele>36</ele>
        <time>2014-10-20T13:04:22.1Z</time>
      </trkpt>
      <trkpt lat="48.63717" lon="-2.47297">
        <ele>36</ele>
        <time>2014-10-20T13:04:25.1Z</time>
      </trkpt>
      <trkpt lat="48.63715" lon="-2.47297">
        <ele>36</ele>
        <time>2014-10-20T13:04:27.1Z</time>
      </trkpt>
      <trkpt lat="48.63715" lon="-2.47296">
        <ele>36</ele>
        <time>2014-10-20T13:04:29.1Z</time>
      </trkpt>
      <trkpt lat="48.63713" lon="-2.47296">
        <ele>36</ele>
        <time>2014-10-20T13:04:32.1Z</time>
      </trkpt>
      <trkpt lat="48.63711" lon="-2.47297">
        <ele>36</ele>
        <time>2014-10-20T13:04:35.1Z</time>
      </trkpt>
      <trkpt lat="48.6371" lon="-2.47298">
        <ele>35</ele>
        <time>2014-10-20T13:04:37.1Z</time>
      </trkpt>
      <trkpt lat="48.63708" lon="-2.473">
        <ele>35</ele>
        <time>2014-10-20T13:04:40.1Z</time>
      </trkpt>
      <trkpt lat="48.63708" lon="-2.47302">
        <ele>35</ele>
        <time>2014-10-20T13:04:43.1Z</time>
      </trkpt>
      <trkpt lat="48.63708" lon="-2.47303">
        <ele>35</ele>
        <time>2014-10-20T13:04:45.1Z</time>
      </trkpt>
      <trkpt lat="48.63707" lon="-2.47301">
        <ele>36</ele>
        <time>2014-10-20T13:04:50.1Z</time>
      </trkpt>
      <trkpt lat="48.63708" lon="-2.473">
        <ele>36</ele>
        <time>2014-10-20T13:04:52.1Z</time>
      </trkpt>
      <trkpt lat="48.63706" lon="-2.47301">
        <ele>35</ele>
        <time>2014-10-20T13:04:55.1Z</time>
      </trkpt>
      <trkpt lat="48.63704" lon="-2.47304">
        <ele>35</ele>
        <time>2014-10-20T13:04:58.1Z</time>
      </trkpt>
      <trkpt lat="48.63704" lon="-2.47308">
        <ele>34</ele>
        <time>2014-10-20T13:05:01.1Z</time>
      </trkpt>
      <trkpt lat="48.63703" lon="-2.47311">
        <ele>34</ele>
        <time>2014-10-20T13:05:04.1Z</time>
      </trkpt>
      <trkpt lat="48.63704" lon="-2.47315">
        <ele>33</ele>
        <time>2014-10-20T13:05:06.1Z</time>
      </trkpt>
      <trkpt lat="48.63704" lon="-2.47318">
        <ele>32</ele>
        <time>2014-10-20T13:05:08.1Z</time>
      </trkpt>
      <trkpt lat="48.63705" lon="-2.47322">
        <ele>32</ele>
        <time>2014-10-20T13:05:11.1Z</time>
      </trkpt>
      <trkpt lat="48.63706" lon="-2.47325">
        <ele>31</ele>
        <time>2014-10-20T13:05:14.1Z</time>
      </trkpt>
      <trkpt lat="48.63707" lon="-2.47326">
        <ele>31</ele>
        <time>2014-10-20T13:05:16.1Z</time>
      </trkpt>
      <trkpt lat="48.63706" lon="-2.47329">
        <ele>30</ele>
        <time>2014-10-20T13:05:19.1Z</time>
      </trkpt>
      <trkpt lat="48.63705" lon="-2.47331">
        <ele>30</ele>
        <time>2014-10-20T13:05:21.1Z</time>
      </trkpt>
      <trkpt lat="48.63704" lon="-2.47335">
        <ele>29</ele>
        <time>2014-10-20T13:05:24.1Z</time>
      </trkpt>
      <trkpt lat="48.63703" lon="-2.47337">
        <ele>28</ele>
        <time>2014-10-20T13:05:26.1Z</time>
      </trkpt>
      <trkpt lat="48.63703" lon="-2.4734">
        <ele>28</ele>
        <time>2014-10-20T13:05:29.1Z</time>
      </trkpt>
      <trkpt lat="48.63704" lon="-2.47343">
        <ele>28</ele>
        <time>2014-10-20T13:05:32.1Z</time>
      </trkpt>
      <trkpt lat="48.63704" lon="-2.47347">
        <ele>28</ele>
        <time>2014-10-20T13:05:35.1Z</time>
      </trkpt>
      <trkpt lat="48.63705" lon="-2.47348">
        <ele>28</ele>
        <time>2014-10-20T13:05:37.1Z</time>
      </trkpt>
      <trkpt lat="48.63706" lon="-2.47352">
        <ele>27</ele>
        <time>2014-10-20T13:05:40.1Z</time>
      </trkpt>
      <trkpt lat="48.63707" lon="-2.47354">
        <ele>28</ele>
        <time>2014-10-20T13:05:42.1Z</time>
      </trkpt>
      <trkpt lat="48.63708" lon="-2.47359">
        <ele>28</ele>
        <time>2014-10-20T13:05:45.1Z</time>
      </trkpt>
      <trkpt lat="48.63708" lon="-2.47361">
        <ele>28</ele>
        <time>2014-10-20T13:05:47.1Z</time>
      </trkpt>
      <trkpt lat="48.63709" lon="-2.47366">
        <ele>28</ele>
        <time>2014-10-20T13:05:50.1Z</time>
      </trkpt>
      <trkpt lat="48.6371" lon="-2.47371">
        <ele>28</ele>
        <time>2014-10-20T13:05:53.1Z</time>
      </trkpt>
      <trkpt lat="48.63711" lon="-2.47374">
        <ele>28</ele>
        <time>2014-10-20T13:05:55.1Z</time>
      </trkpt>
      <trkpt lat="48.63709" lon="-2.4738">
        <ele>29</ele>
        <time>2014-10-20T13:05:58.1Z</time>
      </trkpt>
      <trkpt lat="48.63709" lon="-2.47382">
        <ele>29</ele>
        <time>2014-10-20T13:06:00.1Z</time>
      </trkpt>
      <trkpt lat="48.6371" lon="-2.47385">
        <ele>29</ele>
        <time>2014-10-20T13:06:03.1Z</time>
      </trkpt>
      <trkpt lat="48.6371" lon="-2.47386">
        <ele>29</ele>
        <time>2014-10-20T13:06:05.1Z</time>
      </trkpt>
      <trkpt lat="48.6371" lon="-2.47386">
        <ele>30</ele>
        <time>2014-10-20T13:06:08.1Z</time>
      </trkpt>
      <trkpt lat="48.63711" lon="-2.47387">
        <ele>30</ele>
        <time>2014-10-20T13:06:11.1Z</time>
      </trkpt>
      <trkpt lat="48.63712" lon="-2.47387">
        <ele>30</ele>
        <time>2014-10-20T13:06:14.1Z</time>
      </trkpt>
      <trkpt lat="48.63713" lon="-2.47386">
        <ele>30</ele>
        <time>2014-10-20T13:06:17.1Z</time>
      </trkpt>
      <trkpt lat="48.63713" lon="-2.47386">
        <ele>30</ele>
        <time>2014-10-20T13:06:19.1Z</time>
      </trkpt>
      <trkpt lat="48.63715" lon="-2.47387">
        <ele>30</ele>
        <time>2014-10-20T13:06:22.1Z</time>
      </trkpt>
      <trkpt lat="48.63716" lon="-2.47385">
        <ele>30</ele>
        <time>2014-10-20T13:06:24.1Z</time>
      </trkpt>
      <trkpt lat="48.63717" lon="-2.47383">
        <ele>30</ele>
        <time>2014-10-20T13:06:27.1Z</time>
      </trkpt>
      <trkpt lat="48.63718" lon="-2.47382">
        <ele>30</ele>
        <time>2014-10-20T13:06:29.1Z</time>
      </trkpt>
      <trkpt lat="48.63719" lon="-2.47381">
        <ele>30</ele>
        <time>2014-10-20T13:06:32.1Z</time>
      </trkpt>
      <trkpt lat="48.6372" lon="-2.47381">
        <ele>30</ele>
        <time>2014-10-20T13:06:34.1Z</time>
      </trkpt>
      <trkpt lat="48.63721" lon="-2.47382">
        <ele>29</ele>
        <time>2014-10-20T13:06:37.1Z</time>
      </trkpt>
      <trkpt lat="48.63723" lon="-2.47381">
        <ele>29</ele>
        <time>2014-10-20T13:06:40.1Z</time>
      </trkpt>
      <trkpt lat="48.63722" lon="-2.47383">
        <ele>29</ele>
        <time>2014-10-20T13:06:42.1Z</time>
      </trkpt>
      <trkpt lat="48.63722" lon="-2.47387">
        <ele>28</ele>
        <time>2014-10-20T13:06:45.1Z</time>
      </trkpt>
      <trkpt lat="48.63722" lon="-2.47389">
        <ele>28</ele>
        <time>2014-10-20T13:06:47.1Z</time>
      </trkpt>
      <trkpt lat="48.63721" lon="-2.47394">
        <ele>28</ele>
        <time>2014-10-20T13:06:50.1Z</time>
      </trkpt>
      <trkpt lat="48.6372" lon="-2.47397">
        <ele>28</ele>
        <time>2014-10-20T13:06:53.1Z</time>
      </trkpt>
      <trkpt lat="48.63719" lon="-2.47399">
        <ele>28</ele>
        <time>2014-10-20T13:06:55.1Z</time>
      </trkpt>
      <trkpt lat="48.63717" lon="-2.47403">
        <ele>28</ele>
        <time>2014-10-20T13:06:58.1Z</time>
      </trkpt>
      <trkpt lat="48.63717" lon="-2.47404">
        <ele>28</ele>
        <time>2014-10-20T13:07:00.1Z</time>
      </trkpt>
      <trkpt lat="48.63716" lon="-2.47408">
        <ele>27</ele>
        <time>2014-10-20T13:07:02.1Z</time>
      </trkpt>
      <trkpt lat="48.63716" lon="-2.47413">
        <ele>27</ele>
        <time>2014-10-20T13:07:05.1Z</time>
      </trkpt>
      <trkpt lat="48.63715" lon="-2.47414">
        <ele>27</ele>
        <time>2014-10-20T13:07:07.1Z</time>
      </trkpt>
      <trkpt lat="48.63712" lon="-2.47416">
        <ele>27</ele>
        <time>2014-10-20T13:07:10.1Z</time>
      </trkpt>
      <trkpt lat="48.63711" lon="-2.47418">
        <ele>26</ele>
        <time>2014-10-20T13:07:12.1Z</time>
      </trkpt>
      <trkpt lat="48.63709" lon="-2.47418">
        <ele>27</ele>
        <time>2014-10-20T13:07:15.1Z</time>
      </trkpt>
      <trkpt lat="48.63708" lon="-2.47419">
        <ele>27</ele>
        <time>2014-10-20T13:07:18.1Z</time>
      </trkpt>
      <trkpt lat="48.63705" lon="-2.47419">
        <ele>27</ele>
        <time>2014-10-20T13:07:21.1Z</time>
      </trkpt>
      <trkpt lat="48.63704" lon="-2.4742">
        <ele>27</ele>
        <time>2014-10-20T13:07:24.1Z</time>
      </trkpt>
      <trkpt lat="48.63702" lon="-2.47422">
        <ele>27</ele>
        <time>2014-10-20T13:07:27.1Z</time>
      </trkpt>
      <trkpt lat="48.63701" lon="-2.47424">
        <ele>27</ele>
        <time>2014-10-20T13:07:29.1Z</time>
      </trkpt>
      <trkpt lat="48.637" lon="-2.47427">
        <ele>27</ele>
        <time>2014-10-20T13:07:32.1Z</time>
      </trkpt>
      <trkpt lat="48.63699" lon="-2.47428">
        <ele>27</ele>
        <time>2014-10-20T13:07:34.1Z</time>
      </trkpt>
      <trkpt lat="48.63699" lon="-2.47429">
        <ele>27</ele>
        <time>2014-10-20T13:07:36.1Z</time>
      </trkpt>
      <trkpt lat="48.63699" lon="-2.4743">
        <ele>26</ele>
        <time>2014-10-20T13:07:38.1Z</time>
      </trkpt>
      <trkpt lat="48.63699" lon="-2.47432">
        <ele>26</ele>
        <time>2014-10-20T13:07:41.1Z</time>
      </trkpt>
      <trkpt lat="48.637" lon="-2.47436">
        <ele>26</ele>
        <time>2014-10-20T13:07:44.1Z</time>
      </trkpt>
      <trkpt lat="48.637" lon="-2.47439">
        <ele>26</ele>
        <time>2014-10-20T13:07:47.1Z</time>
      </trkpt>
      <trkpt lat="48.63701" lon="-2.47441">
        <ele>26</ele>
        <time>2014-10-20T13:07:49.1Z</time>
      </trkpt>
      <trkpt lat="48.63702" lon="-2.47444">
        <ele>25</ele>
        <time>2014-10-20T13:07:52.1Z</time>
      </trkpt>
      <trkpt lat="48.63702" lon="-2.47448">
        <ele>23</ele>
        <time>2014-10-20T13:07:55.1Z</time>
      </trkpt>
      <trkpt lat="48.63702" lon="-2.47451">
        <ele>22</ele>
        <time>2014-10-20T13:07:57.1Z</time>
      </trkpt>
      <trkpt lat="48.63702" lon="-2.47456">
        <ele>22</ele>
        <time>2014-10-20T13:08:00.1Z</time>
      </trkpt>
      <trkpt lat="48.63703" lon="-2.4746">
        <ele>22</ele>
        <time>2014-10-20T13:08:03.1Z</time>
      </trkpt>
      <trkpt lat="48.63703" lon="-2.47464">
        <ele>22</ele>
        <time>2014-10-20T13:08:05.1Z</time>
      </trkpt>
      <trkpt lat="48.63704" lon="-2.47469">
        <ele>23</ele>
        <time>2014-10-20T13:08:08.1Z</time>
      </trkpt>
      <trkpt lat="48.63705" lon="-2.47473">
        <ele>23</ele>
        <time>2014-10-20T13:08:10.1Z</time>
      </trkpt>
      <trkpt lat="48.63706" lon="-2.47478">
        <ele>24</ele>
        <time>2014-10-20T13:08:13.1Z</time>
      </trkpt>
      <trkpt lat="48.63707" lon="-2.47482">
        <ele>24</ele>
        <time>2014-10-20T13:08:16.1Z</time>
      </trkpt>
      <trkpt lat="48.63708" lon="-2.47484">
        <ele>24</ele>
        <time>2014-10-20T13:08:18.1Z</time>
      </trkpt>
      <trkpt lat="48.6371" lon="-2.47488">
        <ele>24</ele>
        <time>2014-10-20T13:08:21.1Z</time>
      </trkpt>
      <trkpt lat="48.6371" lon="-2.47491">
        <ele>24</ele>
        <time>2014-10-20T13:08:23.1Z</time>
      </trkpt>
      <trkpt lat="48.6371" lon="-2.47494">
        <ele>24</ele>
        <time>2014-10-20T13:08:25.1Z</time>
      </trkpt>
      <trkpt lat="48.63711" lon="-2.47499">
        <ele>24</ele>
        <time>2014-10-20T13:08:28.1Z</time>
      </trkpt>
      <trkpt lat="48.63712" lon="-2.47505">
        <ele>25</ele>
        <time>2014-10-20T13:08:31.1Z</time>
      </trkpt>
      <trkpt lat="48.63712" lon="-2.47509">
        <ele>25</ele>
        <time>2014-10-20T13:08:33.1Z</time>
      </trkpt>
      <trkpt lat="48.63712" lon="-2.47513">
        <ele>26</ele>
        <time>2014-10-20T13:08:35.1Z</time>
      </trkpt>
      <trkpt lat="48.63713" lon="-2.47518">
        <ele>25</ele>
        <time>2014-10-20T13:08:38.1Z</time>
      </trkpt>
      <trkpt lat="48.63714" lon="-2.47521">
        <ele>25</ele>
        <time>2014-10-20T13:08:40.1Z</time>
      </trkpt>
      <trkpt lat="48.63715" lon="-2.47526">
        <ele>25</ele>
        <time>2014-10-20T13:08:43.1Z</time>
      </trkpt>
      <trkpt lat="48.63715" lon="-2.47529">
        <ele>25</ele>
        <time>2014-10-20T13:08:45.1Z</time>
      </trkpt>
      <trkpt lat="48.63715" lon="-2.47534">
        <ele>25</ele>
        <time>2014-10-20T13:08:48.1Z</time>
      </trkpt>
      <trkpt lat="48.63716" lon="-2.47538">
        <ele>25</ele>
        <time>2014-10-20T13:08:50.1Z</time>
      </trkpt>
      <trkpt lat="48.63717" lon="-2.47543">
        <ele>26</ele>
        <time>2014-10-20T13:08:53.1Z</time>
      </trkpt>
      <trkpt lat="48.63717" lon="-2.47547">
        <ele>26</ele>
        <time>2014-10-20T13:08:55.1Z</time>
      </trkpt>
      <trkpt lat="48.63718" lon="-2.47552">
        <ele>25</ele>
        <time>2014-10-20T13:08:58.1Z</time>
      </trkpt>
      <trkpt lat="48.63718" lon="-2.47555">
        <ele>25</ele>
        <time>2014-10-20T13:09:00.1Z</time>
      </trkpt>
      <trkpt lat="48.63719" lon="-2.4756">
        <ele>26</ele>
        <time>2014-10-20T13:09:03.1Z</time>
      </trkpt>
      <trkpt lat="48.63719" lon="-2.47563">
        <ele>25</ele>
        <time>2014-10-20T13:09:05.1Z</time>
      </trkpt>
      <trkpt lat="48.63719" lon="-2.47568">
        <ele>25</ele>
        <time>2014-10-20T13:09:08.1Z</time>
      </trkpt>
      <trkpt lat="48.6372" lon="-2.47574">
        <ele>25</ele>
        <time>2014-10-20T13:09:11.1Z</time>
      </trkpt>
      <trkpt lat="48.63721" lon="-2.47577">
        <ele>25</ele>
        <time>2014-10-20T13:09:13.1Z</time>
      </trkpt>
      <trkpt lat="48.63723" lon="-2.4758">
        <ele>25</ele>
        <time>2014-10-20T13:09:15.1Z</time>
      </trkpt>
      <trkpt lat="48.63724" lon="-2.47583">
        <ele>25</ele>
        <time>2014-10-20T13:09:18.1Z</time>
      </trkpt>
      <trkpt lat="48.63725" lon="-2.47585">
        <ele>25</ele>
        <time>2014-10-20T13:09:20.1Z</time>
      </trkpt>
      <trkpt lat="48.63725" lon="-2.47586">
        <ele>24</ele>
        <time>2014-10-20T13:09:22.1Z</time>
      </trkpt>
      <trkpt lat="48.63727" lon="-2.47588">
        <ele>24</ele>
        <time>2014-10-20T13:09:25.1Z</time>
      </trkpt>
      <trkpt lat="48.63727" lon="-2.47589">
        <ele>25</ele>
        <time>2014-10-20T13:09:28.1Z</time>
      </trkpt>
      <trkpt lat="48.63727" lon="-2.47591">
        <ele>25</ele>
        <time>2014-10-20T13:09:31.1Z</time>
      </trkpt>
      <trkpt lat="48.63727" lon="-2.47592">
        <ele>25</ele>
        <time>2014-10-20T13:09:34.1Z</time>
      </trkpt>
      <trkpt lat="48.63727" lon="-2.47594">
        <ele>25</ele>
        <time>2014-10-20T13:09:37.1Z</time>
      </trkpt>
      <trkpt lat="48.63727" lon="-2.47595">
        <ele>24</ele>
        <time>2014-10-20T13:09:40.1Z</time>
      </trkpt>
      <trkpt lat="48.63728" lon="-2.47595">
        <ele>24</ele>
        <time>2014-10-20T13:09:43.1Z</time>
      </trkpt>
      <trkpt lat="48.63729" lon="-2.47597">
        <ele>24</ele>
        <time>2014-10-20T13:09:46.1Z</time>
      </trkpt>
      <trkpt lat="48.6373" lon="-2.47598">
        <ele>24</ele>
        <time>2014-10-20T13:09:48.1Z</time>
      </trkpt>
      <trkpt lat="48.63731" lon="-2.476">
        <ele>24</ele>
        <time>2014-10-20T13:09:51.1Z</time>
      </trkpt>
      <trkpt lat="48.63732" lon="-2.47603">
        <ele>23</ele>
        <time>2014-10-20T13:09:54.1Z</time>
      </trkpt>
      <trkpt lat="48.63734" lon="-2.47605">
        <ele>23</ele>
        <time>2014-10-20T13:09:56.1Z</time>
      </trkpt>
      <trkpt lat="48.63735" lon="-2.47609">
        <ele>23</ele>
        <time>2014-10-20T13:09:59.1Z</time>
      </trkpt>
      <trkpt lat="48.63736" lon="-2.47611">
        <ele>23</ele>
        <time>2014-10-20T13:10:01.1Z</time>
      </trkpt>
      <trkpt lat="48.63737" lon="-2.47612">
        <ele>23</ele>
        <time>2014-10-20T13:10:03.1Z</time>
      </trkpt>
      <trkpt lat="48.63738" lon="-2.47614">
        <ele>23</ele>
        <time>2014-10-20T13:10:06.1Z</time>
      </trkpt>
      <trkpt lat="48.63738" lon="-2.47615">
        <ele>22</ele>
        <time>2014-10-20T13:10:08.1Z</time>
      </trkpt>
      <trkpt lat="48.63739" lon="-2.47615">
        <ele>22</ele>
        <time>2014-10-20T13:10:11.1Z</time>
      </trkpt>
      <trkpt lat="48.63739" lon="-2.47617">
        <ele>22</ele>
        <time>2014-10-20T13:10:13.1Z</time>
      </trkpt>
      <trkpt lat="48.6374" lon="-2.47622">
        <ele>22</ele>
        <time>2014-10-20T13:10:16.1Z</time>
      </trkpt>
      <trkpt lat="48.63741" lon="-2.47625">
        <ele>22</ele>
        <time>2014-10-20T13:10:18.1Z</time>
      </trkpt>
      <trkpt lat="48.63742" lon="-2.47627">
        <ele>23</ele>
        <time>2014-10-20T13:10:21.1Z</time>
      </trkpt>
      <trkpt lat="48.63743" lon="-2.47629">
        <ele>23</ele>
        <time>2014-10-20T13:10:23.1Z</time>
      </trkpt>
      <trkpt lat="48.63744" lon="-2.47632">
        <ele>23</ele>
        <time>2014-10-20T13:10:26.1Z</time>
      </trkpt>
      <trkpt lat="48.63745" lon="-2.47633">
        <ele>23</ele>
        <time>2014-10-20T13:10:28.1Z</time>
      </trkpt>
      <trkpt lat="48.63745" lon="-2.47634">
        <ele>23</ele>
        <time>2014-10-20T13:10:31.1Z</time>
      </trkpt>
      <trkpt lat="48.63745" lon="-2.47639">
        <ele>23</ele>
        <time>2014-10-20T13:10:34.1Z</time>
      </trkpt>
      <trkpt lat="48.63746" lon="-2.47643">
        <ele>23</ele>
        <time>2014-10-20T13:10:37.1Z</time>
      </trkpt>
      <trkpt lat="48.63747" lon="-2.47645">
        <ele>23</ele>
        <time>2014-10-20T13:10:40.1Z</time>
      </trkpt>
      <trkpt lat="48.63749" lon="-2.47647">
        <ele>23</ele>
        <time>2014-10-20T13:10:42.1Z</time>
      </trkpt>
      <trkpt lat="48.63749" lon="-2.47649">
        <ele>24</ele>
        <time>2014-10-20T13:10:45.1Z</time>
      </trkpt>
      <trkpt lat="48.6375" lon="-2.4765">
        <ele>24</ele>
        <time>2014-10-20T13:10:47.1Z</time>
      </trkpt>
      <trkpt lat="48.63752" lon="-2.47652">
        <ele>24</ele>
        <time>2014-10-20T13:10:50.1Z</time>
      </trkpt>
      <trkpt lat="48.63753" lon="-2.47652">
        <ele>24</ele>
        <time>2014-10-20T13:10:52.1Z</time>
      </trkpt>
      <trkpt lat="48.63754" lon="-2.47652">
        <ele>24</ele>
        <time>2014-10-20T13:10:55.1Z</time>
      </trkpt>
      <trkpt lat="48.63756" lon="-2.47652">
        <ele>24</ele>
        <time>2014-10-20T13:10:58.1Z</time>
      </trkpt>
      <trkpt lat="48.63757" lon="-2.47651">
        <ele>24</ele>
        <time>2014-10-20T13:11:01.1Z</time>
      </trkpt>
      <trkpt lat="48.63758" lon="-2.4765">
        <ele>23</ele>
        <time>2014-10-20T13:11:04.1Z</time>
      </trkpt>
      <trkpt lat="48.63759" lon="-2.47648">
        <ele>23</ele>
        <time>2014-10-20T13:11:07.1Z</time>
      </trkpt>
      <trkpt lat="48.6376" lon="-2.47647">
        <ele>23</ele>
        <time>2014-10-20T13:11:10.1Z</time>
      </trkpt>
      <trkpt lat="48.63761" lon="-2.47646">
        <ele>24</ele>
        <time>2014-10-20T13:11:12.1Z</time>
      </trkpt>
      <trkpt lat="48.63763" lon="-2.47645">
        <ele>24</ele>
        <time>2014-10-20T13:11:15.1Z</time>
      </trkpt>
      <trkpt lat="48.63765" lon="-2.47645">
        <ele>24</ele>
        <time>2014-10-20T13:11:18.1Z</time>
      </trkpt>
      <trkpt lat="48.63765" lon="-2.47644">
        <ele>24</ele>
        <time>2014-10-20T13:11:21.1Z</time>
      </trkpt>
      <trkpt lat="48.63764" lon="-2.47644">
        <ele>24</ele>
        <time>2014-10-20T13:11:23.1Z</time>
      </trkpt>
      <trkpt lat="48.63763" lon="-2.47642">
        <ele>24</ele>
        <time>2014-10-20T13:11:26.1Z</time>
      </trkpt>
      <trkpt lat="48.63762" lon="-2.4764">
        <ele>25</ele>
        <time>2014-10-20T13:11:29.1Z</time>
      </trkpt>
      <trkpt lat="48.63762" lon="-2.47639">
        <ele>26</ele>
        <time>2014-10-20T13:11:32.1Z</time>
      </trkpt>
      <trkpt lat="48.63761" lon="-2.47638">
        <ele>26</ele>
        <time>2014-10-20T13:11:34.1Z</time>
      </trkpt>
      <trkpt lat="48.63758" lon="-2.47639">
        <ele>26</ele>
        <time>2014-10-20T13:11:37.1Z</time>
      </trkpt>
      <trkpt lat="48.63757" lon="-2.47639">
        <ele>27</ele>
        <time>2014-10-20T13:11:39.1Z</time>
      </trkpt>
      <trkpt lat="48.63757" lon="-2.47639">
        <ele>27</ele>
        <time>2014-10-20T13:11:41.1Z</time>
      </trkpt>
      <trkpt lat="48.63757" lon="-2.47639">
        <ele>27</ele>
        <time>2014-10-20T13:11:44.1Z</time>
      </trkpt>
      <trkpt lat="48.63757" lon="-2.47639">
        <ele>27</ele>
        <time>2014-10-20T13:11:46.1Z</time>
      </trkpt>
      <trkpt lat="48.63757" lon="-2.4764">
        <ele>27</ele>
        <time>2014-10-20T13:11:49.1Z</time>
      </trkpt>
      <trkpt lat="48.63757" lon="-2.47641">
        <ele>27</ele>
        <time>2014-10-20T13:11:51.1Z</time>
      </trkpt>
      <trkpt lat="48.63755" lon="-2.47644">
        <ele>27</ele>
        <time>2014-10-20T13:11:54.1Z</time>
      </trkpt>
      <trkpt lat="48.63756" lon="-2.47645">
        <ele>27</ele>
        <time>2014-10-20T13:11:57.1Z</time>
      </trkpt>
      <trkpt lat="48.63756" lon="-2.47647">
        <ele>27</ele>
        <time>2014-10-20T13:12:00.1Z</time>
      </trkpt>
      <trkpt lat="48.63757" lon="-2.47648">
        <ele>27</ele>
        <time>2014-10-20T13:12:03.1Z</time>
      </trkpt>
      <trkpt lat="48.63757" lon="-2.47649">
        <ele>27</ele>
        <time>2014-10-20T13:12:06.1Z</time>
      </trkpt>
      <trkpt lat="48.63756" lon="-2.47648">
        <ele>28</ele>
        <time>2014-10-20T13:12:08.1Z</time>
      </trkpt>
      <trkpt lat="48.63755" lon="-2.47647">
        <ele>27</ele>
        <time>2014-10-20T13:12:11.1Z</time>
      </trkpt>
      <trkpt lat="48.63755" lon="-2.47648">
        <ele>27</ele>
        <time>2014-10-20T13:12:13.1Z</time>
      </trkpt>
      <trkpt lat="48.63754" lon="-2.47647">
        <ele>27</ele>
        <time>2014-10-20T13:12:16.1Z</time>
      </trkpt>
      <trkpt lat="48.63753" lon="-2.47648">
        <ele>27</ele>
        <time>2014-10-20T13:12:18.1Z</time>
      </trkpt>
      <trkpt lat="48.63753" lon="-2.47648">
        <ele>27</ele>
        <time>2014-10-20T13:12:21.1Z</time>
      </trkpt>
      <trkpt lat="48.63752" lon="-2.47648">
        <ele>26</ele>
        <time>2014-10-20T13:12:24.1Z</time>
      </trkpt>
      <trkpt lat="48.63752" lon="-2.47648">
        <ele>26</ele>
        <time>2014-10-20T13:12:26.1Z</time>
      </trkpt>
      <trkpt lat="48.6375" lon="-2.47649">
        <ele>25</ele>
        <time>2014-10-20T13:12:29.1Z</time>
      </trkpt>
      <trkpt lat="48.63749" lon="-2.47649">
        <ele>24</ele>
        <time>2014-10-20T13:12:32.1Z</time>
      </trkpt>
      <trkpt lat="48.6375" lon="-2.47651">
        <ele>24</ele>
        <time>2014-10-20T13:12:35.1Z</time>
      </trkpt>
      <trkpt lat="48.63752" lon="-2.4765">
        <ele>23</ele>
        <time>2014-10-20T13:12:38.1Z</time>
      </trkpt>
      <trkpt lat="48.63751" lon="-2.4765">
        <ele>23</ele>
        <time>2014-10-20T13:12:40.1Z</time>
      </trkpt>
      <trkpt lat="48.63751" lon="-2.47653">
        <ele>24</ele>
        <time>2014-10-20T13:12:43.1Z</time>
      </trkpt>
      <trkpt lat="48.63751" lon="-2.47653">
        <ele>24</ele>
        <time>2014-10-20T13:12:45.1Z</time>
      </trkpt>
      <trkpt lat="48.6375" lon="-2.47653">
        <ele>24</ele>
        <time>2014-10-20T13:12:48.1Z</time>
      </trkpt>
      <trkpt lat="48.63749" lon="-2.47653">
        <ele>25</ele>
        <time>2014-10-20T13:12:52.1Z</time>
      </trkpt>
      <trkpt lat="48.6375" lon="-2.47654">
        <ele>25</ele>
        <time>2014-10-20T13:12:54.1Z</time>
      </trkpt>
      <trkpt lat="48.6375" lon="-2.47654">
        <ele>25</ele>
        <time>2014-10-20T13:12:56.1Z</time>
      </trkpt>
      <trkpt lat="48.6375" lon="-2.47654">
        <ele>24</ele>
        <time>2014-10-20T13:12:58.1Z</time>
      </trkpt>
      <trkpt lat="48.63751" lon="-2.47653">
        <ele>25</ele>
        <time>2014-10-20T13:13:02.1Z</time>
      </trkpt>
      <trkpt lat="48.63751" lon="-2.47652">
        <ele>24</ele>
        <time>2014-10-20T13:13:04.1Z</time>
      </trkpt>
      <trkpt lat="48.63751" lon="-2.47651">
        <ele>24</ele>
        <time>2014-10-20T13:13:07.1Z</time>
      </trkpt>
      <trkpt lat="48.63751" lon="-2.47652">
        <ele>23</ele>
        <time>2014-10-20T13:13:10.1Z</time>
      </trkpt>
      <trkpt lat="48.63751" lon="-2.47652">
        <ele>24</ele>
        <time>2014-10-20T13:13:12.1Z</time>
      </trkpt>
      <trkpt lat="48.63752" lon="-2.47653">
        <ele>24</ele>
        <time>2014-10-20T13:13:15.1Z</time>
      </trkpt>
      <trkpt lat="48.63752" lon="-2.47655">
        <ele>24</ele>
        <time>2014-10-20T13:13:18.1Z</time>
      </trkpt>
      <trkpt lat="48.63754" lon="-2.47656">
        <ele>24</ele>
        <time>2014-10-20T13:13:20.1Z</time>
      </trkpt>
      <trkpt lat="48.63755" lon="-2.47658">
        <ele>24</ele>
        <time>2014-10-20T13:13:23.1Z</time>
      </trkpt>
      <trkpt lat="48.63757" lon="-2.47658">
        <ele>24</ele>
        <time>2014-10-20T13:13:25.1Z</time>
      </trkpt>
      <trkpt lat="48.63759" lon="-2.47657">
        <ele>24</ele>
        <time>2014-10-20T13:13:28.1Z</time>
      </trkpt>
      <trkpt lat="48.63761" lon="-2.47657">
        <ele>24</ele>
        <time>2014-10-20T13:13:31.1Z</time>
      </trkpt>
      <trkpt lat="48.63761" lon="-2.47656">
        <ele>24</ele>
        <time>2014-10-20T13:13:33.1Z</time>
      </trkpt>
      <trkpt lat="48.6376" lon="-2.47654">
        <ele>24</ele>
        <time>2014-10-20T13:13:36.1Z</time>
      </trkpt>
      <trkpt lat="48.6376" lon="-2.47654">
        <ele>24</ele>
        <time>2014-10-20T13:13:39.1Z</time>
      </trkpt>
      <trkpt lat="48.63757" lon="-2.47654">
        <ele>24</ele>
        <time>2014-10-20T13:13:42.1Z</time>
      </trkpt>
      <trkpt lat="48.63755" lon="-2.47653">
        <ele>24</ele>
        <time>2014-10-20T13:13:45.1Z</time>
      </trkpt>
      <trkpt lat="48.63754" lon="-2.47652">
        <ele>24</ele>
        <time>2014-10-20T13:13:48.1Z</time>
      </trkpt>
      <trkpt lat="48.63753" lon="-2.47651">
        <ele>24</ele>
        <time>2014-10-20T13:13:50.1Z</time>
      </trkpt>
      <trkpt lat="48.63752" lon="-2.47649">
        <ele>24</ele>
        <time>2014-10-20T13:13:53.1Z</time>
      </trkpt>
      <trkpt lat="48.63752" lon="-2.47648">
        <ele>24</ele>
        <time>2014-10-20T13:13:56.1Z</time>
      </trkpt>
      <trkpt lat="48.63752" lon="-2.47647">
        <ele>24</ele>
        <time>2014-10-20T13:13:58.1Z</time>
      </trkpt>
      <trkpt lat="48.63752" lon="-2.47646">
        <ele>24</ele>
        <time>2014-10-20T13:14:00.1Z</time>
      </trkpt>
      <trkpt lat="48.6375" lon="-2.47646">
        <ele>24</ele>
        <time>2014-10-20T13:14:03.1Z</time>
      </trkpt>
      <trkpt lat="48.63749" lon="-2.47645">
        <ele>23</ele>
        <time>2014-10-20T13:14:05.1Z</time>
      </trkpt>
      <trkpt lat="48.63748" lon="-2.47645">
        <ele>23</ele>
        <time>2014-10-20T13:14:08.1Z</time>
      </trkpt>
      <trkpt lat="48.63748" lon="-2.47648">
        <ele>23</ele>
        <time>2014-10-20T13:14:11.1Z</time>
      </trkpt>
      <trkpt lat="48.63747" lon="-2.47651">
        <ele>23</ele>
        <time>2014-10-20T13:14:13.1Z</time>
      </trkpt>
      <trkpt lat="48.63747" lon="-2.47655">
        <ele>23</ele>
        <time>2014-10-20T13:14:15.1Z</time>
      </trkpt>
      <trkpt lat="48.63745" lon="-2.47661">
        <ele>23</ele>
        <time>2014-10-20T13:14:18.1Z</time>
      </trkpt>
      <trkpt lat="48.63743" lon="-2.47664">
        <ele>23</ele>
        <time>2014-10-20T13:14:20.1Z</time>
      </trkpt>
      <trkpt lat="48.6374" lon="-2.4767">
        <ele>23</ele>
        <time>2014-10-20T13:14:23.1Z</time>
      </trkpt>
      <trkpt lat="48.63738" lon="-2.47675">
        <ele>23</ele>
        <time>2014-10-20T13:14:26.1Z</time>
      </trkpt>
      <trkpt lat="48.63737" lon="-2.47678">
        <ele>24</ele>
        <time>2014-10-20T13:14:28.1Z</time>
      </trkpt>
      <trkpt lat="48.63737" lon="-2.47682">
        <ele>24</ele>
        <time>2014-10-20T13:14:31.1Z</time>
      </trkpt>
      <trkpt lat="48.63738" lon="-2.47688">
        <ele>24</ele>
        <time>2014-10-20T13:14:34.1Z</time>
      </trkpt>
      <trkpt lat="48.63737" lon="-2.47693">
        <ele>25</ele>
        <time>2014-10-20T13:14:37.1Z</time>
      </trkpt>
      <trkpt lat="48.63736" lon="-2.47697">
        <ele>25</ele>
        <time>2014-10-20T13:14:40.1Z</time>
      </trkpt>
      <trkpt lat="48.63737" lon="-2.47701">
        <ele>26</ele>
        <time>2014-10-20T13:14:43.1Z</time>
      </trkpt>
      <trkpt lat="48.63736" lon="-2.47701">
        <ele>26</ele>
        <time>2014-10-20T13:14:46.1Z</time>
      </trkpt>
      <trkpt lat="48.63736" lon="-2.47701">
        <ele>26</ele>
        <time>2014-10-20T13:14:48.1Z</time>
      </trkpt>
      <trkpt lat="48.63737" lon="-2.47705">
        <ele>26</ele>
        <time>2014-10-20T13:14:51.1Z</time>
      </trkpt>
      <trkpt lat="48.63739" lon="-2.47708">
        <ele>26</ele>
        <time>2014-10-20T13:14:54.1Z</time>
      </trkpt>
      <trkpt lat="48.63742" lon="-2.47713">
        <ele>25</ele>
        <time>2014-10-20T13:14:57.1Z</time>
      </trkpt>
      <trkpt lat="48.63743" lon="-2.47717">
        <ele>26</ele>
        <time>2014-10-20T13:14:59.1Z</time>
      </trkpt>
      <trkpt lat="48.63744" lon="-2.47721">
        <ele>26</ele>
        <time>2014-10-20T13:15:01.1Z</time>
      </trkpt>
      <trkpt lat="48.63746" lon="-2.47726">
        <ele>26</ele>
        <time>2014-10-20T13:15:04.1Z</time>
      </trkpt>
      <trkpt lat="48.63747" lon="-2.4773">
        <ele>26</ele>
        <time>2014-10-20T13:15:06.1Z</time>
      </trkpt>
      <trkpt lat="48.63749" lon="-2.47733">
        <ele>26</ele>
        <time>2014-10-20T13:15:08.1Z</time>
      </trkpt>
      <trkpt lat="48.63751" lon="-2.47739">
        <ele>26</ele>
        <time>2014-10-20T13:15:11.1Z</time>
      </trkpt>
      <trkpt lat="48.63753" lon="-2.47744">
        <ele>26</ele>
        <time>2014-10-20T13:15:14.1Z</time>
      </trkpt>
      <trkpt lat="48.63755" lon="-2.47748">
        <ele>26</ele>
        <time>2014-10-20T13:15:17.1Z</time>
      </trkpt>
      <trkpt lat="48.63756" lon="-2.47752">
        <ele>26</ele>
        <time>2014-10-20T13:15:20.1Z</time>
      </trkpt>
      <trkpt lat="48.63757" lon="-2.47757">
        <ele>26</ele>
        <time>2014-10-20T13:15:23.1Z</time>
      </trkpt>
      <trkpt lat="48.63758" lon="-2.47761">
        <ele>26</ele>
        <time>2014-10-20T13:15:26.1Z</time>
      </trkpt>
      <trkpt lat="48.63758" lon="-2.47765">
        <ele>26</ele>
        <time>2014-10-20T13:15:28.1Z</time>
      </trkpt>
      <trkpt lat="48.63758" lon="-2.47768">
        <ele>26</ele>
        <time>2014-10-20T13:15:31.1Z</time>
      </trkpt>
      <trkpt lat="48.63758" lon="-2.4777">
        <ele>27</ele>
        <time>2014-10-20T13:15:34.1Z</time>
      </trkpt>
      <trkpt lat="48.63759" lon="-2.47771">
        <ele>27</ele>
        <time>2014-10-20T13:15:36.1Z</time>
      </trkpt>
      <trkpt lat="48.63759" lon="-2.47774">
        <ele>28</ele>
        <time>2014-10-20T13:15:39.1Z</time>
      </trkpt>
      <trkpt lat="48.63759" lon="-2.47775">
        <ele>28</ele>
        <time>2014-10-20T13:15:41.1Z</time>
      </trkpt>
      <trkpt lat="48.63759" lon="-2.47778">
        <ele>28</ele>
        <time>2014-10-20T13:15:44.1Z</time>
      </trkpt>
      <trkpt lat="48.6376" lon="-2.47779">
        <ele>29</ele>
        <time>2014-10-20T13:15:46.1Z</time>
      </trkpt>
      <trkpt lat="48.6376" lon="-2.47782">
        <ele>29</ele>
        <time>2014-10-20T13:15:49.1Z</time>
      </trkpt>
      <trkpt lat="48.6376" lon="-2.47784">
        <ele>30</ele>
        <time>2014-10-20T13:15:51.1Z</time>
      </trkpt>
      <trkpt lat="48.6376" lon="-2.47785">
        <ele>30</ele>
        <time>2014-10-20T13:15:53.1Z</time>
      </trkpt>
      <trkpt lat="48.63761" lon="-2.47787">
        <ele>30</ele>
        <time>2014-10-20T13:15:56.1Z</time>
      </trkpt>
      <trkpt lat="48.63761" lon="-2.4779">
        <ele>31</ele>
        <time>2014-10-20T13:15:59.1Z</time>
      </trkpt>
      <trkpt lat="48.63761" lon="-2.47792">
        <ele>31</ele>
        <time>2014-10-20T13:16:01.1Z</time>
      </trkpt>
      <trkpt lat="48.6376" lon="-2.47794">
        <ele>31</ele>
        <time>2014-10-20T13:16:04.1Z</time>
      </trkpt>
      <trkpt lat="48.6376" lon="-2.47796">
        <ele>32</ele>
        <time>2014-10-20T13:16:06.1Z</time>
      </trkpt>
      <trkpt lat="48.6376" lon="-2.47799">
        <ele>32</ele>
        <time>2014-10-20T13:16:09.1Z</time>
      </trkpt>
      <trkpt lat="48.6376" lon="-2.47801">
        <ele>32</ele>
        <time>2014-10-20T13:16:11.1Z</time>
      </trkpt>
      <trkpt lat="48.6376" lon="-2.47804">
        <ele>32</ele>
        <time>2014-10-20T13:16:13.1Z</time>
      </trkpt>
      <trkpt lat="48.63759" lon="-2.47807">
        <ele>33</ele>
        <time>2014-10-20T13:16:16.1Z</time>
      </trkpt>
      <trkpt lat="48.63758" lon="-2.47808">
        <ele>33</ele>
        <time>2014-10-20T13:16:18.1Z</time>
      </trkpt>
      <trkpt lat="48.63755" lon="-2.47811">
        <ele>33</ele>
        <time>2014-10-20T13:16:21.1Z</time>
      </trkpt>
      <trkpt lat="48.63754" lon="-2.47814">
        <ele>34</ele>
        <time>2014-10-20T13:16:23.1Z</time>
      </trkpt>
      <trkpt lat="48.63753" lon="-2.47817">
        <ele>34</ele>
        <time>2014-10-20T13:16:25.1Z</time>
      </trkpt>
      <trkpt lat="48.63752" lon="-2.47822">
        <ele>34</ele>
        <time>2014-10-20T13:16:28.1Z</time>
      </trkpt>
      <trkpt lat="48.63752" lon="-2.47826">
        <ele>34</ele>
        <time>2014-10-20T13:16:30.1Z</time>
      </trkpt>
      <trkpt lat="48.63752" lon="-2.47831">
        <ele>35</ele>
        <time>2014-10-20T13:16:33.1Z</time>
      </trkpt>
      <trkpt lat="48.63752" lon="-2.47836">
        <ele>35</ele>
        <time>2014-10-20T13:16:36.1Z</time>
      </trkpt>
      <trkpt lat="48.63752" lon="-2.4784">
        <ele>35</ele>
        <time>2014-10-20T13:16:39.1Z</time>
      </trkpt>
      <trkpt lat="48.63752" lon="-2.47845">
        <ele>35</ele>
        <time>2014-10-20T13:16:42.1Z</time>
      </trkpt>
      <trkpt lat="48.63752" lon="-2.47848">
        <ele>36</ele>
        <time>2014-10-20T13:16:44.1Z</time>
      </trkpt>
      <trkpt lat="48.63753" lon="-2.4785">
        <ele>36</ele>
        <time>2014-10-20T13:16:46.1Z</time>
      </trkpt>
      <trkpt lat="48.63754" lon="-2.47855">
        <ele>36</ele>
        <time>2014-10-20T13:16:49.1Z</time>
      </trkpt>
      <trkpt lat="48.63755" lon="-2.4786">
        <ele>36</ele>
        <time>2014-10-20T13:16:52.1Z</time>
      </trkpt>
      <trkpt lat="48.63756" lon="-2.47863">
        <ele>36</ele>
        <time>2014-10-20T13:16:54.1Z</time>
      </trkpt>
      <trkpt lat="48.63757" lon="-2.47867">
        <ele>36</ele>
        <time>2014-10-20T13:16:57.1Z</time>
      </trkpt>
      <trkpt lat="48.63758" lon="-2.47869">
        <ele>35</ele>
        <time>2014-10-20T13:17:00.1Z</time>
      </trkpt>
      <trkpt lat="48.63759" lon="-2.47871">
        <ele>35</ele>
        <time>2014-10-20T13:17:03.1Z</time>
      </trkpt>
      <trkpt lat="48.6376" lon="-2.47874">
        <ele>35</ele>
        <time>2014-10-20T13:17:06.1Z</time>
      </trkpt>
      <trkpt lat="48.63761" lon="-2.47877">
        <ele>36</ele>
        <time>2014-10-20T13:17:09.1Z</time>
      </trkpt>
      <trkpt lat="48.63761" lon="-2.47877">
        <ele>36</ele>
        <time>2014-10-20T13:17:11.1Z</time>
      </trkpt>
      <trkpt lat="48.63761" lon="-2.47877">
        <ele>36</ele>
        <time>2014-10-20T13:17:14.1Z</time>
      </trkpt>
      <trkpt lat="48.63761" lon="-2.47878">
        <ele>36</ele>
        <time>2014-10-20T13:17:16.1Z</time>
      </trkpt>
      <trkpt lat="48.63761" lon="-2.47879">
        <ele>36</ele>
        <time>2014-10-20T13:17:19.1Z</time>
      </trkpt>
      <trkpt lat="48.63761" lon="-2.47879">
        <ele>36</ele>
        <time>2014-10-20T13:17:22.1Z</time>
      </trkpt>
      <trkpt lat="48.6376" lon="-2.47879">
        <ele>36</ele>
        <time>2014-10-20T13:17:24.1Z</time>
      </trkpt>
      <trkpt lat="48.63761" lon="-2.47879">
        <ele>36</ele>
        <time>2014-10-20T13:17:27.1Z</time>
      </trkpt>
      <trkpt lat="48.63761" lon="-2.4788">
        <ele>36</ele>
        <time>2014-10-20T13:17:31.1Z</time>
      </trkpt>
      <trkpt lat="48.6376" lon="-2.4788">
        <ele>36</ele>
        <time>2014-10-20T13:17:33.1Z</time>
      </trkpt>
      <trkpt lat="48.6376" lon="-2.47881">
        <ele>37</ele>
        <time>2014-10-20T13:17:37.1Z</time>
      </trkpt>
      <trkpt lat="48.6376" lon="-2.47882">
        <ele>36</ele>
        <time>2014-10-20T13:17:40.1Z</time>
      </trkpt>
      <trkpt lat="48.63761" lon="-2.47884">
        <ele>36</ele>
        <time>2014-10-20T13:17:43.1Z</time>
      </trkpt>
      <trkpt lat="48.63762" lon="-2.47888">
        <ele>36</ele>
        <time>2014-10-20T13:17:46.1Z</time>
      </trkpt>
      <trkpt lat="48.63762" lon="-2.4789">
        <ele>35</ele>
        <time>2014-10-20T13:17:48.1Z</time>
      </trkpt>
      <trkpt lat="48.63763" lon="-2.47893">
        <ele>34</ele>
        <time>2014-10-20T13:17:51.1Z</time>
      </trkpt>
      <trkpt lat="48.63763" lon="-2.47897">
        <ele>34</ele>
        <time>2014-10-20T13:17:54.1Z</time>
      </trkpt>
      <trkpt lat="48.63763" lon="-2.47899">
        <ele>34</ele>
        <time>2014-10-20T13:17:56.1Z</time>
      </trkpt>
      <trkpt lat="48.63764" lon="-2.47902">
        <ele>35</ele>
        <time>2014-10-20T13:17:59.1Z</time>
      </trkpt>
      <trkpt lat="48.63764" lon="-2.47904">
        <ele>36</ele>
        <time>2014-10-20T13:18:01.1Z</time>
      </trkpt>
      <trkpt lat="48.63764" lon="-2.47907">
        <ele>36</ele>
        <time>2014-10-20T13:18:04.1Z</time>
      </trkpt>
      <trkpt lat="48.63764" lon="-2.47909">
        <ele>36</ele>
        <time>2014-10-20T13:18:07.1Z</time>
      </trkpt>
      <trkpt lat="48.63764" lon="-2.47911">
        <ele>36</ele>
        <time>2014-10-20T13:18:09.1Z</time>
      </trkpt>
      <trkpt lat="48.63764" lon="-2.47914">
        <ele>37</ele>
        <time>2014-10-20T13:18:12.1Z</time>
      </trkpt>
      <trkpt lat="48.63764" lon="-2.47916">
        <ele>37</ele>
        <time>2014-10-20T13:18:14.1Z</time>
      </trkpt>
      <trkpt lat="48.63765" lon="-2.4792">
        <ele>37</ele>
        <time>2014-10-20T13:18:17.1Z</time>
      </trkpt>
      <trkpt lat="48.63765" lon="-2.47923">
        <ele>37</ele>
        <time>2014-10-20T13:18:19.1Z</time>
      </trkpt>
      <trkpt lat="48.63765" lon="-2.47926">
        <ele>37</ele>
        <time>2014-10-20T13:18:22.1Z</time>
      </trkpt>
      <trkpt lat="48.63765" lon="-2.47928">
        <ele>37</ele>
        <time>2014-10-20T13:18:24.1Z</time>
      </trkpt>
      <trkpt lat="48.63765" lon="-2.47932">
        <ele>37</ele>
        <time>2014-10-20T13:18:27.1Z</time>
      </trkpt>
      <trkpt lat="48.63765" lon="-2.47936">
        <ele>37</ele>
        <time>2014-10-20T13:18:30.1Z</time>
      </trkpt>
      <trkpt lat="48.63765" lon="-2.47938">
        <ele>37</ele>
        <time>2014-10-20T13:18:32.1Z</time>
      </trkpt>
      <trkpt lat="48.63765" lon="-2.4794">
        <ele>37</ele>
        <time>2014-10-20T13:18:35.1Z</time>
      </trkpt>
      <trkpt lat="48.63765" lon="-2.47942">
        <ele>38</ele>
        <time>2014-10-20T13:18:37.1Z</time>
      </trkpt>
      <trkpt lat="48.63766" lon="-2.47944">
        <ele>38</ele>
        <time>2014-10-20T13:18:40.1Z</time>
      </trkpt>
      <trkpt lat="48.63766" lon="-2.47946">
        <ele>38</ele>
        <time>2014-10-20T13:18:42.1Z</time>
      </trkpt>
      <trkpt lat="48.63766" lon="-2.4795">
        <ele>37</ele>
        <time>2014-10-20T13:18:45.1Z</time>
      </trkpt>
      <trkpt lat="48.63768" lon="-2.47952">
        <ele>36</ele>
        <time>2014-10-20T13:18:48.1Z</time>
      </trkpt>
      <trkpt lat="48.63768" lon="-2.47951">
        <ele>35</ele>
        <time>2014-10-20T13:18:51.1Z</time>
      </trkpt>
      <trkpt lat="48.63768" lon="-2.47949">
        <ele>35</ele>
        <time>2014-10-20T13:18:54.1Z</time>
      </trkpt>
      <trkpt lat="48.63768" lon="-2.47948">
        <ele>35</ele>
        <time>2014-10-20T13:18:56.1Z</time>
      </trkpt>
      <trkpt lat="48.63768" lon="-2.47948">
        <ele>35</ele>
        <time>2014-10-20T13:18:58.1Z</time>
      </trkpt>
      <trkpt lat="48.63769" lon="-2.4795">
        <ele>36</ele>
        <time>2014-10-20T13:19:01.1Z</time>
      </trkpt>
      <trkpt lat="48.63768" lon="-2.4795">
        <ele>36</ele>
        <time>2014-10-20T13:19:03.1Z</time>
      </trkpt>
      <trkpt lat="48.63767" lon="-2.47949">
        <ele>37</ele>
        <time>2014-10-20T13:19:05.1Z</time>
      </trkpt>
      <trkpt lat="48.63768" lon="-2.47948">
        <ele>37</ele>
        <time>2014-10-20T13:19:08.1Z</time>
      </trkpt>
      <trkpt lat="48.63768" lon="-2.47948">
        <ele>38</ele>
        <time>2014-10-20T13:19:10.1Z</time>
      </trkpt>
      <trkpt lat="48.63768" lon="-2.47947">
        <ele>40</ele>
        <time>2014-10-20T13:19:13.1Z</time>
      </trkpt>
      <trkpt lat="48.63768" lon="-2.47946">
        <ele>40</ele>
        <time>2014-10-20T13:19:16.1Z</time>
      </trkpt>
      <trkpt lat="48.63768" lon="-2.47946">
        <ele>40</ele>
        <time>2014-10-20T13:19:18.1Z</time>
      </trkpt>
      <trkpt lat="48.63767" lon="-2.47947">
        <ele>39</ele>
        <time>2014-10-20T13:19:21.1Z</time>
      </trkpt>
      <trkpt lat="48.63768" lon="-2.4795">
        <ele>38</ele>
        <time>2014-10-20T13:19:23.1Z</time>
      </trkpt>
      <trkpt lat="48.63769" lon="-2.47953">
        <ele>37</ele>
        <time>2014-10-20T13:19:25.1Z</time>
      </trkpt>
      <trkpt lat="48.63771" lon="-2.47957">
        <ele>36</ele>
        <time>2014-10-20T13:19:28.1Z</time>
      </trkpt>
      <trkpt lat="48.63773" lon="-2.47961">
        <ele>36</ele>
        <time>2014-10-20T13:19:31.1Z</time>
      </trkpt>
      <trkpt lat="48.63774" lon="-2.47963">
        <ele>36</ele>
        <time>2014-10-20T13:19:33.1Z</time>
      </trkpt>
      <trkpt lat="48.63776" lon="-2.47965">
        <ele>36</ele>
        <time>2014-10-20T13:19:35.1Z</time>
      </trkpt>
      <trkpt lat="48.63778" lon="-2.47968">
        <ele>36</ele>
        <time>2014-10-20T13:19:38.1Z</time>
      </trkpt>
      <trkpt lat="48.6378" lon="-2.47971">
        <ele>36</ele>
        <time>2014-10-20T13:19:41.1Z</time>
      </trkpt>
      <trkpt lat="48.63781" lon="-2.47975">
        <ele>36</ele>
        <time>2014-10-20T13:19:44.1Z</time>
      </trkpt>
      <trkpt lat="48.63781" lon="-2.47979">
        <ele>35</ele>
        <time>2014-10-20T13:19:47.1Z</time>
      </trkpt>
      <trkpt lat="48.6378" lon="-2.47985">
        <ele>34</ele>
        <time>2014-10-20T13:19:50.1Z</time>
      </trkpt>
      <trkpt lat="48.63778" lon="-2.4799">
        <ele>34</ele>
        <time>2014-10-20T13:19:53.1Z</time>
      </trkpt>
      <trkpt lat="48.63776" lon="-2.47992">
        <ele>34</ele>
        <time>2014-10-20T13:19:55.1Z</time>
      </trkpt>
      <trkpt lat="48.63774" lon="-2.47996">
        <ele>34</ele>
        <time>2014-10-20T13:19:58.1Z</time>
      </trkpt>
      <trkpt lat="48.63774" lon="-2.47997">
        <ele>34</ele>
        <time>2014-10-20T13:20:01.1Z</time>
      </trkpt>
      <trkpt lat="48.63772" lon="-2.48002">
        <ele>33</ele>
        <time>2014-10-20T13:20:04.1Z</time>
      </trkpt>
      <trkpt lat="48.63772" lon="-2.48007">
        <ele>33</ele>
        <time>2014-10-20T13:20:07.1Z</time>
      </trkpt>
      <trkpt lat="48.63773" lon="-2.4801">
        <ele>33</ele>
        <time>2014-10-20T13:20:10.1Z</time>
      </trkpt>
      <trkpt lat="48.63774" lon="-2.48013">
        <ele>33</ele>
        <time>2014-10-20T13:20:12.1Z</time>
      </trkpt>
      <trkpt lat="48.63774" lon="-2.48013">
        <ele>33</ele>
        <time>2014-10-20T13:20:14.1Z</time>
      </trkpt>
      <trkpt lat="48.63774" lon="-2.48014">
        <ele>33</ele>
        <time>2014-10-20T13:20:17.1Z</time>
      </trkpt>
      <trkpt lat="48.63775" lon="-2.48017">
        <ele>33</ele>
        <time>2014-10-20T13:20:20.1Z</time>
      </trkpt>
      <trkpt lat="48.63776" lon="-2.48019">
        <ele>33</ele>
        <time>2014-10-20T13:20:22.1Z</time>
      </trkpt>
      <trkpt lat="48.63778" lon="-2.48021">
        <ele>33</ele>
        <time>2014-10-20T13:20:24.1Z</time>
      </trkpt>
      <trkpt lat="48.6378" lon="-2.48023">
        <ele>33</ele>
        <time>2014-10-20T13:20:27.1Z</time>
      </trkpt>
      <trkpt lat="48.63782" lon="-2.48024">
        <ele>33</ele>
        <time>2014-10-20T13:20:29.1Z</time>
      </trkpt>
      <trkpt lat="48.63783" lon="-2.48025">
        <ele>32</ele>
        <time>2014-10-20T13:20:31.1Z</time>
      </trkpt>
      <trkpt lat="48.63785" lon="-2.48027">
        <ele>32</ele>
        <time>2014-10-20T13:20:34.1Z</time>
      </trkpt>
      <trkpt lat="48.63785" lon="-2.48028">
        <ele>32</ele>
        <time>2014-10-20T13:20:37.1Z</time>
      </trkpt>
      <trkpt lat="48.63786" lon="-2.48028">
        <ele>31</ele>
        <time>2014-10-20T13:20:41.1Z</time>
      </trkpt>
      <trkpt lat="48.63787" lon="-2.48028">
        <ele>31</ele>
        <time>2014-10-20T13:20:44.1Z</time>
      </trkpt>
      <trkpt lat="48.6379" lon="-2.48029">
        <ele>31</ele>
        <time>2014-10-20T13:20:47.1Z</time>
      </trkpt>
      <trkpt lat="48.63791" lon="-2.48028">
        <ele>31</ele>
        <time>2014-10-20T13:20:50.1Z</time>
      </trkpt>
      <trkpt lat="48.63792" lon="-2.48029">
        <ele>31</ele>
        <time>2014-10-20T13:20:53.1Z</time>
      </trkpt>
      <trkpt lat="48.63794" lon="-2.4803">
        <ele>31</ele>
        <time>2014-10-20T13:20:56.1Z</time>
      </trkpt>
      <trkpt lat="48.63795" lon="-2.48031">
        <ele>31</ele>
        <time>2014-10-20T13:20:58.1Z</time>
      </trkpt>
      <trkpt lat="48.63796" lon="-2.48031">
        <ele>31</ele>
        <time>2014-10-20T13:21:01.1Z</time>
      </trkpt>
      <trkpt lat="48.63796" lon="-2.48033">
        <ele>31</ele>
        <time>2014-10-20T13:21:05.1Z</time>
      </trkpt>
      <trkpt lat="48.63796" lon="-2.48033">
        <ele>31</ele>
        <time>2014-10-20T13:21:08.1Z</time>
      </trkpt>
      <trkpt lat="48.63796" lon="-2.48034">
        <ele>32</ele>
        <time>2014-10-20T13:21:11.1Z</time>
      </trkpt>
      <trkpt lat="48.63796" lon="-2.48035">
        <ele>32</ele>
        <time>2014-10-20T13:21:14.1Z</time>
      </trkpt>
      <trkpt lat="48.63795" lon="-2.48036">
        <ele>32</ele>
        <time>2014-10-20T13:21:17.1Z</time>
      </trkpt>
      <trkpt lat="48.63796" lon="-2.48036">
        <ele>32</ele>
        <time>2014-10-20T13:21:19.1Z</time>
      </trkpt>
      <trkpt lat="48.63796" lon="-2.48037">
        <ele>32</ele>
        <time>2014-10-20T13:21:22.1Z</time>
      </trkpt>
      <trkpt lat="48.63796" lon="-2.48037">
        <ele>32</ele>
        <time>2014-10-20T13:21:27.1Z</time>
      </trkpt>
      <trkpt lat="48.63796" lon="-2.48037">
        <ele>32</ele>
        <time>2014-10-20T13:21:30.1Z</time>
      </trkpt>
      <trkpt lat="48.63795" lon="-2.48037">
        <ele>32</ele>
        <time>2014-10-20T13:21:33.1Z</time>
      </trkpt>
      <trkpt lat="48.63796" lon="-2.4804">
        <ele>31</ele>
        <time>2014-10-20T13:21:36.1Z</time>
      </trkpt>
      <trkpt lat="48.63797" lon="-2.48043">
        <ele>31</ele>
        <time>2014-10-20T13:21:39.1Z</time>
      </trkpt>
      <trkpt lat="48.63797" lon="-2.48046">
        <ele>31</ele>
        <time>2014-10-20T13:21:41.1Z</time>
      </trkpt>
      <trkpt lat="48.63798" lon="-2.48048">
        <ele>31</ele>
        <time>2014-10-20T13:21:44.1Z</time>
      </trkpt>
      <trkpt lat="48.63798" lon="-2.48049">
        <ele>31</ele>
        <time>2014-10-20T13:21:46.1Z</time>
      </trkpt>
      <trkpt lat="48.63798" lon="-2.48052">
        <ele>31</ele>
        <time>2014-10-20T13:21:49.1Z</time>
      </trkpt>
      <trkpt lat="48.63798" lon="-2.48053">
        <ele>30</ele>
        <time>2014-10-20T13:21:51.1Z</time>
      </trkpt>
      <trkpt lat="48.63798" lon="-2.48055">
        <ele>30</ele>
        <time>2014-10-20T13:21:54.1Z</time>
      </trkpt>
      <trkpt lat="48.63799" lon="-2.48059">
        <ele>30</ele>
        <time>2014-10-20T13:21:57.1Z</time>
      </trkpt>
      <trkpt lat="48.638" lon="-2.4806">
        <ele>30</ele>
        <time>2014-10-20T13:21:59.1Z</time>
      </trkpt>
      <trkpt lat="48.63801" lon="-2.48063">
        <ele>29</ele>
        <time>2014-10-20T13:22:02.1Z</time>
      </trkpt>
      <trkpt lat="48.63802" lon="-2.48065">
        <ele>29</ele>
        <time>2014-10-20T13:22:05.1Z</time>
      </trkpt>
      <trkpt lat="48.63805" lon="-2.48066">
        <ele>28</ele>
        <time>2014-10-20T13:22:08.1Z</time>
      </trkpt>
      <trkpt lat="48.63805" lon="-2.48067">
        <ele>28</ele>
        <time>2014-10-20T13:22:10.1Z</time>
      </trkpt>
      <trkpt lat="48.63805" lon="-2.48068">
        <ele>28</ele>
        <time>2014-10-20T13:22:13.1Z</time>
      </trkpt>
      <trkpt lat="48.63805" lon="-2.48068">
        <ele>28</ele>
        <time>2014-10-20T13:22:15.1Z</time>
      </trkpt>
      <trkpt lat="48.63805" lon="-2.48068">
        <ele>29</ele>
        <time>2014-10-20T13:22:18.1Z</time>
      </trkpt>
      <trkpt lat="48.63805" lon="-2.48069">
        <ele>28</ele>
        <time>2014-10-20T13:22:21.1Z</time>
      </trkpt>
      <trkpt lat="48.63805" lon="-2.4807">
        <ele>28</ele>
        <time>2014-10-20T13:22:23.1Z</time>
      </trkpt>
      <trkpt lat="48.63805" lon="-2.4807">
        <ele>27</ele>
        <time>2014-10-20T13:22:28.1Z</time>
      </trkpt>
      <trkpt lat="48.63805" lon="-2.48068">
        <ele>27</ele>
        <time>2014-10-20T13:22:30.1Z</time>
      </trkpt>
      <trkpt lat="48.63804" lon="-2.48069">
        <ele>28</ele>
        <time>2014-10-20T13:22:33.1Z</time>
      </trkpt>
      <trkpt lat="48.63804" lon="-2.48069">
        <ele>28</ele>
        <time>2014-10-20T13:22:36.1Z</time>
      </trkpt>
      <trkpt lat="48.63804" lon="-2.48069">
        <ele>28</ele>
        <time>2014-10-20T13:22:38.1Z</time>
      </trkpt>
      <trkpt lat="48.63804" lon="-2.48069">
        <ele>28</ele>
        <time>2014-10-20T13:22:41.1Z</time>
      </trkpt>
      <trkpt lat="48.63804" lon="-2.48069">
        <ele>28</ele>
        <time>2014-10-20T13:22:45.1Z</time>
      </trkpt>
      <trkpt lat="48.63804" lon="-2.4807">
        <ele>27</ele>
        <time>2014-10-20T13:22:47.1Z</time>
      </trkpt>
      <trkpt lat="48.63804" lon="-2.4807">
        <ele>27</ele>
        <time>2014-10-20T13:22:50.1Z</time>
      </trkpt>
      <trkpt lat="48.63804" lon="-2.4807">
        <ele>27</ele>
        <time>2014-10-20T13:22:52.1Z</time>
      </trkpt>
      <trkpt lat="48.63804" lon="-2.48071">
        <ele>27</ele>
        <time>2014-10-20T13:22:55.1Z</time>
      </trkpt>
      <trkpt lat="48.63804" lon="-2.48071">
        <ele>27</ele>
        <time>2014-10-20T13:22:57.1Z</time>
      </trkpt>
      <trkpt lat="48.63805" lon="-2.48071">
        <ele>26</ele>
        <time>2014-10-20T13:23:00.1Z</time>
      </trkpt>
      <trkpt lat="48.63805" lon="-2.48071">
        <ele>27</ele>
        <time>2014-10-20T13:23:03.1Z</time>
      </trkpt>
      <trkpt lat="48.63805" lon="-2.48071">
        <ele>27</ele>
        <time>2014-10-20T13:23:06.1Z</time>
      </trkpt>
      <trkpt lat="48.63805" lon="-2.48071">
        <ele>27</ele>
        <time>2014-10-20T13:23:08.1Z</time>
      </trkpt>
      <trkpt lat="48.63805" lon="-2.48071">
        <ele>27</ele>
        <time>2014-10-20T13:23:11.1Z</time>
      </trkpt>
      <trkpt lat="48.63805" lon="-2.48071">
        <ele>27</ele>
        <time>2014-10-20T13:23:13.1Z</time>
      </trkpt>
      <trkpt lat="48.63805" lon="-2.48071">
        <ele>27</ele>
        <time>2014-10-20T13:23:15.1Z</time>
      </trkpt>
      <trkpt lat="48.63804" lon="-2.48071">
        <ele>27</ele>
        <time>2014-10-20T13:23:18.1Z</time>
      </trkpt>
      <trkpt lat="48.63804" lon="-2.48074">
        <ele>27</ele>
        <time>2014-10-20T13:23:20.1Z</time>
      </trkpt>
      <trkpt lat="48.63804" lon="-2.48076">
        <ele>27</ele>
        <time>2014-10-20T13:23:22.1Z</time>
      </trkpt>
      <trkpt lat="48.63804" lon="-2.48076">
        <ele>27</ele>
        <time>2014-10-20T13:23:25.1Z</time>
      </trkpt>
      <trkpt lat="48.63804" lon="-2.48077">
        <ele>27</ele>
        <time>2014-10-20T13:23:27.1Z</time>
      </trkpt>
      <trkpt lat="48.63805" lon="-2.48077">
        <ele>27</ele>
        <time>2014-10-20T13:23:29.1Z</time>
      </trkpt>
      <trkpt lat="48.63804" lon="-2.48082">
        <ele>27</ele>
        <time>2014-10-20T13:23:32.1Z</time>
      </trkpt>
      <trkpt lat="48.63803" lon="-2.48085">
        <ele>27</ele>
        <time>2014-10-20T13:23:34.1Z</time>
      </trkpt>
      <trkpt lat="48.63803" lon="-2.48089">
        <ele>26</ele>
        <time>2014-10-20T13:23:36.1Z</time>
      </trkpt>
      <trkpt lat="48.63803" lon="-2.48093">
        <ele>25</ele>
        <time>2014-10-20T13:23:39.1Z</time>
      </trkpt>
      <trkpt lat="48.63804" lon="-2.48096">
        <ele>24</ele>
        <time>2014-10-20T13:23:41.1Z</time>
      </trkpt>
      <trkpt lat="48.63807" lon="-2.48098">
        <ele>24</ele>
        <time>2014-10-20T13:23:44.1Z</time>
      </trkpt>
      <trkpt lat="48.6381" lon="-2.48104">
        <ele>23</ele>
        <time>2014-10-20T13:23:47.1Z</time>
      </trkpt>
      <trkpt lat="48.63811" lon="-2.48108">
        <ele>22</ele>
        <time>2014-10-20T13:23:49.1Z</time>
      </trkpt>
      <trkpt lat="48.63812" lon="-2.48113">
        <ele>23</ele>
        <time>2014-10-20T13:23:52.1Z</time>
      </trkpt>
      <trkpt lat="48.63813" lon="-2.48117">
        <ele>22</ele>
        <time>2014-10-20T13:23:54.1Z</time>
      </trkpt>
      <trkpt lat="48.63814" lon="-2.48124">
        <ele>23</ele>
        <time>2014-10-20T13:23:57.1Z</time>
      </trkpt>
      <trkpt lat="48.63816" lon="-2.48127">
        <ele>23</ele>
        <time>2014-10-20T13:23:59.1Z</time>
      </trkpt>
      <trkpt lat="48.63818" lon="-2.4813">
        <ele>23</ele>
        <time>2014-10-20T13:24:02.1Z</time>
      </trkpt>
      <trkpt lat="48.63819" lon="-2.48134">
        <ele>23</ele>
        <time>2014-10-20T13:24:05.1Z</time>
      </trkpt>
      <trkpt lat="48.63819" lon="-2.48139">
        <ele>23</ele>
        <time>2014-10-20T13:24:08.1Z</time>
      </trkpt>
      <trkpt lat="48.63819" lon="-2.48143">
        <ele>24</ele>
        <time>2014-10-20T13:24:10.1Z</time>
      </trkpt>
      <trkpt lat="48.6382" lon="-2.48147">
        <ele>24</ele>
        <time>2014-10-20T13:24:13.1Z</time>
      </trkpt>
      <trkpt lat="48.6382" lon="-2.4815">
        <ele>24</ele>
        <time>2014-10-20T13:24:15.1Z</time>
      </trkpt>
      <trkpt lat="48.6382" lon="-2.48155">
        <ele>24</ele>
        <time>2014-10-20T13:24:18.1Z</time>
      </trkpt>
      <trkpt lat="48.6382" lon="-2.48161">
        <ele>24</ele>
        <time>2014-10-20T13:24:21.1Z</time>
      </trkpt>
      <trkpt lat="48.63821" lon="-2.48165">
        <ele>24</ele>
        <time>2014-10-20T13:24:23.1Z</time>
      </trkpt>
      <trkpt lat="48.63822" lon="-2.4817">
        <ele>24</ele>
        <time>2014-10-20T13:24:26.1Z</time>
      </trkpt>
      <trkpt lat="48.63823" lon="-2.48174">
        <ele>23</ele>
        <time>2014-10-20T13:24:28.1Z</time>
      </trkpt>
      <trkpt lat="48.63823" lon="-2.48177">
        <ele>23</ele>
        <time>2014-10-20T13:24:30.1Z</time>
      </trkpt>
      <trkpt lat="48.63824" lon="-2.48181">
        <ele>23</ele>
        <time>2014-10-20T13:24:33.1Z</time>
      </trkpt>
      <trkpt lat="48.63824" lon="-2.48183">
        <ele>22</ele>
        <time>2014-10-20T13:24:36.1Z</time>
      </trkpt>
      <trkpt lat="48.63825" lon="-2.48183">
        <ele>22</ele>
        <time>2014-10-20T13:24:38.1Z</time>
      </trkpt>
      <trkpt lat="48.63826" lon="-2.48186">
        <ele>22</ele>
        <time>2014-10-20T13:24:41.1Z</time>
      </trkpt>
      <trkpt lat="48.63827" lon="-2.48191">
        <ele>22</ele>
        <time>2014-10-20T13:24:44.1Z</time>
      </trkpt>
      <trkpt lat="48.63829" lon="-2.48195">
        <ele>22</ele>
        <time>2014-10-20T13:24:47.1Z</time>
      </trkpt>
      <trkpt lat="48.63831" lon="-2.48199">
        <ele>21</ele>
        <time>2014-10-20T13:24:50.1Z</time>
      </trkpt>
      <trkpt lat="48.63831" lon="-2.48204">
        <ele>20</ele>
        <time>2014-10-20T13:24:53.1Z</time>
      </trkpt>
      <trkpt lat="48.63832" lon="-2.48209">
        <ele>20</ele>
        <time>2014-10-20T13:24:56.1Z</time>
      </trkpt>
      <trkpt lat="48.63833" lon="-2.48212">
        <ele>20</ele>
        <time>2014-10-20T13:24:58.1Z</time>
      </trkpt>
      <trkpt lat="48.63833" lon="-2.48215">
        <ele>21</ele>
        <time>2014-10-20T13:25:00.1Z</time>
      </trkpt>
      <trkpt lat="48.63834" lon="-2.4822">
        <ele>20</ele>
        <time>2014-10-20T13:25:03.1Z</time>
      </trkpt>
      <trkpt lat="48.63835" lon="-2.48225">
        <ele>21</ele>
        <time>2014-10-20T13:25:06.1Z</time>
      </trkpt>
      <trkpt lat="48.63836" lon="-2.4823">
        <ele>21</ele>
        <time>2014-10-20T13:25:09.1Z</time>
      </trkpt>
      <trkpt lat="48.63836" lon="-2.48236">
        <ele>20</ele>
        <time>2014-10-20T13:25:12.1Z</time>
      </trkpt>
      <trkpt lat="48.63837" lon="-2.48239">
        <ele>20</ele>
        <time>2014-10-20T13:25:14.1Z</time>
      </trkpt>
      <trkpt lat="48.63837" lon="-2.4824">
        <ele>19</ele>
        <time>2014-10-20T13:25:16.1Z</time>
      </trkpt>
      <trkpt lat="48.63837" lon="-2.48241">
        <ele>19</ele>
        <time>2014-10-20T13:25:19.1Z</time>
      </trkpt>
      <trkpt lat="48.63837" lon="-2.48243">
        <ele>19</ele>
        <time>2014-10-20T13:25:22.1Z</time>
      </trkpt>
      <trkpt lat="48.63838" lon="-2.48247">
        <ele>19</ele>
        <time>2014-10-20T13:25:24.1Z</time>
      </trkpt>
      <trkpt lat="48.63839" lon="-2.48251">
        <ele>19</ele>
        <time>2014-10-20T13:25:26.1Z</time>
      </trkpt>
      <trkpt lat="48.63841" lon="-2.48255">
        <ele>19</ele>
        <time>2014-10-20T13:25:29.1Z</time>
      </trkpt>
      <trkpt lat="48.63842" lon="-2.48258">
        <ele>19</ele>
        <time>2014-10-20T13:25:32.1Z</time>
      </trkpt>
      <trkpt lat="48.63843" lon="-2.48261">
        <ele>19</ele>
        <time>2014-10-20T13:25:34.1Z</time>
      </trkpt>
      <trkpt lat="48.63844" lon="-2.48263">
        <ele>19</ele>
        <time>2014-10-20T13:25:36.1Z</time>
      </trkpt>
      <trkpt lat="48.63845" lon="-2.48265">
        <ele>19</ele>
        <time>2014-10-20T13:25:39.1Z</time>
      </trkpt>
      <trkpt lat="48.63847" lon="-2.48268">
        <ele>19</ele>
        <time>2014-10-20T13:25:42.1Z</time>
      </trkpt>
      <trkpt lat="48.63849" lon="-2.48269">
        <ele>19</ele>
        <time>2014-10-20T13:25:45.1Z</time>
      </trkpt>
      <trkpt lat="48.63851" lon="-2.48269">
        <ele>20</ele>
        <time>2014-10-20T13:25:47.1Z</time>
      </trkpt>
      <trkpt lat="48.63852" lon="-2.48266">
        <ele>21</ele>
        <time>2014-10-20T13:25:50.1Z</time>
      </trkpt>
      <trkpt lat="48.63852" lon="-2.48265">
        <ele>21</ele>
        <time>2014-10-20T13:25:52.1Z</time>
      </trkpt>
      <trkpt lat="48.63853" lon="-2.48265">
        <ele>22</ele>
        <time>2014-10-20T13:25:54.1Z</time>
      </trkpt>
      <trkpt lat="48.63854" lon="-2.48266">
        <ele>22</ele>
        <time>2014-10-20T13:25:57.1Z</time>
      </trkpt>
      <trkpt lat="48.63855" lon="-2.48266">
        <ele>23</ele>
        <time>2014-10-20T13:26:00.1Z</time>
      </trkpt>
      <trkpt lat="48.63856" lon="-2.48266">
        <ele>23</ele>
        <time>2014-10-20T13:26:02.1Z</time>
      </trkpt>
      <trkpt lat="48.63857" lon="-2.48264">
        <ele>24</ele>
        <time>2014-10-20T13:26:05.1Z</time>
      </trkpt>
      <trkpt lat="48.63858" lon="-2.48264">
        <ele>25</ele>
        <time>2014-10-20T13:26:08.1Z</time>
      </trkpt>
      <trkpt lat="48.6386" lon="-2.48263">
        <ele>25</ele>
        <time>2014-10-20T13:26:11.1Z</time>
      </trkpt>
      <trkpt lat="48.63861" lon="-2.48262">
        <ele>26</ele>
        <time>2014-10-20T13:26:14.1Z</time>
      </trkpt>
      <trkpt lat="48.63861" lon="-2.48261">
        <ele>26</ele>
        <time>2014-10-20T13:26:16.1Z</time>
      </trkpt>
      <trkpt lat="48.63862" lon="-2.48261">
        <ele>26</ele>
        <time>2014-10-20T13:26:18.1Z</time>
      </trkpt>
      <trkpt lat="48.63863" lon="-2.48259">
        <ele>27</ele>
        <time>2014-10-20T13:26:21.1Z</time>
      </trkpt>
      <trkpt lat="48.63864" lon="-2.48259">
        <ele>27</ele>
        <time>2014-10-20T13:26:24.1Z</time>
      </trkpt>
      <trkpt lat="48.63865" lon="-2.4826">
        <ele>28</ele>
        <time>2014-10-20T13:26:27.1Z</time>
      </trkpt>
      <trkpt lat="48.63866" lon="-2.48262">
        <ele>29</ele>
        <time>2014-10-20T13:26:30.1Z</time>
      </trkpt>
      <trkpt lat="48.63866" lon="-2.48263">
        <ele>29</ele>
        <time>2014-10-20T13:26:32.1Z</time>
      </trkpt>
      <trkpt lat="48.63867" lon="-2.48266">
        <ele>28</ele>
        <time>2014-10-20T13:26:35.1Z</time>
      </trkpt>
      <trkpt lat="48.63868" lon="-2.48268">
        <ele>28</ele>
        <time>2014-10-20T13:26:38.1Z</time>
      </trkpt>
      <trkpt lat="48.63868" lon="-2.48269">
        <ele>28</ele>
        <time>2014-10-20T13:26:40.1Z</time>
      </trkpt>
      <trkpt lat="48.63869" lon="-2.48271">
        <ele>28</ele>
        <time>2014-10-20T13:26:43.1Z</time>
      </trkpt>
      <trkpt lat="48.63869" lon="-2.48272">
        <ele>28</ele>
        <time>2014-10-20T13:26:45.1Z</time>
      </trkpt>
      <trkpt lat="48.63871" lon="-2.48274">
        <ele>28</ele>
        <time>2014-10-20T13:26:48.1Z</time>
      </trkpt>
      <trkpt lat="48.63871" lon="-2.48277">
        <ele>28</ele>
        <time>2014-10-20T13:26:51.1Z</time>
      </trkpt>
      <trkpt lat="48.63871" lon="-2.48281">
        <ele>28</ele>
        <time>2014-10-20T13:26:54.1Z</time>
      </trkpt>
      <trkpt lat="48.63871" lon="-2.48283">
        <ele>29</ele>
        <time>2014-10-20T13:26:56.1Z</time>
      </trkpt>
      <trkpt lat="48.6387" lon="-2.48288">
        <ele>29</ele>
        <time>2014-10-20T13:26:59.1Z</time>
      </trkpt>
      <trkpt lat="48.63869" lon="-2.48291">
        <ele>29</ele>
        <time>2014-10-20T13:27:02.1Z</time>
      </trkpt>
      <trkpt lat="48.63869" lon="-2.48291">
        <ele>30</ele>
        <time>2014-10-20T13:27:04.1Z</time>
      </trkpt>
      <trkpt lat="48.63869" lon="-2.48292">
        <ele>30</ele>
        <time>2014-10-20T13:27:06.1Z</time>
      </trkpt>
      <trkpt lat="48.63868" lon="-2.48292">
        <ele>30</ele>
        <time>2014-10-20T13:27:09.1Z</time>
      </trkpt>
      <trkpt lat="48.63868" lon="-2.48292">
        <ele>30</ele>
        <time>2014-10-20T13:27:11.1Z</time>
      </trkpt>
      <trkpt lat="48.63868" lon="-2.48292">
        <ele>30</ele>
        <time>2014-10-20T13:27:15.1Z</time>
      </trkpt>
      <trkpt lat="48.63867" lon="-2.48293">
        <ele>30</ele>
        <time>2014-10-20T13:27:18.1Z</time>
      </trkpt>
      <trkpt lat="48.63867" lon="-2.48293">
        <ele>30</ele>
        <time>2014-10-20T13:27:20.1Z</time>
      </trkpt>
      <trkpt lat="48.63867" lon="-2.48293">
        <ele>30</ele>
        <time>2014-10-20T13:27:26.1Z</time>
      </trkpt>
      <trkpt lat="48.63868" lon="-2.4829">
        <ele>29</ele>
        <time>2014-10-20T13:27:29.1Z</time>
      </trkpt>
      <trkpt lat="48.63869" lon="-2.48287">
        <ele>29</ele>
        <time>2014-10-20T13:27:32.1Z</time>
      </trkpt>
      <trkpt lat="48.6387" lon="-2.48283">
        <ele>29</ele>
        <time>2014-10-20T13:27:35.1Z</time>
      </trkpt>
      <trkpt lat="48.6387" lon="-2.4828">
        <ele>29</ele>
        <time>2014-10-20T13:27:37.1Z</time>
      </trkpt>
      <trkpt lat="48.6387" lon="-2.48277">
        <ele>28</ele>
        <time>2014-10-20T13:27:40.1Z</time>
      </trkpt>
      <trkpt lat="48.6387" lon="-2.48277">
        <ele>28</ele>
        <time>2014-10-20T13:27:42.1Z</time>
      </trkpt>
      <trkpt lat="48.6387" lon="-2.48277">
        <ele>28</ele>
        <time>2014-10-20T13:27:44.1Z</time>
      </trkpt>
      <trkpt lat="48.6387" lon="-2.48277">
        <ele>28</ele>
        <time>2014-10-20T13:27:47.1Z</time>
      </trkpt>
      <trkpt lat="48.6387" lon="-2.48277">
        <ele>28</ele>
        <time>2014-10-20T13:27:50.1Z</time>
      </trkpt>
      <trkpt lat="48.6387" lon="-2.48277">
        <ele>28</ele>
        <time>2014-10-20T13:27:52.1Z</time>
      </trkpt>
      <trkpt lat="48.6387" lon="-2.48277">
        <ele>28</ele>
        <time>2014-10-20T13:27:57.1Z</time>
      </trkpt>
      <trkpt lat="48.6387" lon="-2.48276">
        <ele>28</ele>
        <time>2014-10-20T13:28:00.1Z</time>
      </trkpt>
      <trkpt lat="48.63871" lon="-2.48276">
        <ele>28</ele>
        <time>2014-10-20T13:28:03.1Z</time>
      </trkpt>
      <trkpt lat="48.63871" lon="-2.48276">
        <ele>28</ele>
        <time>2014-10-20T13:28:06.1Z</time>
      </trkpt>
      <trkpt lat="48.63871" lon="-2.48276">
        <ele>28</ele>
        <time>2014-10-20T13:28:08.1Z</time>
      </trkpt>
      <trkpt lat="48.63871" lon="-2.48276">
        <ele>28</ele>
        <time>2014-10-20T13:28:11.1Z</time>
      </trkpt>
      <trkpt lat="48.6387" lon="-2.48276">
        <ele>28</ele>
        <time>2014-10-20T13:28:13.1Z</time>
      </trkpt>
      <trkpt lat="48.6387" lon="-2.48276">
        <ele>28</ele>
        <time>2014-10-20T13:28:16.1Z</time>
      </trkpt>
      <trkpt lat="48.6387" lon="-2.48276">
        <ele>28</ele>
        <time>2014-10-20T13:28:20.1Z</time>
      </trkpt>
      <trkpt lat="48.6387" lon="-2.48276">
        <ele>28</ele>
        <time>2014-10-20T13:28:23.1Z</time>
      </trkpt>
      <trkpt lat="48.6387" lon="-2.48276">
        <ele>28</ele>
        <time>2014-10-20T13:28:26.1Z</time>
      </trkpt>
      <trkpt lat="48.6387" lon="-2.48275">
        <ele>28</ele>
        <time>2014-10-20T13:28:29.1Z</time>
      </trkpt>
      <trkpt lat="48.6387" lon="-2.48275">
        <ele>28</ele>
        <time>2014-10-20T13:28:32.1Z</time>
      </trkpt>
      <trkpt lat="48.63869" lon="-2.48275">
        <ele>28</ele>
        <time>2014-10-20T13:28:37.1Z</time>
      </trkpt>
      <trkpt lat="48.63869" lon="-2.48275">
        <ele>28</ele>
        <time>2014-10-20T13:28:40.1Z</time>
      </trkpt>
      <trkpt lat="48.63869" lon="-2.48275">
        <ele>28</ele>
        <time>2014-10-20T13:28:43.1Z</time>
      </trkpt>
      <trkpt lat="48.63869" lon="-2.48276">
        <ele>28</ele>
        <time>2014-10-20T13:28:46.1Z</time>
      </trkpt>
      <trkpt lat="48.63869" lon="-2.48276">
        <ele>27</ele>
        <time>2014-10-20T13:28:48.1Z</time>
      </trkpt>
      <trkpt lat="48.63869" lon="-2.48276">
        <ele>27</ele>
        <time>2014-10-20T13:28:51.1Z</time>
      </trkpt>
      <trkpt lat="48.63869" lon="-2.48276">
        <ele>28</ele>
        <time>2014-10-20T13:28:55.1Z</time>
      </trkpt>
      <trkpt lat="48.63869" lon="-2.48276">
        <ele>28</ele>
        <time>2014-10-20T13:28:57.1Z</time>
      </trkpt>
      <trkpt lat="48.63869" lon="-2.48276">
        <ele>28</ele>
        <time>2014-10-20T13:29:04.1Z</time>
      </trkpt>
      <trkpt lat="48.63869" lon="-2.48275">
        <ele>28</ele>
        <time>2014-10-20T13:29:07.1Z</time>
      </trkpt>
      <trkpt lat="48.63869" lon="-2.48275">
        <ele>28</ele>
        <time>2014-10-20T13:29:09.1Z</time>
      </trkpt>
      <trkpt lat="48.63869" lon="-2.48275">
        <ele>28</ele>
        <time>2014-10-20T13:29:11.1Z</time>
      </trkpt>
      <trkpt lat="48.63869" lon="-2.48275">
        <ele>28</ele>
        <time>2014-10-20T13:29:14.1Z</time>
      </trkpt>
      <trkpt lat="48.63869" lon="-2.48274">
        <ele>28</ele>
        <time>2014-10-20T13:29:16.1Z</time>
      </trkpt>
      <trkpt lat="48.63868" lon="-2.48273">
        <ele>28</ele>
        <time>2014-10-20T13:29:18.1Z</time>
      </trkpt>
      <trkpt lat="48.63867" lon="-2.48272">
        <ele>28</ele>
        <time>2014-10-20T13:29:21.1Z</time>
      </trkpt>
      <trkpt lat="48.63867" lon="-2.48271">
        <ele>28</ele>
        <time>2014-10-20T13:29:23.1Z</time>
      </trkpt>
      <trkpt lat="48.63868" lon="-2.48269">
        <ele>29</ele>
        <time>2014-10-20T13:29:25.1Z</time>
      </trkpt>
      <trkpt lat="48.63868" lon="-2.48266">
        <ele>28</ele>
        <time>2014-10-20T13:29:28.1Z</time>
      </trkpt>
      <trkpt lat="48.63868" lon="-2.48265">
        <ele>28</ele>
        <time>2014-10-20T13:29:30.1Z</time>
      </trkpt>
      <trkpt lat="48.63868" lon="-2.48264">
        <ele>28</ele>
        <time>2014-10-20T13:29:32.1Z</time>
      </trkpt>
      <trkpt lat="48.63868" lon="-2.48262">
        <ele>28</ele>
        <time>2014-10-20T13:29:35.1Z</time>
      </trkpt>
      <trkpt lat="48.63868" lon="-2.4826">
        <ele>28</ele>
        <time>2014-10-20T13:29:38.1Z</time>
      </trkpt>
      <trkpt lat="48.63868" lon="-2.48259">
        <ele>28</ele>
        <time>2014-10-20T13:29:41.1Z</time>
      </trkpt>
      <trkpt lat="48.63868" lon="-2.48257">
        <ele>28</ele>
        <time>2014-10-20T13:29:43.1Z</time>
      </trkpt>
      <trkpt lat="48.63868" lon="-2.48254">
        <ele>28</ele>
        <time>2014-10-20T13:29:45.1Z</time>
      </trkpt>
      <trkpt lat="48.63868" lon="-2.4825">
        <ele>28</ele>
        <time>2014-10-20T13:29:48.1Z</time>
      </trkpt>
      <trkpt lat="48.63868" lon="-2.48246">
        <ele>28</ele>
        <time>2014-10-20T13:29:50.1Z</time>
      </trkpt>
      <trkpt lat="48.63868" lon="-2.48243">
        <ele>28</ele>
        <time>2014-10-20T13:29:52.1Z</time>
      </trkpt>
      <trkpt lat="48.63867" lon="-2.48238">
        <ele>29</ele>
        <time>2014-10-20T13:29:55.1Z</time>
      </trkpt>
      <trkpt lat="48.63866" lon="-2.48235">
        <ele>29</ele>
        <time>2014-10-20T13:29:57.1Z</time>
      </trkpt>
      <trkpt lat="48.63865" lon="-2.4823">
        <ele>29</ele>
        <time>2014-10-20T13:30:00.1Z</time>
      </trkpt>
      <trkpt lat="48.63864" lon="-2.48226">
        <ele>29</ele>
        <time>2014-10-20T13:30:03.1Z</time>
      </trkpt>
      <trkpt lat="48.63863" lon="-2.48221">
        <ele>28</ele>
        <time>2014-10-20T13:30:06.1Z</time>
      </trkpt>
      <trkpt lat="48.63863" lon="-2.48217">
        <ele>29</ele>
        <time>2014-10-20T13:30:09.1Z</time>
      </trkpt>
      <trkpt lat="48.63861" lon="-2.48213">
        <ele>28</ele>
        <time>2014-10-20T13:30:12.1Z</time>
      </trkpt>
      <trkpt lat="48.6386" lon="-2.4821">
        <ele>29</ele>
        <time>2014-10-20T13:30:15.1Z</time>
      </trkpt>
      <trkpt lat="48.63859" lon="-2.48206">
        <ele>29</ele>
        <time>2014-10-20T13:30:18.1Z</time>
      </trkpt>
      <trkpt lat="48.63858" lon="-2.48202">
        <ele>29</ele>
        <time>2014-10-20T13:30:21.1Z</time>
      </trkpt>
      <trkpt lat="48.63857" lon="-2.482">
        <ele>29</ele>
        <time>2014-10-20T13:30:24.1Z</time>
      </trkpt>
      <trkpt lat="48.63857" lon="-2.48198">
        <ele>29</ele>
        <time>2014-10-20T13:30:26.1Z</time>
      </trkpt>
      <trkpt lat="48.63856" lon="-2.48194">
        <ele>30</ele>
        <time>2014-10-20T13:30:29.1Z</time>
      </trkpt>
      <trkpt lat="48.63855" lon="-2.48193">
        <ele>31</ele>
        <time>2014-10-20T13:30:31.1Z</time>
      </trkpt>
      <trkpt lat="48.63854" lon="-2.4819">
        <ele>32</ele>
        <time>2014-10-20T13:30:34.1Z</time>
      </trkpt>
      <trkpt lat="48.63854" lon="-2.48187">
        <ele>32</ele>
        <time>2014-10-20T13:30:37.1Z</time>
      </trkpt>
      <trkpt lat="48.63854" lon="-2.48186">
        <ele>32</ele>
        <time>2014-10-20T13:30:39.1Z</time>
      </trkpt>
      <trkpt lat="48.63854" lon="-2.48183">
        <ele>32</ele>
        <time>2014-10-20T13:30:42.1Z</time>
      </trkpt>
      <trkpt lat="48.63856" lon="-2.4818">
        <ele>31</ele>
        <time>2014-10-20T13:30:45.1Z</time>
      </trkpt>
      <trkpt lat="48.63858" lon="-2.48179">
        <ele>31</ele>
        <time>2014-10-20T13:30:48.1Z</time>
      </trkpt>
      <trkpt lat="48.63859" lon="-2.48177">
        <ele>31</ele>
        <time>2014-10-20T13:30:50.1Z</time>
      </trkpt>
      <trkpt lat="48.6386" lon="-2.48177">
        <ele>31</ele>
        <time>2014-10-20T13:30:53.1Z</time>
      </trkpt>
      <trkpt lat="48.63862" lon="-2.48176">
        <ele>32</ele>
        <time>2014-10-20T13:30:55.1Z</time>
      </trkpt>
      <trkpt lat="48.63864" lon="-2.48175">
        <ele>32</ele>
        <time>2014-10-20T13:30:58.1Z</time>
      </trkpt>
      <trkpt lat="48.63866" lon="-2.48174">
        <ele>33</ele>
        <time>2014-10-20T13:31:00.1Z</time>
      </trkpt>
      <trkpt lat="48.63868" lon="-2.48174">
        <ele>33</ele>
        <time>2014-10-20T13:31:02.1Z</time>
      </trkpt>
      <trkpt lat="48.6387" lon="-2.48172">
        <ele>33</ele>
        <time>2014-10-20T13:31:05.1Z</time>
      </trkpt>
      <trkpt lat="48.63871" lon="-2.48171">
        <ele>33</ele>
        <time>2014-10-20T13:31:07.1Z</time>
      </trkpt>
      <trkpt lat="48.63874" lon="-2.48169">
        <ele>33</ele>
        <time>2014-10-20T13:31:10.1Z</time>
      </trkpt>
      <trkpt lat="48.63876" lon="-2.48167">
        <ele>33</ele>
        <time>2014-10-20T13:31:12.1Z</time>
      </trkpt>
      <trkpt lat="48.63877" lon="-2.48164">
        <ele>33</ele>
        <time>2014-10-20T13:31:15.1Z</time>
      </trkpt>
      <trkpt lat="48.63879" lon="-2.48161">
        <ele>33</ele>
        <time>2014-10-20T13:31:18.1Z</time>
      </trkpt>
      <trkpt lat="48.6388" lon="-2.48161">
        <ele>33</ele>
        <time>2014-10-20T13:31:20.1Z</time>
      </trkpt>
      <trkpt lat="48.63881" lon="-2.48161">
        <ele>33</ele>
        <time>2014-10-20T13:31:23.1Z</time>
      </trkpt>
      <trkpt lat="48.63883" lon="-2.4816">
        <ele>33</ele>
        <time>2014-10-20T13:31:25.1Z</time>
      </trkpt>
      <trkpt lat="48.63885" lon="-2.4816">
        <ele>32</ele>
        <time>2014-10-20T13:31:28.1Z</time>
      </trkpt>
      <trkpt lat="48.63886" lon="-2.48159">
        <ele>32</ele>
        <time>2014-10-20T13:31:30.1Z</time>
      </trkpt>
      <trkpt lat="48.63889" lon="-2.48156">
        <ele>31</ele>
        <time>2014-10-20T13:31:33.1Z</time>
      </trkpt>
      <trkpt lat="48.63891" lon="-2.48153">
        <ele>31</ele>
        <time>2014-10-20T13:31:36.1Z</time>
      </trkpt>
      <trkpt lat="48.63893" lon="-2.48151">
        <ele>31</ele>
        <time>2014-10-20T13:31:38.1Z</time>
      </trkpt>
      <trkpt lat="48.63897" lon="-2.4815">
        <ele>31</ele>
        <time>2014-10-20T13:31:41.1Z</time>
      </trkpt>
      <trkpt lat="48.639" lon="-2.48151">
        <ele>31</ele>
        <time>2014-10-20T13:31:44.1Z</time>
      </trkpt>
      <trkpt lat="48.63901" lon="-2.48152">
        <ele>31</ele>
        <time>2014-10-20T13:31:46.1Z</time>
      </trkpt>
      <trkpt lat="48.63903" lon="-2.48154">
        <ele>32</ele>
        <time>2014-10-20T13:31:49.1Z</time>
      </trkpt>
      <trkpt lat="48.63905" lon="-2.48155">
        <ele>32</ele>
        <time>2014-10-20T13:31:51.1Z</time>
      </trkpt>
      <trkpt lat="48.63907" lon="-2.48156">
        <ele>32</ele>
        <time>2014-10-20T13:31:54.1Z</time>
      </trkpt>
      <trkpt lat="48.6391" lon="-2.48153">
        <ele>32</ele>
        <time>2014-10-20T13:31:57.1Z</time>
      </trkpt>
      <trkpt lat="48.63911" lon="-2.4815">
        <ele>32</ele>
        <time>2014-10-20T13:32:00.1Z</time>
      </trkpt>
      <trkpt lat="48.63913" lon="-2.48148">
        <ele>33</ele>
        <time>2014-10-20T13:32:03.1Z</time>
      </trkpt>
      <trkpt lat="48.63913" lon="-2.48145">
        <ele>34</ele>
        <time>2014-10-20T13:32:06.1Z</time>
      </trkpt>
      <trkpt lat="48.63915" lon="-2.48143">
        <ele>34</ele>
        <time>2014-10-20T13:32:09.1Z</time>
      </trkpt>
      <trkpt lat="48.63916" lon="-2.48143">
        <ele>34</ele>
        <time>2014-10-20T13:32:12.1Z</time>
      </trkpt>
      <trkpt lat="48.63916" lon="-2.48142">
        <ele>35</ele>
        <time>2014-10-20T13:32:15.1Z</time>
      </trkpt>
      <trkpt lat="48.63917" lon="-2.48142">
        <ele>35</ele>
        <time>2014-10-20T13:32:18.1Z</time>
      </trkpt>
      <trkpt lat="48.63917" lon="-2.4814">
        <ele>35</ele>
        <time>2014-10-20T13:32:20.1Z</time>
      </trkpt>
      <trkpt lat="48.63919" lon="-2.48139">
        <ele>35</ele>
        <time>2014-10-20T13:32:22.1Z</time>
      </trkpt>
      <trkpt lat="48.63921" lon="-2.48138">
        <ele>36</ele>
        <time>2014-10-20T13:32:25.1Z</time>
      </trkpt>
      <trkpt lat="48.63924" lon="-2.48137">
        <ele>36</ele>
        <time>2014-10-20T13:32:28.1Z</time>
      </trkpt>
      <trkpt lat="48.63925" lon="-2.48136">
        <ele>37</ele>
        <time>2014-10-20T13:32:31.1Z</time>
      </trkpt>
      <trkpt lat="48.63925" lon="-2.48136">
        <ele>37</ele>
        <time>2014-10-20T13:32:34.1Z</time>
      </trkpt>
      <trkpt lat="48.63926" lon="-2.48136">
        <ele>38</ele>
        <time>2014-10-20T13:32:38.1Z</time>
      </trkpt>
      <trkpt lat="48.63928" lon="-2.48136">
        <ele>38</ele>
        <time>2014-10-20T13:32:40.1Z</time>
      </trkpt>
      <trkpt lat="48.6393" lon="-2.48136">
        <ele>39</ele>
        <time>2014-10-20T13:32:42.1Z</time>
      </trkpt>
      <trkpt lat="48.63931" lon="-2.48137">
        <ele>39</ele>
        <time>2014-10-20T13:32:45.1Z</time>
      </trkpt>
      <trkpt lat="48.63933" lon="-2.48138">
        <ele>40</ele>
        <time>2014-10-20T13:32:48.1Z</time>
      </trkpt>
      <trkpt lat="48.63935" lon="-2.48138">
        <ele>40</ele>
        <time>2014-10-20T13:32:51.1Z</time>
      </trkpt>
      <trkpt lat="48.63937" lon="-2.48139">
        <ele>41</ele>
        <time>2014-10-20T13:32:54.1Z</time>
      </trkpt>
      <trkpt lat="48.6394" lon="-2.48139">
        <ele>42</ele>
        <time>2014-10-20T13:32:57.1Z</time>
      </trkpt>
      <trkpt lat="48.63944" lon="-2.48139">
        <ele>42</ele>
        <time>2014-10-20T13:33:00.1Z</time>
      </trkpt>
      <trkpt lat="48.63946" lon="-2.48139">
        <ele>43</ele>
        <time>2014-10-20T13:33:02.1Z</time>
      </trkpt>
      <trkpt lat="48.63949" lon="-2.48138">
        <ele>43</ele>
        <time>2014-10-20T13:33:05.1Z</time>
      </trkpt>
      <trkpt lat="48.63952" lon="-2.48137">
        <ele>43</ele>
        <time>2014-10-20T13:33:08.1Z</time>
      </trkpt>
      <trkpt lat="48.63954" lon="-2.48137">
        <ele>44</ele>
        <time>2014-10-20T13:33:10.1Z</time>
      </trkpt>
      <trkpt lat="48.63957" lon="-2.48135">
        <ele>44</ele>
        <time>2014-10-20T13:33:13.1Z</time>
      </trkpt>
      <trkpt lat="48.63959" lon="-2.48134">
        <ele>44</ele>
        <time>2014-10-20T13:33:15.1Z</time>
      </trkpt>
      <trkpt lat="48.6396" lon="-2.48133">
        <ele>44</ele>
        <time>2014-10-20T13:33:18.1Z</time>
      </trkpt>
      <trkpt lat="48.63961" lon="-2.48133">
        <ele>44</ele>
        <time>2014-10-20T13:33:20.1Z</time>
      </trkpt>
      <trkpt lat="48.63964" lon="-2.48134">
        <ele>45</ele>
        <time>2014-10-20T13:33:23.1Z</time>
      </trkpt>
      <trkpt lat="48.63966" lon="-2.48135">
        <ele>44</ele>
        <time>2014-10-20T13:33:26.1Z</time>
      </trkpt>
      <trkpt lat="48.63966" lon="-2.48137">
        <ele>44</ele>
        <time>2014-10-20T13:33:28.1Z</time>
      </trkpt>
      <trkpt lat="48.63966" lon="-2.48138">
        <ele>44</ele>
        <time>2014-10-20T13:33:31.1Z</time>
      </trkpt>
      <trkpt lat="48.63967" lon="-2.48138">
        <ele>44</ele>
        <time>2014-10-20T13:33:33.1Z</time>
      </trkpt>
      <trkpt lat="48.63968" lon="-2.48139">
        <ele>44</ele>
        <time>2014-10-20T13:33:36.1Z</time>
      </trkpt>
      <trkpt lat="48.63968" lon="-2.48139">
        <ele>44</ele>
        <time>2014-10-20T13:33:38.1Z</time>
      </trkpt>
      <trkpt lat="48.63968" lon="-2.48139">
        <ele>44</ele>
        <time>2014-10-20T13:33:41.1Z</time>
      </trkpt>
      <trkpt lat="48.63968" lon="-2.48139">
        <ele>44</ele>
        <time>2014-10-20T13:33:45.1Z</time>
      </trkpt>
      <trkpt lat="48.63969" lon="-2.48139">
        <ele>44</ele>
        <time>2014-10-20T13:33:49.1Z</time>
      </trkpt>
      <trkpt lat="48.63969" lon="-2.48139">
        <ele>44</ele>
        <time>2014-10-20T13:33:51.1Z</time>
      </trkpt>
      <trkpt lat="48.63969" lon="-2.48139">
        <ele>44</ele>
        <time>2014-10-20T13:33:54.1Z</time>
      </trkpt>
      <trkpt lat="48.63969" lon="-2.48139">
        <ele>44</ele>
        <time>2014-10-20T13:33:56.1Z</time>
      </trkpt>
      <trkpt lat="48.63969" lon="-2.4814">
        <ele>44</ele>
        <time>2014-10-20T13:33:59.1Z</time>
      </trkpt>
      <trkpt lat="48.6397" lon="-2.4814">
        <ele>45</ele>
        <time>2014-10-20T13:34:02.1Z</time>
      </trkpt>
      <trkpt lat="48.6397" lon="-2.4814">
        <ele>44</ele>
        <time>2014-10-20T13:34:05.1Z</time>
      </trkpt>
      <trkpt lat="48.6397" lon="-2.4814">
        <ele>45</ele>
        <time>2014-10-20T13:34:07.1Z</time>
      </trkpt>
      <trkpt lat="48.6397" lon="-2.4814">
        <ele>45</ele>
        <time>2014-10-20T13:34:10.1Z</time>
      </trkpt>
      <trkpt lat="48.6397" lon="-2.4814">
        <ele>45</ele>
        <time>2014-10-20T13:34:13.1Z</time>
      </trkpt>
      <trkpt lat="48.63971" lon="-2.48141">
        <ele>45</ele>
        <time>2014-10-20T13:34:18.1Z</time>
      </trkpt>
      <trkpt lat="48.63972" lon="-2.48141">
        <ele>45</ele>
        <time>2014-10-20T13:34:20.1Z</time>
      </trkpt>
      <trkpt lat="48.63975" lon="-2.48143">
        <ele>45</ele>
        <time>2014-10-20T13:34:23.1Z</time>
      </trkpt>
      <trkpt lat="48.63977" lon="-2.48146">
        <ele>45</ele>
        <time>2014-10-20T13:34:25.1Z</time>
      </trkpt>
      <trkpt lat="48.63979" lon="-2.48149">
        <ele>44</ele>
        <time>2014-10-20T13:34:27.1Z</time>
      </trkpt>
      <trkpt lat="48.63982" lon="-2.48153">
        <ele>44</ele>
        <time>2014-10-20T13:34:30.1Z</time>
      </trkpt>
      <trkpt lat="48.63984" lon="-2.48155">
        <ele>44</ele>
        <time>2014-10-20T13:34:32.1Z</time>
      </trkpt>
      <trkpt lat="48.63986" lon="-2.48158">
        <ele>43</ele>
        <time>2014-10-20T13:34:35.1Z</time>
      </trkpt>
      <trkpt lat="48.63988" lon="-2.4816">
        <ele>43</ele>
        <time>2014-10-20T13:34:37.1Z</time>
      </trkpt>
      <trkpt lat="48.63991" lon="-2.48163">
        <ele>42</ele>
        <time>2014-10-20T13:34:40.1Z</time>
      </trkpt>
      <trkpt lat="48.63993" lon="-2.48164">
        <ele>42</ele>
        <time>2014-10-20T13:34:43.1Z</time>
      </trkpt>
      <trkpt lat="48.63996" lon="-2.48166">
        <ele>41</ele>
        <time>2014-10-20T13:34:45.1Z</time>
      </trkpt>
      <trkpt lat="48.63999" lon="-2.48169">
        <ele>41</ele>
        <time>2014-10-20T13:34:48.1Z</time>
      </trkpt>
      <trkpt lat="48.64001" lon="-2.48171">
        <ele>41</ele>
        <time>2014-10-20T13:34:50.1Z</time>
      </trkpt>
      <trkpt lat="48.64003" lon="-2.48172">
        <ele>41</ele>
        <time>2014-10-20T13:34:52.1Z</time>
      </trkpt>
      <trkpt lat="48.64006" lon="-2.48175">
        <ele>41</ele>
        <time>2014-10-20T13:34:55.1Z</time>
      </trkpt>
      <trkpt lat="48.64008" lon="-2.48178">
        <ele>41</ele>
        <time>2014-10-20T13:34:58.1Z</time>
      </trkpt>
      <trkpt lat="48.64012" lon="-2.4818">
        <ele>40</ele>
        <time>2014-10-20T13:35:01.1Z</time>
      </trkpt>
      <trkpt lat="48.64016" lon="-2.48182">
        <ele>40</ele>
        <time>2014-10-20T13:35:04.1Z</time>
      </trkpt>
      <trkpt lat="48.64019" lon="-2.48185">
        <ele>40</ele>
        <time>2014-10-20T13:35:07.1Z</time>
      </trkpt>
      <trkpt lat="48.64021" lon="-2.48187">
        <ele>40</ele>
        <time>2014-10-20T13:35:09.1Z</time>
      </trkpt>
      <trkpt lat="48.64025" lon="-2.48189">
        <ele>40</ele>
        <time>2014-10-20T13:35:12.1Z</time>
      </trkpt>
      <trkpt lat="48.64027" lon="-2.48191">
        <ele>40</ele>
        <time>2014-10-20T13:35:14.1Z</time>
      </trkpt>
      <trkpt lat="48.6403" lon="-2.48194">
        <ele>40</ele>
        <time>2014-10-20T13:35:17.1Z</time>
      </trkpt>
      <trkpt lat="48.64033" lon="-2.48196">
        <ele>40</ele>
        <time>2014-10-20T13:35:19.1Z</time>
      </trkpt>
      <trkpt lat="48.64035" lon="-2.48198">
        <ele>39</ele>
        <time>2014-10-20T13:35:21.1Z</time>
      </trkpt>
      <trkpt lat="48.64038" lon="-2.482">
        <ele>39</ele>
        <time>2014-10-20T13:35:24.1Z</time>
      </trkpt>
      <trkpt lat="48.64042" lon="-2.48202">
        <ele>39</ele>
        <time>2014-10-20T13:35:27.1Z</time>
      </trkpt>
      <trkpt lat="48.64045" lon="-2.48204">
        <ele>39</ele>
        <time>2014-10-20T13:35:29.1Z</time>
      </trkpt>
      <trkpt lat="48.64048" lon="-2.48207">
        <ele>40</ele>
        <time>2014-10-20T13:35:32.1Z</time>
      </trkpt>
      <trkpt lat="48.6405" lon="-2.48207">
        <ele>40</ele>
        <time>2014-10-20T13:35:34.1Z</time>
      </trkpt>
      <trkpt lat="48.64052" lon="-2.48209">
        <ele>40</ele>
        <time>2014-10-20T13:35:36.1Z</time>
      </trkpt>
      <trkpt lat="48.64055" lon="-2.48211">
        <ele>40</ele>
        <time>2014-10-20T13:35:39.1Z</time>
      </trkpt>
      <trkpt lat="48.64058" lon="-2.48212">
        <ele>40</ele>
        <time>2014-10-20T13:35:41.1Z</time>
      </trkpt>
      <trkpt lat="48.6406" lon="-2.48214">
        <ele>40</ele>
        <time>2014-10-20T13:35:44.1Z</time>
      </trkpt>
      <trkpt lat="48.64062" lon="-2.48216">
        <ele>40</ele>
        <time>2014-10-20T13:35:46.1Z</time>
      </trkpt>
      <trkpt lat="48.64065" lon="-2.48218">
        <ele>40</ele>
        <time>2014-10-20T13:35:49.1Z</time>
      </trkpt>
      <trkpt lat="48.64068" lon="-2.4822">
        <ele>40</ele>
        <time>2014-10-20T13:35:52.1Z</time>
      </trkpt>
      <trkpt lat="48.64071" lon="-2.48223">
        <ele>40</ele>
        <time>2014-10-20T13:35:55.1Z</time>
      </trkpt>
      <trkpt lat="48.64074" lon="-2.48225">
        <ele>40</ele>
        <time>2014-10-20T13:35:58.1Z</time>
      </trkpt>
      <trkpt lat="48.64077" lon="-2.48228">
        <ele>41</ele>
        <time>2014-10-20T13:36:00.1Z</time>
      </trkpt>
      <trkpt lat="48.64079" lon="-2.48229">
        <ele>41</ele>
        <time>2014-10-20T13:36:02.1Z</time>
      </trkpt>
      <trkpt lat="48.64081" lon="-2.48231">
        <ele>41</ele>
        <time>2014-10-20T13:36:04.1Z</time>
      </trkpt>
      <trkpt lat="48.64085" lon="-2.48234">
        <ele>41</ele>
        <time>2014-10-20T13:36:07.1Z</time>
      </trkpt>
      <trkpt lat="48.64087" lon="-2.48235">
        <ele>41</ele>
        <time>2014-10-20T13:36:09.1Z</time>
      </trkpt>
      <trkpt lat="48.6409" lon="-2.48236">
        <ele>41</ele>
        <time>2014-10-20T13:36:12.1Z</time>
      </trkpt>
      <trkpt lat="48.64093" lon="-2.48238">
        <ele>40</ele>
        <time>2014-10-20T13:36:14.1Z</time>
      </trkpt>
      <trkpt lat="48.64096" lon="-2.48241">
        <ele>40</ele>
        <time>2014-10-20T13:36:17.1Z</time>
      </trkpt>
      <trkpt lat="48.64097" lon="-2.48243">
        <ele>40</ele>
        <time>2014-10-20T13:36:19.1Z</time>
      </trkpt>
      <trkpt lat="48.64101" lon="-2.48246">
        <ele>39</ele>
        <time>2014-10-20T13:36:22.1Z</time>
      </trkpt>
      <trkpt lat="48.64104" lon="-2.48247">
        <ele>39</ele>
        <time>2014-10-20T13:36:24.1Z</time>
      </trkpt>
      <trkpt lat="48.64107" lon="-2.48249">
        <ele>39</ele>
        <time>2014-10-20T13:36:27.1Z</time>
      </trkpt>
      <trkpt lat="48.64109" lon="-2.48251">
        <ele>39</ele>
        <time>2014-10-20T13:36:29.1Z</time>
      </trkpt>
      <trkpt lat="48.64113" lon="-2.48253">
        <ele>38</ele>
        <time>2014-10-20T13:36:32.1Z</time>
      </trkpt>
      <trkpt lat="48.64115" lon="-2.48255">
        <ele>38</ele>
        <time>2014-10-20T13:36:34.1Z</time>
      </trkpt>
      <trkpt lat="48.64118" lon="-2.48257">
        <ele>37</ele>
        <time>2014-10-20T13:36:37.1Z</time>
      </trkpt>
      <trkpt lat="48.6412" lon="-2.48258">
        <ele>37</ele>
        <time>2014-10-20T13:36:39.1Z</time>
      </trkpt>
      <trkpt lat="48.64124" lon="-2.48261">
        <ele>37</ele>
        <time>2014-10-20T13:36:42.1Z</time>
      </trkpt>
      <trkpt lat="48.64125" lon="-2.48262">
        <ele>36</ele>
        <time>2014-10-20T13:36:44.1Z</time>
      </trkpt>
      <trkpt lat="48.64128" lon="-2.48264">
        <ele>36</ele>
        <time>2014-10-20T13:36:47.1Z</time>
      </trkpt>
      <trkpt lat="48.64132" lon="-2.48266">
        <ele>35</ele>
        <time>2014-10-20T13:36:50.1Z</time>
      </trkpt>
      <trkpt lat="48.64135" lon="-2.4827">
        <ele>35</ele>
        <time>2014-10-20T13:36:53.1Z</time>
      </trkpt>
      <trkpt lat="48.64137" lon="-2.48272">
        <ele>36</ele>
        <time>2014-10-20T13:36:55.1Z</time>
      </trkpt>
      <trkpt lat="48.6414" lon="-2.48275">
        <ele>35</ele>
        <time>2014-10-20T13:36:58.1Z</time>
      </trkpt>
      <trkpt lat="48.64142" lon="-2.48277">
        <ele>35</ele>
        <time>2014-10-20T13:37:00.1Z</time>
      </trkpt>
      <trkpt lat="48.64145" lon="-2.4828">
        <ele>35</ele>
        <time>2014-10-20T13:37:03.1Z</time>
      </trkpt>
      <trkpt lat="48.64148" lon="-2.48284">
        <ele>35</ele>
        <time>2014-10-20T13:37:06.1Z</time>
      </trkpt>
      <trkpt lat="48.64151" lon="-2.48287">
        <ele>35</ele>
        <time>2014-10-20T13:37:09.1Z</time>
      </trkpt>
      <trkpt lat="48.64153" lon="-2.4829">
        <ele>35</ele>
        <time>2014-10-20T13:37:11.1Z</time>
      </trkpt>
      <trkpt lat="48.64156" lon="-2.48293">
        <ele>35</ele>
        <time>2014-10-20T13:37:14.1Z</time>
      </trkpt>
      <trkpt lat="48.64158" lon="-2.48295">
        <ele>35</ele>
        <time>2014-10-20T13:37:16.1Z</time>
      </trkpt>
      <trkpt lat="48.64161" lon="-2.48298">
        <ele>35</ele>
        <time>2014-10-20T13:37:19.1Z</time>
      </trkpt>
      <trkpt lat="48.64162" lon="-2.48301">
        <ele>35</ele>
        <time>2014-10-20T13:37:21.1Z</time>
      </trkpt>
      <trkpt lat="48.64165" lon="-2.48304">
        <ele>36</ele>
        <time>2014-10-20T13:37:24.1Z</time>
      </trkpt>
      <trkpt lat="48.64168" lon="-2.48307">
        <ele>36</ele>
        <time>2014-10-20T13:37:27.1Z</time>
      </trkpt>
      <trkpt lat="48.64171" lon="-2.4831">
        <ele>36</ele>
        <time>2014-10-20T13:37:30.1Z</time>
      </trkpt>
      <trkpt lat="48.64174" lon="-2.48313">
        <ele>36</ele>
        <time>2014-10-20T13:37:33.1Z</time>
      </trkpt>
      <trkpt lat="48.64176" lon="-2.48317">
        <ele>36</ele>
        <time>2014-10-20T13:37:36.1Z</time>
      </trkpt>
      <trkpt lat="48.64178" lon="-2.48319">
        <ele>36</ele>
        <time>2014-10-20T13:37:38.1Z</time>
      </trkpt>
      <trkpt lat="48.64179" lon="-2.4832">
        <ele>36</ele>
        <time>2014-10-20T13:37:41.1Z</time>
      </trkpt>
      <trkpt lat="48.64179" lon="-2.4832">
        <ele>36</ele>
        <time>2014-10-20T13:37:44.1Z</time>
      </trkpt>
      <trkpt lat="48.64179" lon="-2.4832">
        <ele>36</ele>
        <time>2014-10-20T13:37:46.1Z</time>
      </trkpt>
      <trkpt lat="48.64179" lon="-2.48319">
        <ele>36</ele>
        <time>2014-10-20T13:37:48.1Z</time>
      </trkpt>
      <trkpt lat="48.64179" lon="-2.48319">
        <ele>36</ele>
        <time>2014-10-20T13:37:52.1Z</time>
      </trkpt>
      <trkpt lat="48.64179" lon="-2.48319">
        <ele>36</ele>
        <time>2014-10-20T13:37:55.1Z</time>
      </trkpt>
      <trkpt lat="48.64179" lon="-2.48319">
        <ele>36</ele>
        <time>2014-10-20T13:37:59.1Z</time>
      </trkpt>
      <trkpt lat="48.6418" lon="-2.48321">
        <ele>36</ele>
        <time>2014-10-20T13:38:02.1Z</time>
      </trkpt>
      <trkpt lat="48.64181" lon="-2.48322">
        <ele>36</ele>
        <time>2014-10-20T13:38:04.1Z</time>
      </trkpt>
      <trkpt lat="48.64182" lon="-2.48323">
        <ele>36</ele>
        <time>2014-10-20T13:38:06.1Z</time>
      </trkpt>
      <trkpt lat="48.64183" lon="-2.48326">
        <ele>36</ele>
        <time>2014-10-20T13:38:09.1Z</time>
      </trkpt>
      <trkpt lat="48.64184" lon="-2.48327">
        <ele>36</ele>
        <time>2014-10-20T13:38:11.1Z</time>
      </trkpt>
      <trkpt lat="48.64185" lon="-2.48328">
        <ele>36</ele>
        <time>2014-10-20T13:38:13.1Z</time>
      </trkpt>
      <trkpt lat="48.64185" lon="-2.48331">
        <ele>36</ele>
        <time>2014-10-20T13:38:16.1Z</time>
      </trkpt>
      <trkpt lat="48.64186" lon="-2.48335">
        <ele>36</ele>
        <time>2014-10-20T13:38:19.1Z</time>
      </trkpt>
      <trkpt lat="48.64187" lon="-2.48337">
        <ele>36</ele>
        <time>2014-10-20T13:38:21.1Z</time>
      </trkpt>
      <trkpt lat="48.6419" lon="-2.48341">
        <ele>36</ele>
        <time>2014-10-20T13:38:24.1Z</time>
      </trkpt>
      <trkpt lat="48.64192" lon="-2.48343">
        <ele>36</ele>
        <time>2014-10-20T13:38:27.1Z</time>
      </trkpt>
      <trkpt lat="48.64193" lon="-2.48346">
        <ele>36</ele>
        <time>2014-10-20T13:38:30.1Z</time>
      </trkpt>
      <trkpt lat="48.64194" lon="-2.48348">
        <ele>36</ele>
        <time>2014-10-20T13:38:32.1Z</time>
      </trkpt>
      <trkpt lat="48.64196" lon="-2.48351">
        <ele>36</ele>
        <time>2014-10-20T13:38:35.1Z</time>
      </trkpt>
      <trkpt lat="48.64199" lon="-2.48353">
        <ele>35</ele>
        <time>2014-10-20T13:38:38.1Z</time>
      </trkpt>
      <trkpt lat="48.64201" lon="-2.48355">
        <ele>35</ele>
        <time>2014-10-20T13:38:40.1Z</time>
      </trkpt>
      <trkpt lat="48.64203" lon="-2.48357">
        <ele>35</ele>
        <time>2014-10-20T13:38:43.1Z</time>
      </trkpt>
      <trkpt lat="48.64205" lon="-2.4836">
        <ele>35</ele>
        <time>2014-10-20T13:38:46.1Z</time>
      </trkpt>
      <trkpt lat="48.64206" lon="-2.48361">
        <ele>34</ele>
        <time>2014-10-20T13:38:48.1Z</time>
      </trkpt>
      <trkpt lat="48.64208" lon="-2.48364">
        <ele>34</ele>
        <time>2014-10-20T13:38:51.1Z</time>
      </trkpt>
      <trkpt lat="48.6421" lon="-2.48366">
        <ele>34</ele>
        <time>2014-10-20T13:38:54.1Z</time>
      </trkpt>
      <trkpt lat="48.64212" lon="-2.48367">
        <ele>34</ele>
        <time>2014-10-20T13:38:57.1Z</time>
      </trkpt>
      <trkpt lat="48.64215" lon="-2.48369">
        <ele>34</ele>
        <time>2014-10-20T13:39:00.1Z</time>
      </trkpt>
      <trkpt lat="48.64217" lon="-2.48372">
        <ele>34</ele>
        <time>2014-10-20T13:39:03.1Z</time>
      </trkpt>
      <trkpt lat="48.64218" lon="-2.48374">
        <ele>34</ele>
        <time>2014-10-20T13:39:05.1Z</time>
      </trkpt>
      <trkpt lat="48.6422" lon="-2.48376">
        <ele>34</ele>
        <time>2014-10-20T13:39:07.1Z</time>
      </trkpt>
      <trkpt lat="48.64221" lon="-2.48379">
        <ele>33</ele>
        <time>2014-10-20T13:39:10.1Z</time>
      </trkpt>
      <trkpt lat="48.64221" lon="-2.48381">
        <ele>33</ele>
        <time>2014-10-20T13:39:13.1Z</time>
      </trkpt>
      <trkpt lat="48.6422" lon="-2.48384">
        <ele>33</ele>
        <time>2014-10-20T13:39:16.1Z</time>
      </trkpt>
      <trkpt lat="48.64219" lon="-2.48387">
        <ele>33</ele>
        <time>2014-10-20T13:39:19.1Z</time>
      </trkpt>
      <trkpt lat="48.64218" lon="-2.48391">
        <ele>33</ele>
        <time>2014-10-20T13:39:22.1Z</time>
      </trkpt>
      <trkpt lat="48.64217" lon="-2.48393">
        <ele>33</ele>
        <time>2014-10-20T13:39:24.1Z</time>
      </trkpt>
      <trkpt lat="48.64216" lon="-2.48397">
        <ele>32</ele>
        <time>2014-10-20T13:39:27.1Z</time>
      </trkpt>
      <trkpt lat="48.64214" lon="-2.48399">
        <ele>32</ele>
        <time>2014-10-20T13:39:29.1Z</time>
      </trkpt>
      <trkpt lat="48.64213" lon="-2.48401">
        <ele>32</ele>
        <time>2014-10-20T13:39:32.1Z</time>
      </trkpt>
      <trkpt lat="48.64212" lon="-2.48403">
        <ele>32</ele>
        <time>2014-10-20T13:39:34.1Z</time>
      </trkpt>
      <trkpt lat="48.64211" lon="-2.48405">
        <ele>32</ele>
        <time>2014-10-20T13:39:37.1Z</time>
      </trkpt>
      <trkpt lat="48.64211" lon="-2.48407">
        <ele>32</ele>
        <time>2014-10-20T13:39:39.1Z</time>
      </trkpt>
      <trkpt lat="48.6421" lon="-2.4841">
        <ele>32</ele>
        <time>2014-10-20T13:39:42.1Z</time>
      </trkpt>
      <trkpt lat="48.64209" lon="-2.48412">
        <ele>32</ele>
        <time>2014-10-20T13:39:44.1Z</time>
      </trkpt>
      <trkpt lat="48.64209" lon="-2.48416">
        <ele>31</ele>
        <time>2014-10-20T13:39:47.1Z</time>
      </trkpt>
      <trkpt lat="48.64209" lon="-2.4842">
        <ele>31</ele>
        <time>2014-10-20T13:39:50.1Z</time>
      </trkpt>
      <trkpt lat="48.64209" lon="-2.48424">
        <ele>31</ele>
        <time>2014-10-20T13:39:53.1Z</time>
      </trkpt>
      <trkpt lat="48.64208" lon="-2.48428">
        <ele>31</ele>
        <time>2014-10-20T13:39:56.1Z</time>
      </trkpt>
      <trkpt lat="48.64208" lon="-2.4843">
        <ele>31</ele>
        <time>2014-10-20T13:39:58.1Z</time>
      </trkpt>
      <trkpt lat="48.64208" lon="-2.48433">
        <ele>31</ele>
        <time>2014-10-20T13:40:00.1Z</time>
      </trkpt>
      <trkpt lat="48.64208" lon="-2.48437">
        <ele>31</ele>
        <time>2014-10-20T13:40:03.1Z</time>
      </trkpt>
      <trkpt lat="48.64208" lon="-2.4844">
        <ele>31</ele>
        <time>2014-10-20T13:40:05.1Z</time>
      </trkpt>
      <trkpt lat="48.64209" lon="-2.48444">
        <ele>31</ele>
        <time>2014-10-20T13:40:08.1Z</time>
      </trkpt>
      <trkpt lat="48.64209" lon="-2.48448">
        <ele>31</ele>
        <time>2014-10-20T13:40:11.1Z</time>
      </trkpt>
      <trkpt lat="48.6421" lon="-2.4845">
        <ele>31</ele>
        <time>2014-10-20T13:40:13.1Z</time>
      </trkpt>
      <trkpt lat="48.64211" lon="-2.48452">
        <ele>31</ele>
        <time>2014-10-20T13:40:15.1Z</time>
      </trkpt>
      <trkpt lat="48.64212" lon="-2.48456">
        <ele>31</ele>
        <time>2014-10-20T13:40:18.1Z</time>
      </trkpt>
      <trkpt lat="48.64212" lon="-2.48459">
        <ele>32</ele>
        <time>2014-10-20T13:40:21.1Z</time>
      </trkpt>
      <trkpt lat="48.64212" lon="-2.48463">
        <ele>32</ele>
        <time>2014-10-20T13:40:24.1Z</time>
      </trkpt>
      <trkpt lat="48.64213" lon="-2.48465">
        <ele>32</ele>
        <time>2014-10-20T13:40:26.1Z</time>
      </trkpt>
      <trkpt lat="48.64214" lon="-2.48469">
        <ele>32</ele>
        <time>2014-10-20T13:40:29.1Z</time>
      </trkpt>
      <trkpt lat="48.64214" lon="-2.48471">
        <ele>32</ele>
        <time>2014-10-20T13:40:31.1Z</time>
      </trkpt>
      <trkpt lat="48.64216" lon="-2.48475">
        <ele>32</ele>
        <time>2014-10-20T13:40:34.1Z</time>
      </trkpt>
      <trkpt lat="48.64217" lon="-2.48479">
        <ele>32</ele>
        <time>2014-10-20T13:40:37.1Z</time>
      </trkpt>
      <trkpt lat="48.64218" lon="-2.48482">
        <ele>32</ele>
        <time>2014-10-20T13:40:40.1Z</time>
      </trkpt>
      <trkpt lat="48.64219" lon="-2.48485">
        <ele>32</ele>
        <time>2014-10-20T13:40:42.1Z</time>
      </trkpt>
      <trkpt lat="48.6422" lon="-2.48489">
        <ele>32</ele>
        <time>2014-10-20T13:40:45.1Z</time>
      </trkpt>
      <trkpt lat="48.64222" lon="-2.48494">
        <ele>32</ele>
        <time>2014-10-20T13:40:48.1Z</time>
      </trkpt>
      <trkpt lat="48.64223" lon="-2.48497">
        <ele>32</ele>
        <time>2014-10-20T13:40:50.1Z</time>
      </trkpt>
      <trkpt lat="48.64224" lon="-2.48501">
        <ele>33</ele>
        <time>2014-10-20T13:40:53.1Z</time>
      </trkpt>
      <trkpt lat="48.64225" lon="-2.48504">
        <ele>33</ele>
        <time>2014-10-20T13:40:55.1Z</time>
      </trkpt>
      <trkpt lat="48.64226" lon="-2.48508">
        <ele>33</ele>
        <time>2014-10-20T13:40:58.1Z</time>
      </trkpt>
      <trkpt lat="48.64227" lon="-2.4851">
        <ele>33</ele>
        <time>2014-10-20T13:41:00.1Z</time>
      </trkpt>
      <trkpt lat="48.64228" lon="-2.48514">
        <ele>33</ele>
        <time>2014-10-20T13:41:03.1Z</time>
      </trkpt>
      <trkpt lat="48.6423" lon="-2.48516">
        <ele>32</ele>
        <time>2014-10-20T13:41:05.1Z</time>
      </trkpt>
      <trkpt lat="48.64231" lon="-2.48518">
        <ele>33</ele>
        <time>2014-10-20T13:41:07.1Z</time>
      </trkpt>
      <trkpt lat="48.64233" lon="-2.48521">
        <ele>33</ele>
        <time>2014-10-20T13:41:10.1Z</time>
      </trkpt>
      <trkpt lat="48.64234" lon="-2.48522">
        <ele>33</ele>
        <time>2014-10-20T13:41:12.1Z</time>
      </trkpt>
      <trkpt lat="48.64236" lon="-2.48524">
        <ele>33</ele>
        <time>2014-10-20T13:41:15.1Z</time>
      </trkpt>
      <trkpt lat="48.64237" lon="-2.48526">
        <ele>33</ele>
        <time>2014-10-20T13:41:17.1Z</time>
      </trkpt>
      <trkpt lat="48.64238" lon="-2.48529">
        <ele>33</ele>
        <time>2014-10-20T13:41:20.1Z</time>
      </trkpt>
      <trkpt lat="48.6424" lon="-2.48532">
        <ele>33</ele>
        <time>2014-10-20T13:41:23.1Z</time>
      </trkpt>
      <trkpt lat="48.64241" lon="-2.48535">
        <ele>32</ele>
        <time>2014-10-20T13:41:26.1Z</time>
      </trkpt>
      <trkpt lat="48.64242" lon="-2.48537">
        <ele>31</ele>
        <time>2014-10-20T13:41:28.1Z</time>
      </trkpt>
      <trkpt lat="48.64244" lon="-2.48541">
        <ele>31</ele>
        <time>2014-10-20T13:41:31.1Z</time>
      </trkpt>
      <trkpt lat="48.64245" lon="-2.48544">
        <ele>31</ele>
        <time>2014-10-20T13:41:34.1Z</time>
      </trkpt>
      <trkpt lat="48.64246" lon="-2.48546">
        <ele>31</ele>
        <time>2014-10-20T13:41:36.1Z</time>
      </trkpt>
      <trkpt lat="48.64247" lon="-2.48548">
        <ele>31</ele>
        <time>2014-10-20T13:41:38.1Z</time>
      </trkpt>
      <trkpt lat="48.64248" lon="-2.4855">
        <ele>31</ele>
        <time>2014-10-20T13:41:41.1Z</time>
      </trkpt>
      <trkpt lat="48.6425" lon="-2.48552">
        <ele>31</ele>
        <time>2014-10-20T13:41:44.1Z</time>
      </trkpt>
      <trkpt lat="48.64251" lon="-2.48554">
        <ele>30</ele>
        <time>2014-10-20T13:41:47.1Z</time>
      </trkpt>
      <trkpt lat="48.64252" lon="-2.48556">
        <ele>30</ele>
        <time>2014-10-20T13:41:50.1Z</time>
      </trkpt>
      <trkpt lat="48.64254" lon="-2.48557">
        <ele>30</ele>
        <time>2014-10-20T13:41:53.1Z</time>
      </trkpt>
      <trkpt lat="48.64256" lon="-2.48558">
        <ele>29</ele>
        <time>2014-10-20T13:41:56.1Z</time>
      </trkpt>
      <trkpt lat="48.64258" lon="-2.48558">
        <ele>29</ele>
        <time>2014-10-20T13:41:59.1Z</time>
      </trkpt>
      <trkpt lat="48.64259" lon="-2.48559">
        <ele>28</ele>
        <time>2014-10-20T13:42:01.1Z</time>
      </trkpt>
      <trkpt lat="48.64261" lon="-2.4856">
        <ele>28</ele>
        <time>2014-10-20T13:42:04.1Z</time>
      </trkpt>
      <trkpt lat="48.64263" lon="-2.48562">
        <ele>28</ele>
        <time>2014-10-20T13:42:06.1Z</time>
      </trkpt>
      <trkpt lat="48.64265" lon="-2.48564">
        <ele>28</ele>
        <time>2014-10-20T13:42:09.1Z</time>
      </trkpt>
      <trkpt lat="48.64267" lon="-2.48566">
        <ele>27</ele>
        <time>2014-10-20T13:42:12.1Z</time>
      </trkpt>
      <trkpt lat="48.64269" lon="-2.48569">
        <ele>28</ele>
        <time>2014-10-20T13:42:14.1Z</time>
      </trkpt>
      <trkpt lat="48.64271" lon="-2.48573">
        <ele>27</ele>
        <time>2014-10-20T13:42:17.1Z</time>
      </trkpt>
      <trkpt lat="48.64273" lon="-2.48577">
        <ele>28</ele>
        <time>2014-10-20T13:42:20.1Z</time>
      </trkpt>
      <trkpt lat="48.64274" lon="-2.4858">
        <ele>28</ele>
        <time>2014-10-20T13:42:22.1Z</time>
      </trkpt>
      <trkpt lat="48.64277" lon="-2.48583">
        <ele>28</ele>
        <time>2014-10-20T13:42:25.1Z</time>
      </trkpt>
      <trkpt lat="48.64279" lon="-2.48583">
        <ele>28</ele>
        <time>2014-10-20T13:42:27.1Z</time>
      </trkpt>
      <trkpt lat="48.64281" lon="-2.48584">
        <ele>28</ele>
        <time>2014-10-20T13:42:30.1Z</time>
      </trkpt>
      <trkpt lat="48.64283" lon="-2.48585">
        <ele>28</ele>
        <time>2014-10-20T13:42:32.1Z</time>
      </trkpt>
      <trkpt lat="48.64285" lon="-2.48587">
        <ele>28</ele>
        <time>2014-10-20T13:42:35.1Z</time>
      </trkpt>
      <trkpt lat="48.64287" lon="-2.48589">
        <ele>29</ele>
        <time>2014-10-20T13:42:38.1Z</time>
      </trkpt>
      <trkpt lat="48.64289" lon="-2.48591">
        <ele>29</ele>
        <time>2014-10-20T13:42:41.1Z</time>
      </trkpt>
      <trkpt lat="48.64291" lon="-2.48592">
        <ele>29</ele>
        <time>2014-10-20T13:42:43.1Z</time>
      </trkpt>
      <trkpt lat="48.64293" lon="-2.48594">
        <ele>30</ele>
        <time>2014-10-20T13:42:46.1Z</time>
      </trkpt>
      <trkpt lat="48.64294" lon="-2.48594">
        <ele>30</ele>
        <time>2014-10-20T13:42:48.1Z</time>
      </trkpt>
      <trkpt lat="48.64296" lon="-2.48595">
        <ele>30</ele>
        <time>2014-10-20T13:42:51.1Z</time>
      </trkpt>
      <trkpt lat="48.64299" lon="-2.48595">
        <ele>31</ele>
        <time>2014-10-20T13:42:54.1Z</time>
      </trkpt>
      <trkpt lat="48.64301" lon="-2.48595">
        <ele>31</ele>
        <time>2014-10-20T13:42:57.1Z</time>
      </trkpt>
      <trkpt lat="48.64302" lon="-2.48596">
        <ele>31</ele>
        <time>2014-10-20T13:42:59.1Z</time>
      </trkpt>
      <trkpt lat="48.64304" lon="-2.48597">
        <ele>31</ele>
        <time>2014-10-20T13:43:02.1Z</time>
      </trkpt>
      <trkpt lat="48.64307" lon="-2.48598">
        <ele>31</ele>
        <time>2014-10-20T13:43:05.1Z</time>
      </trkpt>
      <trkpt lat="48.6431" lon="-2.486">
        <ele>31</ele>
        <time>2014-10-20T13:43:08.1Z</time>
      </trkpt>
      <trkpt lat="48.64312" lon="-2.48601">
        <ele>31</ele>
        <time>2014-10-20T13:43:10.1Z</time>
      </trkpt>
      <trkpt lat="48.64314" lon="-2.48602">
        <ele>31</ele>
        <time>2014-10-20T13:43:12.1Z</time>
      </trkpt>
      <trkpt lat="48.64316" lon="-2.48602">
        <ele>32</ele>
        <time>2014-10-20T13:43:14.1Z</time>
      </trkpt>
      <trkpt lat="48.64318" lon="-2.48603">
        <ele>32</ele>
        <time>2014-10-20T13:43:17.1Z</time>
      </trkpt>
      <trkpt lat="48.6432" lon="-2.48603">
        <ele>31</ele>
        <time>2014-10-20T13:43:19.1Z</time>
      </trkpt>
      <trkpt lat="48.64323" lon="-2.48603">
        <ele>31</ele>
        <time>2014-10-20T13:43:22.1Z</time>
      </trkpt>
      <trkpt lat="48.64325" lon="-2.48604">
        <ele>31</ele>
        <time>2014-10-20T13:43:25.1Z</time>
      </trkpt>
      <trkpt lat="48.64326" lon="-2.48604">
        <ele>31</ele>
        <time>2014-10-20T13:43:27.1Z</time>
      </trkpt>
      <trkpt lat="48.64329" lon="-2.48604">
        <ele>31</ele>
        <time>2014-10-20T13:43:30.1Z</time>
      </trkpt>
      <trkpt lat="48.64331" lon="-2.48603">
        <ele>31</ele>
        <time>2014-10-20T13:43:32.1Z</time>
      </trkpt>
      <trkpt lat="48.64332" lon="-2.48603">
        <ele>31</ele>
        <time>2014-10-20T13:43:35.1Z</time>
      </trkpt>
      <trkpt lat="48.64334" lon="-2.48602">
        <ele>31</ele>
        <time>2014-10-20T13:43:38.1Z</time>
      </trkpt>
      <trkpt lat="48.64336" lon="-2.48602">
        <ele>30</ele>
        <time>2014-10-20T13:43:40.1Z</time>
      </trkpt>
      <trkpt lat="48.64338" lon="-2.48601">
        <ele>30</ele>
        <time>2014-10-20T13:43:42.1Z</time>
      </trkpt>
      <trkpt lat="48.6434" lon="-2.48601">
        <ele>30</ele>
        <time>2014-10-20T13:43:45.1Z</time>
      </trkpt>
      <trkpt lat="48.64342" lon="-2.486">
        <ele>29</ele>
        <time>2014-10-20T13:43:48.1Z</time>
      </trkpt>
      <trkpt lat="48.64344" lon="-2.486">
        <ele>29</ele>
        <time>2014-10-20T13:43:50.1Z</time>
      </trkpt>
      <trkpt lat="48.64347" lon="-2.48601">
        <ele>29</ele>
        <time>2014-10-20T13:43:53.1Z</time>
      </trkpt>
      <trkpt lat="48.64349" lon="-2.48601">
        <ele>29</ele>
        <time>2014-10-20T13:43:55.1Z</time>
      </trkpt>
      <trkpt lat="48.64351" lon="-2.48601">
        <ele>28</ele>
        <time>2014-10-20T13:43:58.1Z</time>
      </trkpt>
      <trkpt lat="48.64352" lon="-2.48601">
        <ele>28</ele>
        <time>2014-10-20T13:44:00.1Z</time>
      </trkpt>
      <trkpt lat="48.64353" lon="-2.48601">
        <ele>28</ele>
        <time>2014-10-20T13:44:03.1Z</time>
      </trkpt>
      <trkpt lat="48.64354" lon="-2.48602">
        <ele>28</ele>
        <time>2014-10-20T13:44:06.1Z</time>
      </trkpt>
      <trkpt lat="48.64357" lon="-2.48603">
        <ele>28</ele>
        <time>2014-10-20T13:44:09.1Z</time>
      </trkpt>
      <trkpt lat="48.6436" lon="-2.48605">
        <ele>27</ele>
        <time>2014-10-20T13:44:12.1Z</time>
      </trkpt>
      <trkpt lat="48.64363" lon="-2.48607">
        <ele>27</ele>
        <time>2014-10-20T13:44:15.1Z</time>
      </trkpt>
      <trkpt lat="48.64364" lon="-2.48609">
        <ele>27</ele>
        <time>2014-10-20T13:44:17.1Z</time>
      </trkpt>
      <trkpt lat="48.64366" lon="-2.48612">
        <ele>27</ele>
        <time>2014-10-20T13:44:20.1Z</time>
      </trkpt>
      <trkpt lat="48.64368" lon="-2.48612">
        <ele>27</ele>
        <time>2014-10-20T13:44:23.1Z</time>
      </trkpt>
      <trkpt lat="48.6437" lon="-2.48613">
        <ele>27</ele>
        <time>2014-10-20T13:44:25.1Z</time>
      </trkpt>
      <trkpt lat="48.64372" lon="-2.48615">
        <ele>26</ele>
        <time>2014-10-20T13:44:28.1Z</time>
      </trkpt>
      <trkpt lat="48.64374" lon="-2.48618">
        <ele>26</ele>
        <time>2014-10-20T13:44:31.1Z</time>
      </trkpt>
      <trkpt lat="48.64376" lon="-2.48621">
        <ele>26</ele>
        <time>2014-10-20T13:44:33.1Z</time>
      </trkpt>
      <trkpt lat="48.64379" lon="-2.48621">
        <ele>26</ele>
        <time>2014-10-20T13:44:36.1Z</time>
      </trkpt>
      <trkpt lat="48.64382" lon="-2.48621">
        <ele>25</ele>
        <time>2014-10-20T13:44:39.1Z</time>
      </trkpt>
      <trkpt lat="48.64385" lon="-2.48622">
        <ele>25</ele>
        <time>2014-10-20T13:44:42.1Z</time>
      </trkpt>
      <trkpt lat="48.64388" lon="-2.48623">
        <ele>25</ele>
        <time>2014-10-20T13:44:44.1Z</time>
      </trkpt>
      <trkpt lat="48.6439" lon="-2.48624">
        <ele>26</ele>
        <time>2014-10-20T13:44:47.1Z</time>
      </trkpt>
      <trkpt lat="48.64392" lon="-2.48624">
        <ele>26</ele>
        <time>2014-10-20T13:44:49.1Z</time>
      </trkpt>
      <trkpt lat="48.64394" lon="-2.48623">
        <ele>26</ele>
        <time>2014-10-20T13:44:52.1Z</time>
      </trkpt>
      <trkpt lat="48.64396" lon="-2.48622">
        <ele>26</ele>
        <time>2014-10-20T13:44:54.1Z</time>
      </trkpt>
      <trkpt lat="48.64398" lon="-2.48621">
        <ele>26</ele>
        <time>2014-10-20T13:44:57.1Z</time>
      </trkpt>
      <trkpt lat="48.644" lon="-2.48621">
        <ele>26</ele>
        <time>2014-10-20T13:44:59.1Z</time>
      </trkpt>
      <trkpt lat="48.64402" lon="-2.48619">
        <ele>27</ele>
        <time>2014-10-20T13:45:02.1Z</time>
      </trkpt>
      <trkpt lat="48.64404" lon="-2.48618">
        <ele>27</ele>
        <time>2014-10-20T13:45:04.1Z</time>
      </trkpt>
      <trkpt lat="48.64405" lon="-2.48617">
        <ele>28</ele>
        <time>2014-10-20T13:45:06.1Z</time>
      </trkpt>
      <trkpt lat="48.64407" lon="-2.48616">
        <ele>28</ele>
        <time>2014-10-20T13:45:08.1Z</time>
      </trkpt>
      <trkpt lat="48.64407" lon="-2.48615">
        <ele>29</ele>
        <time>2014-10-20T13:45:11.1Z</time>
      </trkpt>
      <trkpt lat="48.64409" lon="-2.48615">
        <ele>29</ele>
        <time>2014-10-20T13:45:14.1Z</time>
      </trkpt>
      <trkpt lat="48.64411" lon="-2.48615">
        <ele>29</ele>
        <time>2014-10-20T13:45:17.1Z</time>
      </trkpt>
      <trkpt lat="48.64412" lon="-2.48616">
        <ele>30</ele>
        <time>2014-10-20T13:45:20.1Z</time>
      </trkpt>
      <trkpt lat="48.64414" lon="-2.48616">
        <ele>31</ele>
        <time>2014-10-20T13:45:23.1Z</time>
      </trkpt>
      <trkpt lat="48.64415" lon="-2.48618">
        <ele>31</ele>
        <time>2014-10-20T13:45:25.1Z</time>
      </trkpt>
      <trkpt lat="48.64416" lon="-2.48619">
        <ele>32</ele>
        <time>2014-10-20T13:45:27.1Z</time>
      </trkpt>
      <trkpt lat="48.64417" lon="-2.48621">
        <ele>32</ele>
        <time>2014-10-20T13:45:29.1Z</time>
      </trkpt>
      <trkpt lat="48.64418" lon="-2.48623">
        <ele>32</ele>
        <time>2014-10-20T13:45:32.1Z</time>
      </trkpt>
      <trkpt lat="48.64418" lon="-2.48625">
        <ele>32</ele>
        <time>2014-10-20T13:45:34.1Z</time>
      </trkpt>
      <trkpt lat="48.64419" lon="-2.48626">
        <ele>32</ele>
        <time>2014-10-20T13:45:36.1Z</time>
      </trkpt>
      <trkpt lat="48.6442" lon="-2.48628">
        <ele>32</ele>
        <time>2014-10-20T13:45:39.1Z</time>
      </trkpt>
      <trkpt lat="48.64421" lon="-2.48629">
        <ele>33</ele>
        <time>2014-10-20T13:45:41.1Z</time>
      </trkpt>
      <trkpt lat="48.64422" lon="-2.48631">
        <ele>33</ele>
        <time>2014-10-20T13:45:43.1Z</time>
      </trkpt>
      <trkpt lat="48.64424" lon="-2.48633">
        <ele>33</ele>
        <time>2014-10-20T13:45:46.1Z</time>
      </trkpt>
      <trkpt lat="48.64425" lon="-2.48635">
        <ele>33</ele>
        <time>2014-10-20T13:45:48.1Z</time>
      </trkpt>
      <trkpt lat="48.64426" lon="-2.48636">
        <ele>33</ele>
        <time>2014-10-20T13:45:51.1Z</time>
      </trkpt>
      <trkpt lat="48.64427" lon="-2.48638">
        <ele>33</ele>
        <time>2014-10-20T13:45:54.1Z</time>
      </trkpt>
      <trkpt lat="48.64428" lon="-2.48638">
        <ele>33</ele>
        <time>2014-10-20T13:45:56.1Z</time>
      </trkpt>
      <trkpt lat="48.64428" lon="-2.48639">
        <ele>33</ele>
        <time>2014-10-20T13:45:58.1Z</time>
      </trkpt>
      <trkpt lat="48.6443" lon="-2.48642">
        <ele>33</ele>
        <time>2014-10-20T13:46:01.1Z</time>
      </trkpt>
      <trkpt lat="48.64431" lon="-2.48643">
        <ele>33</ele>
        <time>2014-10-20T13:46:03.1Z</time>
      </trkpt>
      <trkpt lat="48.64434" lon="-2.48645">
        <ele>33</ele>
        <time>2014-10-20T13:46:06.1Z</time>
      </trkpt>
      <trkpt lat="48.64435" lon="-2.48644">
        <ele>33</ele>
        <time>2014-10-20T13:46:09.1Z</time>
      </trkpt>
      <trkpt lat="48.64437" lon="-2.48643">
        <ele>34</ele>
        <time>2014-10-20T13:46:12.1Z</time>
      </trkpt>
      <trkpt lat="48.64439" lon="-2.48643">
        <ele>34</ele>
        <time>2014-10-20T13:46:15.1Z</time>
      </trkpt>
      <trkpt lat="48.6444" lon="-2.48643">
        <ele>34</ele>
        <time>2014-10-20T13:46:17.1Z</time>
      </trkpt>
      <trkpt lat="48.64442" lon="-2.48644">
        <ele>34</ele>
        <time>2014-10-20T13:46:20.1Z</time>
      </trkpt>
      <trkpt lat="48.64444" lon="-2.48645">
        <ele>34</ele>
        <time>2014-10-20T13:46:22.1Z</time>
      </trkpt>
      <trkpt lat="48.64446" lon="-2.48644">
        <ele>34</ele>
        <time>2014-10-20T13:46:25.1Z</time>
      </trkpt>
      <trkpt lat="48.64447" lon="-2.48642">
        <ele>34</ele>
        <time>2014-10-20T13:46:27.1Z</time>
      </trkpt>
      <trkpt lat="48.64449" lon="-2.48639">
        <ele>34</ele>
        <time>2014-10-20T13:46:29.1Z</time>
      </trkpt>
      <trkpt lat="48.6445" lon="-2.48637">
        <ele>34</ele>
        <time>2014-10-20T13:46:31.1Z</time>
      </trkpt>
      <trkpt lat="48.64451" lon="-2.48635">
        <ele>34</ele>
        <time>2014-10-20T13:46:33.1Z</time>
      </trkpt>
      <trkpt lat="48.64452" lon="-2.48633">
        <ele>34</ele>
        <time>2014-10-20T13:46:36.1Z</time>
      </trkpt>
      <trkpt lat="48.64454" lon="-2.48631">
        <ele>34</ele>
        <time>2014-10-20T13:46:38.1Z</time>
      </trkpt>
      <trkpt lat="48.64456" lon="-2.48629">
        <ele>35</ele>
        <time>2014-10-20T13:46:41.1Z</time>
      </trkpt>
      <trkpt lat="48.64457" lon="-2.48628">
        <ele>35</ele>
        <time>2014-10-20T13:46:43.1Z</time>
      </trkpt>
      <trkpt lat="48.6446" lon="-2.48626">
        <ele>35</ele>
        <time>2014-10-20T13:46:46.1Z</time>
      </trkpt>
      <trkpt lat="48.64461" lon="-2.48624">
        <ele>35</ele>
        <time>2014-10-20T13:46:48.1Z</time>
      </trkpt>
      <trkpt lat="48.64463" lon="-2.48622">
        <ele>35</ele>
        <time>2014-10-20T13:46:51.1Z</time>
      </trkpt>
      <trkpt lat="48.64466" lon="-2.48621">
        <ele>35</ele>
        <time>2014-10-20T13:46:54.1Z</time>
      </trkpt>
      <trkpt lat="48.64468" lon="-2.48621">
        <ele>36</ele>
        <time>2014-10-20T13:46:56.1Z</time>
      </trkpt>
      <trkpt lat="48.6447" lon="-2.48621">
        <ele>36</ele>
        <time>2014-10-20T13:46:59.1Z</time>
      </trkpt>
      <trkpt lat="48.64472" lon="-2.4862">
        <ele>36</ele>
        <time>2014-10-20T13:47:02.1Z</time>
      </trkpt>
      <trkpt lat="48.64474" lon="-2.4862">
        <ele>36</ele>
        <time>2014-10-20T13:47:04.1Z</time>
      </trkpt>
      <trkpt lat="48.64476" lon="-2.48622">
        <ele>36</ele>
        <time>2014-10-20T13:47:07.1Z</time>
      </trkpt>
      <trkpt lat="48.64478" lon="-2.48623">
        <ele>36</ele>
        <time>2014-10-20T13:47:09.1Z</time>
      </trkpt>
      <trkpt lat="48.6448" lon="-2.48624">
        <ele>37</ele>
        <time>2014-10-20T13:47:11.1Z</time>
      </trkpt>
      <trkpt lat="48.64482" lon="-2.48623">
        <ele>37</ele>
        <time>2014-10-20T13:47:14.1Z</time>
      </trkpt>
      <trkpt lat="48.64484" lon="-2.48623">
        <ele>37</ele>
        <time>2014-10-20T13:47:17.1Z</time>
      </trkpt>
      <trkpt lat="48.64484" lon="-2.48623">
        <ele>37</ele>
        <time>2014-10-20T13:47:19.1Z</time>
      </trkpt>
      <trkpt lat="48.64485" lon="-2.48623">
        <ele>38</ele>
        <time>2014-10-20T13:47:22.1Z</time>
      </trkpt>
      <trkpt lat="48.64485" lon="-2.48624">
        <ele>38</ele>
        <time>2014-10-20T13:47:25.1Z</time>
      </trkpt>
      <trkpt lat="48.64485" lon="-2.48623">
        <ele>37</ele>
        <time>2014-10-20T13:47:28.1Z</time>
      </trkpt>
      <trkpt lat="48.64485" lon="-2.48623">
        <ele>37</ele>
        <time>2014-10-20T13:47:30.1Z</time>
      </trkpt>
      <trkpt lat="48.64486" lon="-2.48623">
        <ele>38</ele>
        <time>2014-10-20T13:47:32.1Z</time>
      </trkpt>
      <trkpt lat="48.64486" lon="-2.48622">
        <ele>38</ele>
        <time>2014-10-20T13:47:35.1Z</time>
      </trkpt>
      <trkpt lat="48.64486" lon="-2.48622">
        <ele>38</ele>
        <time>2014-10-20T13:47:37.1Z</time>
      </trkpt>
      <trkpt lat="48.64486" lon="-2.48622">
        <ele>38</ele>
        <time>2014-10-20T13:47:40.1Z</time>
      </trkpt>
      <trkpt lat="48.64487" lon="-2.48622">
        <ele>38</ele>
        <time>2014-10-20T13:47:43.1Z</time>
      </trkpt>
      <trkpt lat="48.64487" lon="-2.48622">
        <ele>38</ele>
        <time>2014-10-20T13:47:45.1Z</time>
      </trkpt>
      <trkpt lat="48.64487" lon="-2.48622">
        <ele>38</ele>
        <time>2014-10-20T13:47:48.1Z</time>
      </trkpt>
      <trkpt lat="48.64487" lon="-2.48622">
        <ele>37</ele>
        <time>2014-10-20T13:47:51.1Z</time>
      </trkpt>
      <trkpt lat="48.64488" lon="-2.48621">
        <ele>37</ele>
        <time>2014-10-20T13:47:54.1Z</time>
      </trkpt>
      <trkpt lat="48.64488" lon="-2.48617">
        <ele>37</ele>
        <time>2014-10-20T13:47:57.1Z</time>
      </trkpt>
      <trkpt lat="48.64488" lon="-2.48613">
        <ele>37</ele>
        <time>2014-10-20T13:47:59.1Z</time>
      </trkpt>
      <trkpt lat="48.64488" lon="-2.48609">
        <ele>37</ele>
        <time>2014-10-20T13:48:01.1Z</time>
      </trkpt>
      <trkpt lat="48.64489" lon="-2.48603">
        <ele>36</ele>
        <time>2014-10-20T13:48:04.1Z</time>
      </trkpt>
      <trkpt lat="48.6449" lon="-2.48599">
        <ele>36</ele>
        <time>2014-10-20T13:48:06.1Z</time>
      </trkpt>
      <trkpt lat="48.64491" lon="-2.48593">
        <ele>36</ele>
        <time>2014-10-20T13:48:09.1Z</time>
      </trkpt>
      <trkpt lat="48.64491" lon="-2.48589">
        <ele>35</ele>
        <time>2014-10-20T13:48:11.1Z</time>
      </trkpt>
      <trkpt lat="48.64491" lon="-2.48584">
        <ele>35</ele>
        <time>2014-10-20T13:48:14.1Z</time>
      </trkpt>
      <trkpt lat="48.64491" lon="-2.4858">
        <ele>35</ele>
        <time>2014-10-20T13:48:16.1Z</time>
      </trkpt>
      <trkpt lat="48.64491" lon="-2.48574">
        <ele>36</ele>
        <time>2014-10-20T13:48:19.1Z</time>
      </trkpt>
      <trkpt lat="48.64491" lon="-2.48571">
        <ele>36</ele>
        <time>2014-10-20T13:48:21.1Z</time>
      </trkpt>
      <trkpt lat="48.64491" lon="-2.48569">
        <ele>35</ele>
        <time>2014-10-20T13:48:24.1Z</time>
      </trkpt>
      <trkpt lat="48.64491" lon="-2.48564">
        <ele>35</ele>
        <time>2014-10-20T13:48:27.1Z</time>
      </trkpt>
      <trkpt lat="48.64492" lon="-2.48559">
        <ele>35</ele>
        <time>2014-10-20T13:48:29.1Z</time>
      </trkpt>
      <trkpt lat="48.64492" lon="-2.48552">
        <ele>34</ele>
        <time>2014-10-20T13:48:32.1Z</time>
      </trkpt>
      <trkpt lat="48.64493" lon="-2.48548">
        <ele>34</ele>
        <time>2014-10-20T13:48:34.1Z</time>
      </trkpt>
      <trkpt lat="48.64493" lon="-2.48544">
        <ele>34</ele>
        <time>2014-10-20T13:48:36.1Z</time>
      </trkpt>
      <trkpt lat="48.64493" lon="-2.48538">
        <ele>34</ele>
        <time>2014-10-20T13:48:39.1Z</time>
      </trkpt>
      <trkpt lat="48.64494" lon="-2.48535">
        <ele>34</ele>
        <time>2014-10-20T13:48:41.1Z</time>
      </trkpt>
      <trkpt lat="48.64494" lon="-2.48531">
        <ele>34</ele>
        <time>2014-10-20T13:48:44.1Z</time>
      </trkpt>
      <trkpt lat="48.64494" lon="-2.48528">
        <ele>34</ele>
        <time>2014-10-20T13:48:46.1Z</time>
      </trkpt>
      <trkpt lat="48.64494" lon="-2.48524">
        <ele>34</ele>
        <time>2014-10-20T13:48:49.1Z</time>
      </trkpt>
      <trkpt lat="48.64494" lon="-2.48519">
        <ele>34</ele>
        <time>2014-10-20T13:48:52.1Z</time>
      </trkpt>
      <trkpt lat="48.64494" lon="-2.48515">
        <ele>34</ele>
        <time>2014-10-20T13:48:55.1Z</time>
      </trkpt>
      <trkpt lat="48.64494" lon="-2.48513">
        <ele>34</ele>
        <time>2014-10-20T13:48:57.1Z</time>
      </trkpt>
      <trkpt lat="48.64494" lon="-2.4851">
        <ele>34</ele>
        <time>2014-10-20T13:48:59.1Z</time>
      </trkpt>
      <trkpt lat="48.64493" lon="-2.48508">
        <ele>34</ele>
        <time>2014-10-20T13:49:01.1Z</time>
      </trkpt>
      <trkpt lat="48.64492" lon="-2.48503">
        <ele>34</ele>
        <time>2014-10-20T13:49:04.1Z</time>
      </trkpt>
      <trkpt lat="48.64492" lon="-2.48501">
        <ele>34</ele>
        <time>2014-10-20T13:49:06.1Z</time>
      </trkpt>
      <trkpt lat="48.64491" lon="-2.48497">
        <ele>34</ele>
        <time>2014-10-20T13:49:09.1Z</time>
      </trkpt>
      <trkpt lat="48.64489" lon="-2.48497">
        <ele>34</ele>
        <time>2014-10-20T13:49:11.1Z</time>
      </trkpt>
      <trkpt lat="48.64489" lon="-2.48497">
        <ele>34</ele>
        <time>2014-10-20T13:49:14.1Z</time>
      </trkpt>
      <trkpt lat="48.64489" lon="-2.48497">
        <ele>35</ele>
        <time>2014-10-20T13:49:18.1Z</time>
      </trkpt>
      <trkpt lat="48.64489" lon="-2.48495">
        <ele>35</ele>
        <time>2014-10-20T13:49:21.1Z</time>
      </trkpt>
      <trkpt lat="48.64488" lon="-2.4849">
        <ele>35</ele>
        <time>2014-10-20T13:49:24.1Z</time>
      </trkpt>
      <trkpt lat="48.64487" lon="-2.48487">
        <ele>35</ele>
        <time>2014-10-20T13:49:26.1Z</time>
      </trkpt>
      <trkpt lat="48.64485" lon="-2.48484">
        <ele>35</ele>
        <time>2014-10-20T13:49:28.1Z</time>
      </trkpt>
      <trkpt lat="48.64483" lon="-2.48481">
        <ele>35</ele>
        <time>2014-10-20T13:49:31.1Z</time>
      </trkpt>
      <trkpt lat="48.64481" lon="-2.48478">
        <ele>35</ele>
        <time>2014-10-20T13:49:33.1Z</time>
      </trkpt>
      <trkpt lat="48.64479" lon="-2.48475">
        <ele>35</ele>
        <time>2014-10-20T13:49:35.1Z</time>
      </trkpt>
      <trkpt lat="48.64478" lon="-2.48471">
        <ele>34</ele>
        <time>2014-10-20T13:49:37.1Z</time>
      </trkpt>
      <trkpt lat="48.64476" lon="-2.48468">
        <ele>34</ele>
        <time>2014-10-20T13:49:40.1Z</time>
      </trkpt>
      <trkpt lat="48.64475" lon="-2.48465">
        <ele>34</ele>
        <time>2014-10-20T13:49:42.1Z</time>
      </trkpt>
      <trkpt lat="48.64474" lon="-2.48463">
        <ele>34</ele>
        <time>2014-10-20T13:49:44.1Z</time>
      </trkpt>
      <trkpt lat="48.64472" lon="-2.48461">
        <ele>34</ele>
        <time>2014-10-20T13:49:46.1Z</time>
      </trkpt>
      <trkpt lat="48.64471" lon="-2.48458">
        <ele>34</ele>
        <time>2014-10-20T13:49:48.1Z</time>
      </trkpt>
      <trkpt lat="48.64468" lon="-2.48454">
        <ele>35</ele>
        <time>2014-10-20T13:49:51.1Z</time>
      </trkpt>
      <trkpt lat="48.64466" lon="-2.48451">
        <ele>35</ele>
        <time>2014-10-20T13:49:54.1Z</time>
      </trkpt>
      <trkpt lat="48.64465" lon="-2.48449">
        <ele>35</ele>
        <time>2014-10-20T13:49:57.1Z</time>
      </trkpt>
      <trkpt lat="48.64465" lon="-2.48446">
        <ele>35</ele>
        <time>2014-10-20T13:50:00.1Z</time>
      </trkpt>
      <trkpt lat="48.64465" lon="-2.48444">
        <ele>36</ele>
        <time>2014-10-20T13:50:02.1Z</time>
      </trkpt>
      <trkpt lat="48.64464" lon="-2.48441">
        <ele>36</ele>
        <time>2014-10-20T13:50:05.1Z</time>
      </trkpt>
      <trkpt lat="48.64464" lon="-2.48438">
        <ele>36</ele>
        <time>2014-10-20T13:50:08.1Z</time>
      </trkpt>
      <trkpt lat="48.64464" lon="-2.48435">
        <ele>36</ele>
        <time>2014-10-20T13:50:11.1Z</time>
      </trkpt>
      <trkpt lat="48.64464" lon="-2.48433">
        <ele>37</ele>
        <time>2014-10-20T13:50:13.1Z</time>
      </trkpt>
      <trkpt lat="48.64463" lon="-2.48429">
        <ele>37</ele>
        <time>2014-10-20T13:50:16.1Z</time>
      </trkpt>
      <trkpt lat="48.64463" lon="-2.48427">
        <ele>37</ele>
        <time>2014-10-20T13:50:19.1Z</time>
      </trkpt>
      <trkpt lat="48.64463" lon="-2.48425">
        <ele>37</ele>
        <time>2014-10-20T13:50:21.1Z</time>
      </trkpt>
      <trkpt lat="48.64463" lon="-2.48421">
        <ele>37</ele>
        <time>2014-10-20T13:50:24.1Z</time>
      </trkpt>
      <trkpt lat="48.64463" lon="-2.48416">
        <ele>37</ele>
        <time>2014-10-20T13:50:27.1Z</time>
      </trkpt>
      <trkpt lat="48.64463" lon="-2.48413">
        <ele>38</ele>
        <time>2014-10-20T13:50:29.1Z</time>
      </trkpt>
      <trkpt lat="48.64463" lon="-2.48409">
        <ele>38</ele>
        <time>2014-10-20T13:50:32.1Z</time>
      </trkpt>
      <trkpt lat="48.64464" lon="-2.48405">
        <ele>38</ele>
        <time>2014-10-20T13:50:35.1Z</time>
      </trkpt>
      <trkpt lat="48.64464" lon="-2.48403">
        <ele>38</ele>
        <time>2014-10-20T13:50:37.1Z</time>
      </trkpt>
      <trkpt lat="48.64463" lon="-2.48399">
        <ele>38</ele>
        <time>2014-10-20T13:50:40.1Z</time>
      </trkpt>
      <trkpt lat="48.64463" lon="-2.48396">
        <ele>38</ele>
        <time>2014-10-20T13:50:42.1Z</time>
      </trkpt>
      <trkpt lat="48.64463" lon="-2.48394">
        <ele>38</ele>
        <time>2014-10-20T13:50:44.1Z</time>
      </trkpt>
      <trkpt lat="48.64462" lon="-2.48391">
        <ele>38</ele>
        <time>2014-10-20T13:50:47.1Z</time>
      </trkpt>
      <trkpt lat="48.64461" lon="-2.48388">
        <ele>38</ele>
        <time>2014-10-20T13:50:50.1Z</time>
      </trkpt>
      <trkpt lat="48.6446" lon="-2.48385">
        <ele>39</ele>
        <time>2014-10-20T13:50:53.1Z</time>
      </trkpt>
      <trkpt lat="48.64458" lon="-2.48385">
        <ele>39</ele>
        <time>2014-10-20T13:50:55.1Z</time>
      </trkpt>
      <trkpt lat="48.64457" lon="-2.48384">
        <ele>39</ele>
        <time>2014-10-20T13:50:58.1Z</time>
      </trkpt>
      <trkpt lat="48.64457" lon="-2.48382">
        <ele>39</ele>
        <time>2014-10-20T13:51:01.1Z</time>
      </trkpt>
      <trkpt lat="48.64457" lon="-2.4838">
        <ele>39</ele>
        <time>2014-10-20T13:51:03.1Z</time>
      </trkpt>
      <trkpt lat="48.64455" lon="-2.48377">
        <ele>39</ele>
        <time>2014-10-20T13:51:06.1Z</time>
      </trkpt>
      <trkpt lat="48.64454" lon="-2.48376">
        <ele>39</ele>
        <time>2014-10-20T13:51:09.1Z</time>
      </trkpt>
      <trkpt lat="48.64454" lon="-2.48376">
        <ele>39</ele>
        <time>2014-10-20T13:51:13.1Z</time>
      </trkpt>
      <trkpt lat="48.64455" lon="-2.48376">
        <ele>39</ele>
        <time>2014-10-20T13:51:15.1Z</time>
      </trkpt>
      <trkpt lat="48.64455" lon="-2.48376">
        <ele>39</ele>
        <time>2014-10-20T13:51:19.1Z</time>
      </trkpt>
      <trkpt lat="48.64455" lon="-2.48376">
        <ele>39</ele>
        <time>2014-10-20T13:51:21.1Z</time>
      </trkpt>
      <trkpt lat="48.64454" lon="-2.48376">
        <ele>39</ele>
        <time>2014-10-20T13:51:24.1Z</time>
      </trkpt>
      <trkpt lat="48.64454" lon="-2.48376">
        <ele>38</ele>
        <time>2014-10-20T13:51:26.1Z</time>
      </trkpt>
      <trkpt lat="48.64454" lon="-2.48374">
        <ele>39</ele>
        <time>2014-10-20T13:51:28.1Z</time>
      </trkpt>
      <trkpt lat="48.64454" lon="-2.48373">
        <ele>38</ele>
        <time>2014-10-20T13:51:30.1Z</time>
      </trkpt>
      <trkpt lat="48.64454" lon="-2.4837">
        <ele>38</ele>
        <time>2014-10-20T13:51:33.1Z</time>
      </trkpt>
      <trkpt lat="48.64452" lon="-2.48367">
        <ele>38</ele>
        <time>2014-10-20T13:51:36.1Z</time>
      </trkpt>
      <trkpt lat="48.64452" lon="-2.48364">
        <ele>38</ele>
        <time>2014-10-20T13:51:38.1Z</time>
      </trkpt>
      <trkpt lat="48.64451" lon="-2.4836">
        <ele>37</ele>
        <time>2014-10-20T13:51:41.1Z</time>
      </trkpt>
      <trkpt lat="48.6445" lon="-2.48356">
        <ele>37</ele>
        <time>2014-10-20T13:51:44.1Z</time>
      </trkpt>
      <trkpt lat="48.6445" lon="-2.48353">
        <ele>36</ele>
        <time>2014-10-20T13:51:46.1Z</time>
      </trkpt>
      <trkpt lat="48.64448" lon="-2.4835">
        <ele>36</ele>
        <time>2014-10-20T13:51:49.1Z</time>
      </trkpt>
      <trkpt lat="48.64447" lon="-2.48346">
        <ele>36</ele>
        <time>2014-10-20T13:51:52.1Z</time>
      </trkpt>
      <trkpt lat="48.64446" lon="-2.48344">
        <ele>36</ele>
        <time>2014-10-20T13:51:54.1Z</time>
      </trkpt>
      <trkpt lat="48.64445" lon="-2.4834">
        <ele>36</ele>
        <time>2014-10-20T13:51:57.1Z</time>
      </trkpt>
      <trkpt lat="48.64445" lon="-2.48338">
        <ele>35</ele>
        <time>2014-10-20T13:51:59.1Z</time>
      </trkpt>
      <trkpt lat="48.64444" lon="-2.48335">
        <ele>35</ele>
        <time>2014-10-20T13:52:01.1Z</time>
      </trkpt>
      <trkpt lat="48.64443" lon="-2.4833">
        <ele>35</ele>
        <time>2014-10-20T13:52:04.1Z</time>
      </trkpt>
      <trkpt lat="48.64442" lon="-2.48327">
        <ele>34</ele>
        <time>2014-10-20T13:52:07.1Z</time>
      </trkpt>
      <trkpt lat="48.6444" lon="-2.48324">
        <ele>34</ele>
        <time>2014-10-20T13:52:10.1Z</time>
      </trkpt>
      <trkpt lat="48.64439" lon="-2.48321">
        <ele>34</ele>
        <time>2014-10-20T13:52:12.1Z</time>
      </trkpt>
      <trkpt lat="48.64437" lon="-2.48318">
        <ele>34</ele>
        <time>2014-10-20T13:52:15.1Z</time>
      </trkpt>
      <trkpt lat="48.64435" lon="-2.48316">
        <ele>34</ele>
        <time>2014-10-20T13:52:17.1Z</time>
      </trkpt>
      <trkpt lat="48.64434" lon="-2.48313">
        <ele>34</ele>
        <time>2014-10-20T13:52:19.1Z</time>
      </trkpt>
      <trkpt lat="48.64432" lon="-2.48311">
        <ele>34</ele>
        <time>2014-10-20T13:52:21.1Z</time>
      </trkpt>
      <trkpt lat="48.6443" lon="-2.48308">
        <ele>34</ele>
        <time>2014-10-20T13:52:24.1Z</time>
      </trkpt>
      <trkpt lat="48.64427" lon="-2.48303">
        <ele>34</ele>
        <time>2014-10-20T13:52:27.1Z</time>
      </trkpt>
      <trkpt lat="48.64426" lon="-2.483">
        <ele>33</ele>
        <time>2014-10-20T13:52:29.1Z</time>
      </trkpt>
      <trkpt lat="48.64424" lon="-2.48296">
        <ele>33</ele>
        <time>2014-10-20T13:52:32.1Z</time>
      </trkpt>
      <trkpt lat="48.64423" lon="-2.48293">
        <ele>33</ele>
        <time>2014-10-20T13:52:34.1Z</time>
      </trkpt>
      <trkpt lat="48.64423" lon="-2.4829">
        <ele>33</ele>
        <time>2014-10-20T13:52:36.1Z</time>
      </trkpt>
      <trkpt lat="48.64422" lon="-2.48285">
        <ele>33</ele>
        <time>2014-10-20T13:52:39.1Z</time>
      </trkpt>
      <trkpt lat="48.64421" lon="-2.48281">
        <ele>33</ele>
        <time>2014-10-20T13:52:42.1Z</time>
      </trkpt>
      <trkpt lat="48.64421" lon="-2.48275">
        <ele>33</ele>
        <time>2014-10-20T13:52:45.1Z</time>
      </trkpt>
      <trkpt lat="48.6442" lon="-2.4827">
        <ele>32</ele>
        <time>2014-10-20T13:52:48.1Z</time>
      </trkpt>
      <trkpt lat="48.6442" lon="-2.48267">
        <ele>32</ele>
        <time>2014-10-20T13:52:50.1Z</time>
      </trkpt>
      <trkpt lat="48.6442" lon="-2.48263">
        <ele>33</ele>
        <time>2014-10-20T13:52:53.1Z</time>
      </trkpt>
      <trkpt lat="48.64419" lon="-2.48259">
        <ele>33</ele>
        <time>2014-10-20T13:52:55.1Z</time>
      </trkpt>
      <trkpt lat="48.64417" lon="-2.48256">
        <ele>33</ele>
        <time>2014-10-20T13:52:58.1Z</time>
      </trkpt>
      <trkpt lat="48.64415" lon="-2.48253">
        <ele>33</ele>
        <time>2014-10-20T13:53:01.1Z</time>
      </trkpt>
      <trkpt lat="48.64413" lon="-2.48254">
        <ele>34</ele>
        <time>2014-10-20T13:53:04.1Z</time>
      </trkpt>
      <trkpt lat="48.64411" lon="-2.48254">
        <ele>34</ele>
        <time>2014-10-20T13:53:06.1Z</time>
      </trkpt>
      <trkpt lat="48.6441" lon="-2.48255">
        <ele>34</ele>
        <time>2014-10-20T13:53:08.1Z</time>
      </trkpt>
      <trkpt lat="48.64407" lon="-2.48254">
        <ele>34</ele>
        <time>2014-10-20T13:53:11.1Z</time>
      </trkpt>
      <trkpt lat="48.64406" lon="-2.48253">
        <ele>34</ele>
        <time>2014-10-20T13:53:13.1Z</time>
      </trkpt>
      <trkpt lat="48.64404" lon="-2.48253">
        <ele>34</ele>
        <time>2014-10-20T13:53:15.1Z</time>
      </trkpt>
      <trkpt lat="48.64402" lon="-2.48253">
        <ele>34</ele>
        <time>2014-10-20T13:53:17.1Z</time>
      </trkpt>
      <trkpt lat="48.644" lon="-2.48252">
        <ele>34</ele>
        <time>2014-10-20T13:53:19.1Z</time>
      </trkpt>
      <trkpt lat="48.64398" lon="-2.48252">
        <ele>34</ele>
        <time>2014-10-20T13:53:21.1Z</time>
      </trkpt>
      <trkpt lat="48.64396" lon="-2.48252">
        <ele>34</ele>
        <time>2014-10-20T13:53:23.1Z</time>
      </trkpt>
      <trkpt lat="48.64395" lon="-2.48253">
        <ele>34</ele>
        <time>2014-10-20T13:53:25.1Z</time>
      </trkpt>
      <trkpt lat="48.64392" lon="-2.48253">
        <ele>34</ele>
        <time>2014-10-20T13:53:27.1Z</time>
      </trkpt>
      <trkpt lat="48.6439" lon="-2.48253">
        <ele>34</ele>
        <time>2014-10-20T13:53:30.1Z</time>
      </trkpt>
      <trkpt lat="48.64388" lon="-2.48253">
        <ele>34</ele>
        <time>2014-10-20T13:53:32.1Z</time>
      </trkpt>
      <trkpt lat="48.64386" lon="-2.48251">
        <ele>34</ele>
        <time>2014-10-20T13:53:35.1Z</time>
      </trkpt>
      <trkpt lat="48.64386" lon="-2.4825">
        <ele>33</ele>
        <time>2014-10-20T13:53:37.1Z</time>
      </trkpt>
      <trkpt lat="48.64384" lon="-2.48248">
        <ele>33</ele>
        <time>2014-10-20T13:53:39.1Z</time>
      </trkpt>
      <trkpt lat="48.64383" lon="-2.48246">
        <ele>33</ele>
        <time>2014-10-20T13:53:42.1Z</time>
      </trkpt>
      <trkpt lat="48.64381" lon="-2.48243">
        <ele>33</ele>
        <time>2014-10-20T13:53:45.1Z</time>
      </trkpt>
      <trkpt lat="48.64381" lon="-2.48241">
        <ele>32</ele>
        <time>2014-10-20T13:53:49.1Z</time>
      </trkpt>
      <trkpt lat="48.6438" lon="-2.48241">
        <ele>33</ele>
        <time>2014-10-20T13:53:53.1Z</time>
      </trkpt>
      <trkpt lat="48.64378" lon="-2.4824">
        <ele>33</ele>
        <time>2014-10-20T13:53:55.1Z</time>
      </trkpt>
      <trkpt lat="48.64376" lon="-2.4824">
        <ele>33</ele>
        <time>2014-10-20T13:53:57.1Z</time>
      </trkpt>
      <trkpt lat="48.64373" lon="-2.48239">
        <ele>32</ele>
        <time>2014-10-20T13:54:00.1Z</time>
      </trkpt>
      <trkpt lat="48.64371" lon="-2.4824">
        <ele>32</ele>
        <time>2014-10-20T13:54:02.1Z</time>
      </trkpt>
      <trkpt lat="48.64368" lon="-2.48242">
        <ele>32</ele>
        <time>2014-10-20T13:54:05.1Z</time>
      </trkpt>
      <trkpt lat="48.64366" lon="-2.48242">
        <ele>32</ele>
        <time>2014-10-20T13:54:07.1Z</time>
      </trkpt>
      <trkpt lat="48.64364" lon="-2.48242">
        <ele>32</ele>
        <time>2014-10-20T13:54:09.1Z</time>
      </trkpt>
      <trkpt lat="48.64362" lon="-2.48242">
        <ele>32</ele>
        <time>2014-10-20T13:54:11.1Z</time>
      </trkpt>
      <trkpt lat="48.64362" lon="-2.48241">
        <ele>32</ele>
        <time>2014-10-20T13:54:14.1Z</time>
      </trkpt>
      <trkpt lat="48.64362" lon="-2.48241">
        <ele>31</ele>
        <time>2014-10-20T13:54:16.1Z</time>
      </trkpt>
      <trkpt lat="48.64363" lon="-2.48241">
        <ele>31</ele>
        <time>2014-10-20T13:54:19.1Z</time>
      </trkpt>
      <trkpt lat="48.64364" lon="-2.4824">
        <ele>31</ele>
        <time>2014-10-20T13:54:21.1Z</time>
      </trkpt>
      <trkpt lat="48.64364" lon="-2.4824">
        <ele>31</ele>
        <time>2014-10-20T13:54:24.1Z</time>
      </trkpt>
      <trkpt lat="48.64363" lon="-2.4824">
        <ele>32</ele>
        <time>2014-10-20T13:54:26.1Z</time>
      </trkpt>
      <trkpt lat="48.64363" lon="-2.48237">
        <ele>31</ele>
        <time>2014-10-20T13:54:29.1Z</time>
      </trkpt>
      <trkpt lat="48.64362" lon="-2.48235">
        <ele>31</ele>
        <time>2014-10-20T13:54:32.1Z</time>
      </trkpt>
      <trkpt lat="48.64362" lon="-2.48233">
        <ele>30</ele>
        <time>2014-10-20T13:54:35.1Z</time>
      </trkpt>
      <trkpt lat="48.64362" lon="-2.48231">
        <ele>29</ele>
        <time>2014-10-20T13:54:37.1Z</time>
      </trkpt>
      <trkpt lat="48.64361" lon="-2.48228">
        <ele>29</ele>
        <time>2014-10-20T13:54:40.1Z</time>
      </trkpt>
      <trkpt lat="48.6436" lon="-2.48226">
        <ele>28</ele>
        <time>2014-10-20T13:54:43.1Z</time>
      </trkpt>
      <trkpt lat="48.64359" lon="-2.48223">
        <ele>27</ele>
        <time>2014-10-20T13:54:46.1Z</time>
      </trkpt>
      <trkpt lat="48.64358" lon="-2.4822">
        <ele>26</ele>
        <time>2014-10-20T13:54:49.1Z</time>
      </trkpt>
      <trkpt lat="48.64358" lon="-2.48217">
        <ele>25</ele>
        <time>2014-10-20T13:54:52.1Z</time>
      </trkpt>
      <trkpt lat="48.64356" lon="-2.48214">
        <ele>24</ele>
        <time>2014-10-20T13:54:54.1Z</time>
      </trkpt>
      <trkpt lat="48.64354" lon="-2.48212">
        <ele>24</ele>
        <time>2014-10-20T13:54:57.1Z</time>
      </trkpt>
      <trkpt lat="48.64353" lon="-2.48209">
        <ele>23</ele>
        <time>2014-10-20T13:55:00.1Z</time>
      </trkpt>
      <trkpt lat="48.64352" lon="-2.48204">
        <ele>24</ele>
        <time>2014-10-20T13:55:03.1Z</time>
      </trkpt>
      <trkpt lat="48.64352" lon="-2.48203">
        <ele>24</ele>
        <time>2014-10-20T13:55:05.1Z</time>
      </trkpt>
      <trkpt lat="48.64352" lon="-2.48202">
        <ele>24</ele>
        <time>2014-10-20T13:55:07.1Z</time>
      </trkpt>
      <trkpt lat="48.64352" lon="-2.48197">
        <ele>24</ele>
        <time>2014-10-20T13:55:10.1Z</time>
      </trkpt>
      <trkpt lat="48.64352" lon="-2.48195">
        <ele>24</ele>
        <time>2014-10-20T13:55:12.1Z</time>
      </trkpt>
      <trkpt lat="48.64352" lon="-2.48193">
        <ele>25</ele>
        <time>2014-10-20T13:55:14.1Z</time>
      </trkpt>
      <trkpt lat="48.64352" lon="-2.48189">
        <ele>25</ele>
        <time>2014-10-20T13:55:17.1Z</time>
      </trkpt>
      <trkpt lat="48.64352" lon="-2.48187">
        <ele>26</ele>
        <time>2014-10-20T13:55:19.1Z</time>
      </trkpt>
      <trkpt lat="48.64351" lon="-2.48184">
        <ele>27</ele>
        <time>2014-10-20T13:55:22.1Z</time>
      </trkpt>
      <trkpt lat="48.6435" lon="-2.48182">
        <ele>28</ele>
        <time>2014-10-20T13:55:25.1Z</time>
      </trkpt>
      <trkpt lat="48.64349" lon="-2.48181">
        <ele>28</ele>
        <time>2014-10-20T13:55:27.1Z</time>
      </trkpt>
      <trkpt lat="48.64351" lon="-2.48179">
        <ele>29</ele>
        <time>2014-10-20T13:55:30.1Z</time>
      </trkpt>
      <trkpt lat="48.64352" lon="-2.48177">
        <ele>29</ele>
        <time>2014-10-20T13:55:32.1Z</time>
      </trkpt>
      <trkpt lat="48.64352" lon="-2.48175">
        <ele>30</ele>
        <time>2014-10-20T13:55:34.1Z</time>
      </trkpt>
      <trkpt lat="48.64353" lon="-2.48174">
        <ele>30</ele>
        <time>2014-10-20T13:55:36.1Z</time>
      </trkpt>
      <trkpt lat="48.64354" lon="-2.48172">
        <ele>30</ele>
        <time>2014-10-20T13:55:38.1Z</time>
      </trkpt>
      <trkpt lat="48.64355" lon="-2.4817">
        <ele>30</ele>
        <time>2014-10-20T13:55:40.1Z</time>
      </trkpt>
      <trkpt lat="48.64356" lon="-2.48169">
        <ele>30</ele>
        <time>2014-10-20T13:55:43.1Z</time>
      </trkpt>
      <trkpt lat="48.64357" lon="-2.48168">
        <ele>31</ele>
        <time>2014-10-20T13:55:45.1Z</time>
      </trkpt>
      <trkpt lat="48.64358" lon="-2.48167">
        <ele>31</ele>
        <time>2014-10-20T13:55:48.1Z</time>
      </trkpt>
      <trkpt lat="48.64359" lon="-2.48166">
        <ele>31</ele>
        <time>2014-10-20T13:55:50.1Z</time>
      </trkpt>
      <trkpt lat="48.6436" lon="-2.48165">
        <ele>31</ele>
        <time>2014-10-20T13:55:52.1Z</time>
      </trkpt>
      <trkpt lat="48.64362" lon="-2.48165">
        <ele>32</ele>
        <time>2014-10-20T13:55:55.1Z</time>
      </trkpt>
      <trkpt lat="48.64363" lon="-2.48163">
        <ele>32</ele>
        <time>2014-10-20T13:55:57.1Z</time>
      </trkpt>
      <trkpt lat="48.64364" lon="-2.48162">
        <ele>32</ele>
        <time>2014-10-20T13:55:59.1Z</time>
      </trkpt>
      <trkpt lat="48.64365" lon="-2.4816">
        <ele>32</ele>
        <time>2014-10-20T13:56:01.1Z</time>
      </trkpt>
      <trkpt lat="48.64367" lon="-2.48159">
        <ele>32</ele>
        <time>2014-10-20T13:56:04.1Z</time>
      </trkpt>
      <trkpt lat="48.64368" lon="-2.48156">
        <ele>33</ele>
        <time>2014-10-20T13:56:07.1Z</time>
      </trkpt>
      <trkpt lat="48.64369" lon="-2.48155">
        <ele>33</ele>
        <time>2014-10-20T13:56:09.1Z</time>
      </trkpt>
      <trkpt lat="48.6437" lon="-2.48153">
        <ele>33</ele>
        <time>2014-10-20T13:56:12.1Z</time>
      </trkpt>
      <trkpt lat="48.64371" lon="-2.48151">
        <ele>34</ele>
        <time>2014-10-20T13:56:15.1Z</time>
      </trkpt>
      <trkpt lat="48.64371" lon="-2.48149">
        <ele>34</ele>
        <time>2014-10-20T13:56:17.1Z</time>
      </trkpt>
      <trkpt lat="48.64372" lon="-2.48146">
        <ele>34</ele>
        <time>2014-10-20T13:56:20.1Z</time>
      </trkpt>
      <trkpt lat="48.64372" lon="-2.48145">
        <ele>34</ele>
        <time>2014-10-20T13:56:22.1Z</time>
      </trkpt>
      <trkpt lat="48.64373" lon="-2.48142">
        <ele>34</ele>
        <time>2014-10-20T13:56:25.1Z</time>
      </trkpt>
      <trkpt lat="48.64373" lon="-2.48136">
        <ele>34</ele>
        <time>2014-10-20T13:56:28.1Z</time>
      </trkpt>
      <trkpt lat="48.64374" lon="-2.48132">
        <ele>34</ele>
        <time>2014-10-20T13:56:31.1Z</time>
      </trkpt>
      <trkpt lat="48.64374" lon="-2.48129">
        <ele>34</ele>
        <time>2014-10-20T13:56:33.1Z</time>
      </trkpt>
      <trkpt lat="48.64374" lon="-2.48125">
        <ele>35</ele>
        <time>2014-10-20T13:56:36.1Z</time>
      </trkpt>
      <trkpt lat="48.64374" lon="-2.48121">
        <ele>34</ele>
        <time>2014-10-20T13:56:39.1Z</time>
      </trkpt>
      <trkpt lat="48.64373" lon="-2.48116">
        <ele>34</ele>
        <time>2014-10-20T13:56:42.1Z</time>
      </trkpt>
      <trkpt lat="48.64373" lon="-2.48113">
        <ele>34</ele>
        <time>2014-10-20T13:56:44.1Z</time>
      </trkpt>
      <trkpt lat="48.64373" lon="-2.48107">
        <ele>35</ele>
        <time>2014-10-20T13:56:47.1Z</time>
      </trkpt>
      <trkpt lat="48.64372" lon="-2.48104">
        <ele>35</ele>
        <time>2014-10-20T13:56:49.1Z</time>
      </trkpt>
      <trkpt lat="48.64371" lon="-2.481">
        <ele>35</ele>
        <time>2014-10-20T13:56:52.1Z</time>
      </trkpt>
      <trkpt lat="48.64371" lon="-2.48095">
        <ele>35</ele>
        <time>2014-10-20T13:56:55.1Z</time>
      </trkpt>
      <trkpt lat="48.6437" lon="-2.48092">
        <ele>34</ele>
        <time>2014-10-20T13:56:57.1Z</time>
      </trkpt>
      <trkpt lat="48.6437" lon="-2.48088">
        <ele>35</ele>
        <time>2014-10-20T13:57:00.1Z</time>
      </trkpt>
      <trkpt lat="48.64369" lon="-2.48082">
        <ele>35</ele>
        <time>2014-10-20T13:57:03.1Z</time>
      </trkpt>
      <trkpt lat="48.64368" lon="-2.48078">
        <ele>35</ele>
        <time>2014-10-20T13:57:06.1Z</time>
      </trkpt>
      <trkpt lat="48.64368" lon="-2.48073">
        <ele>35</ele>
        <time>2014-10-20T13:57:09.1Z</time>
      </trkpt>
      <trkpt lat="48.64368" lon="-2.48069">
        <ele>36</ele>
        <time>2014-10-20T13:57:12.1Z</time>
      </trkpt>
      <trkpt lat="48.64367" lon="-2.48064">
        <ele>36</ele>
        <time>2014-10-20T13:57:15.1Z</time>
      </trkpt>
      <trkpt lat="48.64366" lon="-2.48061">
        <ele>36</ele>
        <time>2014-10-20T13:57:17.1Z</time>
      </trkpt>
      <trkpt lat="48.64366" lon="-2.48058">
        <ele>36</ele>
        <time>2014-10-20T13:57:20.1Z</time>
      </trkpt>
      <trkpt lat="48.64365" lon="-2.48055">
        <ele>36</ele>
        <time>2014-10-20T13:57:22.1Z</time>
      </trkpt>
      <trkpt lat="48.64365" lon="-2.48052">
        <ele>36</ele>
        <time>2014-10-20T13:57:24.1Z</time>
      </trkpt>
      <trkpt lat="48.64365" lon="-2.48048">
        <ele>37</ele>
        <time>2014-10-20T13:57:27.1Z</time>
      </trkpt>
      <trkpt lat="48.64365" lon="-2.48044">
        <ele>37</ele>
        <time>2014-10-20T13:57:30.1Z</time>
      </trkpt>
      <trkpt lat="48.64366" lon="-2.4804">
        <ele>37</ele>
        <time>2014-10-20T13:57:33.1Z</time>
      </trkpt>
      <trkpt lat="48.64366" lon="-2.48037">
        <ele>36</ele>
        <time>2014-10-20T13:57:35.1Z</time>
      </trkpt>
      <trkpt lat="48.64366" lon="-2.48032">
        <ele>36</ele>
        <time>2014-10-20T13:57:38.1Z</time>
      </trkpt>
      <trkpt lat="48.64367" lon="-2.48027">
        <ele>36</ele>
        <time>2014-10-20T13:57:41.1Z</time>
      </trkpt>
      <trkpt lat="48.64367" lon="-2.48022">
        <ele>36</ele>
        <time>2014-10-20T13:57:44.1Z</time>
      </trkpt>
      <trkpt lat="48.64368" lon="-2.48018">
        <ele>36</ele>
        <time>2014-10-20T13:57:46.1Z</time>
      </trkpt>
      <trkpt lat="48.64368" lon="-2.48013">
        <ele>37</ele>
        <time>2014-10-20T13:57:49.1Z</time>
      </trkpt>
      <trkpt lat="48.6437" lon="-2.48009">
        <ele>37</ele>
        <time>2014-10-20T13:57:52.1Z</time>
      </trkpt>
      <trkpt lat="48.6437" lon="-2.48005">
        <ele>37</ele>
        <time>2014-10-20T13:57:55.1Z</time>
      </trkpt>
      <trkpt lat="48.6437" lon="-2.48002">
        <ele>37</ele>
        <time>2014-10-20T13:57:57.1Z</time>
      </trkpt>
      <trkpt lat="48.64371" lon="-2.47999">
        <ele>37</ele>
        <time>2014-10-20T13:58:00.1Z</time>
      </trkpt>
      <trkpt lat="48.64371" lon="-2.47997">
        <ele>38</ele>
        <time>2014-10-20T13:58:02.1Z</time>
      </trkpt>
      <trkpt lat="48.64371" lon="-2.47993">
        <ele>38</ele>
        <time>2014-10-20T13:58:05.1Z</time>
      </trkpt>
      <trkpt lat="48.64373" lon="-2.4799">
        <ele>38</ele>
        <time>2014-10-20T13:58:08.1Z</time>
      </trkpt>
      <trkpt lat="48.64375" lon="-2.47987">
        <ele>38</ele>
        <time>2014-10-20T13:58:11.1Z</time>
      </trkpt>
      <trkpt lat="48.64376" lon="-2.47983">
        <ele>39</ele>
        <time>2014-10-20T13:58:14.1Z</time>
      </trkpt>
      <trkpt lat="48.64377" lon="-2.4798">
        <ele>38</ele>
        <time>2014-10-20T13:58:17.1Z</time>
      </trkpt>
      <trkpt lat="48.64378" lon="-2.47976">
        <ele>38</ele>
        <time>2014-10-20T13:58:20.1Z</time>
      </trkpt>
      <trkpt lat="48.64378" lon="-2.47975">
        <ele>39</ele>
        <time>2014-10-20T13:58:22.1Z</time>
      </trkpt>
      <trkpt lat="48.64379" lon="-2.47972">
        <ele>39</ele>
        <time>2014-10-20T13:58:25.1Z</time>
      </trkpt>
      <trkpt lat="48.6438" lon="-2.47969">
        <ele>39</ele>
        <time>2014-10-20T13:58:27.1Z</time>
      </trkpt>
      <trkpt lat="48.64381" lon="-2.47966">
        <ele>40</ele>
        <time>2014-10-20T13:58:30.1Z</time>
      </trkpt>
      <trkpt lat="48.64381" lon="-2.47964">
        <ele>40</ele>
        <time>2014-10-20T13:58:32.1Z</time>
      </trkpt>
      <trkpt lat="48.64382" lon="-2.47961">
        <ele>40</ele>
        <time>2014-10-20T13:58:35.1Z</time>
      </trkpt>
      <trkpt lat="48.64382" lon="-2.47959">
        <ele>41</ele>
        <time>2014-10-20T13:58:37.1Z</time>
      </trkpt>
      <trkpt lat="48.64382" lon="-2.47958">
        <ele>41</ele>
        <time>2014-10-20T13:58:39.1Z</time>
      </trkpt>
      <trkpt lat="48.64383" lon="-2.47955">
        <ele>41</ele>
        <time>2014-10-20T13:58:42.1Z</time>
      </trkpt>
      <trkpt lat="48.64384" lon="-2.47953">
        <ele>42</ele>
        <time>2014-10-20T13:58:45.1Z</time>
      </trkpt>
      <trkpt lat="48.64384" lon="-2.47951">
        <ele>42</ele>
        <time>2014-10-20T13:58:47.1Z</time>
      </trkpt>
      <trkpt lat="48.64384" lon="-2.47948">
        <ele>43</ele>
        <time>2014-10-20T13:58:50.1Z</time>
      </trkpt>
      <trkpt lat="48.64385" lon="-2.47945">
        <ele>43</ele>
        <time>2014-10-20T13:58:52.1Z</time>
      </trkpt>
      <trkpt lat="48.64385" lon="-2.47943">
        <ele>43</ele>
        <time>2014-10-20T13:58:54.1Z</time>
      </trkpt>
      <trkpt lat="48.64385" lon="-2.47939">
        <ele>43</ele>
        <time>2014-10-20T13:58:57.1Z</time>
      </trkpt>
      <trkpt lat="48.64385" lon="-2.47936">
        <ele>43</ele>
        <time>2014-10-20T13:59:00.1Z</time>
      </trkpt>
      <trkpt lat="48.64385" lon="-2.47932">
        <ele>43</ele>
        <time>2014-10-20T13:59:03.1Z</time>
      </trkpt>
      <trkpt lat="48.64386" lon="-2.47929">
        <ele>43</ele>
        <time>2014-10-20T13:59:05.1Z</time>
      </trkpt>
      <trkpt lat="48.64385" lon="-2.47926">
        <ele>43</ele>
        <time>2014-10-20T13:59:08.1Z</time>
      </trkpt>
      <trkpt lat="48.64386" lon="-2.47925">
        <ele>43</ele>
        <time>2014-10-20T13:59:10.1Z</time>
      </trkpt>
      <trkpt lat="48.64385" lon="-2.47924">
        <ele>42</ele>
        <time>2014-10-20T13:59:13.1Z</time>
      </trkpt>
      <trkpt lat="48.64385" lon="-2.47922">
        <ele>42</ele>
        <time>2014-10-20T13:59:15.1Z</time>
      </trkpt>
      <trkpt lat="48.64384" lon="-2.47918">
        <ele>42</ele>
        <time>2014-10-20T13:59:18.1Z</time>
      </trkpt>
      <trkpt lat="48.64384" lon="-2.47915">
        <ele>43</ele>
        <time>2014-10-20T13:59:20.1Z</time>
      </trkpt>
      <trkpt lat="48.64384" lon="-2.47914">
        <ele>43</ele>
        <time>2014-10-20T13:59:23.1Z</time>
      </trkpt>
      <trkpt lat="48.64383" lon="-2.47911">
        <ele>43</ele>
        <time>2014-10-20T13:59:26.1Z</time>
      </trkpt>
      <trkpt lat="48.64382" lon="-2.47907">
        <ele>43</ele>
        <time>2014-10-20T13:59:29.1Z</time>
      </trkpt>
      <trkpt lat="48.64382" lon="-2.47904">
        <ele>43</ele>
        <time>2014-10-20T13:59:31.1Z</time>
      </trkpt>
      <trkpt lat="48.64382" lon="-2.47898">
        <ele>43</ele>
        <time>2014-10-20T13:59:34.1Z</time>
      </trkpt>
      <trkpt lat="48.64381" lon="-2.47895">
        <ele>43</ele>
        <time>2014-10-20T13:59:36.1Z</time>
      </trkpt>
      <trkpt lat="48.64381" lon="-2.4789">
        <ele>42</ele>
        <time>2014-10-20T13:59:39.1Z</time>
      </trkpt>
      <trkpt lat="48.64381" lon="-2.47886">
        <ele>42</ele>
        <time>2014-10-20T13:59:42.1Z</time>
      </trkpt>
      <trkpt lat="48.64381" lon="-2.47884">
        <ele>42</ele>
        <time>2014-10-20T13:59:44.1Z</time>
      </trkpt>
      <trkpt lat="48.64381" lon="-2.4788">
        <ele>42</ele>
        <time>2014-10-20T13:59:47.1Z</time>
      </trkpt>
      <trkpt lat="48.64381" lon="-2.47878">
        <ele>42</ele>
        <time>2014-10-20T13:59:49.1Z</time>
      </trkpt>
      <trkpt lat="48.64381" lon="-2.47875">
        <ele>42</ele>
        <time>2014-10-20T13:59:51.1Z</time>
      </trkpt>
      <trkpt lat="48.6438" lon="-2.4787">
        <ele>42</ele>
        <time>2014-10-20T13:59:54.1Z</time>
      </trkpt>
      <trkpt lat="48.6438" lon="-2.47866">
        <ele>41</ele>
        <time>2014-10-20T13:59:57.1Z</time>
      </trkpt>
      <trkpt lat="48.6438" lon="-2.47861">
        <ele>41</ele>
        <time>2014-10-20T14:00:00.1Z</time>
      </trkpt>
      <trkpt lat="48.6438" lon="-2.4786">
        <ele>42</ele>
        <time>2014-10-20T14:00:02.1Z</time>
      </trkpt>
      <trkpt lat="48.64379" lon="-2.47854">
        <ele>41</ele>
        <time>2014-10-20T14:00:05.1Z</time>
      </trkpt>
      <trkpt lat="48.64379" lon="-2.47849">
        <ele>41</ele>
        <time>2014-10-20T14:00:08.1Z</time>
      </trkpt>
      <trkpt lat="48.6438" lon="-2.47845">
        <ele>41</ele>
        <time>2014-10-20T14:00:11.1Z</time>
      </trkpt>
      <trkpt lat="48.64381" lon="-2.4784">
        <ele>41</ele>
        <time>2014-10-20T14:00:14.1Z</time>
      </trkpt>
      <trkpt lat="48.64381" lon="-2.47837">
        <ele>41</ele>
        <time>2014-10-20T14:00:16.1Z</time>
      </trkpt>
      <trkpt lat="48.64381" lon="-2.47832">
        <ele>41</ele>
        <time>2014-10-20T14:00:19.1Z</time>
      </trkpt>
      <trkpt lat="48.64381" lon="-2.47829">
        <ele>40</ele>
        <time>2014-10-20T14:00:22.1Z</time>
      </trkpt>
      <trkpt lat="48.64381" lon="-2.47827">
        <ele>41</ele>
        <time>2014-10-20T14:00:24.1Z</time>
      </trkpt>
      <trkpt lat="48.6438" lon="-2.47823">
        <ele>41</ele>
        <time>2014-10-20T14:00:27.1Z</time>
      </trkpt>
      <trkpt lat="48.6438" lon="-2.47819">
        <ele>41</ele>
        <time>2014-10-20T14:00:30.1Z</time>
      </trkpt>
      <trkpt lat="48.64379" lon="-2.47815">
        <ele>41</ele>
        <time>2014-10-20T14:00:33.1Z</time>
      </trkpt>
      <trkpt lat="48.64378" lon="-2.47811">
        <ele>42</ele>
        <time>2014-10-20T14:00:36.1Z</time>
      </trkpt>
      <trkpt lat="48.64378" lon="-2.47807">
        <ele>42</ele>
        <time>2014-10-20T14:00:39.1Z</time>
      </trkpt>
      <trkpt lat="48.64377" lon="-2.47804">
        <ele>42</ele>
        <time>2014-10-20T14:00:41.1Z</time>
      </trkpt>
      <trkpt lat="48.64376" lon="-2.47801">
        <ele>42</ele>
        <time>2014-10-20T14:00:43.1Z</time>
      </trkpt>
      <trkpt lat="48.64376" lon="-2.47796">
        <ele>42</ele>
        <time>2014-10-20T14:00:46.1Z</time>
      </trkpt>
      <trkpt lat="48.64377" lon="-2.47793">
        <ele>42</ele>
        <time>2014-10-20T14:00:48.1Z</time>
      </trkpt>
      <trkpt lat="48.64376" lon="-2.47789">
        <ele>42</ele>
        <time>2014-10-20T14:00:51.1Z</time>
      </trkpt>
      <trkpt lat="48.64376" lon="-2.47787">
        <ele>42</ele>
        <time>2014-10-20T14:00:53.1Z</time>
      </trkpt>
      <trkpt lat="48.64376" lon="-2.47784">
        <ele>42</ele>
        <time>2014-10-20T14:00:56.1Z</time>
      </trkpt>
      <trkpt lat="48.64376" lon="-2.47781">
        <ele>43</ele>
        <time>2014-10-20T14:00:59.1Z</time>
      </trkpt>
      <trkpt lat="48.64375" lon="-2.47778">
        <ele>42</ele>
        <time>2014-10-20T14:01:02.1Z</time>
      </trkpt>
      <trkpt lat="48.64375" lon="-2.47776">
        <ele>42</ele>
        <time>2014-10-20T14:01:04.1Z</time>
      </trkpt>
      <trkpt lat="48.64375" lon="-2.47772">
        <ele>42</ele>
        <time>2014-10-20T14:01:07.1Z</time>
      </trkpt>
      <trkpt lat="48.64373" lon="-2.4777">
        <ele>42</ele>
        <time>2014-10-20T14:01:09.1Z</time>
      </trkpt>
      <trkpt lat="48.64372" lon="-2.47767">
        <ele>42</ele>
        <time>2014-10-20T14:01:12.1Z</time>
      </trkpt>
      <trkpt lat="48.64371" lon="-2.47765">
        <ele>42</ele>
        <time>2014-10-20T14:01:15.1Z</time>
      </trkpt>
      <trkpt lat="48.6437" lon="-2.47764">
        <ele>41</ele>
        <time>2014-10-20T14:01:22.1Z</time>
      </trkpt>
      <trkpt lat="48.6437" lon="-2.47764">
        <ele>41</ele>
        <time>2014-10-20T14:01:26.1Z</time>
      </trkpt>
      <trkpt lat="48.6437" lon="-2.47764">
        <ele>42</ele>
        <time>2014-10-20T14:01:29.1Z</time>
      </trkpt>
      <trkpt lat="48.6437" lon="-2.47764">
        <ele>42</ele>
        <time>2014-10-20T14:01:32.1Z</time>
      </trkpt>
      <trkpt lat="48.6437" lon="-2.4776">
        <ele>42</ele>
        <time>2014-10-20T14:01:35.1Z</time>
      </trkpt>
      <trkpt lat="48.64368" lon="-2.47756">
        <ele>42</ele>
        <time>2014-10-20T14:01:38.1Z</time>
      </trkpt>
      <trkpt lat="48.64366" lon="-2.47753">
        <ele>41</ele>
        <time>2014-10-20T14:01:40.1Z</time>
      </trkpt>
      <trkpt lat="48.64363" lon="-2.47749">
        <ele>41</ele>
        <time>2014-10-20T14:01:43.1Z</time>
      </trkpt>
      <trkpt lat="48.64361" lon="-2.47746">
        <ele>41</ele>
        <time>2014-10-20T14:01:45.1Z</time>
      </trkpt>
      <trkpt lat="48.64359" lon="-2.47741">
        <ele>41</ele>
        <time>2014-10-20T14:01:48.1Z</time>
      </trkpt>
      <trkpt lat="48.64358" lon="-2.47736">
        <ele>41</ele>
        <time>2014-10-20T14:01:51.1Z</time>
      </trkpt>
      <trkpt lat="48.64357" lon="-2.47731">
        <ele>42</ele>
        <time>2014-10-20T14:01:54.1Z</time>
      </trkpt>
      <trkpt lat="48.64355" lon="-2.47727">
        <ele>42</ele>
        <time>2014-10-20T14:01:57.1Z</time>
      </trkpt>
      <trkpt lat="48.64354" lon="-2.47725">
        <ele>42</ele>
        <time>2014-10-20T14:01:59.1Z</time>
      </trkpt>
      <trkpt lat="48.64353" lon="-2.47721">
        <ele>42</ele>
        <time>2014-10-20T14:02:02.1Z</time>
      </trkpt>
      <trkpt lat="48.64352" lon="-2.47715">
        <ele>42</ele>
        <time>2014-10-20T14:02:05.1Z</time>
      </trkpt>
      <trkpt lat="48.64352" lon="-2.47711">
        <ele>42</ele>
        <time>2014-10-20T14:02:08.1Z</time>
      </trkpt>
      <trkpt lat="48.64353" lon="-2.47709">
        <ele>42</ele>
        <time>2014-10-20T14:02:10.1Z</time>
      </trkpt>
      <trkpt lat="48.64353" lon="-2.47704">
        <ele>42</ele>
        <time>2014-10-20T14:02:13.1Z</time>
      </trkpt>
      <trkpt lat="48.64353" lon="-2.47699">
        <ele>42</ele>
        <time>2014-10-20T14:02:16.1Z</time>
      </trkpt>
      <trkpt lat="48.64353" lon="-2.47693">
        <ele>41</ele>
        <time>2014-10-20T14:02:19.1Z</time>
      </trkpt>
      <trkpt lat="48.64353" lon="-2.47689">
        <ele>41</ele>
        <time>2014-10-20T14:02:21.1Z</time>
      </trkpt>
      <trkpt lat="48.64352" lon="-2.47687">
        <ele>42</ele>
        <time>2014-10-20T14:02:23.1Z</time>
      </trkpt>
      <trkpt lat="48.64352" lon="-2.47682">
        <ele>42</ele>
        <time>2014-10-20T14:02:26.1Z</time>
      </trkpt>
      <trkpt lat="48.64352" lon="-2.4768">
        <ele>42</ele>
        <time>2014-10-20T14:02:28.1Z</time>
      </trkpt>
      <trkpt lat="48.64351" lon="-2.47678">
        <ele>42</ele>
        <time>2014-10-20T14:02:31.1Z</time>
      </trkpt>
      <trkpt lat="48.64351" lon="-2.47675">
        <ele>41</ele>
        <time>2014-10-20T14:02:33.1Z</time>
      </trkpt>
      <trkpt lat="48.64351" lon="-2.47672">
        <ele>41</ele>
        <time>2014-10-20T14:02:35.1Z</time>
      </trkpt>
      <trkpt lat="48.64351" lon="-2.47668">
        <ele>41</ele>
        <time>2014-10-20T14:02:38.1Z</time>
      </trkpt>
      <trkpt lat="48.6435" lon="-2.47665">
        <ele>41</ele>
        <time>2014-10-20T14:02:40.1Z</time>
      </trkpt>
      <trkpt lat="48.6435" lon="-2.47662">
        <ele>41</ele>
        <time>2014-10-20T14:02:42.1Z</time>
      </trkpt>
      <trkpt lat="48.6435" lon="-2.47658">
        <ele>41</ele>
        <time>2014-10-20T14:02:45.1Z</time>
      </trkpt>
      <trkpt lat="48.6435" lon="-2.47656">
        <ele>41</ele>
        <time>2014-10-20T14:02:47.1Z</time>
      </trkpt>
      <trkpt lat="48.64351" lon="-2.47655">
        <ele>41</ele>
        <time>2014-10-20T14:02:50.1Z</time>
      </trkpt>
      <trkpt lat="48.64351" lon="-2.47652">
        <ele>41</ele>
        <time>2014-10-20T14:02:53.1Z</time>
      </trkpt>
      <trkpt lat="48.64351" lon="-2.47651">
        <ele>41</ele>
        <time>2014-10-20T14:02:55.1Z</time>
      </trkpt>
      <trkpt lat="48.64351" lon="-2.47647">
        <ele>40</ele>
        <time>2014-10-20T14:02:58.1Z</time>
      </trkpt>
      <trkpt lat="48.64352" lon="-2.47644">
        <ele>40</ele>
        <time>2014-10-20T14:03:00.1Z</time>
      </trkpt>
      <trkpt lat="48.64352" lon="-2.47639">
        <ele>40</ele>
        <time>2014-10-20T14:03:03.1Z</time>
      </trkpt>
      <trkpt lat="48.64352" lon="-2.47635">
        <ele>40</ele>
        <time>2014-10-20T14:03:06.1Z</time>
      </trkpt>
      <trkpt lat="48.64353" lon="-2.4763">
        <ele>40</ele>
        <time>2014-10-20T14:03:09.1Z</time>
      </trkpt>
      <trkpt lat="48.64352" lon="-2.47627">
        <ele>40</ele>
        <time>2014-10-20T14:03:11.1Z</time>
      </trkpt>
      <trkpt lat="48.64352" lon="-2.47624">
        <ele>40</ele>
        <time>2014-10-20T14:03:13.1Z</time>
      </trkpt>
      <trkpt lat="48.64352" lon="-2.4762">
        <ele>40</ele>
        <time>2014-10-20T14:03:16.1Z</time>
      </trkpt>
      <trkpt lat="48.64352" lon="-2.47618">
        <ele>40</ele>
        <time>2014-10-20T14:03:18.1Z</time>
      </trkpt>
      <trkpt lat="48.64351" lon="-2.47614">
        <ele>40</ele>
        <time>2014-10-20T14:03:21.1Z</time>
      </trkpt>
      <trkpt lat="48.6435" lon="-2.47612">
        <ele>40</ele>
        <time>2014-10-20T14:03:23.1Z</time>
      </trkpt>
      <trkpt lat="48.64349" lon="-2.47609">
        <ele>40</ele>
        <time>2014-10-20T14:03:25.1Z</time>
      </trkpt>
      <trkpt lat="48.64346" lon="-2.47606">
        <ele>40</ele>
        <time>2014-10-20T14:03:28.1Z</time>
      </trkpt>
      <trkpt lat="48.64344" lon="-2.47606">
        <ele>40</ele>
        <time>2014-10-20T14:03:30.1Z</time>
      </trkpt>
      <trkpt lat="48.64343" lon="-2.47604">
        <ele>39</ele>
        <time>2014-10-20T14:03:33.1Z</time>
      </trkpt>
      <trkpt lat="48.64341" lon="-2.47602">
        <ele>39</ele>
        <time>2014-10-20T14:03:35.1Z</time>
      </trkpt>
      <trkpt lat="48.6434" lon="-2.476">
        <ele>39</ele>
        <time>2014-10-20T14:03:37.1Z</time>
      </trkpt>
      <trkpt lat="48.64338" lon="-2.47598">
        <ele>39</ele>
        <time>2014-10-20T14:03:39.1Z</time>
      </trkpt>
      <trkpt lat="48.64336" lon="-2.47595">
        <ele>39</ele>
        <time>2014-10-20T14:03:41.1Z</time>
      </trkpt>
      <trkpt lat="48.64333" lon="-2.47592">
        <ele>39</ele>
        <time>2014-10-20T14:03:44.1Z</time>
      </trkpt>
      <trkpt lat="48.64331" lon="-2.47591">
        <ele>39</ele>
        <time>2014-10-20T14:03:46.1Z</time>
      </trkpt>
      <trkpt lat="48.64329" lon="-2.4759">
        <ele>39</ele>
        <time>2014-10-20T14:03:48.1Z</time>
      </trkpt>
      <trkpt lat="48.64325" lon="-2.47589">
        <ele>39</ele>
        <time>2014-10-20T14:03:51.1Z</time>
      </trkpt>
      <trkpt lat="48.64322" lon="-2.4759">
        <ele>38</ele>
        <time>2014-10-20T14:03:54.1Z</time>
      </trkpt>
      <trkpt lat="48.6432" lon="-2.47592">
        <ele>38</ele>
        <time>2014-10-20T14:03:56.1Z</time>
      </trkpt>
      <trkpt lat="48.6432" lon="-2.47594">
        <ele>39</ele>
        <time>2014-10-20T14:03:58.1Z</time>
      </trkpt>
      <trkpt lat="48.64319" lon="-2.47596">
        <ele>39</ele>
        <time>2014-10-20T14:04:00.1Z</time>
      </trkpt>
      <trkpt lat="48.64319" lon="-2.47599">
        <ele>40</ele>
        <time>2014-10-20T14:04:03.1Z</time>
      </trkpt>
      <trkpt lat="48.64318" lon="-2.47601">
        <ele>40</ele>
        <time>2014-10-20T14:04:05.1Z</time>
      </trkpt>
      <trkpt lat="48.64317" lon="-2.47603">
        <ele>40</ele>
        <time>2014-10-20T14:04:08.1Z</time>
      </trkpt>
      <trkpt lat="48.64316" lon="-2.47606">
        <ele>40</ele>
        <time>2014-10-20T14:04:11.1Z</time>
      </trkpt>
      <trkpt lat="48.64315" lon="-2.47608">
        <ele>40</ele>
        <time>2014-10-20T14:04:13.1Z</time>
      </trkpt>
      <trkpt lat="48.64315" lon="-2.4761">
        <ele>40</ele>
        <time>2014-10-20T14:04:15.1Z</time>
      </trkpt>
      <trkpt lat="48.64315" lon="-2.47613">
        <ele>41</ele>
        <time>2014-10-20T14:04:17.1Z</time>
      </trkpt>
      <trkpt lat="48.64314" lon="-2.47617">
        <ele>41</ele>
        <time>2014-10-20T14:04:20.1Z</time>
      </trkpt>
      <trkpt lat="48.64314" lon="-2.4762">
        <ele>41</ele>
        <time>2014-10-20T14:04:22.1Z</time>
      </trkpt>
      <trkpt lat="48.64314" lon="-2.47623">
        <ele>41</ele>
        <time>2014-10-20T14:04:24.1Z</time>
      </trkpt>
      <trkpt lat="48.64314" lon="-2.47626">
        <ele>42</ele>
        <time>2014-10-20T14:04:27.1Z</time>
      </trkpt>
      <trkpt lat="48.64314" lon="-2.47628">
        <ele>42</ele>
        <time>2014-10-20T14:04:29.1Z</time>
      </trkpt>
      <trkpt lat="48.64315" lon="-2.47632">
        <ele>43</ele>
        <time>2014-10-20T14:04:32.1Z</time>
      </trkpt>
      <trkpt lat="48.64313" lon="-2.47634">
        <ele>43</ele>
        <time>2014-10-20T14:04:34.1Z</time>
      </trkpt>
      <trkpt lat="48.64311" lon="-2.47636">
        <ele>42</ele>
        <time>2014-10-20T14:04:37.1Z</time>
      </trkpt>
      <trkpt lat="48.64309" lon="-2.47638">
        <ele>41</ele>
        <time>2014-10-20T14:04:40.1Z</time>
      </trkpt>
      <trkpt lat="48.64306" lon="-2.4764">
        <ele>41</ele>
        <time>2014-10-20T14:04:43.1Z</time>
      </trkpt>
      <trkpt lat="48.64305" lon="-2.47641">
        <ele>40</ele>
        <time>2014-10-20T14:04:45.1Z</time>
      </trkpt>
      <trkpt lat="48.64303" lon="-2.47643">
        <ele>40</ele>
        <time>2014-10-20T14:04:48.1Z</time>
      </trkpt>
      <trkpt lat="48.64301" lon="-2.47645">
        <ele>40</ele>
        <time>2014-10-20T14:04:51.1Z</time>
      </trkpt>
      <trkpt lat="48.643" lon="-2.47646">
        <ele>39</ele>
        <time>2014-10-20T14:04:53.1Z</time>
      </trkpt>
      <trkpt lat="48.64298" lon="-2.47648">
        <ele>39</ele>
        <time>2014-10-20T14:04:56.1Z</time>
      </trkpt>
      <trkpt lat="48.64296" lon="-2.47648">
        <ele>39</ele>
        <time>2014-10-20T14:04:58.1Z</time>
      </trkpt>
      <trkpt lat="48.64295" lon="-2.47647">
        <ele>39</ele>
        <time>2014-10-20T14:05:00.1Z</time>
      </trkpt>
      <trkpt lat="48.64294" lon="-2.47646">
        <ele>38</ele>
        <time>2014-10-20T14:05:02.1Z</time>
      </trkpt>
      <trkpt lat="48.64293" lon="-2.47643">
        <ele>38</ele>
        <time>2014-10-20T14:05:05.1Z</time>
      </trkpt>
      <trkpt lat="48.64291" lon="-2.4764">
        <ele>38</ele>
        <time>2014-10-20T14:05:08.1Z</time>
      </trkpt>
      <trkpt lat="48.6429" lon="-2.47639">
        <ele>38</ele>
        <time>2014-10-20T14:05:11.1Z</time>
      </trkpt>
      <trkpt lat="48.6429" lon="-2.47639">
        <ele>38</ele>
        <time>2014-10-20T14:05:14.1Z</time>
      </trkpt>
      <trkpt lat="48.6429" lon="-2.47638">
        <ele>37</ele>
        <time>2014-10-20T14:05:17.1Z</time>
      </trkpt>
      <trkpt lat="48.64289" lon="-2.47636">
        <ele>37</ele>
        <time>2014-10-20T14:05:19.1Z</time>
      </trkpt>
      <trkpt lat="48.64289" lon="-2.47634">
        <ele>37</ele>
        <time>2014-10-20T14:05:22.1Z</time>
      </trkpt>
      <trkpt lat="48.64289" lon="-2.47632">
        <ele>37</ele>
        <time>2014-10-20T14:05:24.1Z</time>
      </trkpt>
      <trkpt lat="48.64288" lon="-2.47631">
        <ele>36</ele>
        <time>2014-10-20T14:05:27.1Z</time>
      </trkpt>
      <trkpt lat="48.64288" lon="-2.47631">
        <ele>36</ele>
        <time>2014-10-20T14:05:29.1Z</time>
      </trkpt>
      <trkpt lat="48.64288" lon="-2.47631">
        <ele>35</ele>
        <time>2014-10-20T14:05:31.1Z</time>
      </trkpt>
      <trkpt lat="48.64288" lon="-2.47631">
        <ele>35</ele>
        <time>2014-10-20T14:05:34.1Z</time>
      </trkpt>
      <trkpt lat="48.64288" lon="-2.47631">
        <ele>35</ele>
        <time>2014-10-20T14:05:36.1Z</time>
      </trkpt>
      <trkpt lat="48.64289" lon="-2.4763">
        <ele>35</ele>
        <time>2014-10-20T14:05:40.1Z</time>
      </trkpt>
      <trkpt lat="48.64288" lon="-2.47629">
        <ele>35</ele>
        <time>2014-10-20T14:05:42.1Z</time>
      </trkpt>
      <trkpt lat="48.64288" lon="-2.47628">
        <ele>35</ele>
        <time>2014-10-20T14:05:47.1Z</time>
      </trkpt>
      <trkpt lat="48.64288" lon="-2.47628">
        <ele>35</ele>
        <time>2014-10-20T14:05:50.1Z</time>
      </trkpt>
      <trkpt lat="48.64288" lon="-2.47626">
        <ele>35</ele>
        <time>2014-10-20T14:05:53.1Z</time>
      </trkpt>
      <trkpt lat="48.64288" lon="-2.47623">
        <ele>35</ele>
        <time>2014-10-20T14:05:56.1Z</time>
      </trkpt>
      <trkpt lat="48.64287" lon="-2.47622">
        <ele>34</ele>
        <time>2014-10-20T14:05:58.1Z</time>
      </trkpt>
      <trkpt lat="48.64286" lon="-2.47622">
        <ele>33</ele>
        <time>2014-10-20T14:06:01.1Z</time>
      </trkpt>
      <trkpt lat="48.64285" lon="-2.47622">
        <ele>33</ele>
        <time>2014-10-20T14:06:03.1Z</time>
      </trkpt>
      <trkpt lat="48.64284" lon="-2.47621">
        <ele>33</ele>
        <time>2014-10-20T14:06:06.1Z</time>
      </trkpt>
      <trkpt lat="48.64284" lon="-2.4762">
        <ele>32</ele>
        <time>2014-10-20T14:06:08.1Z</time>
      </trkpt>
      <trkpt lat="48.64282" lon="-2.47618">
        <ele>32</ele>
        <time>2014-10-20T14:06:11.1Z</time>
      </trkpt>
      <trkpt lat="48.6428" lon="-2.47617">
        <ele>31</ele>
        <time>2014-10-20T14:06:14.1Z</time>
      </trkpt>
      <trkpt lat="48.64279" lon="-2.47615">
        <ele>30</ele>
        <time>2014-10-20T14:06:17.1Z</time>
      </trkpt>
      <trkpt lat="48.64277" lon="-2.47614">
        <ele>30</ele>
        <time>2014-10-20T14:06:20.1Z</time>
      </trkpt>
      <trkpt lat="48.64276" lon="-2.47612">
        <ele>29</ele>
        <time>2014-10-20T14:06:22.1Z</time>
      </trkpt>
      <trkpt lat="48.64275" lon="-2.4761">
        <ele>28</ele>
        <time>2014-10-20T14:06:25.1Z</time>
      </trkpt>
      <trkpt lat="48.64275" lon="-2.47609">
        <ele>28</ele>
        <time>2014-10-20T14:06:27.1Z</time>
      </trkpt>
      <trkpt lat="48.64275" lon="-2.47608">
        <ele>27</ele>
        <time>2014-10-20T14:06:30.1Z</time>
      </trkpt>
      <trkpt lat="48.64275" lon="-2.47607">
        <ele>27</ele>
        <time>2014-10-20T14:06:33.1Z</time>
      </trkpt>
      <trkpt lat="48.64274" lon="-2.47606">
        <ele>26</ele>
        <time>2014-10-20T14:06:36.1Z</time>
      </trkpt>
      <trkpt lat="48.64273" lon="-2.47605">
        <ele>26</ele>
        <time>2014-10-20T14:06:39.1Z</time>
      </trkpt>
      <trkpt lat="48.64273" lon="-2.47604">
        <ele>26</ele>
        <time>2014-10-20T14:06:41.1Z</time>
      </trkpt>
      <trkpt lat="48.64273" lon="-2.47603">
        <ele>26</ele>
        <time>2014-10-20T14:06:43.1Z</time>
      </trkpt>
      <trkpt lat="48.64272" lon="-2.47602">
        <ele>26</ele>
        <time>2014-10-20T14:06:46.1Z</time>
      </trkpt>
      <trkpt lat="48.64272" lon="-2.47601">
        <ele>26</ele>
        <time>2014-10-20T14:06:48.1Z</time>
      </trkpt>
      <trkpt lat="48.64273" lon="-2.47601">
        <ele>25</ele>
        <time>2014-10-20T14:06:50.1Z</time>
      </trkpt>
      <trkpt lat="48.64272" lon="-2.47599">
        <ele>25</ele>
        <time>2014-10-20T14:06:53.1Z</time>
      </trkpt>
      <trkpt lat="48.64271" lon="-2.47599">
        <ele>25</ele>
        <time>2014-10-20T14:06:55.1Z</time>
      </trkpt>
      <trkpt lat="48.6427" lon="-2.47598">
        <ele>25</ele>
        <time>2014-10-20T14:06:58.1Z</time>
      </trkpt>
      <trkpt lat="48.64269" lon="-2.47596">
        <ele>25</ele>
        <time>2014-10-20T14:07:01.1Z</time>
      </trkpt>
      <trkpt lat="48.64269" lon="-2.47597">
        <ele>25</ele>
        <time>2014-10-20T14:07:04.1Z</time>
      </trkpt>
      <trkpt lat="48.64268" lon="-2.47597">
        <ele>25</ele>
        <time>2014-10-20T14:07:06.1Z</time>
      </trkpt>
      <trkpt lat="48.64268" lon="-2.47597">
        <ele>25</ele>
        <time>2014-10-20T14:07:09.1Z</time>
      </trkpt>
      <trkpt lat="48.64268" lon="-2.47597">
        <ele>25</ele>
        <time>2014-10-20T14:07:11.1Z</time>
      </trkpt>
      <trkpt lat="48.64268" lon="-2.47597">
        <ele>25</ele>
        <time>2014-10-20T14:07:14.1Z</time>
      </trkpt>
      <trkpt lat="48.64268" lon="-2.47597">
        <ele>26</ele>
        <time>2014-10-20T14:07:16.1Z</time>
      </trkpt>
      <trkpt lat="48.64267" lon="-2.47598">
        <ele>26</ele>
        <time>2014-10-20T14:07:19.1Z</time>
      </trkpt>
      <trkpt lat="48.64266" lon="-2.47599">
        <ele>26</ele>
        <time>2014-10-20T14:07:22.1Z</time>
      </trkpt>
      <trkpt lat="48.64266" lon="-2.47598">
        <ele>25</ele>
        <time>2014-10-20T14:07:26.1Z</time>
      </trkpt>
      <trkpt lat="48.64266" lon="-2.47598">
        <ele>25</ele>
        <time>2014-10-20T14:07:28.1Z</time>
      </trkpt>
      <trkpt lat="48.64266" lon="-2.47598">
        <ele>25</ele>
        <time>2014-10-20T14:07:31.1Z</time>
      </trkpt>
      <trkpt lat="48.64265" lon="-2.47599">
        <ele>25</ele>
        <time>2014-10-20T14:07:34.1Z</time>
      </trkpt>
      <trkpt lat="48.64265" lon="-2.47599">
        <ele>25</ele>
        <time>2014-10-20T14:07:36.1Z</time>
      </trkpt>
      <trkpt lat="48.64265" lon="-2.47599">
        <ele>26</ele>
        <time>2014-10-20T14:07:39.1Z</time>
      </trkpt>
      <trkpt lat="48.64265" lon="-2.47599">
        <ele>26</ele>
        <time>2014-10-20T14:07:42.1Z</time>
      </trkpt>
      <trkpt lat="48.64265" lon="-2.47599">
        <ele>26</ele>
        <time>2014-10-20T14:07:45.1Z</time>
      </trkpt>
      <trkpt lat="48.64265" lon="-2.47599">
        <ele>26</ele>
        <time>2014-10-20T14:07:47.1Z</time>
      </trkpt>
      <trkpt lat="48.64265" lon="-2.47598">
        <ele>26</ele>
        <time>2014-10-20T14:07:50.1Z</time>
      </trkpt>
      <trkpt lat="48.64265" lon="-2.47598">
        <ele>26</ele>
        <time>2014-10-20T14:07:53.1Z</time>
      </trkpt>
      <trkpt lat="48.64265" lon="-2.47598">
        <ele>25</ele>
        <time>2014-10-20T14:07:55.1Z</time>
      </trkpt>
      <trkpt lat="48.64265" lon="-2.47599">
        <ele>25</ele>
        <time>2014-10-20T14:07:57.1Z</time>
      </trkpt>
      <trkpt lat="48.64265" lon="-2.47599">
        <ele>25</ele>
        <time>2014-10-20T14:08:00.1Z</time>
      </trkpt>
      <trkpt lat="48.64266" lon="-2.47599">
        <ele>25</ele>
        <time>2014-10-20T14:08:03.1Z</time>
      </trkpt>
      <trkpt lat="48.64266" lon="-2.47599">
        <ele>26</ele>
        <time>2014-10-20T14:08:07.1Z</time>
      </trkpt>
      <trkpt lat="48.64266" lon="-2.47599">
        <ele>26</ele>
        <time>2014-10-20T14:08:09.1Z</time>
      </trkpt>
      <trkpt lat="48.64267" lon="-2.476">
        <ele>26</ele>
        <time>2014-10-20T14:08:11.1Z</time>
      </trkpt>
      <trkpt lat="48.64267" lon="-2.47601">
        <ele>26</ele>
        <time>2014-10-20T14:08:13.1Z</time>
      </trkpt>
      <trkpt lat="48.64267" lon="-2.47601">
        <ele>25</ele>
        <time>2014-10-20T14:08:16.1Z</time>
      </trkpt>
      <trkpt lat="48.64267" lon="-2.47601">
        <ele>25</ele>
        <time>2014-10-20T14:08:20.1Z</time>
      </trkpt>
      <trkpt lat="48.64267" lon="-2.476">
        <ele>25</ele>
        <time>2014-10-20T14:08:22.1Z</time>
      </trkpt>
      <trkpt lat="48.64267" lon="-2.476">
        <ele>25</ele>
        <time>2014-10-20T14:08:25.1Z</time>
      </trkpt>
      <trkpt lat="48.64266" lon="-2.47599">
        <ele>25</ele>
        <time>2014-10-20T14:08:27.1Z</time>
      </trkpt>
      <trkpt lat="48.64266" lon="-2.47599">
        <ele>25</ele>
        <time>2014-10-20T14:08:30.1Z</time>
      </trkpt>
      <trkpt lat="48.64267" lon="-2.47599">
        <ele>25</ele>
        <time>2014-10-20T14:08:32.1Z</time>
      </trkpt>
      <trkpt lat="48.64267" lon="-2.47598">
        <ele>26</ele>
        <time>2014-10-20T14:08:35.1Z</time>
      </trkpt>
      <trkpt lat="48.64267" lon="-2.47598">
        <ele>26</ele>
        <time>2014-10-20T14:08:39.1Z</time>
      </trkpt>
      <trkpt lat="48.64267" lon="-2.47598">
        <ele>26</ele>
        <time>2014-10-20T14:08:42.1Z</time>
      </trkpt>
      <trkpt lat="48.64267" lon="-2.47598">
        <ele>25</ele>
        <time>2014-10-20T14:08:46.1Z</time>
      </trkpt>
      <trkpt lat="48.64267" lon="-2.47598">
        <ele>25</ele>
        <time>2014-10-20T14:08:48.1Z</time>
      </trkpt>
      <trkpt lat="48.64267" lon="-2.47598">
        <ele>26</ele>
        <time>2014-10-20T14:08:51.1Z</time>
      </trkpt>
      <trkpt lat="48.64267" lon="-2.47598">
        <ele>25</ele>
        <time>2014-10-20T14:08:53.1Z</time>
      </trkpt>
      <trkpt lat="48.64267" lon="-2.47598">
        <ele>25</ele>
        <time>2014-10-20T14:08:56.1Z</time>
      </trkpt>
      <trkpt lat="48.64267" lon="-2.47598">
        <ele>25</ele>
        <time>2014-10-20T14:08:59.1Z</time>
      </trkpt>
      <trkpt lat="48.64267" lon="-2.47599">
        <ele>26</ele>
        <time>2014-10-20T14:09:02.1Z</time>
      </trkpt>
      <trkpt lat="48.64267" lon="-2.47599">
        <ele>26</ele>
        <time>2014-10-20T14:09:05.1Z</time>
      </trkpt>
      <trkpt lat="48.64267" lon="-2.47599">
        <ele>26</ele>
        <time>2014-10-20T14:09:07.1Z</time>
      </trkpt>
      <trkpt lat="48.64267" lon="-2.47599">
        <ele>25</ele>
        <time>2014-10-20T14:09:11.1Z</time>
      </trkpt>
      <trkpt lat="48.64267" lon="-2.476">
        <ele>25</ele>
        <time>2014-10-20T14:09:14.1Z</time>
      </trkpt>
      <trkpt lat="48.64267" lon="-2.476">
        <ele>25</ele>
        <time>2014-10-20T14:09:16.1Z</time>
      </trkpt>
      <trkpt lat="48.64267" lon="-2.47599">
        <ele>25</ele>
        <time>2014-10-20T14:09:19.1Z</time>
      </trkpt>
      <trkpt lat="48.64266" lon="-2.47599">
        <ele>25</ele>
        <time>2014-10-20T14:09:21.1Z</time>
      </trkpt>
      <trkpt lat="48.64266" lon="-2.47599">
        <ele>25</ele>
        <time>2014-10-20T14:09:23.1Z</time>
      </trkpt>
      <trkpt lat="48.64267" lon="-2.47599">
        <ele>25</ele>
        <time>2014-10-20T14:09:25.1Z</time>
      </trkpt>
      <trkpt lat="48.64267" lon="-2.47598">
        <ele>25</ele>
        <time>2014-10-20T14:09:28.1Z</time>
      </trkpt>
      <trkpt lat="48.64266" lon="-2.47599">
        <ele>25</ele>
        <time>2014-10-20T14:09:31.1Z</time>
      </trkpt>
      <trkpt lat="48.64266" lon="-2.47599">
        <ele>26</ele>
        <time>2014-10-20T14:09:35.1Z</time>
      </trkpt>
      <trkpt lat="48.64266" lon="-2.47599">
        <ele>26</ele>
        <time>2014-10-20T14:09:38.1Z</time>
      </trkpt>
      <trkpt lat="48.64265" lon="-2.47599">
        <ele>26</ele>
        <time>2014-10-20T14:09:41.1Z</time>
      </trkpt>
      <trkpt lat="48.64265" lon="-2.47599">
        <ele>25</ele>
        <time>2014-10-20T14:09:43.1Z</time>
      </trkpt>
      <trkpt lat="48.64265" lon="-2.47599">
        <ele>25</ele>
        <time>2014-10-20T14:09:45.1Z</time>
      </trkpt>
      <trkpt lat="48.64265" lon="-2.47598">
        <ele>25</ele>
        <time>2014-10-20T14:09:49.1Z</time>
      </trkpt>
      <trkpt lat="48.64266" lon="-2.47602">
        <ele>25</ele>
        <time>2014-10-20T14:09:52.1Z</time>
      </trkpt>
      <trkpt lat="48.64265" lon="-2.47602">
        <ele>25</ele>
        <time>2014-10-20T14:09:54.1Z</time>
      </trkpt>
      <trkpt lat="48.64265" lon="-2.47601">
        <ele>25</ele>
        <time>2014-10-20T14:09:57.1Z</time>
      </trkpt>
      <trkpt lat="48.64265" lon="-2.47601">
        <ele>25</ele>
        <time>2014-10-20T14:09:59.1Z</time>
      </trkpt>
      <trkpt lat="48.64265" lon="-2.476">
        <ele>25</ele>
        <time>2014-10-20T14:10:01.1Z</time>
      </trkpt>
      <trkpt lat="48.64264" lon="-2.476">
        <ele>25</ele>
        <time>2014-10-20T14:10:04.1Z</time>
      </trkpt>
      <trkpt lat="48.64264" lon="-2.47599">
        <ele>25</ele>
        <time>2014-10-20T14:10:06.1Z</time>
      </trkpt>
      <trkpt lat="48.64264" lon="-2.47598">
        <ele>25</ele>
        <time>2014-10-20T14:10:09.1Z</time>
      </trkpt>
      <trkpt lat="48.64262" lon="-2.47597">
        <ele>25</ele>
        <time>2014-10-20T14:10:12.1Z</time>
      </trkpt>
      <trkpt lat="48.64261" lon="-2.47596">
        <ele>25</ele>
        <time>2014-10-20T14:10:14.1Z</time>
      </trkpt>
      <trkpt lat="48.64261" lon="-2.47594">
        <ele>26</ele>
        <time>2014-10-20T14:10:16.1Z</time>
      </trkpt>
      <trkpt lat="48.64259" lon="-2.47594">
        <ele>26</ele>
        <time>2014-10-20T14:10:19.1Z</time>
      </trkpt>
      <trkpt lat="48.64255" lon="-2.47596">
        <ele>26</ele>
        <time>2014-10-20T14:10:22.1Z</time>
      </trkpt>
      <trkpt lat="48.64251" lon="-2.47598">
        <ele>26</ele>
        <time>2014-10-20T14:10:25.1Z</time>
      </trkpt>
      <trkpt lat="48.64247" lon="-2.47599">
        <ele>27</ele>
        <time>2014-10-20T14:10:28.1Z</time>
      </trkpt>
      <trkpt lat="48.64243" lon="-2.47601">
        <ele>27</ele>
        <time>2014-10-20T14:10:31.1Z</time>
      </trkpt>
      <trkpt lat="48.64241" lon="-2.47601">
        <ele>28</ele>
        <time>2014-10-20T14:10:34.1Z</time>
      </trkpt>
      <trkpt lat="48.6424" lon="-2.47601">
        <ele>28</ele>
        <time>2014-10-20T14:10:36.1Z</time>
      </trkpt>
      <trkpt lat="48.64239" lon="-2.47601">
        <ele>28</ele>
        <time>2014-10-20T14:10:39.1Z</time>
      </trkpt>
      <trkpt lat="48.64238" lon="-2.47602">
        <ele>27</ele>
        <time>2014-10-20T14:10:42.1Z</time>
      </trkpt>
      <trkpt lat="48.64238" lon="-2.47602">
        <ele>27</ele>
        <time>2014-10-20T14:10:44.1Z</time>
      </trkpt>
      <trkpt lat="48.64238" lon="-2.47602">
        <ele>27</ele>
        <time>2014-10-20T14:10:46.1Z</time>
      </trkpt>
      <trkpt lat="48.64238" lon="-2.47602">
        <ele>27</ele>
        <time>2014-10-20T14:10:49.1Z</time>
      </trkpt>
      <trkpt lat="48.64239" lon="-2.47602">
        <ele>27</ele>
        <time>2014-10-20T14:10:53.1Z</time>
      </trkpt>
      <trkpt lat="48.64239" lon="-2.47602">
        <ele>27</ele>
        <time>2014-10-20T14:10:55.1Z</time>
      </trkpt>
      <trkpt lat="48.64239" lon="-2.47602">
        <ele>28</ele>
        <time>2014-10-20T14:10:58.1Z</time>
      </trkpt>
      <trkpt lat="48.64239" lon="-2.47602">
        <ele>27</ele>
        <time>2014-10-20T14:11:00.1Z</time>
      </trkpt>
      <trkpt lat="48.64239" lon="-2.47602">
        <ele>27</ele>
        <time>2014-10-20T14:11:03.1Z</time>
      </trkpt>
      <trkpt lat="48.64239" lon="-2.47603">
        <ele>27</ele>
        <time>2014-10-20T14:11:06.1Z</time>
      </trkpt>
      <trkpt lat="48.64239" lon="-2.47603">
        <ele>27</ele>
        <time>2014-10-20T14:11:10.1Z</time>
      </trkpt>
      <trkpt lat="48.64239" lon="-2.47603">
        <ele>27</ele>
        <time>2014-10-20T14:11:12.1Z</time>
      </trkpt>
      <trkpt lat="48.64238" lon="-2.47603">
        <ele>27</ele>
        <time>2014-10-20T14:11:15.1Z</time>
      </trkpt>
      <trkpt lat="48.64238" lon="-2.47603">
        <ele>27</ele>
        <time>2014-10-20T14:11:17.1Z</time>
      </trkpt>
      <trkpt lat="48.64239" lon="-2.47604">
        <ele>27</ele>
        <time>2014-10-20T14:11:20.1Z</time>
      </trkpt>
      <trkpt lat="48.6424" lon="-2.47604">
        <ele>27</ele>
        <time>2014-10-20T14:11:23.1Z</time>
      </trkpt>
      <trkpt lat="48.64241" lon="-2.47604">
        <ele>27</ele>
        <time>2014-10-20T14:11:25.1Z</time>
      </trkpt>
      <trkpt lat="48.64243" lon="-2.47604">
        <ele>27</ele>
        <time>2014-10-20T14:11:28.1Z</time>
      </trkpt>
      <trkpt lat="48.64244" lon="-2.47604">
        <ele>27</ele>
        <time>2014-10-20T14:11:30.1Z</time>
      </trkpt>
      <trkpt lat="48.64247" lon="-2.47604">
        <ele>27</ele>
        <time>2014-10-20T14:11:33.1Z</time>
      </trkpt>
      <trkpt lat="48.64248" lon="-2.47603">
        <ele>26</ele>
        <time>2014-10-20T14:11:36.1Z</time>
      </trkpt>
      <trkpt lat="48.64251" lon="-2.47603">
        <ele>26</ele>
        <time>2014-10-20T14:11:39.1Z</time>
      </trkpt>
      <trkpt lat="48.64252" lon="-2.47603">
        <ele>26</ele>
        <time>2014-10-20T14:11:42.1Z</time>
      </trkpt>
      <trkpt lat="48.64254" lon="-2.47602">
        <ele>26</ele>
        <time>2014-10-20T14:11:45.1Z</time>
      </trkpt>
      <trkpt lat="48.64256" lon="-2.47603">
        <ele>26</ele>
        <time>2014-10-20T14:11:47.1Z</time>
      </trkpt>
      <trkpt lat="48.64258" lon="-2.47602">
        <ele>26</ele>
        <time>2014-10-20T14:11:50.1Z</time>
      </trkpt>
      <trkpt lat="48.64259" lon="-2.47602">
        <ele>26</ele>
        <time>2014-10-20T14:11:52.1Z</time>
      </trkpt>
      <trkpt lat="48.6426" lon="-2.47601">
        <ele>26</ele>
        <time>2014-10-20T14:11:54.1Z</time>
      </trkpt>
      <trkpt lat="48.64261" lon="-2.476">
        <ele>26</ele>
        <time>2014-10-20T14:11:57.1Z</time>
      </trkpt>
      <trkpt lat="48.64262" lon="-2.476">
        <ele>25</ele>
        <time>2014-10-20T14:11:59.1Z</time>
      </trkpt>
      <trkpt lat="48.64264" lon="-2.476">
        <ele>25</ele>
        <time>2014-10-20T14:12:02.1Z</time>
      </trkpt>
      <trkpt lat="48.64265" lon="-2.47599">
        <ele>25</ele>
        <time>2014-10-20T14:12:05.1Z</time>
      </trkpt>
      <trkpt lat="48.64265" lon="-2.47598">
        <ele>25</ele>
        <time>2014-10-20T14:12:08.1Z</time>
      </trkpt>
      <trkpt lat="48.64265" lon="-2.47598">
        <ele>26</ele>
        <time>2014-10-20T14:12:10.1Z</time>
      </trkpt>
      <trkpt lat="48.64266" lon="-2.47597">
        <ele>25</ele>
        <time>2014-10-20T14:12:13.1Z</time>
      </trkpt>
      <trkpt lat="48.64266" lon="-2.47597">
        <ele>25</ele>
        <time>2014-10-20T14:12:16.1Z</time>
      </trkpt>
      <trkpt lat="48.64266" lon="-2.47596">
        <ele>25</ele>
        <time>2014-10-20T14:12:19.1Z</time>
      </trkpt>
      <trkpt lat="48.64267" lon="-2.47595">
        <ele>25</ele>
        <time>2014-10-20T14:12:23.1Z</time>
      </trkpt>
      <trkpt lat="48.64267" lon="-2.47595">
        <ele>25</ele>
        <time>2014-10-20T14:12:26.1Z</time>
      </trkpt>
      <trkpt lat="48.64267" lon="-2.47595">
        <ele>25</ele>
        <time>2014-10-20T14:12:28.1Z</time>
      </trkpt>
      <trkpt lat="48.64267" lon="-2.47596">
        <ele>25</ele>
        <time>2014-10-20T14:12:32.1Z</time>
      </trkpt>
      <trkpt lat="48.64268" lon="-2.47596">
        <ele>25</ele>
        <time>2014-10-20T14:12:35.1Z</time>
      </trkpt>
      <trkpt lat="48.64268" lon="-2.47596">
        <ele>25</ele>
        <time>2014-10-20T14:12:38.1Z</time>
      </trkpt>
      <trkpt lat="48.64268" lon="-2.47597">
        <ele>25</ele>
        <time>2014-10-20T14:12:42.1Z</time>
      </trkpt>
      <trkpt lat="48.64268" lon="-2.47597">
        <ele>25</ele>
        <time>2014-10-20T14:12:45.1Z</time>
      </trkpt>
      <trkpt lat="48.64268" lon="-2.47597">
        <ele>25</ele>
        <time>2014-10-20T14:12:50.1Z</time>
      </trkpt>
      <trkpt lat="48.64269" lon="-2.47598">
        <ele>26</ele>
        <time>2014-10-20T14:12:52.1Z</time>
      </trkpt>
      <trkpt lat="48.6427" lon="-2.47598">
        <ele>25</ele>
        <time>2014-10-20T14:12:55.1Z</time>
      </trkpt>
      <trkpt lat="48.6427" lon="-2.47597">
        <ele>25</ele>
        <time>2014-10-20T14:12:58.1Z</time>
      </trkpt>
      <trkpt lat="48.6427" lon="-2.47597">
        <ele>25</ele>
        <time>2014-10-20T14:13:01.1Z</time>
      </trkpt>
      <trkpt lat="48.6427" lon="-2.47597">
        <ele>25</ele>
        <time>2014-10-20T14:13:03.1Z</time>
      </trkpt>
      <trkpt lat="48.6427" lon="-2.47597">
        <ele>25</ele>
        <time>2014-10-20T14:13:06.1Z</time>
      </trkpt>
      <trkpt lat="48.64268" lon="-2.47595">
        <ele>25</ele>
        <time>2014-10-20T14:13:09.1Z</time>
      </trkpt>
      <trkpt lat="48.64267" lon="-2.47594">
        <ele>25</ele>
        <time>2014-10-20T14:13:11.1Z</time>
      </trkpt>
      <trkpt lat="48.64267" lon="-2.47594">
        <ele>25</ele>
        <time>2014-10-20T14:13:14.1Z</time>
      </trkpt>
      <trkpt lat="48.64267" lon="-2.47595">
        <ele>25</ele>
        <time>2014-10-20T14:13:16.1Z</time>
      </trkpt>
      <trkpt lat="48.64267" lon="-2.47594">
        <ele>25</ele>
        <time>2014-10-20T14:13:19.1Z</time>
      </trkpt>
      <trkpt lat="48.64266" lon="-2.47594">
        <ele>25</ele>
        <time>2014-10-20T14:13:22.1Z</time>
      </trkpt>
      <trkpt lat="48.64266" lon="-2.47595">
        <ele>25</ele>
        <time>2014-10-20T14:13:27.1Z</time>
      </trkpt>
      <trkpt lat="48.64265" lon="-2.47595">
        <ele>25</ele>
        <time>2014-10-20T14:13:29.1Z</time>
      </trkpt>
      <trkpt lat="48.64265" lon="-2.47594">
        <ele>25</ele>
        <time>2014-10-20T14:13:32.1Z</time>
      </trkpt>
      <trkpt lat="48.64265" lon="-2.47596">
        <ele>25</ele>
        <time>2014-10-20T14:13:34.1Z</time>
      </trkpt>
      <trkpt lat="48.64265" lon="-2.47597">
        <ele>25</ele>
        <time>2014-10-20T14:13:36.1Z</time>
      </trkpt>
      <trkpt lat="48.64265" lon="-2.47598">
        <ele>25</ele>
        <time>2014-10-20T14:13:39.1Z</time>
      </trkpt>
      <trkpt lat="48.64265" lon="-2.47598">
        <ele>25</ele>
        <time>2014-10-20T14:13:42.1Z</time>
      </trkpt>
      <trkpt lat="48.64265" lon="-2.47598">
        <ele>26</ele>
        <time>2014-10-20T14:13:45.1Z</time>
      </trkpt>
      <trkpt lat="48.64266" lon="-2.47598">
        <ele>26</ele>
        <time>2014-10-20T14:13:48.1Z</time>
      </trkpt>
      <trkpt lat="48.64266" lon="-2.47598">
        <ele>26</ele>
        <time>2014-10-20T14:13:51.1Z</time>
      </trkpt>
      <trkpt lat="48.64266" lon="-2.47598">
        <ele>25</ele>
        <time>2014-10-20T14:13:53.1Z</time>
      </trkpt>
      <trkpt lat="48.64266" lon="-2.47598">
        <ele>26</ele>
        <time>2014-10-20T14:13:56.1Z</time>
      </trkpt>
      <trkpt lat="48.64267" lon="-2.47598">
        <ele>26</ele>
        <time>2014-10-20T14:13:58.1Z</time>
      </trkpt>
      <trkpt lat="48.64266" lon="-2.47598">
        <ele>26</ele>
        <time>2014-10-20T14:14:02.1Z</time>
      </trkpt>
      <trkpt lat="48.64266" lon="-2.47599">
        <ele>26</ele>
        <time>2014-10-20T14:14:04.1Z</time>
      </trkpt>
      <trkpt lat="48.64267" lon="-2.47598">
        <ele>26</ele>
        <time>2014-10-20T14:14:08.1Z</time>
      </trkpt>
      <trkpt lat="48.64266" lon="-2.47599">
        <ele>26</ele>
        <time>2014-10-20T14:14:11.1Z</time>
      </trkpt>
      <trkpt lat="48.64266" lon="-2.47599">
        <ele>26</ele>
        <time>2014-10-20T14:14:13.1Z</time>
      </trkpt>
      <trkpt lat="48.64266" lon="-2.47599">
        <ele>25</ele>
        <time>2014-10-20T14:14:16.1Z</time>
      </trkpt>
      <trkpt lat="48.64266" lon="-2.47599">
        <ele>26</ele>
        <time>2014-10-20T14:14:19.1Z</time>
      </trkpt>
      <trkpt lat="48.64265" lon="-2.476">
        <ele>26</ele>
        <time>2014-10-20T14:14:21.1Z</time>
      </trkpt>
      <trkpt lat="48.64266" lon="-2.476">
        <ele>26</ele>
        <time>2014-10-20T14:14:24.1Z</time>
      </trkpt>
      <trkpt lat="48.64266" lon="-2.476">
        <ele>25</ele>
        <time>2014-10-20T14:14:27.1Z</time>
      </trkpt>
      <trkpt lat="48.64266" lon="-2.476">
        <ele>25</ele>
        <time>2014-10-20T14:14:30.1Z</time>
      </trkpt>
      <trkpt lat="48.64266" lon="-2.476">
        <ele>25</ele>
        <time>2014-10-20T14:14:32.1Z</time>
      </trkpt>
      <trkpt lat="48.64266" lon="-2.476">
        <ele>25</ele>
        <time>2014-10-20T14:14:35.1Z</time>
      </trkpt>
      <trkpt lat="48.64266" lon="-2.47599">
        <ele>25</ele>
        <time>2014-10-20T14:14:38.1Z</time>
      </trkpt>
      <trkpt lat="48.64266" lon="-2.476">
        <ele>26</ele>
        <time>2014-10-20T14:14:42.1Z</time>
      </trkpt>
      <trkpt lat="48.64266" lon="-2.47599">
        <ele>25</ele>
        <time>2014-10-20T14:14:45.1Z</time>
      </trkpt>
      <trkpt lat="48.64265" lon="-2.47599">
        <ele>26</ele>
        <time>2014-10-20T14:14:50.1Z</time>
      </trkpt>
      <trkpt lat="48.64265" lon="-2.47598">
        <ele>26</ele>
        <time>2014-10-20T14:14:52.1Z</time>
      </trkpt>
      <trkpt lat="48.64265" lon="-2.47598">
        <ele>26</ele>
        <time>2014-10-20T14:14:55.1Z</time>
      </trkpt>
      <trkpt lat="48.64265" lon="-2.47598">
        <ele>26</ele>
        <time>2014-10-20T14:14:58.1Z</time>
      </trkpt>
      <trkpt lat="48.64265" lon="-2.47598">
        <ele>26</ele>
        <time>2014-10-20T14:15:00.1Z</time>
      </trkpt>
      <trkpt lat="48.64265" lon="-2.47598">
        <ele>26</ele>
        <time>2014-10-20T14:15:03.1Z</time>
      </trkpt>
      <trkpt lat="48.64265" lon="-2.47598">
        <ele>26</ele>
        <time>2014-10-20T14:15:05.1Z</time>
      </trkpt>
      <trkpt lat="48.64265" lon="-2.47598">
        <ele>26</ele>
        <time>2014-10-20T14:15:08.1Z</time>
      </trkpt>
      <trkpt lat="48.64265" lon="-2.47597">
        <ele>26</ele>
        <time>2014-10-20T14:15:10.1Z</time>
      </trkpt>
      <trkpt lat="48.64264" lon="-2.47597">
        <ele>26</ele>
        <time>2014-10-20T14:15:14.1Z</time>
      </trkpt>
      <trkpt lat="48.64264" lon="-2.47597">
        <ele>26</ele>
        <time>2014-10-20T14:15:17.1Z</time>
      </trkpt>
      <trkpt lat="48.64264" lon="-2.47597">
        <ele>26</ele>
        <time>2014-10-20T14:15:20.1Z</time>
      </trkpt>
      <trkpt lat="48.64265" lon="-2.47597">
        <ele>26</ele>
        <time>2014-10-20T14:15:22.1Z</time>
      </trkpt>
      <trkpt lat="48.64264" lon="-2.47596">
        <ele>26</ele>
        <time>2014-10-20T14:15:25.1Z</time>
      </trkpt>
      <trkpt lat="48.64264" lon="-2.47596">
        <ele>26</ele>
        <time>2014-10-20T14:15:28.1Z</time>
      </trkpt>
      <trkpt lat="48.64264" lon="-2.47596">
        <ele>26</ele>
        <time>2014-10-20T14:15:31.1Z</time>
      </trkpt>
      <trkpt lat="48.64264" lon="-2.47595">
        <ele>26</ele>
        <time>2014-10-20T14:15:34.1Z</time>
      </trkpt>
      <trkpt lat="48.64264" lon="-2.47595">
        <ele>26</ele>
        <time>2014-10-20T14:15:37.1Z</time>
      </trkpt>
      <trkpt lat="48.64264" lon="-2.47595">
        <ele>26</ele>
        <time>2014-10-20T14:15:39.1Z</time>
      </trkpt>
      <trkpt lat="48.64264" lon="-2.47595">
        <ele>26</ele>
        <time>2014-10-20T14:15:42.1Z</time>
      </trkpt>
      <trkpt lat="48.64265" lon="-2.47594">
        <ele>26</ele>
        <time>2014-10-20T14:15:44.1Z</time>
      </trkpt>
      <trkpt lat="48.64265" lon="-2.47594">
        <ele>26</ele>
        <time>2014-10-20T14:15:47.1Z</time>
      </trkpt>
      <trkpt lat="48.64266" lon="-2.47595">
        <ele>26</ele>
        <time>2014-10-20T14:15:49.1Z</time>
      </trkpt>
      <trkpt lat="48.64267" lon="-2.47595">
        <ele>26</ele>
        <time>2014-10-20T14:15:51.1Z</time>
      </trkpt>
      <trkpt lat="48.64268" lon="-2.47596">
        <ele>26</ele>
        <time>2014-10-20T14:15:54.1Z</time>
      </trkpt>
      <trkpt lat="48.64269" lon="-2.47594">
        <ele>26</ele>
        <time>2014-10-20T14:15:57.1Z</time>
      </trkpt>
      <trkpt lat="48.64269" lon="-2.47595">
        <ele>26</ele>
        <time>2014-10-20T14:15:59.1Z</time>
      </trkpt>
      <trkpt lat="48.64269" lon="-2.47594">
        <ele>26</ele>
        <time>2014-10-20T14:16:03.1Z</time>
      </trkpt>
      <trkpt lat="48.64269" lon="-2.47594">
        <ele>26</ele>
        <time>2014-10-20T14:16:05.1Z</time>
      </trkpt>
      <trkpt lat="48.64269" lon="-2.47594">
        <ele>26</ele>
        <time>2014-10-20T14:16:07.1Z</time>
      </trkpt>
      <trkpt lat="48.64269" lon="-2.47594">
        <ele>26</ele>
        <time>2014-10-20T14:16:10.1Z</time>
      </trkpt>
      <trkpt lat="48.64268" lon="-2.47594">
        <ele>25</ele>
        <time>2014-10-20T14:16:12.1Z</time>
      </trkpt>
      <trkpt lat="48.64268" lon="-2.47594">
        <ele>25</ele>
        <time>2014-10-20T14:16:15.1Z</time>
      </trkpt>
      <trkpt lat="48.64268" lon="-2.47594">
        <ele>25</ele>
        <time>2014-10-20T14:16:19.1Z</time>
      </trkpt>
      <trkpt lat="48.64268" lon="-2.47594">
        <ele>25</ele>
        <time>2014-10-20T14:16:22.1Z</time>
      </trkpt>
      <trkpt lat="48.64267" lon="-2.47595">
        <ele>25</ele>
        <time>2014-10-20T14:16:24.1Z</time>
      </trkpt>
      <trkpt lat="48.64267" lon="-2.47595">
        <ele>25</ele>
        <time>2014-10-20T14:16:27.1Z</time>
      </trkpt>
      <trkpt lat="48.64267" lon="-2.47595">
        <ele>26</ele>
        <time>2014-10-20T14:16:29.1Z</time>
      </trkpt>
      <trkpt lat="48.64267" lon="-2.47594">
        <ele>26</ele>
        <time>2014-10-20T14:16:33.1Z</time>
      </trkpt>
      <trkpt lat="48.64267" lon="-2.47595">
        <ele>26</ele>
        <time>2014-10-20T14:16:36.1Z</time>
      </trkpt>
      <trkpt lat="48.64267" lon="-2.47594">
        <ele>26</ele>
        <time>2014-10-20T14:16:39.1Z</time>
      </trkpt>
      <trkpt lat="48.64267" lon="-2.47594">
        <ele>26</ele>
        <time>2014-10-20T14:16:42.1Z</time>
      </trkpt>
      <trkpt lat="48.64267" lon="-2.47595">
        <ele>26</ele>
        <time>2014-10-20T14:16:44.1Z</time>
      </trkpt>
      <trkpt lat="48.64267" lon="-2.47597">
        <ele>26</ele>
        <time>2014-10-20T14:16:47.1Z</time>
      </trkpt>
      <trkpt lat="48.64267" lon="-2.47597">
        <ele>26</ele>
        <time>2014-10-20T14:16:52.1Z</time>
      </trkpt>
      <trkpt lat="48.64267" lon="-2.47597">
        <ele>26</ele>
        <time>2014-10-20T14:16:55.1Z</time>
      </trkpt>
      <trkpt lat="48.64267" lon="-2.47597">
        <ele>26</ele>
        <time>2014-10-20T14:16:58.1Z</time>
      </trkpt>
      <trkpt lat="48.64266" lon="-2.47596">
        <ele>26</ele>
        <time>2014-10-20T14:17:01.1Z</time>
      </trkpt>
      <trkpt lat="48.64266" lon="-2.47595">
        <ele>26</ele>
        <time>2014-10-20T14:17:03.1Z</time>
      </trkpt>
      <trkpt lat="48.64267" lon="-2.47595">
        <ele>26</ele>
        <time>2014-10-20T14:17:06.1Z</time>
      </trkpt>
      <trkpt lat="48.64267" lon="-2.47595">
        <ele>26</ele>
        <time>2014-10-20T14:17:09.1Z</time>
      </trkpt>
      <trkpt lat="48.64267" lon="-2.47595">
        <ele>26</ele>
        <time>2014-10-20T14:17:12.1Z</time>
      </trkpt>
      <trkpt lat="48.64268" lon="-2.47593">
        <ele>26</ele>
        <time>2014-10-20T14:17:15.1Z</time>
      </trkpt>
      <trkpt lat="48.64269" lon="-2.47591">
        <ele>26</ele>
        <time>2014-10-20T14:17:17.1Z</time>
      </trkpt>
      <trkpt lat="48.6427" lon="-2.47588">
        <ele>26</ele>
        <time>2014-10-20T14:17:20.1Z</time>
      </trkpt>
      <trkpt lat="48.64272" lon="-2.47585">
        <ele>26</ele>
        <time>2014-10-20T14:17:23.1Z</time>
      </trkpt>
      <trkpt lat="48.64273" lon="-2.47582">
        <ele>26</ele>
        <time>2014-10-20T14:17:25.1Z</time>
      </trkpt>
      <trkpt lat="48.64274" lon="-2.4758">
        <ele>25</ele>
        <time>2014-10-20T14:17:27.1Z</time>
      </trkpt>
      <trkpt lat="48.64275" lon="-2.47578">
        <ele>25</ele>
        <time>2014-10-20T14:17:29.1Z</time>
      </trkpt>
      <trkpt lat="48.64278" lon="-2.47574">
        <ele>25</ele>
        <time>2014-10-20T14:17:32.1Z</time>
      </trkpt>
      <trkpt lat="48.64281" lon="-2.47571">
        <ele>24</ele>
        <time>2014-10-20T14:17:35.1Z</time>
      </trkpt>
      <trkpt lat="48.64284" lon="-2.47569">
        <ele>24</ele>
        <time>2014-10-20T14:17:38.1Z</time>
      </trkpt>
      <trkpt lat="48.64286" lon="-2.47565">
        <ele>24</ele>
        <time>2014-10-20T14:17:40.1Z</time>
      </trkpt>
      <trkpt lat="48.64289" lon="-2.47561">
        <ele>24</ele>
        <time>2014-10-20T14:17:43.1Z</time>
      </trkpt>
      <trkpt lat="48.64291" lon="-2.4756">
        <ele>24</ele>
        <time>2014-10-20T14:17:45.1Z</time>
      </trkpt>
      <trkpt lat="48.64294" lon="-2.47558">
        <ele>23</ele>
        <time>2014-10-20T14:17:48.1Z</time>
      </trkpt>
      <trkpt lat="48.64297" lon="-2.47555">
        <ele>22</ele>
        <time>2014-10-20T14:17:51.1Z</time>
      </trkpt>
      <trkpt lat="48.643" lon="-2.47554">
        <ele>22</ele>
        <time>2014-10-20T14:17:54.1Z</time>
      </trkpt>
      <trkpt lat="48.64302" lon="-2.47552">
        <ele>22</ele>
        <time>2014-10-20T14:17:57.1Z</time>
      </trkpt>
      <trkpt lat="48.64305" lon="-2.4755">
        <ele>22</ele>
        <time>2014-10-20T14:18:00.1Z</time>
      </trkpt>
      <trkpt lat="48.64307" lon="-2.47548">
        <ele>22</ele>
        <time>2014-10-20T14:18:03.1Z</time>
      </trkpt>
      <trkpt lat="48.64309" lon="-2.47547">
        <ele>21</ele>
        <time>2014-10-20T14:18:05.1Z</time>
      </trkpt>
      <trkpt lat="48.6431" lon="-2.47546">
        <ele>21</ele>
        <time>2014-10-20T14:18:07.1Z</time>
      </trkpt>
      <trkpt lat="48.64313" lon="-2.47545">
        <ele>21</ele>
        <time>2014-10-20T14:18:09.1Z</time>
      </trkpt>
      <trkpt lat="48.64315" lon="-2.47544">
        <ele>21</ele>
        <time>2014-10-20T14:18:12.1Z</time>
      </trkpt>
      <trkpt lat="48.64317" lon="-2.47541">
        <ele>20</ele>
        <time>2014-10-20T14:18:15.1Z</time>
      </trkpt>
      <trkpt lat="48.6432" lon="-2.4754">
        <ele>20</ele>
        <time>2014-10-20T14:18:18.1Z</time>
      </trkpt>
      <trkpt lat="48.64323" lon="-2.47539">
        <ele>20</ele>
        <time>2014-10-20T14:18:21.1Z</time>
      </trkpt>
      <trkpt lat="48.64325" lon="-2.47538">
        <ele>20</ele>
        <time>2014-10-20T14:18:24.1Z</time>
      </trkpt>
      <trkpt lat="48.64328" lon="-2.47537">
        <ele>19</ele>
        <time>2014-10-20T14:18:27.1Z</time>
      </trkpt>
      <trkpt lat="48.64331" lon="-2.47536">
        <ele>19</ele>
        <time>2014-10-20T14:18:29.1Z</time>
      </trkpt>
      <trkpt lat="48.64333" lon="-2.47535">
        <ele>19</ele>
        <time>2014-10-20T14:18:32.1Z</time>
      </trkpt>
      <trkpt lat="48.64336" lon="-2.47534">
        <ele>18</ele>
        <time>2014-10-20T14:18:34.1Z</time>
      </trkpt>
      <trkpt lat="48.64339" lon="-2.47533">
        <ele>18</ele>
        <time>2014-10-20T14:18:37.1Z</time>
      </trkpt>
      <trkpt lat="48.64341" lon="-2.47533">
        <ele>17</ele>
        <time>2014-10-20T14:18:40.1Z</time>
      </trkpt>
      <trkpt lat="48.64344" lon="-2.47534">
        <ele>17</ele>
        <time>2014-10-20T14:18:42.1Z</time>
      </trkpt>
      <trkpt lat="48.64346" lon="-2.47533">
        <ele>17</ele>
        <time>2014-10-20T14:18:45.1Z</time>
      </trkpt>
      <trkpt lat="48.64349" lon="-2.47532">
        <ele>17</ele>
        <time>2014-10-20T14:18:48.1Z</time>
      </trkpt>
      <trkpt lat="48.64351" lon="-2.47532">
        <ele>17</ele>
        <time>2014-10-20T14:18:50.1Z</time>
      </trkpt>
      <trkpt lat="48.64353" lon="-2.47532">
        <ele>17</ele>
        <time>2014-10-20T14:18:52.1Z</time>
      </trkpt>
      <trkpt lat="48.64355" lon="-2.47532">
        <ele>16</ele>
        <time>2014-10-20T14:18:55.1Z</time>
      </trkpt>
      <trkpt lat="48.64357" lon="-2.47532">
        <ele>15</ele>
        <time>2014-10-20T14:18:57.1Z</time>
      </trkpt>
      <trkpt lat="48.6436" lon="-2.47531">
        <ele>15</ele>
        <time>2014-10-20T14:19:00.1Z</time>
      </trkpt>
      <trkpt lat="48.64363" lon="-2.47531">
        <ele>15</ele>
        <time>2014-10-20T14:19:02.1Z</time>
      </trkpt>
      <trkpt lat="48.64365" lon="-2.47531">
        <ele>14</ele>
        <time>2014-10-20T14:19:05.1Z</time>
      </trkpt>
      <trkpt lat="48.64369" lon="-2.47532">
        <ele>14</ele>
        <time>2014-10-20T14:19:07.1Z</time>
      </trkpt>
      <trkpt lat="48.6437" lon="-2.47532">
        <ele>14</ele>
        <time>2014-10-20T14:19:09.1Z</time>
      </trkpt>
      <trkpt lat="48.64373" lon="-2.47532">
        <ele>14</ele>
        <time>2014-10-20T14:19:12.1Z</time>
      </trkpt>
      <trkpt lat="48.64375" lon="-2.47533">
        <ele>13</ele>
        <time>2014-10-20T14:19:14.1Z</time>
      </trkpt>
      <trkpt lat="48.64377" lon="-2.47534">
        <ele>13</ele>
        <time>2014-10-20T14:19:16.1Z</time>
      </trkpt>
      <trkpt lat="48.6438" lon="-2.47535">
        <ele>13</ele>
        <time>2014-10-20T14:19:19.1Z</time>
      </trkpt>
      <trkpt lat="48.64382" lon="-2.47536">
        <ele>13</ele>
        <time>2014-10-20T14:19:21.1Z</time>
      </trkpt>
      <trkpt lat="48.64384" lon="-2.47538">
        <ele>12</ele>
        <time>2014-10-20T14:19:23.1Z</time>
      </trkpt>
      <trkpt lat="48.64386" lon="-2.47539">
        <ele>12</ele>
        <time>2014-10-20T14:19:25.1Z</time>
      </trkpt>
      <trkpt lat="48.64388" lon="-2.4754">
        <ele>12</ele>
        <time>2014-10-20T14:19:27.1Z</time>
      </trkpt>
      <trkpt lat="48.64391" lon="-2.47542">
        <ele>12</ele>
        <time>2014-10-20T14:19:29.1Z</time>
      </trkpt>
      <trkpt lat="48.64393" lon="-2.47544">
        <ele>12</ele>
        <time>2014-10-20T14:19:31.1Z</time>
      </trkpt>
      <trkpt lat="48.64395" lon="-2.47545">
        <ele>12</ele>
        <time>2014-10-20T14:19:34.1Z</time>
      </trkpt>
      <trkpt lat="48.64396" lon="-2.47547">
        <ele>12</ele>
        <time>2014-10-20T14:19:36.1Z</time>
      </trkpt>
      <trkpt lat="48.64398" lon="-2.47548">
        <ele>11</ele>
        <time>2014-10-20T14:19:38.1Z</time>
      </trkpt>
      <trkpt lat="48.644" lon="-2.4755">
        <ele>11</ele>
        <time>2014-10-20T14:19:40.1Z</time>
      </trkpt>
      <trkpt lat="48.64402" lon="-2.47552">
        <ele>11</ele>
        <time>2014-10-20T14:19:42.1Z</time>
      </trkpt>
      <trkpt lat="48.64404" lon="-2.47555">
        <ele>11</ele>
        <time>2014-10-20T14:19:44.1Z</time>
      </trkpt>
      <trkpt lat="48.64405" lon="-2.47557">
        <ele>10</ele>
        <time>2014-10-20T14:19:46.1Z</time>
      </trkpt>
      <trkpt lat="48.64407" lon="-2.47559">
        <ele>10</ele>
        <time>2014-10-20T14:19:48.1Z</time>
      </trkpt>
      <trkpt lat="48.64408" lon="-2.47561">
        <ele>10</ele>
        <time>2014-10-20T14:19:51.1Z</time>
      </trkpt>
      <trkpt lat="48.6441" lon="-2.47564">
        <ele>10</ele>
        <time>2014-10-20T14:19:53.1Z</time>
      </trkpt>
      <trkpt lat="48.64412" lon="-2.47566">
        <ele>10</ele>
        <time>2014-10-20T14:19:55.1Z</time>
      </trkpt>
      <trkpt lat="48.64414" lon="-2.47569">
        <ele>10</ele>
        <time>2014-10-20T14:19:57.1Z</time>
      </trkpt>
      <trkpt lat="48.64416" lon="-2.47571">
        <ele>10</ele>
        <time>2014-10-20T14:19:59.1Z</time>
      </trkpt>
      <trkpt lat="48.64418" lon="-2.47572">
        <ele>10</ele>
        <time>2014-10-20T14:20:02.1Z</time>
      </trkpt>
      <trkpt lat="48.64419" lon="-2.47574">
        <ele>10</ele>
        <time>2014-10-20T14:20:04.1Z</time>
      </trkpt>
      <trkpt lat="48.64421" lon="-2.47576">
        <ele>9</ele>
        <time>2014-10-20T14:20:06.1Z</time>
      </trkpt>
      <trkpt lat="48.64423" lon="-2.47577">
        <ele>9</ele>
        <time>2014-10-20T14:20:09.1Z</time>
      </trkpt>
      <trkpt lat="48.64425" lon="-2.47577">
        <ele>8</ele>
        <time>2014-10-20T14:20:12.1Z</time>
      </trkpt>
      <trkpt lat="48.64426" lon="-2.47575">
        <ele>8</ele>
        <time>2014-10-20T14:20:14.1Z</time>
      </trkpt>
      <trkpt lat="48.64427" lon="-2.47574">
        <ele>8</ele>
        <time>2014-10-20T14:20:16.1Z</time>
      </trkpt>
      <trkpt lat="48.64427" lon="-2.47572">
        <ele>8</ele>
        <time>2014-10-20T14:20:19.1Z</time>
      </trkpt>
      <trkpt lat="48.64429" lon="-2.4757">
        <ele>8</ele>
        <time>2014-10-20T14:20:22.1Z</time>
      </trkpt>
      <trkpt lat="48.64429" lon="-2.47568">
        <ele>8</ele>
        <time>2014-10-20T14:20:24.1Z</time>
      </trkpt>
      <trkpt lat="48.6443" lon="-2.47567">
        <ele>8</ele>
        <time>2014-10-20T14:20:27.1Z</time>
      </trkpt>
      <trkpt lat="48.64431" lon="-2.47565">
        <ele>8</ele>
        <time>2014-10-20T14:20:30.1Z</time>
      </trkpt>
      <trkpt lat="48.64432" lon="-2.47563">
        <ele>8</ele>
        <time>2014-10-20T14:20:33.1Z</time>
      </trkpt>
      <trkpt lat="48.64432" lon="-2.47561">
        <ele>8</ele>
        <time>2014-10-20T14:20:36.1Z</time>
      </trkpt>
      <trkpt lat="48.64432" lon="-2.47562">
        <ele>8</ele>
        <time>2014-10-20T14:20:39.1Z</time>
      </trkpt>
      <trkpt lat="48.64432" lon="-2.47561">
        <ele>8</ele>
        <time>2014-10-20T14:20:42.1Z</time>
      </trkpt>
      <trkpt lat="48.64433" lon="-2.47561">
        <ele>8</ele>
        <time>2014-10-20T14:20:47.1Z</time>
      </trkpt>
      <trkpt lat="48.64434" lon="-2.47559">
        <ele>8</ele>
        <time>2014-10-20T14:20:49.1Z</time>
      </trkpt>
      <trkpt lat="48.64436" lon="-2.47557">
        <ele>7</ele>
        <time>2014-10-20T14:20:52.1Z</time>
      </trkpt>
      <trkpt lat="48.64437" lon="-2.47555">
        <ele>7</ele>
        <time>2014-10-20T14:20:55.1Z</time>
      </trkpt>
      <trkpt lat="48.64437" lon="-2.47555">
        <ele>6</ele>
        <time>2014-10-20T14:20:59.1Z</time>
      </trkpt>
      <trkpt lat="48.64437" lon="-2.47555">
        <ele>6</ele>
        <time>2014-10-20T14:21:01.1Z</time>
      </trkpt>
      <trkpt lat="48.64437" lon="-2.47555">
        <ele>6</ele>
        <time>2014-10-20T14:21:08.1Z</time>
      </trkpt>
      <trkpt lat="48.64437" lon="-2.47555">
        <ele>7</ele>
        <time>2014-10-20T14:21:11.1Z</time>
      </trkpt>
      <trkpt lat="48.64437" lon="-2.47556">
        <ele>6</ele>
        <time>2014-10-20T14:21:16.1Z</time>
      </trkpt>
      <trkpt lat="48.64438" lon="-2.47552">
        <ele>7</ele>
        <time>2014-10-20T14:21:19.1Z</time>
      </trkpt>
      <trkpt lat="48.64439" lon="-2.47548">
        <ele>6</ele>
        <time>2014-10-20T14:21:21.1Z</time>
      </trkpt>
      <trkpt lat="48.6444" lon="-2.47543">
        <ele>6</ele>
        <time>2014-10-20T14:21:25.1Z</time>
      </trkpt>
      <trkpt lat="48.64442" lon="-2.47539">
        <ele>5</ele>
        <time>2014-10-20T14:21:28.1Z</time>
      </trkpt>
      <trkpt lat="48.64446" lon="-2.47537">
        <ele>4</ele>
        <time>2014-10-20T14:21:30.1Z</time>
      </trkpt>
      <trkpt lat="48.64448" lon="-2.47537">
        <ele>4</ele>
        <time>2014-10-20T14:21:32.1Z</time>
      </trkpt>
      <trkpt lat="48.6445" lon="-2.47536">
        <ele>4</ele>
        <time>2014-10-20T14:21:35.1Z</time>
      </trkpt>
      <trkpt lat="48.64451" lon="-2.47534">
        <ele>3</ele>
        <time>2014-10-20T14:21:37.1Z</time>
      </trkpt>
      <trkpt lat="48.64453" lon="-2.47532">
        <ele>3</ele>
        <time>2014-10-20T14:21:40.1Z</time>
      </trkpt>
      <trkpt lat="48.64455" lon="-2.4753">
        <ele>3</ele>
        <time>2014-10-20T14:21:43.1Z</time>
      </trkpt>
      <trkpt lat="48.64455" lon="-2.47529">
        <ele>4</ele>
        <time>2014-10-20T14:21:45.1Z</time>
      </trkpt>
      <trkpt lat="48.64456" lon="-2.47527">
        <ele>4</ele>
        <time>2014-10-20T14:21:48.1Z</time>
      </trkpt>
      <trkpt lat="48.64457" lon="-2.47524">
        <ele>4</ele>
        <time>2014-10-20T14:21:50.1Z</time>
      </trkpt>
      <trkpt lat="48.64458" lon="-2.47521">
        <ele>5</ele>
        <time>2014-10-20T14:21:54.1Z</time>
      </trkpt>
      <trkpt lat="48.64458" lon="-2.47519">
        <ele>5</ele>
        <time>2014-10-20T14:21:56.1Z</time>
      </trkpt>
      <trkpt lat="48.64459" lon="-2.47518">
        <ele>5</ele>
        <time>2014-10-20T14:21:59.1Z</time>
      </trkpt>
      <trkpt lat="48.64459" lon="-2.47519">
        <ele>5</ele>
        <time>2014-10-20T14:22:01.1Z</time>
      </trkpt>
      <trkpt lat="48.6446" lon="-2.47518">
        <ele>5</ele>
        <time>2014-10-20T14:22:04.1Z</time>
      </trkpt>
      <trkpt lat="48.64461" lon="-2.47514">
        <ele>5</ele>
        <time>2014-10-20T14:22:06.1Z</time>
      </trkpt>
      <trkpt lat="48.64463" lon="-2.47511">
        <ele>5</ele>
        <time>2014-10-20T14:22:09.1Z</time>
      </trkpt>
      <trkpt lat="48.64465" lon="-2.47506">
        <ele>5</ele>
        <time>2014-10-20T14:22:12.1Z</time>
      </trkpt>
      <trkpt lat="48.64466" lon="-2.47503">
        <ele>5</ele>
        <time>2014-10-20T14:22:14.1Z</time>
      </trkpt>
      <trkpt lat="48.64468" lon="-2.47498">
        <ele>5</ele>
        <time>2014-10-20T14:22:16.1Z</time>
      </trkpt>
      <trkpt lat="48.6447" lon="-2.47497">
        <ele>5</ele>
        <time>2014-10-20T14:22:19.1Z</time>
      </trkpt>
      <trkpt lat="48.64472" lon="-2.47494">
        <ele>4</ele>
        <time>2014-10-20T14:22:21.1Z</time>
      </trkpt>
      <trkpt lat="48.64474" lon="-2.47493">
        <ele>4</ele>
        <time>2014-10-20T14:22:24.1Z</time>
      </trkpt>
      <trkpt lat="48.64478" lon="-2.47491">
        <ele>4</ele>
        <time>2014-10-20T14:22:26.1Z</time>
      </trkpt>
      <trkpt lat="48.64479" lon="-2.47489">
        <ele>4</ele>
        <time>2014-10-20T14:22:29.1Z</time>
      </trkpt>
      <trkpt lat="48.64481" lon="-2.47484">
        <ele>4</ele>
        <time>2014-10-20T14:22:32.1Z</time>
      </trkpt>
      <trkpt lat="48.64482" lon="-2.47481">
        <ele>5</ele>
        <time>2014-10-20T14:22:34.1Z</time>
      </trkpt>
      <trkpt lat="48.64484" lon="-2.47476">
        <ele>4</ele>
        <time>2014-10-20T14:22:36.1Z</time>
      </trkpt>
      <trkpt lat="48.64485" lon="-2.47471">
        <ele>4</ele>
        <time>2014-10-20T14:22:39.1Z</time>
      </trkpt>
      <trkpt lat="48.64486" lon="-2.47468">
        <ele>4</ele>
        <time>2014-10-20T14:22:41.1Z</time>
      </trkpt>
      <trkpt lat="48.64487" lon="-2.47465">
        <ele>4</ele>
        <time>2014-10-20T14:22:44.1Z</time>
      </trkpt>
      <trkpt lat="48.64489" lon="-2.4746">
        <ele>4</ele>
        <time>2014-10-20T14:22:47.1Z</time>
      </trkpt>
      <trkpt lat="48.6449" lon="-2.47455">
        <ele>5</ele>
        <time>2014-10-20T14:22:49.1Z</time>
      </trkpt>
      <trkpt lat="48.64491" lon="-2.47452">
        <ele>5</ele>
        <time>2014-10-20T14:22:51.1Z</time>
      </trkpt>
      <trkpt lat="48.64492" lon="-2.47448">
        <ele>5</ele>
        <time>2014-10-20T14:22:54.1Z</time>
      </trkpt>
      <trkpt lat="48.64494" lon="-2.47444">
        <ele>4</ele>
        <time>2014-10-20T14:22:57.1Z</time>
      </trkpt>
      <trkpt lat="48.64495" lon="-2.4744">
        <ele>5</ele>
        <time>2014-10-20T14:22:59.1Z</time>
      </trkpt>
      <trkpt lat="48.64496" lon="-2.47436">
        <ele>5</ele>
        <time>2014-10-20T14:23:02.1Z</time>
      </trkpt>
      <trkpt lat="48.64497" lon="-2.47432">
        <ele>5</ele>
        <time>2014-10-20T14:23:04.1Z</time>
      </trkpt>
      <trkpt lat="48.64499" lon="-2.4743">
        <ele>5</ele>
        <time>2014-10-20T14:23:06.1Z</time>
      </trkpt>
      <trkpt lat="48.645" lon="-2.47427">
        <ele>5</ele>
        <time>2014-10-20T14:23:09.1Z</time>
      </trkpt>
      <trkpt lat="48.64502" lon="-2.47423">
        <ele>5</ele>
        <time>2014-10-20T14:23:12.1Z</time>
      </trkpt>
      <trkpt lat="48.64504" lon="-2.47419">
        <ele>5</ele>
        <time>2014-10-20T14:23:14.1Z</time>
      </trkpt>
      <trkpt lat="48.64506" lon="-2.47417">
        <ele>5</ele>
        <time>2014-10-20T14:23:17.1Z</time>
      </trkpt>
      <trkpt lat="48.64508" lon="-2.47414">
        <ele>4</ele>
        <time>2014-10-20T14:23:19.1Z</time>
      </trkpt>
      <trkpt lat="48.64508" lon="-2.47412">
        <ele>4</ele>
        <time>2014-10-20T14:23:22.1Z</time>
      </trkpt>
      <trkpt lat="48.64509" lon="-2.47408">
        <ele>4</ele>
        <time>2014-10-20T14:23:24.1Z</time>
      </trkpt>
      <trkpt lat="48.6451" lon="-2.47406">
        <ele>4</ele>
        <time>2014-10-20T14:23:28.1Z</time>
      </trkpt>
      <trkpt lat="48.6451" lon="-2.47404">
        <ele>4</ele>
        <time>2014-10-20T14:23:30.1Z</time>
      </trkpt>
      <trkpt lat="48.6451" lon="-2.47403">
        <ele>4</ele>
        <time>2014-10-20T14:23:33.1Z</time>
      </trkpt>
      <trkpt lat="48.64511" lon="-2.47402">
        <ele>4</ele>
        <time>2014-10-20T14:23:35.1Z</time>
      </trkpt>
      <trkpt lat="48.64511" lon="-2.47401">
        <ele>4</ele>
        <time>2014-10-20T14:23:37.1Z</time>
      </trkpt>
      <trkpt lat="48.6451" lon="-2.47399">
        <ele>4</ele>
        <time>2014-10-20T14:23:40.1Z</time>
      </trkpt>
      <trkpt lat="48.6451" lon="-2.47395">
        <ele>3</ele>
        <time>2014-10-20T14:23:42.1Z</time>
      </trkpt>
      <trkpt lat="48.6451" lon="-2.47393">
        <ele>4</ele>
        <time>2014-10-20T14:23:44.1Z</time>
      </trkpt>
      <trkpt lat="48.6451" lon="-2.47391">
        <ele>4</ele>
        <time>2014-10-20T14:23:47.1Z</time>
      </trkpt>
      <trkpt lat="48.64509" lon="-2.47388">
        <ele>5</ele>
        <time>2014-10-20T14:23:50.1Z</time>
      </trkpt>
      <trkpt lat="48.64509" lon="-2.47386">
        <ele>5</ele>
        <time>2014-10-20T14:23:54.1Z</time>
      </trkpt>
      <trkpt lat="48.64509" lon="-2.47385">
        <ele>6</ele>
        <time>2014-10-20T14:23:56.1Z</time>
      </trkpt>
      <trkpt lat="48.64508" lon="-2.47381">
        <ele>6</ele>
        <time>2014-10-20T14:23:58.1Z</time>
      </trkpt>
      <trkpt lat="48.64507" lon="-2.4738">
        <ele>7</ele>
        <time>2014-10-20T14:24:00.1Z</time>
      </trkpt>
      <trkpt lat="48.64506" lon="-2.47377">
        <ele>7</ele>
        <time>2014-10-20T14:24:03.1Z</time>
      </trkpt>
      <trkpt lat="48.64505" lon="-2.47375">
        <ele>7</ele>
        <time>2014-10-20T14:24:06.1Z</time>
      </trkpt>
      <trkpt lat="48.64505" lon="-2.47372">
        <ele>7</ele>
        <time>2014-10-20T14:24:09.1Z</time>
      </trkpt>
      <trkpt lat="48.64503" lon="-2.4737">
        <ele>8</ele>
        <time>2014-10-20T14:24:11.1Z</time>
      </trkpt>
      <trkpt lat="48.64502" lon="-2.47367">
        <ele>8</ele>
        <time>2014-10-20T14:24:14.1Z</time>
      </trkpt>
      <trkpt lat="48.64501" lon="-2.47366">
        <ele>8</ele>
        <time>2014-10-20T14:24:16.1Z</time>
      </trkpt>
      <trkpt lat="48.645" lon="-2.47365">
        <ele>9</ele>
        <time>2014-10-20T14:24:19.1Z</time>
      </trkpt>
      <trkpt lat="48.64499" lon="-2.47363">
        <ele>9</ele>
        <time>2014-10-20T14:24:21.1Z</time>
      </trkpt>
      <trkpt lat="48.64497" lon="-2.47362">
        <ele>9</ele>
        <time>2014-10-20T14:24:23.1Z</time>
      </trkpt>
      <trkpt lat="48.64496" lon="-2.47362">
        <ele>9</ele>
        <time>2014-10-20T14:24:26.1Z</time>
      </trkpt>
      <trkpt lat="48.64495" lon="-2.47361">
        <ele>10</ele>
        <time>2014-10-20T14:24:28.1Z</time>
      </trkpt>
      <trkpt lat="48.64494" lon="-2.4736">
        <ele>10</ele>
        <time>2014-10-20T14:24:31.1Z</time>
      </trkpt>
      <trkpt lat="48.64492" lon="-2.47358">
        <ele>10</ele>
        <time>2014-10-20T14:24:33.1Z</time>
      </trkpt>
      <trkpt lat="48.64492" lon="-2.47357">
        <ele>11</ele>
        <time>2014-10-20T14:24:35.1Z</time>
      </trkpt>
      <trkpt lat="48.64491" lon="-2.47355">
        <ele>11</ele>
        <time>2014-10-20T14:24:37.1Z</time>
      </trkpt>
      <trkpt lat="48.6449" lon="-2.47353">
        <ele>11</ele>
        <time>2014-10-20T14:24:40.1Z</time>
      </trkpt>
      <trkpt lat="48.64489" lon="-2.47352">
        <ele>12</ele>
        <time>2014-10-20T14:24:42.1Z</time>
      </trkpt>
      <trkpt lat="48.64488" lon="-2.4735">
        <ele>12</ele>
        <time>2014-10-20T14:24:45.1Z</time>
      </trkpt>
      <trkpt lat="48.64488" lon="-2.47348">
        <ele>13</ele>
        <time>2014-10-20T14:24:48.1Z</time>
      </trkpt>
      <trkpt lat="48.64487" lon="-2.47347">
        <ele>13</ele>
        <time>2014-10-20T14:24:51.1Z</time>
      </trkpt>
      <trkpt lat="48.64486" lon="-2.47345">
        <ele>13</ele>
        <time>2014-10-20T14:24:53.1Z</time>
      </trkpt>
      <trkpt lat="48.64485" lon="-2.47342">
        <ele>13</ele>
        <time>2014-10-20T14:24:56.1Z</time>
      </trkpt>
      <trkpt lat="48.64484" lon="-2.47341">
        <ele>14</ele>
        <time>2014-10-20T14:24:59.1Z</time>
      </trkpt>
      <trkpt lat="48.64484" lon="-2.47339">
        <ele>15</ele>
        <time>2014-10-20T14:25:02.1Z</time>
      </trkpt>
      <trkpt lat="48.64484" lon="-2.47339">
        <ele>15</ele>
        <time>2014-10-20T14:25:05.1Z</time>
      </trkpt>
      <trkpt lat="48.64482" lon="-2.47337">
        <ele>15</ele>
        <time>2014-10-20T14:25:07.1Z</time>
      </trkpt>
      <trkpt lat="48.64481" lon="-2.47335">
        <ele>15</ele>
        <time>2014-10-20T14:25:09.1Z</time>
      </trkpt>
      <trkpt lat="48.64481" lon="-2.47334">
        <ele>15</ele>
        <time>2014-10-20T14:25:12.1Z</time>
      </trkpt>
      <trkpt lat="48.6448" lon="-2.47332">
        <ele>15</ele>
        <time>2014-10-20T14:25:14.1Z</time>
      </trkpt>
      <trkpt lat="48.64479" lon="-2.47331">
        <ele>16</ele>
        <time>2014-10-20T14:25:17.1Z</time>
      </trkpt>
      <trkpt lat="48.64478" lon="-2.4733">
        <ele>17</ele>
        <time>2014-10-20T14:25:21.1Z</time>
      </trkpt>
      <trkpt lat="48.64477" lon="-2.47328">
        <ele>18</ele>
        <time>2014-10-20T14:25:23.1Z</time>
      </trkpt>
      <trkpt lat="48.64476" lon="-2.47327">
        <ele>18</ele>
        <time>2014-10-20T14:25:26.1Z</time>
      </trkpt>
      <trkpt lat="48.64474" lon="-2.47325">
        <ele>18</ele>
        <time>2014-10-20T14:25:29.1Z</time>
      </trkpt>
      <trkpt lat="48.64473" lon="-2.47324">
        <ele>19</ele>
        <time>2014-10-20T14:25:31.1Z</time>
      </trkpt>
      <trkpt lat="48.64473" lon="-2.47321">
        <ele>19</ele>
        <time>2014-10-20T14:25:34.1Z</time>
      </trkpt>
      <trkpt lat="48.64473" lon="-2.47319">
        <ele>19</ele>
        <time>2014-10-20T14:25:37.1Z</time>
      </trkpt>
      <trkpt lat="48.64472" lon="-2.47317">
        <ele>20</ele>
        <time>2014-10-20T14:25:40.1Z</time>
      </trkpt>
      <trkpt lat="48.64471" lon="-2.47315">
        <ele>20</ele>
        <time>2014-10-20T14:25:43.1Z</time>
      </trkpt>
      <trkpt lat="48.64471" lon="-2.47314">
        <ele>21</ele>
        <time>2014-10-20T14:25:46.1Z</time>
      </trkpt>
      <trkpt lat="48.6447" lon="-2.47312">
        <ele>21</ele>
        <time>2014-10-20T14:25:49.1Z</time>
      </trkpt>
      <trkpt lat="48.6447" lon="-2.4731">
        <ele>22</ele>
        <time>2014-10-20T14:25:52.1Z</time>
      </trkpt>
      <trkpt lat="48.64469" lon="-2.47308">
        <ele>22</ele>
        <time>2014-10-20T14:25:54.1Z</time>
      </trkpt>
      <trkpt lat="48.64469" lon="-2.47305">
        <ele>22</ele>
        <time>2014-10-20T14:25:58.1Z</time>
      </trkpt>
      <trkpt lat="48.64468" lon="-2.47302">
        <ele>22</ele>
        <time>2014-10-20T14:26:00.1Z</time>
      </trkpt>
      <trkpt lat="48.64468" lon="-2.47299">
        <ele>23</ele>
        <time>2014-10-20T14:26:03.1Z</time>
      </trkpt>
      <trkpt lat="48.64467" lon="-2.47298">
        <ele>24</ele>
        <time>2014-10-20T14:26:05.1Z</time>
      </trkpt>
      <trkpt lat="48.64466" lon="-2.47296">
        <ele>24</ele>
        <time>2014-10-20T14:26:08.1Z</time>
      </trkpt>
      <trkpt lat="48.64466" lon="-2.47293">
        <ele>24</ele>
        <time>2014-10-20T14:26:11.1Z</time>
      </trkpt>
      <trkpt lat="48.64465" lon="-2.47292">
        <ele>24</ele>
        <time>2014-10-20T14:26:14.1Z</time>
      </trkpt>
      <trkpt lat="48.64465" lon="-2.4729">
        <ele>25</ele>
        <time>2014-10-20T14:26:16.1Z</time>
      </trkpt>
      <trkpt lat="48.64464" lon="-2.47288">
        <ele>25</ele>
        <time>2014-10-20T14:26:19.1Z</time>
      </trkpt>
      <trkpt lat="48.64463" lon="-2.47286">
        <ele>26</ele>
        <time>2014-10-20T14:26:22.1Z</time>
      </trkpt>
      <trkpt lat="48.64463" lon="-2.47285">
        <ele>26</ele>
        <time>2014-10-20T14:26:25.1Z</time>
      </trkpt>
      <trkpt lat="48.64462" lon="-2.47284">
        <ele>27</ele>
        <time>2014-10-20T14:26:27.1Z</time>
      </trkpt>
      <trkpt lat="48.64462" lon="-2.47283">
        <ele>27</ele>
        <time>2014-10-20T14:26:30.1Z</time>
      </trkpt>
      <trkpt lat="48.64462" lon="-2.47281">
        <ele>27</ele>
        <time>2014-10-20T14:26:32.1Z</time>
      </trkpt>
      <trkpt lat="48.64462" lon="-2.4728">
        <ele>27</ele>
        <time>2014-10-20T14:26:35.1Z</time>
      </trkpt>
      <trkpt lat="48.64461" lon="-2.47278">
        <ele>28</ele>
        <time>2014-10-20T14:26:38.1Z</time>
      </trkpt>
      <trkpt lat="48.64461" lon="-2.47278">
        <ele>28</ele>
        <time>2014-10-20T14:26:40.1Z</time>
      </trkpt>
      <trkpt lat="48.64461" lon="-2.47278">
        <ele>27</ele>
        <time>2014-10-20T14:26:43.1Z</time>
      </trkpt>
      <trkpt lat="48.64461" lon="-2.47276">
        <ele>27</ele>
        <time>2014-10-20T14:26:46.1Z</time>
      </trkpt>
      <trkpt lat="48.64461" lon="-2.47274">
        <ele>28</ele>
        <time>2014-10-20T14:26:49.1Z</time>
      </trkpt>
      <trkpt lat="48.6446" lon="-2.47273">
        <ele>29</ele>
        <time>2014-10-20T14:26:52.1Z</time>
      </trkpt>
      <trkpt lat="48.6446" lon="-2.47271">
        <ele>29</ele>
        <time>2014-10-20T14:26:54.1Z</time>
      </trkpt>
      <trkpt lat="48.6446" lon="-2.47269">
        <ele>30</ele>
        <time>2014-10-20T14:26:57.1Z</time>
      </trkpt>
      <trkpt lat="48.64459" lon="-2.47268">
        <ele>30</ele>
        <time>2014-10-20T14:27:00.1Z</time>
      </trkpt>
      <trkpt lat="48.64459" lon="-2.47265">
        <ele>30</ele>
        <time>2014-10-20T14:27:02.1Z</time>
      </trkpt>
      <trkpt lat="48.64458" lon="-2.47262">
        <ele>31</ele>
        <time>2014-10-20T14:27:05.1Z</time>
      </trkpt>
      <trkpt lat="48.64458" lon="-2.4726">
        <ele>31</ele>
        <time>2014-10-20T14:27:07.1Z</time>
      </trkpt>
      <trkpt lat="48.64457" lon="-2.47258">
        <ele>32</ele>
        <time>2014-10-20T14:27:10.1Z</time>
      </trkpt>
      <trkpt lat="48.64457" lon="-2.47256">
        <ele>32</ele>
        <time>2014-10-20T14:27:13.1Z</time>
      </trkpt>
      <trkpt lat="48.64456" lon="-2.47255">
        <ele>33</ele>
        <time>2014-10-20T14:27:16.1Z</time>
      </trkpt>
      <trkpt lat="48.64456" lon="-2.47254">
        <ele>33</ele>
        <time>2014-10-20T14:27:18.1Z</time>
      </trkpt>
      <trkpt lat="48.64455" lon="-2.47253">
        <ele>33</ele>
        <time>2014-10-20T14:27:21.1Z</time>
      </trkpt>
      <trkpt lat="48.64455" lon="-2.47252">
        <ele>33</ele>
        <time>2014-10-20T14:27:24.1Z</time>
      </trkpt>
      <trkpt lat="48.64454" lon="-2.47252">
        <ele>33</ele>
        <time>2014-10-20T14:27:26.1Z</time>
      </trkpt>
      <trkpt lat="48.64453" lon="-2.47251">
        <ele>33</ele>
        <time>2014-10-20T14:27:30.1Z</time>
      </trkpt>
      <trkpt lat="48.64452" lon="-2.47252">
        <ele>33</ele>
        <time>2014-10-20T14:27:32.1Z</time>
      </trkpt>
      <trkpt lat="48.64451" lon="-2.47253">
        <ele>33</ele>
        <time>2014-10-20T14:27:35.1Z</time>
      </trkpt>
      <trkpt lat="48.6445" lon="-2.47251">
        <ele>34</ele>
        <time>2014-10-20T14:27:38.1Z</time>
      </trkpt>
      <trkpt lat="48.64449" lon="-2.4725">
        <ele>34</ele>
        <time>2014-10-20T14:27:40.1Z</time>
      </trkpt>
      <trkpt lat="48.64448" lon="-2.47247">
        <ele>35</ele>
        <time>2014-10-20T14:27:43.1Z</time>
      </trkpt>
      <trkpt lat="48.64447" lon="-2.47245">
        <ele>35</ele>
        <time>2014-10-20T14:27:46.1Z</time>
      </trkpt>
      <trkpt lat="48.64447" lon="-2.47245">
        <ele>35</ele>
        <time>2014-10-20T14:27:48.1Z</time>
      </trkpt>
      <trkpt lat="48.64447" lon="-2.47245">
        <ele>35</ele>
        <time>2014-10-20T14:27:51.1Z</time>
      </trkpt>
      <trkpt lat="48.64447" lon="-2.47247">
        <ele>35</ele>
        <time>2014-10-20T14:27:54.1Z</time>
      </trkpt>
      <trkpt lat="48.64447" lon="-2.47251">
        <ele>35</ele>
        <time>2014-10-20T14:27:57.1Z</time>
      </trkpt>
      <trkpt lat="48.64447" lon="-2.47253">
        <ele>35</ele>
        <time>2014-10-20T14:28:00.1Z</time>
      </trkpt>
      <trkpt lat="48.64449" lon="-2.47254">
        <ele>34</ele>
        <time>2014-10-20T14:28:02.1Z</time>
      </trkpt>
      <trkpt lat="48.6445" lon="-2.47254">
        <ele>34</ele>
        <time>2014-10-20T14:28:05.1Z</time>
      </trkpt>
      <trkpt lat="48.6445" lon="-2.47253">
        <ele>34</ele>
        <time>2014-10-20T14:28:07.1Z</time>
      </trkpt>
      <trkpt lat="48.64451" lon="-2.47252">
        <ele>34</ele>
        <time>2014-10-20T14:28:10.1Z</time>
      </trkpt>
      <trkpt lat="48.64452" lon="-2.47251">
        <ele>34</ele>
        <time>2014-10-20T14:28:13.1Z</time>
      </trkpt>
      <trkpt lat="48.64452" lon="-2.47252">
        <ele>34</ele>
        <time>2014-10-20T14:28:16.1Z</time>
      </trkpt>
      <trkpt lat="48.64451" lon="-2.47251">
        <ele>34</ele>
        <time>2014-10-20T14:28:19.1Z</time>
      </trkpt>
      <trkpt lat="48.64452" lon="-2.47251">
        <ele>34</ele>
        <time>2014-10-20T14:28:23.1Z</time>
      </trkpt>
      <trkpt lat="48.64452" lon="-2.47251">
        <ele>34</ele>
        <time>2014-10-20T14:28:25.1Z</time>
      </trkpt>
      <trkpt lat="48.64452" lon="-2.47251">
        <ele>34</ele>
        <time>2014-10-20T14:28:28.1Z</time>
      </trkpt>
      <trkpt lat="48.64452" lon="-2.47252">
        <ele>34</ele>
        <time>2014-10-20T14:28:30.1Z</time>
      </trkpt>
      <trkpt lat="48.64452" lon="-2.47252">
        <ele>34</ele>
        <time>2014-10-20T14:28:33.1Z</time>
      </trkpt>
      <trkpt lat="48.64452" lon="-2.47253">
        <ele>33</ele>
        <time>2014-10-20T14:28:35.1Z</time>
      </trkpt>
      <trkpt lat="48.64452" lon="-2.47252">
        <ele>33</ele>
        <time>2014-10-20T14:28:38.1Z</time>
      </trkpt>
      <trkpt lat="48.64453" lon="-2.47252">
        <ele>34</ele>
        <time>2014-10-20T14:28:41.1Z</time>
      </trkpt>
      <trkpt lat="48.64453" lon="-2.47252">
        <ele>34</ele>
        <time>2014-10-20T14:28:46.1Z</time>
      </trkpt>
      <trkpt lat="48.64453" lon="-2.47252">
        <ele>33</ele>
        <time>2014-10-20T14:28:48.1Z</time>
      </trkpt>
      <trkpt lat="48.64452" lon="-2.47253">
        <ele>34</ele>
        <time>2014-10-20T14:28:51.1Z</time>
      </trkpt>
      <trkpt lat="48.64453" lon="-2.47253">
        <ele>34</ele>
        <time>2014-10-20T14:28:53.1Z</time>
      </trkpt>
      <trkpt lat="48.64453" lon="-2.47253">
        <ele>34</ele>
        <time>2014-10-20T14:28:55.1Z</time>
      </trkpt>
      <trkpt lat="48.64453" lon="-2.47253">
        <ele>34</ele>
        <time>2014-10-20T14:28:59.1Z</time>
      </trkpt>
      <trkpt lat="48.64453" lon="-2.47253">
        <ele>34</ele>
        <time>2014-10-20T14:29:02.1Z</time>
      </trkpt>
      <trkpt lat="48.64452" lon="-2.47252">
        <ele>34</ele>
        <time>2014-10-20T14:29:04.1Z</time>
      </trkpt>
      <trkpt lat="48.64452" lon="-2.47252">
        <ele>34</ele>
        <time>2014-10-20T14:29:06.1Z</time>
      </trkpt>
      <trkpt lat="48.64452" lon="-2.47251">
        <ele>35</ele>
        <time>2014-10-20T14:29:09.1Z</time>
      </trkpt>
      <trkpt lat="48.64452" lon="-2.47251">
        <ele>35</ele>
        <time>2014-10-20T14:29:11.1Z</time>
      </trkpt>
      <trkpt lat="48.64452" lon="-2.47252">
        <ele>35</ele>
        <time>2014-10-20T14:29:13.1Z</time>
      </trkpt>
      <trkpt lat="48.64452" lon="-2.47252">
        <ele>35</ele>
        <time>2014-10-20T14:29:16.1Z</time>
      </trkpt>
      <trkpt lat="48.64452" lon="-2.47252">
        <ele>34</ele>
        <time>2014-10-20T14:29:18.1Z</time>
      </trkpt>
      <trkpt lat="48.64452" lon="-2.47252">
        <ele>34</ele>
        <time>2014-10-20T14:29:20.1Z</time>
      </trkpt>
      <trkpt lat="48.64453" lon="-2.47252">
        <ele>34</ele>
        <time>2014-10-20T14:29:23.1Z</time>
      </trkpt>
      <trkpt lat="48.64453" lon="-2.47252">
        <ele>34</ele>
        <time>2014-10-20T14:29:25.1Z</time>
      </trkpt>
      <trkpt lat="48.64453" lon="-2.47252">
        <ele>34</ele>
        <time>2014-10-20T14:29:28.1Z</time>
      </trkpt>
      <trkpt lat="48.64452" lon="-2.47252">
        <ele>34</ele>
        <time>2014-10-20T14:29:31.1Z</time>
      </trkpt>
      <trkpt lat="48.64452" lon="-2.47253">
        <ele>34</ele>
        <time>2014-10-20T14:29:34.1Z</time>
      </trkpt>
      <trkpt lat="48.64452" lon="-2.47253">
        <ele>33</ele>
        <time>2014-10-20T14:29:37.1Z</time>
      </trkpt>
      <trkpt lat="48.64452" lon="-2.47252">
        <ele>34</ele>
        <time>2014-10-20T14:29:39.1Z</time>
      </trkpt>
      <trkpt lat="48.64452" lon="-2.47252">
        <ele>33</ele>
        <time>2014-10-20T14:29:43.1Z</time>
      </trkpt>
      <trkpt lat="48.64453" lon="-2.47252">
        <ele>33</ele>
        <time>2014-10-20T14:29:45.1Z</time>
      </trkpt>
      <trkpt lat="48.64453" lon="-2.47252">
        <ele>33</ele>
        <time>2014-10-20T14:29:48.1Z</time>
      </trkpt>
      <trkpt lat="48.64453" lon="-2.47252">
        <ele>33</ele>
        <time>2014-10-20T14:29:52.1Z</time>
      </trkpt>
      <trkpt lat="48.64453" lon="-2.47253">
        <ele>33</ele>
        <time>2014-10-20T14:29:55.1Z</time>
      </trkpt>
      <trkpt lat="48.64454" lon="-2.47253">
        <ele>33</ele>
        <time>2014-10-20T14:29:58.1Z</time>
      </trkpt>
      <trkpt lat="48.64455" lon="-2.47253">
        <ele>33</ele>
        <time>2014-10-20T14:30:01.1Z</time>
      </trkpt>
      <trkpt lat="48.64455" lon="-2.47253">
        <ele>33</ele>
        <time>2014-10-20T14:30:04.1Z</time>
      </trkpt>
      <trkpt lat="48.64455" lon="-2.47253">
        <ele>34</ele>
        <time>2014-10-20T14:30:06.1Z</time>
      </trkpt>
      <trkpt lat="48.64456" lon="-2.47252">
        <ele>34</ele>
        <time>2014-10-20T14:30:09.1Z</time>
      </trkpt>
      <trkpt lat="48.64456" lon="-2.47252">
        <ele>34</ele>
        <time>2014-10-20T14:30:12.1Z</time>
      </trkpt>
      <trkpt lat="48.64456" lon="-2.47252">
        <ele>33</ele>
        <time>2014-10-20T14:30:14.1Z</time>
      </trkpt>
      <trkpt lat="48.64455" lon="-2.47251">
        <ele>33</ele>
        <time>2014-10-20T14:30:17.1Z</time>
      </trkpt>
      <trkpt lat="48.64455" lon="-2.47251">
        <ele>33</ele>
        <time>2014-10-20T14:30:20.1Z</time>
      </trkpt>
      <trkpt lat="48.64455" lon="-2.4725">
        <ele>33</ele>
        <time>2014-10-20T14:30:23.1Z</time>
      </trkpt>
      <trkpt lat="48.64455" lon="-2.4725">
        <ele>33</ele>
        <time>2014-10-20T14:30:25.1Z</time>
      </trkpt>
      <trkpt lat="48.64455" lon="-2.4725">
        <ele>33</ele>
        <time>2014-10-20T14:30:28.1Z</time>
      </trkpt>
      <trkpt lat="48.64455" lon="-2.4725">
        <ele>34</ele>
        <time>2014-10-20T14:30:30.1Z</time>
      </trkpt>
      <trkpt lat="48.64455" lon="-2.47249">
        <ele>33</ele>
        <time>2014-10-20T14:30:33.1Z</time>
      </trkpt>
      <trkpt lat="48.64455" lon="-2.47249">
        <ele>33</ele>
        <time>2014-10-20T14:30:36.1Z</time>
      </trkpt>
      <trkpt lat="48.64455" lon="-2.47249">
        <ele>33</ele>
        <time>2014-10-20T14:30:38.1Z</time>
      </trkpt>
      <trkpt lat="48.64456" lon="-2.47248">
        <ele>33</ele>
        <time>2014-10-20T14:30:42.1Z</time>
      </trkpt>
      <trkpt lat="48.64455" lon="-2.47247">
        <ele>33</ele>
        <time>2014-10-20T14:30:44.1Z</time>
      </trkpt>
      <trkpt lat="48.64455" lon="-2.47246">
        <ele>33</ele>
        <time>2014-10-20T14:30:47.1Z</time>
      </trkpt>
      <trkpt lat="48.64455" lon="-2.47247">
        <ele>33</ele>
        <time>2014-10-20T14:30:50.1Z</time>
      </trkpt>
      <trkpt lat="48.64455" lon="-2.47246">
        <ele>34</ele>
        <time>2014-10-20T14:30:57.1Z</time>
      </trkpt>
      <trkpt lat="48.64455" lon="-2.47248">
        <ele>34</ele>
        <time>2014-10-20T14:30:59.1Z</time>
      </trkpt>
      <trkpt lat="48.64454" lon="-2.47249">
        <ele>34</ele>
        <time>2014-10-20T14:31:01.1Z</time>
      </trkpt>
      <trkpt lat="48.64454" lon="-2.47251">
        <ele>34</ele>
        <time>2014-10-20T14:31:04.1Z</time>
      </trkpt>
      <trkpt lat="48.64454" lon="-2.47251">
        <ele>34</ele>
        <time>2014-10-20T14:31:06.1Z</time>
      </trkpt>
      <trkpt lat="48.64453" lon="-2.47252">
        <ele>34</ele>
        <time>2014-10-20T14:31:09.1Z</time>
      </trkpt>
      <trkpt lat="48.64454" lon="-2.47252">
        <ele>34</ele>
        <time>2014-10-20T14:31:12.1Z</time>
      </trkpt>
      <trkpt lat="48.64454" lon="-2.47252">
        <ele>34</ele>
        <time>2014-10-20T14:31:14.1Z</time>
      </trkpt>
      <trkpt lat="48.64454" lon="-2.47252">
        <ele>34</ele>
        <time>2014-10-20T14:31:17.1Z</time>
      </trkpt>
      <trkpt lat="48.64454" lon="-2.47252">
        <ele>33</ele>
        <time>2014-10-20T14:31:20.1Z</time>
      </trkpt>
      <trkpt lat="48.64455" lon="-2.47252">
        <ele>34</ele>
        <time>2014-10-20T14:31:23.1Z</time>
      </trkpt>
      <trkpt lat="48.64454" lon="-2.47254">
        <ele>34</ele>
        <time>2014-10-20T14:31:26.1Z</time>
      </trkpt>
      <trkpt lat="48.64454" lon="-2.47254">
        <ele>34</ele>
        <time>2014-10-20T14:31:29.1Z</time>
      </trkpt>
      <trkpt lat="48.64454" lon="-2.47255">
        <ele>34</ele>
        <time>2014-10-20T14:31:31.1Z</time>
      </trkpt>
      <trkpt lat="48.64454" lon="-2.47255">
        <ele>33</ele>
        <time>2014-10-20T14:31:33.1Z</time>
      </trkpt>
      <trkpt lat="48.64454" lon="-2.47255">
        <ele>33</ele>
        <time>2014-10-20T14:31:36.1Z</time>
      </trkpt>
      <trkpt lat="48.64455" lon="-2.47254">
        <ele>33</ele>
        <time>2014-10-20T14:31:39.1Z</time>
      </trkpt>
      <trkpt lat="48.64455" lon="-2.47254">
        <ele>33</ele>
        <time>2014-10-20T14:31:41.1Z</time>
      </trkpt>
      <trkpt lat="48.64455" lon="-2.47254">
        <ele>33</ele>
        <time>2014-10-20T14:31:44.1Z</time>
      </trkpt>
      <trkpt lat="48.64455" lon="-2.47254">
        <ele>33</ele>
        <time>2014-10-20T14:31:46.1Z</time>
      </trkpt>
      <trkpt lat="48.64455" lon="-2.47254">
        <ele>33</ele>
        <time>2014-10-20T14:31:49.1Z</time>
      </trkpt>
      <trkpt lat="48.64455" lon="-2.47253">
        <ele>33</ele>
        <time>2014-10-20T14:31:52.1Z</time>
      </trkpt>
      <trkpt lat="48.64455" lon="-2.47252">
        <ele>33</ele>
        <time>2014-10-20T14:31:54.1Z</time>
      </trkpt>
      <trkpt lat="48.64455" lon="-2.47251">
        <ele>33</ele>
        <time>2014-10-20T14:31:57.1Z</time>
      </trkpt>
      <trkpt lat="48.64455" lon="-2.4725">
        <ele>33</ele>
        <time>2014-10-20T14:32:00.1Z</time>
      </trkpt>
      <trkpt lat="48.64455" lon="-2.4725">
        <ele>33</ele>
        <time>2014-10-20T14:32:02.1Z</time>
      </trkpt>
      <trkpt lat="48.64455" lon="-2.4725">
        <ele>33</ele>
        <time>2014-10-20T14:32:05.1Z</time>
      </trkpt>
      <trkpt lat="48.64455" lon="-2.4725">
        <ele>33</ele>
        <time>2014-10-20T14:32:08.1Z</time>
      </trkpt>
      <trkpt lat="48.64455" lon="-2.4725">
        <ele>33</ele>
        <time>2014-10-20T14:32:10.1Z</time>
      </trkpt>
      <trkpt lat="48.64455" lon="-2.4725">
        <ele>33</ele>
        <time>2014-10-20T14:32:13.1Z</time>
      </trkpt>
      <trkpt lat="48.64455" lon="-2.47248">
        <ele>34</ele>
        <time>2014-10-20T14:32:15.1Z</time>
      </trkpt>
      <trkpt lat="48.64455" lon="-2.47245">
        <ele>34</ele>
        <time>2014-10-20T14:32:18.1Z</time>
      </trkpt>
      <trkpt lat="48.64454" lon="-2.47242">
        <ele>34</ele>
        <time>2014-10-20T14:32:21.1Z</time>
      </trkpt>
      <trkpt lat="48.64455" lon="-2.47241">
        <ele>35</ele>
        <time>2014-10-20T14:32:23.1Z</time>
      </trkpt>
      <trkpt lat="48.64455" lon="-2.4724">
        <ele>35</ele>
        <time>2014-10-20T14:32:26.1Z</time>
      </trkpt>
      <trkpt lat="48.64455" lon="-2.4724">
        <ele>35</ele>
        <time>2014-10-20T14:32:29.1Z</time>
      </trkpt>
      <trkpt lat="48.64455" lon="-2.47242">
        <ele>35</ele>
        <time>2014-10-20T14:32:31.1Z</time>
      </trkpt>
      <trkpt lat="48.64456" lon="-2.47244">
        <ele>35</ele>
        <time>2014-10-20T14:32:36.1Z</time>
      </trkpt>
      <trkpt lat="48.64457" lon="-2.47243">
        <ele>34</ele>
        <time>2014-10-20T14:32:39.1Z</time>
      </trkpt>
      <trkpt lat="48.64457" lon="-2.47242">
        <ele>34</ele>
        <time>2014-10-20T14:32:41.1Z</time>
      </trkpt>
      <trkpt lat="48.64458" lon="-2.47239">
        <ele>34</ele>
        <time>2014-10-20T14:32:43.1Z</time>
      </trkpt>
      <trkpt lat="48.64459" lon="-2.47237">
        <ele>34</ele>
        <time>2014-10-20T14:32:46.1Z</time>
      </trkpt>
      <trkpt lat="48.6446" lon="-2.47235">
        <ele>34</ele>
        <time>2014-10-20T14:32:48.1Z</time>
      </trkpt>
      <trkpt lat="48.64462" lon="-2.47231">
        <ele>34</ele>
        <time>2014-10-20T14:32:51.1Z</time>
      </trkpt>
      <trkpt lat="48.64462" lon="-2.47229">
        <ele>34</ele>
        <time>2014-10-20T14:32:53.1Z</time>
      </trkpt>
      <trkpt lat="48.64463" lon="-2.47227">
        <ele>34</ele>
        <time>2014-10-20T14:32:55.1Z</time>
      </trkpt>
      <trkpt lat="48.64464" lon="-2.47225">
        <ele>34</ele>
        <time>2014-10-20T14:32:57.1Z</time>
      </trkpt>
      <trkpt lat="48.64465" lon="-2.47224">
        <ele>34</ele>
        <time>2014-10-20T14:32:59.1Z</time>
      </trkpt>
      <trkpt lat="48.64467" lon="-2.47221">
        <ele>34</ele>
        <time>2014-10-20T14:33:02.1Z</time>
      </trkpt>
      <trkpt lat="48.64468" lon="-2.47219">
        <ele>34</ele>
        <time>2014-10-20T14:33:04.1Z</time>
      </trkpt>
      <trkpt lat="48.6447" lon="-2.47217">
        <ele>35</ele>
        <time>2014-10-20T14:33:07.1Z</time>
      </trkpt>
      <trkpt lat="48.64471" lon="-2.47215">
        <ele>35</ele>
        <time>2014-10-20T14:33:09.1Z</time>
      </trkpt>
      <trkpt lat="48.64473" lon="-2.47213">
        <ele>35</ele>
        <time>2014-10-20T14:33:11.1Z</time>
      </trkpt>
      <trkpt lat="48.64475" lon="-2.4721">
        <ele>35</ele>
        <time>2014-10-20T14:33:14.1Z</time>
      </trkpt>
      <trkpt lat="48.64476" lon="-2.47208">
        <ele>35</ele>
        <time>2014-10-20T14:33:16.1Z</time>
      </trkpt>
      <trkpt lat="48.64478" lon="-2.47205">
        <ele>35</ele>
        <time>2014-10-20T14:33:19.1Z</time>
      </trkpt>
      <trkpt lat="48.6448" lon="-2.47203">
        <ele>35</ele>
        <time>2014-10-20T14:33:21.1Z</time>
      </trkpt>
      <trkpt lat="48.64482" lon="-2.472">
        <ele>35</ele>
        <time>2014-10-20T14:33:24.1Z</time>
      </trkpt>
      <trkpt lat="48.64484" lon="-2.47197">
        <ele>36</ele>
        <time>2014-10-20T14:33:27.1Z</time>
      </trkpt>
      <trkpt lat="48.64486" lon="-2.47193">
        <ele>35</ele>
        <time>2014-10-20T14:33:30.1Z</time>
      </trkpt>
      <trkpt lat="48.64488" lon="-2.4719">
        <ele>35</ele>
        <time>2014-10-20T14:33:33.1Z</time>
      </trkpt>
      <trkpt lat="48.6449" lon="-2.47188">
        <ele>35</ele>
        <time>2014-10-20T14:33:35.1Z</time>
      </trkpt>
      <trkpt lat="48.64492" lon="-2.47185">
        <ele>35</ele>
        <time>2014-10-20T14:33:37.1Z</time>
      </trkpt>
      <trkpt lat="48.64493" lon="-2.47183">
        <ele>35</ele>
        <time>2014-10-20T14:33:39.1Z</time>
      </trkpt>
      <trkpt lat="48.64496" lon="-2.4718">
        <ele>35</ele>
        <time>2014-10-20T14:33:42.1Z</time>
      </trkpt>
      <trkpt lat="48.64498" lon="-2.47179">
        <ele>35</ele>
        <time>2014-10-20T14:33:44.1Z</time>
      </trkpt>
      <trkpt lat="48.645" lon="-2.47177">
        <ele>35</ele>
        <time>2014-10-20T14:33:46.1Z</time>
      </trkpt>
      <trkpt lat="48.64502" lon="-2.47176">
        <ele>35</ele>
        <time>2014-10-20T14:33:49.1Z</time>
      </trkpt>
      <trkpt lat="48.64505" lon="-2.47175">
        <ele>35</ele>
        <time>2014-10-20T14:33:51.1Z</time>
      </trkpt>
      <trkpt lat="48.64507" lon="-2.47176">
        <ele>35</ele>
        <time>2014-10-20T14:33:53.1Z</time>
      </trkpt>
      <trkpt lat="48.64509" lon="-2.47176">
        <ele>35</ele>
        <time>2014-10-20T14:33:56.1Z</time>
      </trkpt>
      <trkpt lat="48.64511" lon="-2.47177">
        <ele>35</ele>
        <time>2014-10-20T14:33:58.1Z</time>
      </trkpt>
      <trkpt lat="48.64513" lon="-2.47178">
        <ele>35</ele>
        <time>2014-10-20T14:34:00.1Z</time>
      </trkpt>
      <trkpt lat="48.64516" lon="-2.47179">
        <ele>35</ele>
        <time>2014-10-20T14:34:03.1Z</time>
      </trkpt>
      <trkpt lat="48.64518" lon="-2.4718">
        <ele>35</ele>
        <time>2014-10-20T14:34:05.1Z</time>
      </trkpt>
      <trkpt lat="48.64521" lon="-2.47181">
        <ele>35</ele>
        <time>2014-10-20T14:34:07.1Z</time>
      </trkpt>
      <trkpt lat="48.64523" lon="-2.47182">
        <ele>35</ele>
        <time>2014-10-20T14:34:10.1Z</time>
      </trkpt>
      <trkpt lat="48.64525" lon="-2.47183">
        <ele>34</ele>
        <time>2014-10-20T14:34:12.1Z</time>
      </trkpt>
      <trkpt lat="48.64528" lon="-2.47185">
        <ele>34</ele>
        <time>2014-10-20T14:34:15.1Z</time>
      </trkpt>
      <trkpt lat="48.64532" lon="-2.47186">
        <ele>34</ele>
        <time>2014-10-20T14:34:18.1Z</time>
      </trkpt>
      <trkpt lat="48.64535" lon="-2.47188">
        <ele>34</ele>
        <time>2014-10-20T14:34:21.1Z</time>
      </trkpt>
      <trkpt lat="48.64537" lon="-2.4719">
        <ele>34</ele>
        <time>2014-10-20T14:34:23.1Z</time>
      </trkpt>
      <trkpt lat="48.64541" lon="-2.4719">
        <ele>34</ele>
        <time>2014-10-20T14:34:26.1Z</time>
      </trkpt>
      <trkpt lat="48.64543" lon="-2.47189">
        <ele>34</ele>
        <time>2014-10-20T14:34:28.1Z</time>
      </trkpt>
      <trkpt lat="48.64545" lon="-2.47188">
        <ele>34</ele>
        <time>2014-10-20T14:34:30.1Z</time>
      </trkpt>
      <trkpt lat="48.64546" lon="-2.47186">
        <ele>34</ele>
        <time>2014-10-20T14:34:32.1Z</time>
      </trkpt>
      <trkpt lat="48.64549" lon="-2.47181">
        <ele>34</ele>
        <time>2014-10-20T14:34:35.1Z</time>
      </trkpt>
      <trkpt lat="48.6455" lon="-2.47179">
        <ele>34</ele>
        <time>2014-10-20T14:34:37.1Z</time>
      </trkpt>
      <trkpt lat="48.64551" lon="-2.47175">
        <ele>34</ele>
        <time>2014-10-20T14:34:40.1Z</time>
      </trkpt>
      <trkpt lat="48.64553" lon="-2.47173">
        <ele>34</ele>
        <time>2014-10-20T14:34:42.1Z</time>
      </trkpt>
      <trkpt lat="48.64555" lon="-2.4717">
        <ele>34</ele>
        <time>2014-10-20T14:34:45.1Z</time>
      </trkpt>
      <trkpt lat="48.64558" lon="-2.47168">
        <ele>34</ele>
        <time>2014-10-20T14:34:48.1Z</time>
      </trkpt>
      <trkpt lat="48.6456" lon="-2.47165">
        <ele>34</ele>
        <time>2014-10-20T14:34:51.1Z</time>
      </trkpt>
      <trkpt lat="48.64562" lon="-2.47162">
        <ele>33</ele>
        <time>2014-10-20T14:34:54.1Z</time>
      </trkpt>
      <trkpt lat="48.64563" lon="-2.47159">
        <ele>33</ele>
        <time>2014-10-20T14:34:56.1Z</time>
      </trkpt>
      <trkpt lat="48.64565" lon="-2.47156">
        <ele>34</ele>
        <time>2014-10-20T14:34:59.1Z</time>
      </trkpt>
      <trkpt lat="48.64567" lon="-2.47152">
        <ele>33</ele>
        <time>2014-10-20T14:35:02.1Z</time>
      </trkpt>
      <trkpt lat="48.64568" lon="-2.4715">
        <ele>33</ele>
        <time>2014-10-20T14:35:04.1Z</time>
      </trkpt>
      <trkpt lat="48.64568" lon="-2.47147">
        <ele>33</ele>
        <time>2014-10-20T14:35:06.1Z</time>
      </trkpt>
      <trkpt lat="48.64569" lon="-2.47142">
        <ele>33</ele>
        <time>2014-10-20T14:35:09.1Z</time>
      </trkpt>
      <trkpt lat="48.64571" lon="-2.47139">
        <ele>33</ele>
        <time>2014-10-20T14:35:12.1Z</time>
      </trkpt>
      <trkpt lat="48.64572" lon="-2.47137">
        <ele>33</ele>
        <time>2014-10-20T14:35:14.1Z</time>
      </trkpt>
      <trkpt lat="48.64574" lon="-2.47135">
        <ele>33</ele>
        <time>2014-10-20T14:35:16.1Z</time>
      </trkpt>
      <trkpt lat="48.64576" lon="-2.47131">
        <ele>33</ele>
        <time>2014-10-20T14:35:19.1Z</time>
      </trkpt>
      <trkpt lat="48.64578" lon="-2.47127">
        <ele>33</ele>
        <time>2014-10-20T14:35:22.1Z</time>
      </trkpt>
      <trkpt lat="48.64579" lon="-2.47124">
        <ele>33</ele>
        <time>2014-10-20T14:35:24.1Z</time>
      </trkpt>
      <trkpt lat="48.64582" lon="-2.4712">
        <ele>33</ele>
        <time>2014-10-20T14:35:27.1Z</time>
      </trkpt>
      <trkpt lat="48.64583" lon="-2.47117">
        <ele>33</ele>
        <time>2014-10-20T14:35:29.1Z</time>
      </trkpt>
      <trkpt lat="48.64584" lon="-2.47115">
        <ele>33</ele>
        <time>2014-10-20T14:35:31.1Z</time>
      </trkpt>
      <trkpt lat="48.64587" lon="-2.47111">
        <ele>34</ele>
        <time>2014-10-20T14:35:34.1Z</time>
      </trkpt>
      <trkpt lat="48.64589" lon="-2.47108">
        <ele>34</ele>
        <time>2014-10-20T14:35:37.1Z</time>
      </trkpt>
      <trkpt lat="48.64591" lon="-2.47104">
        <ele>34</ele>
        <time>2014-10-20T14:35:40.1Z</time>
      </trkpt>
      <trkpt lat="48.64592" lon="-2.47101">
        <ele>34</ele>
        <time>2014-10-20T14:35:42.1Z</time>
      </trkpt>
      <trkpt lat="48.64594" lon="-2.47098">
        <ele>34</ele>
        <time>2014-10-20T14:35:45.1Z</time>
      </trkpt>
      <trkpt lat="48.64597" lon="-2.47094">
        <ele>34</ele>
        <time>2014-10-20T14:35:48.1Z</time>
      </trkpt>
      <trkpt lat="48.64599" lon="-2.4709">
        <ele>34</ele>
        <time>2014-10-20T14:35:51.1Z</time>
      </trkpt>
      <trkpt lat="48.646" lon="-2.47086">
        <ele>34</ele>
        <time>2014-10-20T14:35:54.1Z</time>
      </trkpt>
      <trkpt lat="48.64602" lon="-2.47082">
        <ele>34</ele>
        <time>2014-10-20T14:35:57.1Z</time>
      </trkpt>
      <trkpt lat="48.64603" lon="-2.47079">
        <ele>34</ele>
        <time>2014-10-20T14:35:59.1Z</time>
      </trkpt>
      <trkpt lat="48.64605" lon="-2.47076">
        <ele>34</ele>
        <time>2014-10-20T14:36:02.1Z</time>
      </trkpt>
      <trkpt lat="48.64608" lon="-2.47074">
        <ele>34</ele>
        <time>2014-10-20T14:36:04.1Z</time>
      </trkpt>
      <trkpt lat="48.64609" lon="-2.47071">
        <ele>34</ele>
        <time>2014-10-20T14:36:06.1Z</time>
      </trkpt>
      <trkpt lat="48.64612" lon="-2.47069">
        <ele>34</ele>
        <time>2014-10-20T14:36:09.1Z</time>
      </trkpt>
      <trkpt lat="48.64614" lon="-2.47065">
        <ele>34</ele>
        <time>2014-10-20T14:36:12.1Z</time>
      </trkpt>
      <trkpt lat="48.64615" lon="-2.47063">
        <ele>34</ele>
        <time>2014-10-20T14:36:14.1Z</time>
      </trkpt>
      <trkpt lat="48.64618" lon="-2.47059">
        <ele>34</ele>
        <time>2014-10-20T14:36:17.1Z</time>
      </trkpt>
      <trkpt lat="48.6462" lon="-2.47056">
        <ele>34</ele>
        <time>2014-10-20T14:36:19.1Z</time>
      </trkpt>
      <trkpt lat="48.64622" lon="-2.47055">
        <ele>35</ele>
        <time>2014-10-20T14:36:21.1Z</time>
      </trkpt>
      <trkpt lat="48.64625" lon="-2.47052">
        <ele>35</ele>
        <time>2014-10-20T14:36:24.1Z</time>
      </trkpt>
      <trkpt lat="48.64627" lon="-2.47049">
        <ele>35</ele>
        <time>2014-10-20T14:36:27.1Z</time>
      </trkpt>
      <trkpt lat="48.64629" lon="-2.47048">
        <ele>35</ele>
        <time>2014-10-20T14:36:29.1Z</time>
      </trkpt>
      <trkpt lat="48.64632" lon="-2.47046">
        <ele>35</ele>
        <time>2014-10-20T14:36:32.1Z</time>
      </trkpt>
      <trkpt lat="48.64635" lon="-2.47045">
        <ele>35</ele>
        <time>2014-10-20T14:36:35.1Z</time>
      </trkpt>
      <trkpt lat="48.64637" lon="-2.47044">
        <ele>35</ele>
        <time>2014-10-20T14:36:37.1Z</time>
      </trkpt>
      <trkpt lat="48.64641" lon="-2.47042">
        <ele>34</ele>
        <time>2014-10-20T14:36:40.1Z</time>
      </trkpt>
      <trkpt lat="48.64643" lon="-2.47041">
        <ele>34</ele>
        <time>2014-10-20T14:36:42.1Z</time>
      </trkpt>
      <trkpt lat="48.64645" lon="-2.4704">
        <ele>34</ele>
        <time>2014-10-20T14:36:44.1Z</time>
      </trkpt>
      <trkpt lat="48.64649" lon="-2.47038">
        <ele>34</ele>
        <time>2014-10-20T14:36:47.1Z</time>
      </trkpt>
      <trkpt lat="48.64652" lon="-2.47037">
        <ele>35</ele>
        <time>2014-10-20T14:36:50.1Z</time>
      </trkpt>
      <trkpt lat="48.64656" lon="-2.47036">
        <ele>34</ele>
        <time>2014-10-20T14:36:53.1Z</time>
      </trkpt>
      <trkpt lat="48.64659" lon="-2.47034">
        <ele>34</ele>
        <time>2014-10-20T14:36:56.1Z</time>
      </trkpt>
      <trkpt lat="48.64661" lon="-2.47033">
        <ele>34</ele>
        <time>2014-10-20T14:36:58.1Z</time>
      </trkpt>
      <trkpt lat="48.64663" lon="-2.47032">
        <ele>34</ele>
        <time>2014-10-20T14:37:00.1Z</time>
      </trkpt>
      <trkpt lat="48.64666" lon="-2.47031">
        <ele>34</ele>
        <time>2014-10-20T14:37:03.1Z</time>
      </trkpt>
      <trkpt lat="48.64669" lon="-2.4703">
        <ele>34</ele>
        <time>2014-10-20T14:37:06.1Z</time>
      </trkpt>
      <trkpt lat="48.64671" lon="-2.47029">
        <ele>34</ele>
        <time>2014-10-20T14:37:08.1Z</time>
      </trkpt>
      <trkpt lat="48.64673" lon="-2.47028">
        <ele>34</ele>
        <time>2014-10-20T14:37:10.1Z</time>
      </trkpt>
      <trkpt lat="48.64676" lon="-2.47027">
        <ele>34</ele>
        <time>2014-10-20T14:37:13.1Z</time>
      </trkpt>
      <trkpt lat="48.64678" lon="-2.47026">
        <ele>33</ele>
        <time>2014-10-20T14:37:15.1Z</time>
      </trkpt>
      <trkpt lat="48.6468" lon="-2.47025">
        <ele>33</ele>
        <time>2014-10-20T14:37:17.1Z</time>
      </trkpt>
      <trkpt lat="48.64682" lon="-2.47024">
        <ele>33</ele>
        <time>2014-10-20T14:37:19.1Z</time>
      </trkpt>
      <trkpt lat="48.64686" lon="-2.47022">
        <ele>33</ele>
        <time>2014-10-20T14:37:22.1Z</time>
      </trkpt>
      <trkpt lat="48.64688" lon="-2.4702">
        <ele>33</ele>
        <time>2014-10-20T14:37:24.1Z</time>
      </trkpt>
      <trkpt lat="48.64691" lon="-2.47018">
        <ele>33</ele>
        <time>2014-10-20T14:37:27.1Z</time>
      </trkpt>
      <trkpt lat="48.64693" lon="-2.47017">
        <ele>32</ele>
        <time>2014-10-20T14:37:29.1Z</time>
      </trkpt>
      <trkpt lat="48.64696" lon="-2.47015">
        <ele>32</ele>
        <time>2014-10-20T14:37:31.1Z</time>
      </trkpt>
      <trkpt lat="48.64698" lon="-2.47014">
        <ele>32</ele>
        <time>2014-10-20T14:37:33.1Z</time>
      </trkpt>
      <trkpt lat="48.647" lon="-2.47012">
        <ele>32</ele>
        <time>2014-10-20T14:37:35.1Z</time>
      </trkpt>
      <trkpt lat="48.64703" lon="-2.47009">
        <ele>32</ele>
        <time>2014-10-20T14:37:38.1Z</time>
      </trkpt>
      <trkpt lat="48.64706" lon="-2.47007">
        <ele>32</ele>
        <time>2014-10-20T14:37:41.1Z</time>
      </trkpt>
      <trkpt lat="48.64709" lon="-2.47005">
        <ele>32</ele>
        <time>2014-10-20T14:37:44.1Z</time>
      </trkpt>
      <trkpt lat="48.64711" lon="-2.47002">
        <ele>32</ele>
        <time>2014-10-20T14:37:47.1Z</time>
      </trkpt>
      <trkpt lat="48.64713" lon="-2.46999">
        <ele>32</ele>
        <time>2014-10-20T14:37:49.1Z</time>
      </trkpt>
      <trkpt lat="48.64716" lon="-2.46996">
        <ele>32</ele>
        <time>2014-10-20T14:37:52.1Z</time>
      </trkpt>
      <trkpt lat="48.64717" lon="-2.46994">
        <ele>32</ele>
        <time>2014-10-20T14:37:54.1Z</time>
      </trkpt>
      <trkpt lat="48.6472" lon="-2.46992">
        <ele>32</ele>
        <time>2014-10-20T14:37:57.1Z</time>
      </trkpt>
      <trkpt lat="48.64722" lon="-2.4699">
        <ele>32</ele>
        <time>2014-10-20T14:38:00.1Z</time>
      </trkpt>
      <trkpt lat="48.64722" lon="-2.46989">
        <ele>32</ele>
        <time>2014-10-20T14:38:03.1Z</time>
      </trkpt>
      <trkpt lat="48.64725" lon="-2.46989">
        <ele>32</ele>
        <time>2014-10-20T14:38:06.1Z</time>
      </trkpt>
      <trkpt lat="48.64727" lon="-2.46988">
        <ele>32</ele>
        <time>2014-10-20T14:38:09.1Z</time>
      </trkpt>
      <trkpt lat="48.6473" lon="-2.46987">
        <ele>33</ele>
        <time>2014-10-20T14:38:11.1Z</time>
      </trkpt>
      <trkpt lat="48.64732" lon="-2.46986">
        <ele>33</ele>
        <time>2014-10-20T14:38:13.1Z</time>
      </trkpt>
      <trkpt lat="48.64734" lon="-2.46984">
        <ele>33</ele>
        <time>2014-10-20T14:38:15.1Z</time>
      </trkpt>
      <trkpt lat="48.64735" lon="-2.46984">
        <ele>34</ele>
        <time>2014-10-20T14:38:17.1Z</time>
      </trkpt>
      <trkpt lat="48.64737" lon="-2.46983">
        <ele>34</ele>
        <time>2014-10-20T14:38:19.1Z</time>
      </trkpt>
      <trkpt lat="48.64739" lon="-2.46982">
        <ele>34</ele>
        <time>2014-10-20T14:38:22.1Z</time>
      </trkpt>
      <trkpt lat="48.64742" lon="-2.46982">
        <ele>34</ele>
        <time>2014-10-20T14:38:25.1Z</time>
      </trkpt>
      <trkpt lat="48.64744" lon="-2.46982">
        <ele>34</ele>
        <time>2014-10-20T14:38:27.1Z</time>
      </trkpt>
      <trkpt lat="48.64747" lon="-2.46981">
        <ele>34</ele>
        <time>2014-10-20T14:38:30.1Z</time>
      </trkpt>
      <trkpt lat="48.6475" lon="-2.4698">
        <ele>34</ele>
        <time>2014-10-20T14:38:33.1Z</time>
      </trkpt>
      <trkpt lat="48.64752" lon="-2.46979">
        <ele>34</ele>
        <time>2014-10-20T14:38:35.1Z</time>
      </trkpt>
      <trkpt lat="48.64754" lon="-2.46978">
        <ele>34</ele>
        <time>2014-10-20T14:38:37.1Z</time>
      </trkpt>
      <trkpt lat="48.64756" lon="-2.46977">
        <ele>34</ele>
        <time>2014-10-20T14:38:39.1Z</time>
      </trkpt>
      <trkpt lat="48.64759" lon="-2.46976">
        <ele>33</ele>
        <time>2014-10-20T14:38:42.1Z</time>
      </trkpt>
      <trkpt lat="48.64763" lon="-2.46977">
        <ele>33</ele>
        <time>2014-10-20T14:38:45.1Z</time>
      </trkpt>
      <trkpt lat="48.64766" lon="-2.46977">
        <ele>33</ele>
        <time>2014-10-20T14:38:47.1Z</time>
      </trkpt>
      <trkpt lat="48.64768" lon="-2.46976">
        <ele>33</ele>
        <time>2014-10-20T14:38:49.1Z</time>
      </trkpt>
      <trkpt lat="48.64772" lon="-2.46976">
        <ele>33</ele>
        <time>2014-10-20T14:38:52.1Z</time>
      </trkpt>
      <trkpt lat="48.64774" lon="-2.46975">
        <ele>33</ele>
        <time>2014-10-20T14:38:54.1Z</time>
      </trkpt>
      <trkpt lat="48.64776" lon="-2.46975">
        <ele>34</ele>
        <time>2014-10-20T14:38:56.1Z</time>
      </trkpt>
      <trkpt lat="48.64778" lon="-2.46974">
        <ele>34</ele>
        <time>2014-10-20T14:38:58.1Z</time>
      </trkpt>
      <trkpt lat="48.6478" lon="-2.46973">
        <ele>34</ele>
        <time>2014-10-20T14:39:00.1Z</time>
      </trkpt>
      <trkpt lat="48.64784" lon="-2.4697">
        <ele>34</ele>
        <time>2014-10-20T14:39:03.1Z</time>
      </trkpt>
      <trkpt lat="48.64787" lon="-2.46968">
        <ele>34</ele>
        <time>2014-10-20T14:39:06.1Z</time>
      </trkpt>
      <trkpt lat="48.6479" lon="-2.46967">
        <ele>35</ele>
        <time>2014-10-20T14:39:09.1Z</time>
      </trkpt>
      <trkpt lat="48.64792" lon="-2.46965">
        <ele>35</ele>
        <time>2014-10-20T14:39:11.1Z</time>
      </trkpt>
      <trkpt lat="48.64793" lon="-2.46961">
        <ele>35</ele>
        <time>2014-10-20T14:39:14.1Z</time>
      </trkpt>
      <trkpt lat="48.64794" lon="-2.46959">
        <ele>35</ele>
        <time>2014-10-20T14:39:16.1Z</time>
      </trkpt>
      <trkpt lat="48.64796" lon="-2.46955">
        <ele>35</ele>
        <time>2014-10-20T14:39:19.1Z</time>
      </trkpt>
      <trkpt lat="48.64798" lon="-2.46953">
        <ele>35</ele>
        <time>2014-10-20T14:39:21.1Z</time>
      </trkpt>
      <trkpt lat="48.64799" lon="-2.46951">
        <ele>36</ele>
        <time>2014-10-20T14:39:23.1Z</time>
      </trkpt>
      <trkpt lat="48.64799" lon="-2.46949">
        <ele>36</ele>
        <time>2014-10-20T14:39:25.1Z</time>
      </trkpt>
      <trkpt lat="48.64801" lon="-2.46945">
        <ele>36</ele>
        <time>2014-10-20T14:39:28.1Z</time>
      </trkpt>
      <trkpt lat="48.64802" lon="-2.46942">
        <ele>36</ele>
        <time>2014-10-20T14:39:30.1Z</time>
      </trkpt>
      <trkpt lat="48.64803" lon="-2.4694">
        <ele>37</ele>
        <time>2014-10-20T14:39:32.1Z</time>
      </trkpt>
      <trkpt lat="48.64806" lon="-2.46937">
        <ele>36</ele>
        <time>2014-10-20T14:39:35.1Z</time>
      </trkpt>
      <trkpt lat="48.64808" lon="-2.46935">
        <ele>36</ele>
        <time>2014-10-20T14:39:38.1Z</time>
      </trkpt>
      <trkpt lat="48.6481" lon="-2.46933">
        <ele>36</ele>
        <time>2014-10-20T14:39:40.1Z</time>
      </trkpt>
      <trkpt lat="48.64812" lon="-2.4693">
        <ele>37</ele>
        <time>2014-10-20T14:39:43.1Z</time>
      </trkpt>
      <trkpt lat="48.64814" lon="-2.46927">
        <ele>37</ele>
        <time>2014-10-20T14:39:46.1Z</time>
      </trkpt>
      <trkpt lat="48.64815" lon="-2.46924">
        <ele>37</ele>
        <time>2014-10-20T14:39:48.1Z</time>
      </trkpt>
      <trkpt lat="48.64817" lon="-2.4692">
        <ele>37</ele>
        <time>2014-10-20T14:39:51.1Z</time>
      </trkpt>
      <trkpt lat="48.64818" lon="-2.46917">
        <ele>37</ele>
        <time>2014-10-20T14:39:53.1Z</time>
      </trkpt>
      <trkpt lat="48.64818" lon="-2.46914">
        <ele>37</ele>
        <time>2014-10-20T14:39:55.1Z</time>
      </trkpt>
      <trkpt lat="48.64819" lon="-2.46909">
        <ele>37</ele>
        <time>2014-10-20T14:39:58.1Z</time>
      </trkpt>
      <trkpt lat="48.64819" lon="-2.46906">
        <ele>37</ele>
        <time>2014-10-20T14:40:00.1Z</time>
      </trkpt>
      <trkpt lat="48.6482" lon="-2.46903">
        <ele>37</ele>
        <time>2014-10-20T14:40:02.1Z</time>
      </trkpt>
      <trkpt lat="48.6482" lon="-2.46898">
        <ele>37</ele>
        <time>2014-10-20T14:40:05.1Z</time>
      </trkpt>
      <trkpt lat="48.6482" lon="-2.46894">
        <ele>36</ele>
        <time>2014-10-20T14:40:07.1Z</time>
      </trkpt>
      <trkpt lat="48.6482" lon="-2.4689">
        <ele>36</ele>
        <time>2014-10-20T14:40:09.1Z</time>
      </trkpt>
      <trkpt lat="48.6482" lon="-2.46885">
        <ele>36</ele>
        <time>2014-10-20T14:40:12.1Z</time>
      </trkpt>
      <trkpt lat="48.6482" lon="-2.46881">
        <ele>36</ele>
        <time>2014-10-20T14:40:14.1Z</time>
      </trkpt>
      <trkpt lat="48.6482" lon="-2.46878">
        <ele>36</ele>
        <time>2014-10-20T14:40:16.1Z</time>
      </trkpt>
      <trkpt lat="48.64819" lon="-2.46873">
        <ele>36</ele>
        <time>2014-10-20T14:40:19.1Z</time>
      </trkpt>
      <trkpt lat="48.6482" lon="-2.46869">
        <ele>36</ele>
        <time>2014-10-20T14:40:21.1Z</time>
      </trkpt>
      <trkpt lat="48.64821" lon="-2.46866">
        <ele>36</ele>
        <time>2014-10-20T14:40:24.1Z</time>
      </trkpt>
      <trkpt lat="48.64821" lon="-2.46862">
        <ele>36</ele>
        <time>2014-10-20T14:40:26.1Z</time>
      </trkpt>
      <trkpt lat="48.64822" lon="-2.46859">
        <ele>36</ele>
        <time>2014-10-20T14:40:28.1Z</time>
      </trkpt>
      <trkpt lat="48.64822" lon="-2.46855">
        <ele>36</ele>
        <time>2014-10-20T14:40:30.1Z</time>
      </trkpt>
      <trkpt lat="48.64822" lon="-2.46852">
        <ele>36</ele>
        <time>2014-10-20T14:40:32.1Z</time>
      </trkpt>
      <trkpt lat="48.64823" lon="-2.46848">
        <ele>36</ele>
        <time>2014-10-20T14:40:34.1Z</time>
      </trkpt>
      <trkpt lat="48.64823" lon="-2.46845">
        <ele>36</ele>
        <time>2014-10-20T14:40:36.1Z</time>
      </trkpt>
      <trkpt lat="48.64824" lon="-2.46839">
        <ele>36</ele>
        <time>2014-10-20T14:40:39.1Z</time>
      </trkpt>
      <trkpt lat="48.64824" lon="-2.46836">
        <ele>36</ele>
        <time>2014-10-20T14:40:41.1Z</time>
      </trkpt>
      <trkpt lat="48.64824" lon="-2.46833">
        <ele>36</ele>
        <time>2014-10-20T14:40:43.1Z</time>
      </trkpt>
      <trkpt lat="48.64824" lon="-2.46828">
        <ele>35</ele>
        <time>2014-10-20T14:40:46.1Z</time>
      </trkpt>
      <trkpt lat="48.64824" lon="-2.46825">
        <ele>35</ele>
        <time>2014-10-20T14:40:48.1Z</time>
      </trkpt>
      <trkpt lat="48.64824" lon="-2.4682">
        <ele>35</ele>
        <time>2014-10-20T14:40:51.1Z</time>
      </trkpt>
      <trkpt lat="48.64824" lon="-2.46816">
        <ele>35</ele>
        <time>2014-10-20T14:40:53.1Z</time>
      </trkpt>
      <trkpt lat="48.64824" lon="-2.46813">
        <ele>35</ele>
        <time>2014-10-20T14:40:55.1Z</time>
      </trkpt>
      <trkpt lat="48.64824" lon="-2.46809">
        <ele>35</ele>
        <time>2014-10-20T14:40:58.1Z</time>
      </trkpt>
      <trkpt lat="48.64824" lon="-2.46806">
        <ele>35</ele>
        <time>2014-10-20T14:41:00.1Z</time>
      </trkpt>
      <trkpt lat="48.64825" lon="-2.468">
        <ele>35</ele>
        <time>2014-10-20T14:41:03.1Z</time>
      </trkpt>
      <trkpt lat="48.64826" lon="-2.46796">
        <ele>35</ele>
        <time>2014-10-20T14:41:05.1Z</time>
      </trkpt>
      <trkpt lat="48.64826" lon="-2.46792">
        <ele>35</ele>
        <time>2014-10-20T14:41:07.1Z</time>
      </trkpt>
      <trkpt lat="48.64827" lon="-2.46786">
        <ele>35</ele>
        <time>2014-10-20T14:41:10.1Z</time>
      </trkpt>
      <trkpt lat="48.64828" lon="-2.46784">
        <ele>34</ele>
        <time>2014-10-20T14:41:12.1Z</time>
      </trkpt>
      <trkpt lat="48.64829" lon="-2.46779">
        <ele>34</ele>
        <time>2014-10-20T14:41:15.1Z</time>
      </trkpt>
      <trkpt lat="48.64831" lon="-2.46776">
        <ele>34</ele>
        <time>2014-10-20T14:41:18.1Z</time>
      </trkpt>
      <trkpt lat="48.64832" lon="-2.46775">
        <ele>34</ele>
        <time>2014-10-20T14:41:20.1Z</time>
      </trkpt>
      <trkpt lat="48.64835" lon="-2.46773">
        <ele>34</ele>
        <time>2014-10-20T14:41:23.1Z</time>
      </trkpt>
      <trkpt lat="48.64838" lon="-2.46772">
        <ele>34</ele>
        <time>2014-10-20T14:41:26.1Z</time>
      </trkpt>
      <trkpt lat="48.6484" lon="-2.46771">
        <ele>34</ele>
        <time>2014-10-20T14:41:29.1Z</time>
      </trkpt>
      <trkpt lat="48.64842" lon="-2.46771">
        <ele>34</ele>
        <time>2014-10-20T14:41:31.1Z</time>
      </trkpt>
      <trkpt lat="48.64844" lon="-2.4677">
        <ele>33</ele>
        <time>2014-10-20T14:41:33.1Z</time>
      </trkpt>
      <trkpt lat="48.64847" lon="-2.46769">
        <ele>33</ele>
        <time>2014-10-20T14:41:35.1Z</time>
      </trkpt>
      <trkpt lat="48.6485" lon="-2.46768">
        <ele>33</ele>
        <time>2014-10-20T14:41:38.1Z</time>
      </trkpt>
      <trkpt lat="48.64853" lon="-2.46767">
        <ele>33</ele>
        <time>2014-10-20T14:41:40.1Z</time>
      </trkpt>
      <trkpt lat="48.64856" lon="-2.46766">
        <ele>33</ele>
        <time>2014-10-20T14:41:43.1Z</time>
      </trkpt>
      <trkpt lat="48.64859" lon="-2.46765">
        <ele>33</ele>
        <time>2014-10-20T14:41:45.1Z</time>
      </trkpt>
      <trkpt lat="48.64861" lon="-2.46764">
        <ele>33</ele>
        <time>2014-10-20T14:41:47.1Z</time>
      </trkpt>
      <trkpt lat="48.64864" lon="-2.46763">
        <ele>33</ele>
        <time>2014-10-20T14:41:50.1Z</time>
      </trkpt>
      <trkpt lat="48.64868" lon="-2.46762">
        <ele>33</ele>
        <time>2014-10-20T14:41:53.1Z</time>
      </trkpt>
      <trkpt lat="48.64871" lon="-2.46763">
        <ele>33</ele>
        <time>2014-10-20T14:41:56.1Z</time>
      </trkpt>
      <trkpt lat="48.64874" lon="-2.46763">
        <ele>33</ele>
        <time>2014-10-20T14:41:58.1Z</time>
      </trkpt>
      <trkpt lat="48.64876" lon="-2.46764">
        <ele>33</ele>
        <time>2014-10-20T14:42:01.1Z</time>
      </trkpt>
      <trkpt lat="48.64879" lon="-2.46765">
        <ele>33</ele>
        <time>2014-10-20T14:42:03.1Z</time>
      </trkpt>
      <trkpt lat="48.6488" lon="-2.46765">
        <ele>33</ele>
        <time>2014-10-20T14:42:05.1Z</time>
      </trkpt>
      <trkpt lat="48.64883" lon="-2.46766">
        <ele>33</ele>
        <time>2014-10-20T14:42:08.1Z</time>
      </trkpt>
      <trkpt lat="48.64885" lon="-2.46765">
        <ele>33</ele>
        <time>2014-10-20T14:42:11.1Z</time>
      </trkpt>
      <trkpt lat="48.64887" lon="-2.46766">
        <ele>33</ele>
        <time>2014-10-20T14:42:14.1Z</time>
      </trkpt>
      <trkpt lat="48.64889" lon="-2.46766">
        <ele>33</ele>
        <time>2014-10-20T14:42:16.1Z</time>
      </trkpt>
      <trkpt lat="48.6489" lon="-2.46767">
        <ele>33</ele>
        <time>2014-10-20T14:42:18.1Z</time>
      </trkpt>
      <trkpt lat="48.64892" lon="-2.46769">
        <ele>33</ele>
        <time>2014-10-20T14:42:21.1Z</time>
      </trkpt>
      <trkpt lat="48.64894" lon="-2.46769">
        <ele>32</ele>
        <time>2014-10-20T14:42:23.1Z</time>
      </trkpt>
      <trkpt lat="48.64898" lon="-2.46768">
        <ele>32</ele>
        <time>2014-10-20T14:42:26.1Z</time>
      </trkpt>
      <trkpt lat="48.64899" lon="-2.46767">
        <ele>32</ele>
        <time>2014-10-20T14:42:28.1Z</time>
      </trkpt>
      <trkpt lat="48.64901" lon="-2.46767">
        <ele>32</ele>
        <time>2014-10-20T14:42:30.1Z</time>
      </trkpt>
      <trkpt lat="48.64902" lon="-2.46765">
        <ele>32</ele>
        <time>2014-10-20T14:42:32.1Z</time>
      </trkpt>
      <trkpt lat="48.64904" lon="-2.46764">
        <ele>32</ele>
        <time>2014-10-20T14:42:34.1Z</time>
      </trkpt>
      <trkpt lat="48.64907" lon="-2.46761">
        <ele>31</ele>
        <time>2014-10-20T14:42:37.1Z</time>
      </trkpt>
      <trkpt lat="48.64909" lon="-2.4676">
        <ele>31</ele>
        <time>2014-10-20T14:42:39.1Z</time>
      </trkpt>
      <trkpt lat="48.64911" lon="-2.46759">
        <ele>31</ele>
        <time>2014-10-20T14:42:41.1Z</time>
      </trkpt>
      <trkpt lat="48.64914" lon="-2.46758">
        <ele>31</ele>
        <time>2014-10-20T14:42:44.1Z</time>
      </trkpt>
      <trkpt lat="48.64915" lon="-2.46757">
        <ele>31</ele>
        <time>2014-10-20T14:42:46.1Z</time>
      </trkpt>
      <trkpt lat="48.64917" lon="-2.46756">
        <ele>30</ele>
        <time>2014-10-20T14:42:48.1Z</time>
      </trkpt>
      <trkpt lat="48.6492" lon="-2.46756">
        <ele>30</ele>
        <time>2014-10-20T14:42:51.1Z</time>
      </trkpt>
      <trkpt lat="48.64922" lon="-2.46755">
        <ele>30</ele>
        <time>2014-10-20T14:42:54.1Z</time>
      </trkpt>
      <trkpt lat="48.64924" lon="-2.46753">
        <ele>30</ele>
        <time>2014-10-20T14:42:57.1Z</time>
      </trkpt>
      <trkpt lat="48.64927" lon="-2.4675">
        <ele>30</ele>
        <time>2014-10-20T14:43:00.1Z</time>
      </trkpt>
      <trkpt lat="48.64928" lon="-2.46748">
        <ele>30</ele>
        <time>2014-10-20T14:43:02.1Z</time>
      </trkpt>
      <trkpt lat="48.64931" lon="-2.46746">
        <ele>30</ele>
        <time>2014-10-20T14:43:05.1Z</time>
      </trkpt>
      <trkpt lat="48.64932" lon="-2.46746">
        <ele>29</ele>
        <time>2014-10-20T14:43:07.1Z</time>
      </trkpt>
      <trkpt lat="48.64934" lon="-2.46745">
        <ele>29</ele>
        <time>2014-10-20T14:43:09.1Z</time>
      </trkpt>
      <trkpt lat="48.64936" lon="-2.46744">
        <ele>29</ele>
        <time>2014-10-20T14:43:11.1Z</time>
      </trkpt>
      <trkpt lat="48.64938" lon="-2.46743">
        <ele>29</ele>
        <time>2014-10-20T14:43:14.1Z</time>
      </trkpt>
      <trkpt lat="48.64939" lon="-2.46743">
        <ele>28</ele>
        <time>2014-10-20T14:43:16.1Z</time>
      </trkpt>
      <trkpt lat="48.64939" lon="-2.46742">
        <ele>29</ele>
        <time>2014-10-20T14:43:19.1Z</time>
      </trkpt>
      <trkpt lat="48.64939" lon="-2.46743">
        <ele>29</ele>
        <time>2014-10-20T14:43:22.1Z</time>
      </trkpt>
      <trkpt lat="48.64938" lon="-2.46743">
        <ele>29</ele>
        <time>2014-10-20T14:43:25.1Z</time>
      </trkpt>
      <trkpt lat="48.64939" lon="-2.46743">
        <ele>28</ele>
        <time>2014-10-20T14:43:28.1Z</time>
      </trkpt>
      <trkpt lat="48.64939" lon="-2.46743">
        <ele>28</ele>
        <time>2014-10-20T14:43:31.1Z</time>
      </trkpt>
      <trkpt lat="48.64938" lon="-2.46743">
        <ele>28</ele>
        <time>2014-10-20T14:43:33.1Z</time>
      </trkpt>
      <trkpt lat="48.64938" lon="-2.46743">
        <ele>29</ele>
        <time>2014-10-20T14:43:36.1Z</time>
      </trkpt>
      <trkpt lat="48.64938" lon="-2.46742">
        <ele>29</ele>
        <time>2014-10-20T14:43:40.1Z</time>
      </trkpt>
      <trkpt lat="48.64938" lon="-2.46742">
        <ele>29</ele>
        <time>2014-10-20T14:43:43.1Z</time>
      </trkpt>
      <trkpt lat="48.64938" lon="-2.46741">
        <ele>29</ele>
        <time>2014-10-20T14:43:46.1Z</time>
      </trkpt>
      <trkpt lat="48.64938" lon="-2.46741">
        <ele>29</ele>
        <time>2014-10-20T14:43:48.1Z</time>
      </trkpt>
      <trkpt lat="48.64939" lon="-2.46741">
        <ele>29</ele>
        <time>2014-10-20T14:43:51.1Z</time>
      </trkpt>
      <trkpt lat="48.64939" lon="-2.46741">
        <ele>28</ele>
        <time>2014-10-20T14:43:54.1Z</time>
      </trkpt>
      <trkpt lat="48.64939" lon="-2.46742">
        <ele>28</ele>
        <time>2014-10-20T14:43:58.1Z</time>
      </trkpt>
      <trkpt lat="48.6494" lon="-2.46742">
        <ele>29</ele>
        <time>2014-10-20T14:44:02.1Z</time>
      </trkpt>
      <trkpt lat="48.64939" lon="-2.46742">
        <ele>29</ele>
        <time>2014-10-20T14:44:04.1Z</time>
      </trkpt>
      <trkpt lat="48.64939" lon="-2.46743">
        <ele>29</ele>
        <time>2014-10-20T14:44:07.1Z</time>
      </trkpt>
      <trkpt lat="48.6494" lon="-2.46743">
        <ele>29</ele>
        <time>2014-10-20T14:44:10.1Z</time>
      </trkpt>
      <trkpt lat="48.6494" lon="-2.46743">
        <ele>29</ele>
        <time>2014-10-20T14:44:13.1Z</time>
      </trkpt>
      <trkpt lat="48.64939" lon="-2.46742">
        <ele>29</ele>
        <time>2014-10-20T14:44:16.1Z</time>
      </trkpt>
      <trkpt lat="48.64936" lon="-2.46743">
        <ele>29</ele>
        <time>2014-10-20T14:44:19.1Z</time>
      </trkpt>
      <trkpt lat="48.64935" lon="-2.46743">
        <ele>29</ele>
        <time>2014-10-20T14:44:21.1Z</time>
      </trkpt>
      <trkpt lat="48.64933" lon="-2.46744">
        <ele>29</ele>
        <time>2014-10-20T14:44:24.1Z</time>
      </trkpt>
      <trkpt lat="48.6493" lon="-2.46746">
        <ele>29</ele>
        <time>2014-10-20T14:44:26.1Z</time>
      </trkpt>
      <trkpt lat="48.64929" lon="-2.46748">
        <ele>29</ele>
        <time>2014-10-20T14:44:28.1Z</time>
      </trkpt>
      <trkpt lat="48.64927" lon="-2.46749">
        <ele>30</ele>
        <time>2014-10-20T14:44:30.1Z</time>
      </trkpt>
      <trkpt lat="48.64924" lon="-2.46752">
        <ele>30</ele>
        <time>2014-10-20T14:44:33.1Z</time>
      </trkpt>
      <trkpt lat="48.64922" lon="-2.46753">
        <ele>30</ele>
        <time>2014-10-20T14:44:35.1Z</time>
      </trkpt>
      <trkpt lat="48.6492" lon="-2.46753">
        <ele>31</ele>
        <time>2014-10-20T14:44:38.1Z</time>
      </trkpt>
      <trkpt lat="48.64918" lon="-2.46754">
        <ele>31</ele>
        <time>2014-10-20T14:44:40.1Z</time>
      </trkpt>
      <trkpt lat="48.64916" lon="-2.46755">
        <ele>30</ele>
        <time>2014-10-20T14:44:42.1Z</time>
      </trkpt>
      <trkpt lat="48.64914" lon="-2.46757">
        <ele>31</ele>
        <time>2014-10-20T14:44:44.1Z</time>
      </trkpt>
      <trkpt lat="48.64913" lon="-2.46757">
        <ele>31</ele>
        <time>2014-10-20T14:44:46.1Z</time>
      </trkpt>
      <trkpt lat="48.64912" lon="-2.46757">
        <ele>31</ele>
        <time>2014-10-20T14:44:48.1Z</time>
      </trkpt>
      <trkpt lat="48.64912" lon="-2.46756">
        <ele>31</ele>
        <time>2014-10-20T14:44:50.1Z</time>
      </trkpt>
      <trkpt lat="48.64912" lon="-2.46756">
        <ele>31</ele>
        <time>2014-10-20T14:44:53.1Z</time>
      </trkpt>
      <trkpt lat="48.64911" lon="-2.46755">
        <ele>31</ele>
        <time>2014-10-20T14:44:55.1Z</time>
      </trkpt>
      <trkpt lat="48.64911" lon="-2.46756">
        <ele>31</ele>
        <time>2014-10-20T14:44:57.1Z</time>
      </trkpt>
      <trkpt lat="48.6491" lon="-2.46756">
        <ele>31</ele>
        <time>2014-10-20T14:44:59.1Z</time>
      </trkpt>
      <trkpt lat="48.6491" lon="-2.46756">
        <ele>31</ele>
        <time>2014-10-20T14:45:04.1Z</time>
      </trkpt>
      <trkpt lat="48.6491" lon="-2.46756">
        <ele>31</ele>
        <time>2014-10-20T14:45:07.1Z</time>
      </trkpt>
      <trkpt lat="48.6491" lon="-2.46756">
        <ele>32</ele>
        <time>2014-10-20T14:45:10.1Z</time>
      </trkpt>
      <trkpt lat="48.6491" lon="-2.46756">
        <ele>32</ele>
        <time>2014-10-20T14:45:14.1Z</time>
      </trkpt>
      <trkpt lat="48.6491" lon="-2.46756">
        <ele>33</ele>
        <time>2014-10-20T14:45:16.1Z</time>
      </trkpt>
      <trkpt lat="48.64911" lon="-2.46757">
        <ele>32</ele>
        <time>2014-10-20T14:45:19.1Z</time>
      </trkpt>
      <trkpt lat="48.64912" lon="-2.46757">
        <ele>32</ele>
        <time>2014-10-20T14:45:22.1Z</time>
      </trkpt>
      <trkpt lat="48.64914" lon="-2.46756">
        <ele>31</ele>
        <time>2014-10-20T14:45:24.1Z</time>
      </trkpt>
      <trkpt lat="48.64917" lon="-2.46754">
        <ele>30</ele>
        <time>2014-10-20T14:45:27.1Z</time>
      </trkpt>
      <trkpt lat="48.64917" lon="-2.46753">
        <ele>30</ele>
        <time>2014-10-20T14:45:30.1Z</time>
      </trkpt>
      <trkpt lat="48.64918" lon="-2.46753">
        <ele>30</ele>
        <time>2014-10-20T14:45:33.1Z</time>
      </trkpt>
      <trkpt lat="48.6492" lon="-2.46753">
        <ele>30</ele>
        <time>2014-10-20T14:45:36.1Z</time>
      </trkpt>
      <trkpt lat="48.64922" lon="-2.46753">
        <ele>30</ele>
        <time>2014-10-20T14:45:38.1Z</time>
      </trkpt>
      <trkpt lat="48.64924" lon="-2.46752">
        <ele>30</ele>
        <time>2014-10-20T14:45:41.1Z</time>
      </trkpt>
      <trkpt lat="48.64926" lon="-2.4675">
        <ele>29</ele>
        <time>2014-10-20T14:45:44.1Z</time>
      </trkpt>
      <trkpt lat="48.64927" lon="-2.46748">
        <ele>29</ele>
        <time>2014-10-20T14:45:46.1Z</time>
      </trkpt>
      <trkpt lat="48.6493" lon="-2.46745">
        <ele>28</ele>
        <time>2014-10-20T14:45:49.1Z</time>
      </trkpt>
      <trkpt lat="48.64933" lon="-2.46744">
        <ele>28</ele>
        <time>2014-10-20T14:45:52.1Z</time>
      </trkpt>
      <trkpt lat="48.64936" lon="-2.46743">
        <ele>28</ele>
        <time>2014-10-20T14:45:55.1Z</time>
      </trkpt>
      <trkpt lat="48.64939" lon="-2.46742">
        <ele>28</ele>
        <time>2014-10-20T14:45:58.1Z</time>
      </trkpt>
      <trkpt lat="48.64942" lon="-2.46742">
        <ele>28</ele>
        <time>2014-10-20T14:46:01.1Z</time>
      </trkpt>
      <trkpt lat="48.64944" lon="-2.46742">
        <ele>28</ele>
        <time>2014-10-20T14:46:03.1Z</time>
      </trkpt>
      <trkpt lat="48.64946" lon="-2.4674">
        <ele>28</ele>
        <time>2014-10-20T14:46:06.1Z</time>
      </trkpt>
      <trkpt lat="48.64947" lon="-2.46741">
        <ele>28</ele>
        <time>2014-10-20T14:46:08.1Z</time>
      </trkpt>
      <trkpt lat="48.64948" lon="-2.4674">
        <ele>28</ele>
        <time>2014-10-20T14:46:10.1Z</time>
      </trkpt>
      <trkpt lat="48.64948" lon="-2.4674">
        <ele>28</ele>
        <time>2014-10-20T14:46:13.1Z</time>
      </trkpt>
      <trkpt lat="48.64948" lon="-2.4674">
        <ele>29</ele>
        <time>2014-10-20T14:46:15.1Z</time>
      </trkpt>
      <trkpt lat="48.64949" lon="-2.4674">
        <ele>28</ele>
        <time>2014-10-20T14:46:19.1Z</time>
      </trkpt>
      <trkpt lat="48.6495" lon="-2.46739">
        <ele>28</ele>
        <time>2014-10-20T14:46:22.1Z</time>
      </trkpt>
      <trkpt lat="48.64949" lon="-2.46739">
        <ele>27</ele>
        <time>2014-10-20T14:46:24.1Z</time>
      </trkpt>
      <trkpt lat="48.64949" lon="-2.46738">
        <ele>27</ele>
        <time>2014-10-20T14:46:28.1Z</time>
      </trkpt>
      <trkpt lat="48.64949" lon="-2.46737">
        <ele>27</ele>
        <time>2014-10-20T14:46:31.1Z</time>
      </trkpt>
      <trkpt lat="48.64949" lon="-2.46736">
        <ele>27</ele>
        <time>2014-10-20T14:46:34.1Z</time>
      </trkpt>
      <trkpt lat="48.64949" lon="-2.46736">
        <ele>28</ele>
        <time>2014-10-20T14:46:37.1Z</time>
      </trkpt>
      <trkpt lat="48.64948" lon="-2.46735">
        <ele>28</ele>
        <time>2014-10-20T14:46:41.1Z</time>
      </trkpt>
      <trkpt lat="48.64948" lon="-2.46735">
        <ele>28</ele>
        <time>2014-10-20T14:46:44.1Z</time>
      </trkpt>
      <trkpt lat="48.64947" lon="-2.46734">
        <ele>27</ele>
        <time>2014-10-20T14:46:47.1Z</time>
      </trkpt>
      <trkpt lat="48.64946" lon="-2.46733">
        <ele>27</ele>
        <time>2014-10-20T14:46:49.1Z</time>
      </trkpt>
      <trkpt lat="48.64944" lon="-2.46732">
        <ele>27</ele>
        <time>2014-10-20T14:46:52.1Z</time>
      </trkpt>
      <trkpt lat="48.64943" lon="-2.4673">
        <ele>28</ele>
        <time>2014-10-20T14:46:54.1Z</time>
      </trkpt>
      <trkpt lat="48.64941" lon="-2.46729">
        <ele>28</ele>
        <time>2014-10-20T14:46:56.1Z</time>
      </trkpt>
      <trkpt lat="48.64939" lon="-2.46727">
        <ele>28</ele>
        <time>2014-10-20T14:46:59.1Z</time>
      </trkpt>
      <trkpt lat="48.64938" lon="-2.46726">
        <ele>28</ele>
        <time>2014-10-20T14:47:01.1Z</time>
      </trkpt>
      <trkpt lat="48.64936" lon="-2.46725">
        <ele>29</ele>
        <time>2014-10-20T14:47:03.1Z</time>
      </trkpt>
      <trkpt lat="48.64935" lon="-2.46723">
        <ele>29</ele>
        <time>2014-10-20T14:47:06.1Z</time>
      </trkpt>
      <trkpt lat="48.64933" lon="-2.46722">
        <ele>29</ele>
        <time>2014-10-20T14:47:08.1Z</time>
      </trkpt>
      <trkpt lat="48.64932" lon="-2.46721">
        <ele>29</ele>
        <time>2014-10-20T14:47:10.1Z</time>
      </trkpt>
      <trkpt lat="48.64931" lon="-2.46719">
        <ele>30</ele>
        <time>2014-10-20T14:47:12.1Z</time>
      </trkpt>
      <trkpt lat="48.64929" lon="-2.46718">
        <ele>30</ele>
        <time>2014-10-20T14:47:14.1Z</time>
      </trkpt>
      <trkpt lat="48.64928" lon="-2.46718">
        <ele>30</ele>
        <time>2014-10-20T14:47:16.1Z</time>
      </trkpt>
      <trkpt lat="48.64926" lon="-2.46718">
        <ele>30</ele>
        <time>2014-10-20T14:47:19.1Z</time>
      </trkpt>
      <trkpt lat="48.64924" lon="-2.46718">
        <ele>30</ele>
        <time>2014-10-20T14:47:21.1Z</time>
      </trkpt>
      <trkpt lat="48.64923" lon="-2.46715">
        <ele>30</ele>
        <time>2014-10-20T14:47:23.1Z</time>
      </trkpt>
      <trkpt lat="48.64922" lon="-2.46713">
        <ele>30</ele>
        <time>2014-10-20T14:47:26.1Z</time>
      </trkpt>
      <trkpt lat="48.64922" lon="-2.46713">
        <ele>30</ele>
        <time>2014-10-20T14:47:28.1Z</time>
      </trkpt>
      <trkpt lat="48.64921" lon="-2.46713">
        <ele>31</ele>
        <time>2014-10-20T14:47:31.1Z</time>
      </trkpt>
      <trkpt lat="48.6492" lon="-2.46712">
        <ele>30</ele>
        <time>2014-10-20T14:47:34.1Z</time>
      </trkpt>
      <trkpt lat="48.6492" lon="-2.46713">
        <ele>30</ele>
        <time>2014-10-20T14:47:38.1Z</time>
      </trkpt>
      <trkpt lat="48.64919" lon="-2.46712">
        <ele>31</ele>
        <time>2014-10-20T14:47:42.1Z</time>
      </trkpt>
      <trkpt lat="48.64918" lon="-2.46711">
        <ele>31</ele>
        <time>2014-10-20T14:47:44.1Z</time>
      </trkpt>
      <trkpt lat="48.64917" lon="-2.46709">
        <ele>30</ele>
        <time>2014-10-20T14:47:47.1Z</time>
      </trkpt>
      <trkpt lat="48.64916" lon="-2.46707">
        <ele>30</ele>
        <time>2014-10-20T14:47:49.1Z</time>
      </trkpt>
      <trkpt lat="48.64915" lon="-2.46704">
        <ele>30</ele>
        <time>2014-10-20T14:47:51.1Z</time>
      </trkpt>
      <trkpt lat="48.64914" lon="-2.467">
        <ele>30</ele>
        <time>2014-10-20T14:47:54.1Z</time>
      </trkpt>
      <trkpt lat="48.64914" lon="-2.46696">
        <ele>30</ele>
        <time>2014-10-20T14:47:56.1Z</time>
      </trkpt>
      <trkpt lat="48.64913" lon="-2.46692">
        <ele>30</ele>
        <time>2014-10-20T14:47:59.1Z</time>
      </trkpt>
      <trkpt lat="48.64912" lon="-2.46688">
        <ele>30</ele>
        <time>2014-10-20T14:48:01.1Z</time>
      </trkpt>
      <trkpt lat="48.64912" lon="-2.46684">
        <ele>30</ele>
        <time>2014-10-20T14:48:04.1Z</time>
      </trkpt>
      <trkpt lat="48.6491" lon="-2.46679">
        <ele>30</ele>
        <time>2014-10-20T14:48:07.1Z</time>
      </trkpt>
      <trkpt lat="48.64909" lon="-2.46676">
        <ele>30</ele>
        <time>2014-10-20T14:48:09.1Z</time>
      </trkpt>
      <trkpt lat="48.64908" lon="-2.46671">
        <ele>30</ele>
        <time>2014-10-20T14:48:12.1Z</time>
      </trkpt>
      <trkpt lat="48.64907" lon="-2.46669">
        <ele>30</ele>
        <time>2014-10-20T14:48:14.1Z</time>
      </trkpt>
      <trkpt lat="48.64905" lon="-2.46665">
        <ele>30</ele>
        <time>2014-10-20T14:48:17.1Z</time>
      </trkpt>
      <trkpt lat="48.64903" lon="-2.46661">
        <ele>30</ele>
        <time>2014-10-20T14:48:20.1Z</time>
      </trkpt>
      <trkpt lat="48.64902" lon="-2.46658">
        <ele>30</ele>
        <time>2014-10-20T14:48:22.1Z</time>
      </trkpt>
      <trkpt lat="48.64901" lon="-2.46654">
        <ele>30</ele>
        <time>2014-10-20T14:48:25.1Z</time>
      </trkpt>
      <trkpt lat="48.64899" lon="-2.46651">
        <ele>30</ele>
        <time>2014-10-20T14:48:27.1Z</time>
      </trkpt>
      <trkpt lat="48.64897" lon="-2.46647">
        <ele>30</ele>
        <time>2014-10-20T14:48:30.1Z</time>
      </trkpt>
      <trkpt lat="48.64896" lon="-2.46643">
        <ele>30</ele>
        <time>2014-10-20T14:48:33.1Z</time>
      </trkpt>
      <trkpt lat="48.64894" lon="-2.46639">
        <ele>30</ele>
        <time>2014-10-20T14:48:36.1Z</time>
      </trkpt>
      <trkpt lat="48.64892" lon="-2.46637">
        <ele>30</ele>
        <time>2014-10-20T14:48:38.1Z</time>
      </trkpt>
      <trkpt lat="48.64891" lon="-2.46634">
        <ele>30</ele>
        <time>2014-10-20T14:48:40.1Z</time>
      </trkpt>
      <trkpt lat="48.64889" lon="-2.46633">
        <ele>30</ele>
        <time>2014-10-20T14:48:42.1Z</time>
      </trkpt>
      <trkpt lat="48.64887" lon="-2.46631">
        <ele>30</ele>
        <time>2014-10-20T14:48:44.1Z</time>
      </trkpt>
      <trkpt lat="48.64886" lon="-2.46628">
        <ele>30</ele>
        <time>2014-10-20T14:48:46.1Z</time>
      </trkpt>
      <trkpt lat="48.64885" lon="-2.46626">
        <ele>30</ele>
        <time>2014-10-20T14:48:48.1Z</time>
      </trkpt>
      <trkpt lat="48.64883" lon="-2.46623">
        <ele>30</ele>
        <time>2014-10-20T14:48:51.1Z</time>
      </trkpt>
      <trkpt lat="48.64883" lon="-2.4662">
        <ele>30</ele>
        <time>2014-10-20T14:48:53.1Z</time>
      </trkpt>
      <trkpt lat="48.64882" lon="-2.46618">
        <ele>31</ele>
        <time>2014-10-20T14:48:55.1Z</time>
      </trkpt>
      <trkpt lat="48.6488" lon="-2.46616">
        <ele>31</ele>
        <time>2014-10-20T14:48:58.1Z</time>
      </trkpt>
      <trkpt lat="48.6488" lon="-2.46615">
        <ele>32</ele>
        <time>2014-10-20T14:49:00.1Z</time>
      </trkpt>
      <trkpt lat="48.64879" lon="-2.46612">
        <ele>32</ele>
        <time>2014-10-20T14:49:03.1Z</time>
      </trkpt>
      <trkpt lat="48.64879" lon="-2.46608">
        <ele>32</ele>
        <time>2014-10-20T14:49:06.1Z</time>
      </trkpt>
      <trkpt lat="48.64878" lon="-2.46604">
        <ele>32</ele>
        <time>2014-10-20T14:49:09.1Z</time>
      </trkpt>
      <trkpt lat="48.64878" lon="-2.466">
        <ele>32</ele>
        <time>2014-10-20T14:49:12.1Z</time>
      </trkpt>
      <trkpt lat="48.64877" lon="-2.46597">
        <ele>32</ele>
        <time>2014-10-20T14:49:14.1Z</time>
      </trkpt>
      <trkpt lat="48.64878" lon="-2.46594">
        <ele>32</ele>
        <time>2014-10-20T14:49:16.1Z</time>
      </trkpt>
      <trkpt lat="48.64878" lon="-2.46591">
        <ele>33</ele>
        <time>2014-10-20T14:49:18.1Z</time>
      </trkpt>
      <trkpt lat="48.64878" lon="-2.46587">
        <ele>33</ele>
        <time>2014-10-20T14:49:21.1Z</time>
      </trkpt>
      <trkpt lat="48.64878" lon="-2.46584">
        <ele>32</ele>
        <time>2014-10-20T14:49:23.1Z</time>
      </trkpt>
      <trkpt lat="48.64878" lon="-2.4658">
        <ele>32</ele>
        <time>2014-10-20T14:49:25.1Z</time>
      </trkpt>
      <trkpt lat="48.64878" lon="-2.46576">
        <ele>32</ele>
        <time>2014-10-20T14:49:28.1Z</time>
      </trkpt>
      <trkpt lat="48.64879" lon="-2.46575">
        <ele>33</ele>
        <time>2014-10-20T14:49:30.1Z</time>
      </trkpt>
      <trkpt lat="48.64878" lon="-2.46575">
        <ele>33</ele>
        <time>2014-10-20T14:49:33.1Z</time>
      </trkpt>
      <trkpt lat="48.64878" lon="-2.46572">
        <ele>33</ele>
        <time>2014-10-20T14:49:35.1Z</time>
      </trkpt>
      <trkpt lat="48.64877" lon="-2.46566">
        <ele>32</ele>
        <time>2014-10-20T14:49:38.1Z</time>
      </trkpt>
      <trkpt lat="48.64877" lon="-2.46561">
        <ele>33</ele>
        <time>2014-10-20T14:49:41.1Z</time>
      </trkpt>
      <trkpt lat="48.64876" lon="-2.46557">
        <ele>33</ele>
        <time>2014-10-20T14:49:44.1Z</time>
      </trkpt>
      <trkpt lat="48.64876" lon="-2.46553">
        <ele>33</ele>
        <time>2014-10-20T14:49:47.1Z</time>
      </trkpt>
      <trkpt lat="48.64876" lon="-2.46549">
        <ele>33</ele>
        <time>2014-10-20T14:49:50.1Z</time>
      </trkpt>
      <trkpt lat="48.64876" lon="-2.46546">
        <ele>33</ele>
        <time>2014-10-20T14:49:52.1Z</time>
      </trkpt>
      <trkpt lat="48.64876" lon="-2.46543">
        <ele>33</ele>
        <time>2014-10-20T14:49:54.1Z</time>
      </trkpt>
      <trkpt lat="48.64876" lon="-2.46538">
        <ele>33</ele>
        <time>2014-10-20T14:49:57.1Z</time>
      </trkpt>
      <trkpt lat="48.64876" lon="-2.46535">
        <ele>33</ele>
        <time>2014-10-20T14:49:59.1Z</time>
      </trkpt>
      <trkpt lat="48.64876" lon="-2.46531">
        <ele>33</ele>
        <time>2014-10-20T14:50:01.1Z</time>
      </trkpt>
      <trkpt lat="48.64875" lon="-2.46526">
        <ele>32</ele>
        <time>2014-10-20T14:50:04.1Z</time>
      </trkpt>
      <trkpt lat="48.64875" lon="-2.46521">
        <ele>32</ele>
        <time>2014-10-20T14:50:07.1Z</time>
      </trkpt>
      <trkpt lat="48.64874" lon="-2.46518">
        <ele>33</ele>
        <time>2014-10-20T14:50:10.1Z</time>
      </trkpt>
      <trkpt lat="48.64874" lon="-2.46516">
        <ele>33</ele>
        <time>2014-10-20T14:50:12.1Z</time>
      </trkpt>
      <trkpt lat="48.64873" lon="-2.46513">
        <ele>32</ele>
        <time>2014-10-20T14:50:15.1Z</time>
      </trkpt>
      <trkpt lat="48.64872" lon="-2.46509">
        <ele>32</ele>
        <time>2014-10-20T14:50:18.1Z</time>
      </trkpt>
      <trkpt lat="48.64871" lon="-2.46507">
        <ele>32</ele>
        <time>2014-10-20T14:50:20.1Z</time>
      </trkpt>
      <trkpt lat="48.64869" lon="-2.46507">
        <ele>32</ele>
        <time>2014-10-20T14:50:23.1Z</time>
      </trkpt>
      <trkpt lat="48.64867" lon="-2.46508">
        <ele>33</ele>
        <time>2014-10-20T14:50:25.1Z</time>
      </trkpt>
      <trkpt lat="48.64866" lon="-2.46508">
        <ele>33</ele>
        <time>2014-10-20T14:50:27.1Z</time>
      </trkpt>
      <trkpt lat="48.64866" lon="-2.46509">
        <ele>33</ele>
        <time>2014-10-20T14:50:30.1Z</time>
      </trkpt>
      <trkpt lat="48.64865" lon="-2.46508">
        <ele>33</ele>
        <time>2014-10-20T14:50:33.1Z</time>
      </trkpt>
      <trkpt lat="48.64863" lon="-2.46508">
        <ele>33</ele>
        <time>2014-10-20T14:50:35.1Z</time>
      </trkpt>
      <trkpt lat="48.64861" lon="-2.46508">
        <ele>33</ele>
        <time>2014-10-20T14:50:37.1Z</time>
      </trkpt>
      <trkpt lat="48.64859" lon="-2.46506">
        <ele>33</ele>
        <time>2014-10-20T14:50:40.1Z</time>
      </trkpt>
      <trkpt lat="48.64858" lon="-2.46505">
        <ele>32</ele>
        <time>2014-10-20T14:50:43.1Z</time>
      </trkpt>
      <trkpt lat="48.64855" lon="-2.46503">
        <ele>32</ele>
        <time>2014-10-20T14:50:45.1Z</time>
      </trkpt>
      <trkpt lat="48.64854" lon="-2.46503">
        <ele>32</ele>
        <time>2014-10-20T14:50:47.1Z</time>
      </trkpt>
      <trkpt lat="48.64853" lon="-2.46499">
        <ele>31</ele>
        <time>2014-10-20T14:50:50.1Z</time>
      </trkpt>
      <trkpt lat="48.64851" lon="-2.46495">
        <ele>31</ele>
        <time>2014-10-20T14:50:52.1Z</time>
      </trkpt>
      <trkpt lat="48.64848" lon="-2.46494">
        <ele>31</ele>
        <time>2014-10-20T14:50:54.1Z</time>
      </trkpt>
      <trkpt lat="48.64846" lon="-2.46491">
        <ele>31</ele>
        <time>2014-10-20T14:50:57.1Z</time>
      </trkpt>
      <trkpt lat="48.64845" lon="-2.46489">
        <ele>30</ele>
        <time>2014-10-20T14:50:59.1Z</time>
      </trkpt>
      <trkpt lat="48.64843" lon="-2.46487">
        <ele>30</ele>
        <time>2014-10-20T14:51:02.1Z</time>
      </trkpt>
      <trkpt lat="48.64841" lon="-2.46485">
        <ele>30</ele>
        <time>2014-10-20T14:51:04.1Z</time>
      </trkpt>
      <trkpt lat="48.64839" lon="-2.46482">
        <ele>30</ele>
        <time>2014-10-20T14:51:07.1Z</time>
      </trkpt>
      <trkpt lat="48.64838" lon="-2.4648">
        <ele>30</ele>
        <time>2014-10-20T14:51:10.1Z</time>
      </trkpt>
      <trkpt lat="48.64837" lon="-2.46478">
        <ele>29</ele>
        <time>2014-10-20T14:51:13.1Z</time>
      </trkpt>
      <trkpt lat="48.64836" lon="-2.46477">
        <ele>29</ele>
        <time>2014-10-20T14:51:15.1Z</time>
      </trkpt>
      <trkpt lat="48.64835" lon="-2.46473">
        <ele>29</ele>
        <time>2014-10-20T14:51:18.1Z</time>
      </trkpt>
      <trkpt lat="48.64832" lon="-2.46469">
        <ele>29</ele>
        <time>2014-10-20T14:51:21.1Z</time>
      </trkpt>
      <trkpt lat="48.64829" lon="-2.46467">
        <ele>29</ele>
        <time>2014-10-20T14:51:24.1Z</time>
      </trkpt>
      <trkpt lat="48.64827" lon="-2.46465">
        <ele>29</ele>
        <time>2014-10-20T14:51:26.1Z</time>
      </trkpt>
      <trkpt lat="48.64825" lon="-2.46462">
        <ele>29</ele>
        <time>2014-10-20T14:51:29.1Z</time>
      </trkpt>
      <trkpt lat="48.64822" lon="-2.46459">
        <ele>29</ele>
        <time>2014-10-20T14:51:32.1Z</time>
      </trkpt>
      <trkpt lat="48.64821" lon="-2.46457">
        <ele>30</ele>
        <time>2014-10-20T14:51:34.1Z</time>
      </trkpt>
      <trkpt lat="48.64819" lon="-2.46454">
        <ele>30</ele>
        <time>2014-10-20T14:51:37.1Z</time>
      </trkpt>
      <trkpt lat="48.64817" lon="-2.46453">
        <ele>30</ele>
        <time>2014-10-20T14:51:39.1Z</time>
      </trkpt>
      <trkpt lat="48.64814" lon="-2.46451">
        <ele>30</ele>
        <time>2014-10-20T14:51:42.1Z</time>
      </trkpt>
      <trkpt lat="48.64812" lon="-2.46449">
        <ele>30</ele>
        <time>2014-10-20T14:51:45.1Z</time>
      </trkpt>
      <trkpt lat="48.64811" lon="-2.46446">
        <ele>31</ele>
        <time>2014-10-20T14:51:47.1Z</time>
      </trkpt>
      <trkpt lat="48.64809" lon="-2.46442">
        <ele>30</ele>
        <time>2014-10-20T14:51:50.1Z</time>
      </trkpt>
      <trkpt lat="48.64807" lon="-2.46438">
        <ele>30</ele>
        <time>2014-10-20T14:51:53.1Z</time>
      </trkpt>
      <trkpt lat="48.64804" lon="-2.46434">
        <ele>30</ele>
        <time>2014-10-20T14:51:56.1Z</time>
      </trkpt>
      <trkpt lat="48.64802" lon="-2.46431">
        <ele>30</ele>
        <time>2014-10-20T14:51:58.1Z</time>
      </trkpt>
      <trkpt lat="48.648" lon="-2.46427">
        <ele>30</ele>
        <time>2014-10-20T14:52:01.1Z</time>
      </trkpt>
      <trkpt lat="48.64798" lon="-2.46424">
        <ele>30</ele>
        <time>2014-10-20T14:52:04.1Z</time>
      </trkpt>
      <trkpt lat="48.64796" lon="-2.46423">
        <ele>30</ele>
        <time>2014-10-20T14:52:06.1Z</time>
      </trkpt>
      <trkpt lat="48.64793" lon="-2.46421">
        <ele>30</ele>
        <time>2014-10-20T14:52:09.1Z</time>
      </trkpt>
      <trkpt lat="48.64791" lon="-2.46418">
        <ele>31</ele>
        <time>2014-10-20T14:52:12.1Z</time>
      </trkpt>
      <trkpt lat="48.64789" lon="-2.46415">
        <ele>31</ele>
        <time>2014-10-20T14:52:15.1Z</time>
      </trkpt>
      <trkpt lat="48.64787" lon="-2.46413">
        <ele>31</ele>
        <time>2014-10-20T14:52:17.1Z</time>
      </trkpt>
      <trkpt lat="48.64785" lon="-2.46411">
        <ele>31</ele>
        <time>2014-10-20T14:52:19.1Z</time>
      </trkpt>
      <trkpt lat="48.64782" lon="-2.46409">
        <ele>31</ele>
        <time>2014-10-20T14:52:22.1Z</time>
      </trkpt>
      <trkpt lat="48.6478" lon="-2.46408">
        <ele>31</ele>
        <time>2014-10-20T14:52:24.1Z</time>
      </trkpt>
      <trkpt lat="48.64778" lon="-2.46408">
        <ele>31</ele>
        <time>2014-10-20T14:52:26.1Z</time>
      </trkpt>
      <trkpt lat="48.64776" lon="-2.46407">
        <ele>31</ele>
        <time>2014-10-20T14:52:28.1Z</time>
      </trkpt>
      <trkpt lat="48.64772" lon="-2.46407">
        <ele>31</ele>
        <time>2014-10-20T14:52:31.1Z</time>
      </trkpt>
      <trkpt lat="48.64771" lon="-2.46407">
        <ele>31</ele>
        <time>2014-10-20T14:52:33.1Z</time>
      </trkpt>
      <trkpt lat="48.64768" lon="-2.46405">
        <ele>31</ele>
        <time>2014-10-20T14:52:36.1Z</time>
      </trkpt>
      <trkpt lat="48.64766" lon="-2.46405">
        <ele>31</ele>
        <time>2014-10-20T14:52:38.1Z</time>
      </trkpt>
      <trkpt lat="48.64762" lon="-2.46404">
        <ele>32</ele>
        <time>2014-10-20T14:52:41.1Z</time>
      </trkpt>
      <trkpt lat="48.6476" lon="-2.46404">
        <ele>32</ele>
        <time>2014-10-20T14:52:43.1Z</time>
      </trkpt>
      <trkpt lat="48.64758" lon="-2.46404">
        <ele>32</ele>
        <time>2014-10-20T14:52:46.1Z</time>
      </trkpt>
      <trkpt lat="48.64755" lon="-2.46401">
        <ele>32</ele>
        <time>2014-10-20T14:52:48.1Z</time>
      </trkpt>
      <trkpt lat="48.64753" lon="-2.464">
        <ele>32</ele>
        <time>2014-10-20T14:52:50.1Z</time>
      </trkpt>
      <trkpt lat="48.64752" lon="-2.46399">
        <ele>33</ele>
        <time>2014-10-20T14:52:52.1Z</time>
      </trkpt>
      <trkpt lat="48.6475" lon="-2.46398">
        <ele>33</ele>
        <time>2014-10-20T14:52:55.1Z</time>
      </trkpt>
      <trkpt lat="48.6475" lon="-2.46398">
        <ele>33</ele>
        <time>2014-10-20T14:52:57.1Z</time>
      </trkpt>
      <trkpt lat="48.64749" lon="-2.46397">
        <ele>33</ele>
        <time>2014-10-20T14:53:00.1Z</time>
      </trkpt>
      <trkpt lat="48.64748" lon="-2.46396">
        <ele>32</ele>
        <time>2014-10-20T14:53:03.1Z</time>
      </trkpt>
      <trkpt lat="48.64746" lon="-2.46395">
        <ele>32</ele>
        <time>2014-10-20T14:53:06.1Z</time>
      </trkpt>
      <trkpt lat="48.64744" lon="-2.46394">
        <ele>32</ele>
        <time>2014-10-20T14:53:09.1Z</time>
      </trkpt>
      <trkpt lat="48.64743" lon="-2.46394">
        <ele>32</ele>
        <time>2014-10-20T14:53:11.1Z</time>
      </trkpt>
      <trkpt lat="48.64742" lon="-2.46394">
        <ele>32</ele>
        <time>2014-10-20T14:53:14.1Z</time>
      </trkpt>
      <trkpt lat="48.64741" lon="-2.46393">
        <ele>32</ele>
        <time>2014-10-20T14:53:16.1Z</time>
      </trkpt>
      <trkpt lat="48.64739" lon="-2.46392">
        <ele>32</ele>
        <time>2014-10-20T14:53:19.1Z</time>
      </trkpt>
      <trkpt lat="48.64737" lon="-2.46392">
        <ele>32</ele>
        <time>2014-10-20T14:53:21.1Z</time>
      </trkpt>
      <trkpt lat="48.64734" lon="-2.46391">
        <ele>32</ele>
        <time>2014-10-20T14:53:24.1Z</time>
      </trkpt>
      <trkpt lat="48.64731" lon="-2.46389">
        <ele>32</ele>
        <time>2014-10-20T14:53:27.1Z</time>
      </trkpt>
      <trkpt lat="48.6473" lon="-2.46388">
        <ele>32</ele>
        <time>2014-10-20T14:53:29.1Z</time>
      </trkpt>
      <trkpt lat="48.64729" lon="-2.46388">
        <ele>32</ele>
        <time>2014-10-20T14:53:32.1Z</time>
      </trkpt>
      <trkpt lat="48.64729" lon="-2.46387">
        <ele>33</ele>
        <time>2014-10-20T14:53:34.1Z</time>
      </trkpt>
      <trkpt lat="48.64727" lon="-2.46386">
        <ele>32</ele>
        <time>2014-10-20T14:53:37.1Z</time>
      </trkpt>
      <trkpt lat="48.64726" lon="-2.46385">
        <ele>32</ele>
        <time>2014-10-20T14:53:39.1Z</time>
      </trkpt>
      <trkpt lat="48.64723" lon="-2.46383">
        <ele>32</ele>
        <time>2014-10-20T14:53:42.1Z</time>
      </trkpt>
      <trkpt lat="48.64721" lon="-2.46382">
        <ele>32</ele>
        <time>2014-10-20T14:53:44.1Z</time>
      </trkpt>
      <trkpt lat="48.64719" lon="-2.46381">
        <ele>32</ele>
        <time>2014-10-20T14:53:46.1Z</time>
      </trkpt>
      <trkpt lat="48.64717" lon="-2.4638">
        <ele>32</ele>
        <time>2014-10-20T14:53:49.1Z</time>
      </trkpt>
      <trkpt lat="48.64715" lon="-2.4638">
        <ele>32</ele>
        <time>2014-10-20T14:53:51.1Z</time>
      </trkpt>
      <trkpt lat="48.64713" lon="-2.4638">
        <ele>32</ele>
        <time>2014-10-20T14:53:53.1Z</time>
      </trkpt>
      <trkpt lat="48.64711" lon="-2.4638">
        <ele>32</ele>
        <time>2014-10-20T14:53:56.1Z</time>
      </trkpt>
      <trkpt lat="48.64709" lon="-2.4638">
        <ele>32</ele>
        <time>2014-10-20T14:53:59.1Z</time>
      </trkpt>
      <trkpt lat="48.64707" lon="-2.46379">
        <ele>33</ele>
        <time>2014-10-20T14:54:02.1Z</time>
      </trkpt>
      <trkpt lat="48.64706" lon="-2.46379">
        <ele>33</ele>
        <time>2014-10-20T14:54:04.1Z</time>
      </trkpt>
      <trkpt lat="48.64703" lon="-2.46374">
        <ele>33</ele>
        <time>2014-10-20T14:54:07.1Z</time>
      </trkpt>
      <trkpt lat="48.64701" lon="-2.46371">
        <ele>33</ele>
        <time>2014-10-20T14:54:09.1Z</time>
      </trkpt>
      <trkpt lat="48.647" lon="-2.46369">
        <ele>33</ele>
        <time>2014-10-20T14:54:11.1Z</time>
      </trkpt>
      <trkpt lat="48.64698" lon="-2.46365">
        <ele>34</ele>
        <time>2014-10-20T14:54:14.1Z</time>
      </trkpt>
      <trkpt lat="48.64696" lon="-2.46362">
        <ele>34</ele>
        <time>2014-10-20T14:54:17.1Z</time>
      </trkpt>
      <trkpt lat="48.64695" lon="-2.46362">
        <ele>34</ele>
        <time>2014-10-20T14:54:19.1Z</time>
      </trkpt>
      <trkpt lat="48.64693" lon="-2.46361">
        <ele>34</ele>
        <time>2014-10-20T14:54:22.1Z</time>
      </trkpt>
      <trkpt lat="48.64692" lon="-2.46361">
        <ele>34</ele>
        <time>2014-10-20T14:54:24.1Z</time>
      </trkpt>
      <trkpt lat="48.64692" lon="-2.46362">
        <ele>35</ele>
        <time>2014-10-20T14:54:26.1Z</time>
      </trkpt>
      <trkpt lat="48.64692" lon="-2.46362">
        <ele>34</ele>
        <time>2014-10-20T14:54:29.1Z</time>
      </trkpt>
      <trkpt lat="48.6469" lon="-2.46363">
        <ele>35</ele>
        <time>2014-10-20T14:54:32.1Z</time>
      </trkpt>
      <trkpt lat="48.6469" lon="-2.46363">
        <ele>34</ele>
        <time>2014-10-20T14:54:34.1Z</time>
      </trkpt>
      <trkpt lat="48.6469" lon="-2.46363">
        <ele>34</ele>
        <time>2014-10-20T14:54:36.1Z</time>
      </trkpt>
      <trkpt lat="48.64689" lon="-2.46364">
        <ele>34</ele>
        <time>2014-10-20T14:54:38.1Z</time>
      </trkpt>
      <trkpt lat="48.64689" lon="-2.46364">
        <ele>34</ele>
        <time>2014-10-20T14:54:40.1Z</time>
      </trkpt>
      <trkpt lat="48.64689" lon="-2.46364">
        <ele>34</ele>
        <time>2014-10-20T14:54:42.1Z</time>
      </trkpt>
      <trkpt lat="48.64688" lon="-2.46364">
        <ele>34</ele>
        <time>2014-10-20T14:54:45.1Z</time>
      </trkpt>
      <trkpt lat="48.64688" lon="-2.46363">
        <ele>34</ele>
        <time>2014-10-20T14:54:47.1Z</time>
      </trkpt>
      <trkpt lat="48.64688" lon="-2.46363">
        <ele>35</ele>
        <time>2014-10-20T14:54:50.1Z</time>
      </trkpt>
      <trkpt lat="48.64687" lon="-2.46363">
        <ele>34</ele>
        <time>2014-10-20T14:54:52.1Z</time>
      </trkpt>
      <trkpt lat="48.64687" lon="-2.46363">
        <ele>34</ele>
        <time>2014-10-20T14:54:54.1Z</time>
      </trkpt>
      <trkpt lat="48.64687" lon="-2.46362">
        <ele>35</ele>
        <time>2014-10-20T14:54:56.1Z</time>
      </trkpt>
      <trkpt lat="48.64687" lon="-2.46361">
        <ele>35</ele>
        <time>2014-10-20T14:54:59.1Z</time>
      </trkpt>
      <trkpt lat="48.64687" lon="-2.46362">
        <ele>35</ele>
        <time>2014-10-20T14:55:02.1Z</time>
      </trkpt>
      <trkpt lat="48.64687" lon="-2.46361">
        <ele>35</ele>
        <time>2014-10-20T14:55:04.1Z</time>
      </trkpt>
      <trkpt lat="48.64686" lon="-2.46358">
        <ele>34</ele>
        <time>2014-10-20T14:55:07.1Z</time>
      </trkpt>
      <trkpt lat="48.64686" lon="-2.46358">
        <ele>34</ele>
        <time>2014-10-20T14:55:10.1Z</time>
      </trkpt>
      <trkpt lat="48.64686" lon="-2.46358">
        <ele>34</ele>
        <time>2014-10-20T14:55:12.1Z</time>
      </trkpt>
      <trkpt lat="48.64685" lon="-2.46358">
        <ele>34</ele>
        <time>2014-10-20T14:55:15.1Z</time>
      </trkpt>
      <trkpt lat="48.64686" lon="-2.46359">
        <ele>34</ele>
        <time>2014-10-20T14:55:18.1Z</time>
      </trkpt>
      <trkpt lat="48.64686" lon="-2.46359">
        <ele>34</ele>
        <time>2014-10-20T14:55:20.1Z</time>
      </trkpt>
      <trkpt lat="48.64686" lon="-2.46359">
        <ele>35</ele>
        <time>2014-10-20T14:55:24.1Z</time>
      </trkpt>
      <trkpt lat="48.64686" lon="-2.4636">
        <ele>34</ele>
        <time>2014-10-20T14:55:27.1Z</time>
      </trkpt>
      <trkpt lat="48.64686" lon="-2.4636">
        <ele>35</ele>
        <time>2014-10-20T14:55:30.1Z</time>
      </trkpt>
      <trkpt lat="48.64686" lon="-2.46359">
        <ele>35</ele>
        <time>2014-10-20T14:55:33.1Z</time>
      </trkpt>
      <trkpt lat="48.64687" lon="-2.4636">
        <ele>35</ele>
        <time>2014-10-20T14:55:35.1Z</time>
      </trkpt>
      <trkpt lat="48.64687" lon="-2.46359">
        <ele>35</ele>
        <time>2014-10-20T14:55:38.1Z</time>
      </trkpt>
      <trkpt lat="48.64687" lon="-2.46359">
        <ele>35</ele>
        <time>2014-10-20T14:55:40.1Z</time>
      </trkpt>
      <trkpt lat="48.64687" lon="-2.4636">
        <ele>35</ele>
        <time>2014-10-20T14:55:44.1Z</time>
      </trkpt>
      <trkpt lat="48.64687" lon="-2.4636">
        <ele>35</ele>
        <time>2014-10-20T14:55:49.1Z</time>
      </trkpt>
      <trkpt lat="48.64686" lon="-2.46359">
        <ele>34</ele>
        <time>2014-10-20T14:55:51.1Z</time>
      </trkpt>
      <trkpt lat="48.64686" lon="-2.46359">
        <ele>35</ele>
        <time>2014-10-20T14:55:53.1Z</time>
      </trkpt>
      <trkpt lat="48.64686" lon="-2.46359">
        <ele>34</ele>
        <time>2014-10-20T14:55:55.1Z</time>
      </trkpt>
      <trkpt lat="48.64686" lon="-2.46359">
        <ele>35</ele>
        <time>2014-10-20T14:55:58.1Z</time>
      </trkpt>
      <trkpt lat="48.64686" lon="-2.46359">
        <ele>35</ele>
        <time>2014-10-20T14:56:00.1Z</time>
      </trkpt>
      <trkpt lat="48.64686" lon="-2.4636">
        <ele>35</ele>
        <time>2014-10-20T14:56:03.1Z</time>
      </trkpt>
      <trkpt lat="48.64686" lon="-2.4636">
        <ele>35</ele>
        <time>2014-10-20T14:56:05.1Z</time>
      </trkpt>
      <trkpt lat="48.64686" lon="-2.46359">
        <ele>35</ele>
        <time>2014-10-20T14:56:08.1Z</time>
      </trkpt>
      <trkpt lat="48.64687" lon="-2.4636">
        <ele>35</ele>
        <time>2014-10-20T14:56:11.1Z</time>
      </trkpt>
      <trkpt lat="48.64687" lon="-2.4636">
        <ele>35</ele>
        <time>2014-10-20T14:56:14.1Z</time>
      </trkpt>
      <trkpt lat="48.64687" lon="-2.46361">
        <ele>34</ele>
        <time>2014-10-20T14:56:16.1Z</time>
      </trkpt>
      <trkpt lat="48.64687" lon="-2.4636">
        <ele>35</ele>
        <time>2014-10-20T14:56:18.1Z</time>
      </trkpt>
      <trkpt lat="48.64687" lon="-2.4636">
        <ele>34</ele>
        <time>2014-10-20T14:56:21.1Z</time>
      </trkpt>
      <trkpt lat="48.64687" lon="-2.4636">
        <ele>35</ele>
        <time>2014-10-20T14:56:24.1Z</time>
      </trkpt>
      <trkpt lat="48.64688" lon="-2.46361">
        <ele>35</ele>
        <time>2014-10-20T14:56:27.1Z</time>
      </trkpt>
      <trkpt lat="48.64688" lon="-2.46361">
        <ele>35</ele>
        <time>2014-10-20T14:56:30.1Z</time>
      </trkpt>
      <trkpt lat="48.64688" lon="-2.46361">
        <ele>35</ele>
        <time>2014-10-20T14:56:32.1Z</time>
      </trkpt>
      <trkpt lat="48.64688" lon="-2.46361">
        <ele>35</ele>
        <time>2014-10-20T14:56:35.1Z</time>
      </trkpt>
      <trkpt lat="48.64688" lon="-2.46361">
        <ele>34</ele>
        <time>2014-10-20T14:56:38.1Z</time>
      </trkpt>
      <trkpt lat="48.64687" lon="-2.46361">
        <ele>34</ele>
        <time>2014-10-20T14:56:41.1Z</time>
      </trkpt>
      <trkpt lat="48.64687" lon="-2.46361">
        <ele>34</ele>
        <time>2014-10-20T14:56:43.1Z</time>
      </trkpt>
      <trkpt lat="48.64687" lon="-2.46361">
        <ele>35</ele>
        <time>2014-10-20T14:56:46.1Z</time>
      </trkpt>
      <trkpt lat="48.64687" lon="-2.4636">
        <ele>34</ele>
        <time>2014-10-20T14:56:49.1Z</time>
      </trkpt>
      <trkpt lat="48.64686" lon="-2.4636">
        <ele>34</ele>
        <time>2014-10-20T14:56:52.1Z</time>
      </trkpt>
      <trkpt lat="48.64685" lon="-2.4636">
        <ele>34</ele>
        <time>2014-10-20T14:56:55.1Z</time>
      </trkpt>
      <trkpt lat="48.64686" lon="-2.4636">
        <ele>35</ele>
        <time>2014-10-20T14:56:57.1Z</time>
      </trkpt>
      <trkpt lat="48.64686" lon="-2.4636">
        <ele>34</ele>
        <time>2014-10-20T14:57:00.1Z</time>
      </trkpt>
      <trkpt lat="48.64686" lon="-2.4636">
        <ele>35</ele>
        <time>2014-10-20T14:57:03.1Z</time>
      </trkpt>
      <trkpt lat="48.64686" lon="-2.4636">
        <ele>34</ele>
        <time>2014-10-20T14:57:05.1Z</time>
      </trkpt>
      <trkpt lat="48.64685" lon="-2.46359">
        <ele>34</ele>
        <time>2014-10-20T14:57:08.1Z</time>
      </trkpt>
      <trkpt lat="48.64685" lon="-2.46359">
        <ele>34</ele>
        <time>2014-10-20T14:57:10.1Z</time>
      </trkpt>
      <trkpt lat="48.64686" lon="-2.46358">
        <ele>34</ele>
        <time>2014-10-20T14:57:14.1Z</time>
      </trkpt>
      <trkpt lat="48.64685" lon="-2.46358">
        <ele>34</ele>
        <time>2014-10-20T14:57:16.1Z</time>
      </trkpt>
      <trkpt lat="48.64685" lon="-2.46358">
        <ele>34</ele>
        <time>2014-10-20T14:57:18.1Z</time>
      </trkpt>
      <trkpt lat="48.64685" lon="-2.46358">
        <ele>35</ele>
        <time>2014-10-20T14:57:21.1Z</time>
      </trkpt>
      <trkpt lat="48.64686" lon="-2.46358">
        <ele>35</ele>
        <time>2014-10-20T14:57:23.1Z</time>
      </trkpt>
      <trkpt lat="48.64686" lon="-2.46358">
        <ele>35</ele>
        <time>2014-10-20T14:57:25.1Z</time>
      </trkpt>
      <trkpt lat="48.64686" lon="-2.46358">
        <ele>35</ele>
        <time>2014-10-20T14:57:28.1Z</time>
      </trkpt>
      <trkpt lat="48.64686" lon="-2.46359">
        <ele>35</ele>
        <time>2014-10-20T14:57:31.1Z</time>
      </trkpt>
      <trkpt lat="48.64685" lon="-2.46359">
        <ele>35</ele>
        <time>2014-10-20T14:57:33.1Z</time>
      </trkpt>
      <trkpt lat="48.64685" lon="-2.46359">
        <ele>35</ele>
        <time>2014-10-20T14:57:35.1Z</time>
      </trkpt>
      <trkpt lat="48.64686" lon="-2.4636">
        <ele>35</ele>
        <time>2014-10-20T14:57:38.1Z</time>
      </trkpt>
      <trkpt lat="48.64686" lon="-2.46361">
        <ele>35</ele>
        <time>2014-10-20T14:57:40.1Z</time>
      </trkpt>
      <trkpt lat="48.64686" lon="-2.46361">
        <ele>35</ele>
        <time>2014-10-20T14:57:43.1Z</time>
      </trkpt>
      <trkpt lat="48.64686" lon="-2.46362">
        <ele>35</ele>
        <time>2014-10-20T14:57:45.1Z</time>
      </trkpt>
      <trkpt lat="48.64687" lon="-2.46362">
        <ele>35</ele>
        <time>2014-10-20T14:57:48.1Z</time>
      </trkpt>
      <trkpt lat="48.64687" lon="-2.46362">
        <ele>35</ele>
        <time>2014-10-20T14:57:50.1Z</time>
      </trkpt>
      <trkpt lat="48.64687" lon="-2.46362">
        <ele>35</ele>
        <time>2014-10-20T14:57:52.1Z</time>
      </trkpt>
      <trkpt lat="48.64687" lon="-2.46362">
        <ele>35</ele>
        <time>2014-10-20T14:57:56.1Z</time>
      </trkpt>
      <trkpt lat="48.64687" lon="-2.46362">
        <ele>35</ele>
        <time>2014-10-20T14:57:59.1Z</time>
      </trkpt>
      <trkpt lat="48.64687" lon="-2.46362">
        <ele>35</ele>
        <time>2014-10-20T14:58:01.1Z</time>
      </trkpt>
      <trkpt lat="48.64687" lon="-2.46363">
        <ele>35</ele>
        <time>2014-10-20T14:58:04.1Z</time>
      </trkpt>
      <trkpt lat="48.64687" lon="-2.46363">
        <ele>35</ele>
        <time>2014-10-20T14:58:06.1Z</time>
      </trkpt>
      <trkpt lat="48.64687" lon="-2.46363">
        <ele>35</ele>
        <time>2014-10-20T14:58:09.1Z</time>
      </trkpt>
      <trkpt lat="48.64688" lon="-2.46363">
        <ele>35</ele>
        <time>2014-10-20T14:58:12.1Z</time>
      </trkpt>
      <trkpt lat="48.64688" lon="-2.46363">
        <ele>35</ele>
        <time>2014-10-20T14:58:15.1Z</time>
      </trkpt>
      <trkpt lat="48.64688" lon="-2.46363">
        <ele>34</ele>
        <time>2014-10-20T14:58:18.1Z</time>
      </trkpt>
      <trkpt lat="48.64688" lon="-2.46363">
        <ele>34</ele>
        <time>2014-10-20T14:58:21.1Z</time>
      </trkpt>
      <trkpt lat="48.64688" lon="-2.46363">
        <ele>34</ele>
        <time>2014-10-20T14:58:23.1Z</time>
      </trkpt>
      <trkpt lat="48.64688" lon="-2.46363">
        <ele>34</ele>
        <time>2014-10-20T14:58:25.1Z</time>
      </trkpt>
      <trkpt lat="48.64688" lon="-2.46363">
        <ele>34</ele>
        <time>2014-10-20T14:58:28.1Z</time>
      </trkpt>
      <trkpt lat="48.64688" lon="-2.46362">
        <ele>34</ele>
        <time>2014-10-20T14:58:31.1Z</time>
      </trkpt>
      <trkpt lat="48.64687" lon="-2.46363">
        <ele>34</ele>
        <time>2014-10-20T14:58:33.1Z</time>
      </trkpt>
      <trkpt lat="48.64687" lon="-2.46362">
        <ele>34</ele>
        <time>2014-10-20T14:58:35.1Z</time>
      </trkpt>
      <trkpt lat="48.64686" lon="-2.46361">
        <ele>34</ele>
        <time>2014-10-20T14:58:38.1Z</time>
      </trkpt>
      <trkpt lat="48.64686" lon="-2.46361">
        <ele>35</ele>
        <time>2014-10-20T14:58:40.1Z</time>
      </trkpt>
      <trkpt lat="48.64686" lon="-2.46362">
        <ele>35</ele>
        <time>2014-10-20T14:58:43.1Z</time>
      </trkpt>
      <trkpt lat="48.64685" lon="-2.46361">
        <ele>35</ele>
        <time>2014-10-20T14:58:45.1Z</time>
      </trkpt>
      <trkpt lat="48.64685" lon="-2.46361">
        <ele>35</ele>
        <time>2014-10-20T14:58:47.1Z</time>
      </trkpt>
      <trkpt lat="48.64682" lon="-2.4636">
        <ele>35</ele>
        <time>2014-10-20T14:58:50.1Z</time>
      </trkpt>
      <trkpt lat="48.64682" lon="-2.4636">
        <ele>35</ele>
        <time>2014-10-20T14:58:52.1Z</time>
      </trkpt>
      <trkpt lat="48.6468" lon="-2.4636">
        <ele>35</ele>
        <time>2014-10-20T14:58:55.1Z</time>
      </trkpt>
      <trkpt lat="48.64679" lon="-2.4636">
        <ele>35</ele>
        <time>2014-10-20T14:58:57.1Z</time>
      </trkpt>
      <trkpt lat="48.64677" lon="-2.46359">
        <ele>34</ele>
        <time>2014-10-20T14:58:59.1Z</time>
      </trkpt>
      <trkpt lat="48.64675" lon="-2.46358">
        <ele>35</ele>
        <time>2014-10-20T14:59:02.1Z</time>
      </trkpt>
      <trkpt lat="48.64673" lon="-2.46357">
        <ele>35</ele>
        <time>2014-10-20T14:59:04.1Z</time>
      </trkpt>
      <trkpt lat="48.64671" lon="-2.46358">
        <ele>35</ele>
        <time>2014-10-20T14:59:06.1Z</time>
      </trkpt>
      <trkpt lat="48.64668" lon="-2.46358">
        <ele>35</ele>
        <time>2014-10-20T14:59:09.1Z</time>
      </trkpt>
      <trkpt lat="48.64665" lon="-2.46357">
        <ele>35</ele>
        <time>2014-10-20T14:59:12.1Z</time>
      </trkpt>
      <trkpt lat="48.64663" lon="-2.46357">
        <ele>35</ele>
        <time>2014-10-20T14:59:14.1Z</time>
      </trkpt>
      <trkpt lat="48.64661" lon="-2.46358">
        <ele>35</ele>
        <time>2014-10-20T14:59:16.1Z</time>
      </trkpt>
      <trkpt lat="48.64659" lon="-2.46357">
        <ele>35</ele>
        <time>2014-10-20T14:59:18.1Z</time>
      </trkpt>
      <trkpt lat="48.64656" lon="-2.46357">
        <ele>35</ele>
        <time>2014-10-20T14:59:21.1Z</time>
      </trkpt>
      <trkpt lat="48.64654" lon="-2.46357">
        <ele>36</ele>
        <time>2014-10-20T14:59:24.1Z</time>
      </trkpt>
      <trkpt lat="48.64652" lon="-2.46357">
        <ele>36</ele>
        <time>2014-10-20T14:59:27.1Z</time>
      </trkpt>
      <trkpt lat="48.64649" lon="-2.46356">
        <ele>36</ele>
        <time>2014-10-20T14:59:30.1Z</time>
      </trkpt>
      <trkpt lat="48.64647" lon="-2.46355">
        <ele>36</ele>
        <time>2014-10-20T14:59:32.1Z</time>
      </trkpt>
      <trkpt lat="48.64645" lon="-2.46355">
        <ele>36</ele>
        <time>2014-10-20T14:59:34.1Z</time>
      </trkpt>
      <trkpt lat="48.64643" lon="-2.46355">
        <ele>36</ele>
        <time>2014-10-20T14:59:36.1Z</time>
      </trkpt>
      <trkpt lat="48.64641" lon="-2.46354">
        <ele>36</ele>
        <time>2014-10-20T14:59:38.1Z</time>
      </trkpt>
      <trkpt lat="48.64639" lon="-2.46354">
        <ele>36</ele>
        <time>2014-10-20T14:59:40.1Z</time>
      </trkpt>
      <trkpt lat="48.64636" lon="-2.46353">
        <ele>36</ele>
        <time>2014-10-20T14:59:43.1Z</time>
      </trkpt>
      <trkpt lat="48.64632" lon="-2.46351">
        <ele>36</ele>
        <time>2014-10-20T14:59:46.1Z</time>
      </trkpt>
      <trkpt lat="48.64628" lon="-2.4635">
        <ele>36</ele>
        <time>2014-10-20T14:59:49.1Z</time>
      </trkpt>
      <trkpt lat="48.64625" lon="-2.4635">
        <ele>36</ele>
        <time>2014-10-20T14:59:51.1Z</time>
      </trkpt>
      <trkpt lat="48.64623" lon="-2.4635">
        <ele>36</ele>
        <time>2014-10-20T14:59:53.1Z</time>
      </trkpt>
      <trkpt lat="48.64619" lon="-2.46349">
        <ele>36</ele>
        <time>2014-10-20T14:59:56.1Z</time>
      </trkpt>
      <trkpt lat="48.64616" lon="-2.46349">
        <ele>36</ele>
        <time>2014-10-20T14:59:58.1Z</time>
      </trkpt>
      <trkpt lat="48.64613" lon="-2.46349">
        <ele>36</ele>
        <time>2014-10-20T15:00:01.1Z</time>
      </trkpt>
      <trkpt lat="48.64611" lon="-2.46349">
        <ele>36</ele>
        <time>2014-10-20T15:00:03.1Z</time>
      </trkpt>
      <trkpt lat="48.64607" lon="-2.46349">
        <ele>36</ele>
        <time>2014-10-20T15:00:06.1Z</time>
      </trkpt>
      <trkpt lat="48.64604" lon="-2.46349">
        <ele>36</ele>
        <time>2014-10-20T15:00:09.1Z</time>
      </trkpt>
      <trkpt lat="48.64601" lon="-2.4635">
        <ele>37</ele>
        <time>2014-10-20T15:00:11.1Z</time>
      </trkpt>
      <trkpt lat="48.64597" lon="-2.4635">
        <ele>37</ele>
        <time>2014-10-20T15:00:14.1Z</time>
      </trkpt>
      <trkpt lat="48.64594" lon="-2.4635">
        <ele>37</ele>
        <time>2014-10-20T15:00:17.1Z</time>
      </trkpt>
      <trkpt lat="48.64592" lon="-2.4635">
        <ele>37</ele>
        <time>2014-10-20T15:00:19.1Z</time>
      </trkpt>
      <trkpt lat="48.64589" lon="-2.4635">
        <ele>36</ele>
        <time>2014-10-20T15:00:21.1Z</time>
      </trkpt>
      <trkpt lat="48.64586" lon="-2.46351">
        <ele>36</ele>
        <time>2014-10-20T15:00:24.1Z</time>
      </trkpt>
      <trkpt lat="48.64583" lon="-2.46351">
        <ele>36</ele>
        <time>2014-10-20T15:00:26.1Z</time>
      </trkpt>
      <trkpt lat="48.64581" lon="-2.46351">
        <ele>36</ele>
        <time>2014-10-20T15:00:28.1Z</time>
      </trkpt>
      <trkpt lat="48.64579" lon="-2.4635">
        <ele>37</ele>
        <time>2014-10-20T15:00:30.1Z</time>
      </trkpt>
      <trkpt lat="48.64576" lon="-2.4635">
        <ele>37</ele>
        <time>2014-10-20T15:00:32.1Z</time>
      </trkpt>
      <trkpt lat="48.64573" lon="-2.4635">
        <ele>36</ele>
        <time>2014-10-20T15:00:34.1Z</time>
      </trkpt>
      <trkpt lat="48.64571" lon="-2.4635">
        <ele>37</ele>
        <time>2014-10-20T15:00:36.1Z</time>
      </trkpt>
      <trkpt lat="48.64567" lon="-2.4635">
        <ele>37</ele>
        <time>2014-10-20T15:00:39.1Z</time>
      </trkpt>
      <trkpt lat="48.64564" lon="-2.46351">
        <ele>37</ele>
        <time>2014-10-20T15:00:42.1Z</time>
      </trkpt>
      <trkpt lat="48.64561" lon="-2.46351">
        <ele>37</ele>
        <time>2014-10-20T15:00:44.1Z</time>
      </trkpt>
      <trkpt lat="48.64558" lon="-2.46351">
        <ele>37</ele>
        <time>2014-10-20T15:00:46.1Z</time>
      </trkpt>
      <trkpt lat="48.64556" lon="-2.46351">
        <ele>37</ele>
        <time>2014-10-20T15:00:48.1Z</time>
      </trkpt>
      <trkpt lat="48.64552" lon="-2.46351">
        <ele>37</ele>
        <time>2014-10-20T15:00:51.1Z</time>
      </trkpt>
      <trkpt lat="48.64549" lon="-2.46351">
        <ele>37</ele>
        <time>2014-10-20T15:00:53.1Z</time>
      </trkpt>
      <trkpt lat="48.64546" lon="-2.4635">
        <ele>37</ele>
        <time>2014-10-20T15:00:56.1Z</time>
      </trkpt>
      <trkpt lat="48.64543" lon="-2.4635">
        <ele>36</ele>
        <time>2014-10-20T15:00:58.1Z</time>
      </trkpt>
      <trkpt lat="48.64541" lon="-2.46349">
        <ele>36</ele>
        <time>2014-10-20T15:01:00.1Z</time>
      </trkpt>
      <trkpt lat="48.64537" lon="-2.46348">
        <ele>36</ele>
        <time>2014-10-20T15:01:03.1Z</time>
      </trkpt>
      <trkpt lat="48.64534" lon="-2.46348">
        <ele>37</ele>
        <time>2014-10-20T15:01:06.1Z</time>
      </trkpt>
      <trkpt lat="48.64531" lon="-2.46348">
        <ele>37</ele>
        <time>2014-10-20T15:01:08.1Z</time>
      </trkpt>
      <trkpt lat="48.64529" lon="-2.46348">
        <ele>37</ele>
        <time>2014-10-20T15:01:10.1Z</time>
      </trkpt>
      <trkpt lat="48.64526" lon="-2.46347">
        <ele>37</ele>
        <time>2014-10-20T15:01:13.1Z</time>
      </trkpt>
      <trkpt lat="48.64523" lon="-2.46346">
        <ele>37</ele>
        <time>2014-10-20T15:01:16.1Z</time>
      </trkpt>
      <trkpt lat="48.64521" lon="-2.46345">
        <ele>37</ele>
        <time>2014-10-20T15:01:18.1Z</time>
      </trkpt>
      <trkpt lat="48.64517" lon="-2.46344">
        <ele>37</ele>
        <time>2014-10-20T15:01:21.1Z</time>
      </trkpt>
      <trkpt lat="48.64515" lon="-2.46343">
        <ele>37</ele>
        <time>2014-10-20T15:01:23.1Z</time>
      </trkpt>
      <trkpt lat="48.64511" lon="-2.46343">
        <ele>36</ele>
        <time>2014-10-20T15:01:26.1Z</time>
      </trkpt>
      <trkpt lat="48.64507" lon="-2.46343">
        <ele>37</ele>
        <time>2014-10-20T15:01:29.1Z</time>
      </trkpt>
      <trkpt lat="48.64504" lon="-2.46344">
        <ele>37</ele>
        <time>2014-10-20T15:01:31.1Z</time>
      </trkpt>
      <trkpt lat="48.64502" lon="-2.46344">
        <ele>37</ele>
        <time>2014-10-20T15:01:33.1Z</time>
      </trkpt>
      <trkpt lat="48.645" lon="-2.46343">
        <ele>37</ele>
        <time>2014-10-20T15:01:35.1Z</time>
      </trkpt>
      <trkpt lat="48.64496" lon="-2.46343">
        <ele>37</ele>
        <time>2014-10-20T15:01:38.1Z</time>
      </trkpt>
      <trkpt lat="48.64492" lon="-2.46343">
        <ele>36</ele>
        <time>2014-10-20T15:01:41.1Z</time>
      </trkpt>
      <trkpt lat="48.64489" lon="-2.46343">
        <ele>36</ele>
        <time>2014-10-20T15:01:44.1Z</time>
      </trkpt>
      <trkpt lat="48.64485" lon="-2.46343">
        <ele>36</ele>
        <time>2014-10-20T15:01:47.1Z</time>
      </trkpt>
      <trkpt lat="48.64482" lon="-2.46342">
        <ele>36</ele>
        <time>2014-10-20T15:01:49.1Z</time>
      </trkpt>
      <trkpt lat="48.64479" lon="-2.46343">
        <ele>36</ele>
        <time>2014-10-20T15:01:51.1Z</time>
      </trkpt>
      <trkpt lat="48.64477" lon="-2.46343">
        <ele>36</ele>
        <time>2014-10-20T15:01:53.1Z</time>
      </trkpt>
      <trkpt lat="48.64475" lon="-2.46343">
        <ele>36</ele>
        <time>2014-10-20T15:01:55.1Z</time>
      </trkpt>
      <trkpt lat="48.64473" lon="-2.46343">
        <ele>36</ele>
        <time>2014-10-20T15:01:57.1Z</time>
      </trkpt>
      <trkpt lat="48.64471" lon="-2.46343">
        <ele>36</ele>
        <time>2014-10-20T15:01:59.1Z</time>
      </trkpt>
      <trkpt lat="48.64469" lon="-2.46343">
        <ele>36</ele>
        <time>2014-10-20T15:02:01.1Z</time>
      </trkpt>
      <trkpt lat="48.64466" lon="-2.46344">
        <ele>36</ele>
        <time>2014-10-20T15:02:04.1Z</time>
      </trkpt>
      <trkpt lat="48.64464" lon="-2.46344">
        <ele>36</ele>
        <time>2014-10-20T15:02:06.1Z</time>
      </trkpt>
      <trkpt lat="48.6446" lon="-2.46344">
        <ele>36</ele>
        <time>2014-10-20T15:02:09.1Z</time>
      </trkpt>
      <trkpt lat="48.64458" lon="-2.46344">
        <ele>36</ele>
        <time>2014-10-20T15:02:11.1Z</time>
      </trkpt>
      <trkpt lat="48.64454" lon="-2.46343">
        <ele>36</ele>
        <time>2014-10-20T15:02:14.1Z</time>
      </trkpt>
      <trkpt lat="48.64452" lon="-2.46343">
        <ele>36</ele>
        <time>2014-10-20T15:02:16.1Z</time>
      </trkpt>
      <trkpt lat="48.64449" lon="-2.46344">
        <ele>36</ele>
        <time>2014-10-20T15:02:19.1Z</time>
      </trkpt>
      <trkpt lat="48.64446" lon="-2.46344">
        <ele>36</ele>
        <time>2014-10-20T15:02:21.1Z</time>
      </trkpt>
      <trkpt lat="48.64444" lon="-2.46344">
        <ele>36</ele>
        <time>2014-10-20T15:02:23.1Z</time>
      </trkpt>
      <trkpt lat="48.64442" lon="-2.46345">
        <ele>36</ele>
        <time>2014-10-20T15:02:25.1Z</time>
      </trkpt>
      <trkpt lat="48.64439" lon="-2.46345">
        <ele>36</ele>
        <time>2014-10-20T15:02:27.1Z</time>
      </trkpt>
      <trkpt lat="48.64435" lon="-2.46344">
        <ele>36</ele>
        <time>2014-10-20T15:02:30.1Z</time>
      </trkpt>
      <trkpt lat="48.64433" lon="-2.46343">
        <ele>36</ele>
        <time>2014-10-20T15:02:32.1Z</time>
      </trkpt>
      <trkpt lat="48.64429" lon="-2.46344">
        <ele>37</ele>
        <time>2014-10-20T15:02:35.1Z</time>
      </trkpt>
      <trkpt lat="48.64428" lon="-2.46345">
        <ele>36</ele>
        <time>2014-10-20T15:02:38.1Z</time>
      </trkpt>
      <trkpt lat="48.64428" lon="-2.46346">
        <ele>36</ele>
        <time>2014-10-20T15:02:41.1Z</time>
      </trkpt>
      <trkpt lat="48.64427" lon="-2.46346">
        <ele>36</ele>
        <time>2014-10-20T15:02:43.1Z</time>
      </trkpt>
      <trkpt lat="48.64427" lon="-2.46348">
        <ele>36</ele>
        <time>2014-10-20T15:02:45.1Z</time>
      </trkpt>
      <trkpt lat="48.64427" lon="-2.46351">
        <ele>36</ele>
        <time>2014-10-20T15:02:48.1Z</time>
      </trkpt>
      <trkpt lat="48.64426" lon="-2.46354">
        <ele>36</ele>
        <time>2014-10-20T15:02:50.1Z</time>
      </trkpt>
      <trkpt lat="48.64426" lon="-2.46353">
        <ele>36</ele>
        <time>2014-10-20T15:02:52.1Z</time>
      </trkpt>
      <trkpt lat="48.64425" lon="-2.4635">
        <ele>36</ele>
        <time>2014-10-20T15:02:55.1Z</time>
      </trkpt>
      <trkpt lat="48.64422" lon="-2.46348">
        <ele>36</ele>
        <time>2014-10-20T15:02:58.1Z</time>
      </trkpt>
      <trkpt lat="48.6442" lon="-2.46347">
        <ele>36</ele>
        <time>2014-10-20T15:03:01.1Z</time>
      </trkpt>
      <trkpt lat="48.64419" lon="-2.46346">
        <ele>36</ele>
        <time>2014-10-20T15:03:03.1Z</time>
      </trkpt>
      <trkpt lat="48.64418" lon="-2.46347">
        <ele>36</ele>
        <time>2014-10-20T15:03:05.1Z</time>
      </trkpt>
      <trkpt lat="48.64417" lon="-2.46347">
        <ele>36</ele>
        <time>2014-10-20T15:03:07.1Z</time>
      </trkpt>
      <trkpt lat="48.64414" lon="-2.46348">
        <ele>36</ele>
        <time>2014-10-20T15:03:10.1Z</time>
      </trkpt>
      <trkpt lat="48.64413" lon="-2.46347">
        <ele>36</ele>
        <time>2014-10-20T15:03:12.1Z</time>
      </trkpt>
      <trkpt lat="48.6441" lon="-2.46347">
        <ele>36</ele>
        <time>2014-10-20T15:03:15.1Z</time>
      </trkpt>
      <trkpt lat="48.64408" lon="-2.46347">
        <ele>36</ele>
        <time>2014-10-20T15:03:17.1Z</time>
      </trkpt>
      <trkpt lat="48.64405" lon="-2.46345">
        <ele>36</ele>
        <time>2014-10-20T15:03:19.1Z</time>
      </trkpt>
      <trkpt lat="48.64402" lon="-2.46344">
        <ele>36</ele>
        <time>2014-10-20T15:03:22.1Z</time>
      </trkpt>
      <trkpt lat="48.644" lon="-2.46344">
        <ele>36</ele>
        <time>2014-10-20T15:03:24.1Z</time>
      </trkpt>
      <trkpt lat="48.64397" lon="-2.46344">
        <ele>36</ele>
        <time>2014-10-20T15:03:26.1Z</time>
      </trkpt>
      <trkpt lat="48.64395" lon="-2.46344">
        <ele>36</ele>
        <time>2014-10-20T15:03:28.1Z</time>
      </trkpt>
      <trkpt lat="48.64391" lon="-2.46343">
        <ele>36</ele>
        <time>2014-10-20T15:03:30.1Z</time>
      </trkpt>
      <trkpt lat="48.64388" lon="-2.46345">
        <ele>36</ele>
        <time>2014-10-20T15:03:33.1Z</time>
      </trkpt>
      <trkpt lat="48.64383" lon="-2.46343">
        <ele>36</ele>
        <time>2014-10-20T15:03:36.1Z</time>
      </trkpt>
      <trkpt lat="48.6438" lon="-2.46343">
        <ele>36</ele>
        <time>2014-10-20T15:03:39.1Z</time>
      </trkpt>
      <trkpt lat="48.64378" lon="-2.46341">
        <ele>36</ele>
        <time>2014-10-20T15:03:42.1Z</time>
      </trkpt>
      <trkpt lat="48.64376" lon="-2.46341">
        <ele>36</ele>
        <time>2014-10-20T15:03:44.1Z</time>
      </trkpt>
      <trkpt lat="48.64374" lon="-2.46341">
        <ele>36</ele>
        <time>2014-10-20T15:03:46.1Z</time>
      </trkpt>
      <trkpt lat="48.64372" lon="-2.46342">
        <ele>37</ele>
        <time>2014-10-20T15:03:48.1Z</time>
      </trkpt>
      <trkpt lat="48.6437" lon="-2.46341">
        <ele>37</ele>
        <time>2014-10-20T15:03:50.1Z</time>
      </trkpt>
      <trkpt lat="48.64366" lon="-2.4634">
        <ele>37</ele>
        <time>2014-10-20T15:03:53.1Z</time>
      </trkpt>
      <trkpt lat="48.64363" lon="-2.46341">
        <ele>37</ele>
        <time>2014-10-20T15:03:56.1Z</time>
      </trkpt>
      <trkpt lat="48.64359" lon="-2.46342">
        <ele>37</ele>
        <time>2014-10-20T15:03:59.1Z</time>
      </trkpt>
      <trkpt lat="48.64356" lon="-2.46343">
        <ele>37</ele>
        <time>2014-10-20T15:04:02.1Z</time>
      </trkpt>
      <trkpt lat="48.64352" lon="-2.46343">
        <ele>37</ele>
        <time>2014-10-20T15:04:05.1Z</time>
      </trkpt>
      <trkpt lat="48.6435" lon="-2.46343">
        <ele>37</ele>
        <time>2014-10-20T15:04:07.1Z</time>
      </trkpt>
      <trkpt lat="48.64347" lon="-2.46343">
        <ele>37</ele>
        <time>2014-10-20T15:04:10.1Z</time>
      </trkpt>
      <trkpt lat="48.64344" lon="-2.46343">
        <ele>37</ele>
        <time>2014-10-20T15:04:12.1Z</time>
      </trkpt>
      <trkpt lat="48.64341" lon="-2.46342">
        <ele>38</ele>
        <time>2014-10-20T15:04:15.1Z</time>
      </trkpt>
      <trkpt lat="48.64337" lon="-2.46341">
        <ele>38</ele>
        <time>2014-10-20T15:04:18.1Z</time>
      </trkpt>
      <trkpt lat="48.64333" lon="-2.46341">
        <ele>38</ele>
        <time>2014-10-20T15:04:21.1Z</time>
      </trkpt>
      <trkpt lat="48.64331" lon="-2.46341">
        <ele>38</ele>
        <time>2014-10-20T15:04:23.1Z</time>
      </trkpt>
      <trkpt lat="48.64328" lon="-2.46342">
        <ele>38</ele>
        <time>2014-10-20T15:04:25.1Z</time>
      </trkpt>
      <trkpt lat="48.64326" lon="-2.46341">
        <ele>38</ele>
        <time>2014-10-20T15:04:27.1Z</time>
      </trkpt>
      <trkpt lat="48.64323" lon="-2.46342">
        <ele>38</ele>
        <time>2014-10-20T15:04:29.1Z</time>
      </trkpt>
      <trkpt lat="48.6432" lon="-2.46343">
        <ele>38</ele>
        <time>2014-10-20T15:04:32.1Z</time>
      </trkpt>
      <trkpt lat="48.64317" lon="-2.46343">
        <ele>38</ele>
        <time>2014-10-20T15:04:34.1Z</time>
      </trkpt>
      <trkpt lat="48.64315" lon="-2.46343">
        <ele>39</ele>
        <time>2014-10-20T15:04:36.1Z</time>
      </trkpt>
      <trkpt lat="48.64312" lon="-2.46341">
        <ele>39</ele>
        <time>2014-10-20T15:04:39.1Z</time>
      </trkpt>
      <trkpt lat="48.64309" lon="-2.46341">
        <ele>39</ele>
        <time>2014-10-20T15:04:41.1Z</time>
      </trkpt>
      <trkpt lat="48.64306" lon="-2.46341">
        <ele>39</ele>
        <time>2014-10-20T15:04:43.1Z</time>
      </trkpt>
      <trkpt lat="48.64303" lon="-2.46341">
        <ele>39</ele>
        <time>2014-10-20T15:04:46.1Z</time>
      </trkpt>
      <trkpt lat="48.643" lon="-2.46341">
        <ele>39</ele>
        <time>2014-10-20T15:04:48.1Z</time>
      </trkpt>
      <trkpt lat="48.64298" lon="-2.46341">
        <ele>39</ele>
        <time>2014-10-20T15:04:50.1Z</time>
      </trkpt>
      <trkpt lat="48.64294" lon="-2.4634">
        <ele>39</ele>
        <time>2014-10-20T15:04:53.1Z</time>
      </trkpt>
      <trkpt lat="48.64291" lon="-2.4634">
        <ele>40</ele>
        <time>2014-10-20T15:04:56.1Z</time>
      </trkpt>
      <trkpt lat="48.64288" lon="-2.4634">
        <ele>40</ele>
        <time>2014-10-20T15:04:58.1Z</time>
      </trkpt>
      <trkpt lat="48.64286" lon="-2.4634">
        <ele>40</ele>
        <time>2014-10-20T15:05:00.1Z</time>
      </trkpt>
      <trkpt lat="48.64283" lon="-2.4634">
        <ele>40</ele>
        <time>2014-10-20T15:05:03.1Z</time>
      </trkpt>
      <trkpt lat="48.64279" lon="-2.4634">
        <ele>40</ele>
        <time>2014-10-20T15:05:06.1Z</time>
      </trkpt>
      <trkpt lat="48.64275" lon="-2.4634">
        <ele>40</ele>
        <time>2014-10-20T15:05:09.1Z</time>
      </trkpt>
      <trkpt lat="48.64274" lon="-2.4634">
        <ele>40</ele>
        <time>2014-10-20T15:05:11.1Z</time>
      </trkpt>
      <trkpt lat="48.6427" lon="-2.4634">
        <ele>41</ele>
        <time>2014-10-20T15:05:14.1Z</time>
      </trkpt>
      <trkpt lat="48.64267" lon="-2.4634">
        <ele>41</ele>
        <time>2014-10-20T15:05:17.1Z</time>
      </trkpt>
      <trkpt lat="48.64266" lon="-2.4634">
        <ele>41</ele>
        <time>2014-10-20T15:05:19.1Z</time>
      </trkpt>
      <trkpt lat="48.64263" lon="-2.4634">
        <ele>41</ele>
        <time>2014-10-20T15:05:22.1Z</time>
      </trkpt>
      <trkpt lat="48.6426" lon="-2.46339">
        <ele>42</ele>
        <time>2014-10-20T15:05:24.1Z</time>
      </trkpt>
      <trkpt lat="48.64257" lon="-2.4634">
        <ele>42</ele>
        <time>2014-10-20T15:05:27.1Z</time>
      </trkpt>
      <trkpt lat="48.64255" lon="-2.4634">
        <ele>42</ele>
        <time>2014-10-20T15:05:29.1Z</time>
      </trkpt>
      <trkpt lat="48.64251" lon="-2.4634">
        <ele>42</ele>
        <time>2014-10-20T15:05:32.1Z</time>
      </trkpt>
      <trkpt lat="48.64249" lon="-2.4634">
        <ele>42</ele>
        <time>2014-10-20T15:05:34.1Z</time>
      </trkpt>
      <trkpt lat="48.64246" lon="-2.4634">
        <ele>42</ele>
        <time>2014-10-20T15:05:37.1Z</time>
      </trkpt>
      <trkpt lat="48.64243" lon="-2.46339">
        <ele>43</ele>
        <time>2014-10-20T15:05:40.1Z</time>
      </trkpt>
      <trkpt lat="48.64241" lon="-2.46339">
        <ele>43</ele>
        <time>2014-10-20T15:05:42.1Z</time>
      </trkpt>
      <trkpt lat="48.64238" lon="-2.46339">
        <ele>43</ele>
        <time>2014-10-20T15:05:44.1Z</time>
      </trkpt>
      <trkpt lat="48.64235" lon="-2.46339">
        <ele>43</ele>
        <time>2014-10-20T15:05:47.1Z</time>
      </trkpt>
      <trkpt lat="48.64231" lon="-2.46339">
        <ele>43</ele>
        <time>2014-10-20T15:05:50.1Z</time>
      </trkpt>
      <trkpt lat="48.64228" lon="-2.46338">
        <ele>43</ele>
        <time>2014-10-20T15:05:53.1Z</time>
      </trkpt>
      <trkpt lat="48.64224" lon="-2.46337">
        <ele>43</ele>
        <time>2014-10-20T15:05:56.1Z</time>
      </trkpt>
      <trkpt lat="48.64222" lon="-2.46337">
        <ele>44</ele>
        <time>2014-10-20T15:05:58.1Z</time>
      </trkpt>
      <trkpt lat="48.6422" lon="-2.46337">
        <ele>43</ele>
        <time>2014-10-20T15:06:00.1Z</time>
      </trkpt>
      <trkpt lat="48.64217" lon="-2.46337">
        <ele>44</ele>
        <time>2014-10-20T15:06:03.1Z</time>
      </trkpt>
      <trkpt lat="48.64213" lon="-2.46337">
        <ele>44</ele>
        <time>2014-10-20T15:06:06.1Z</time>
      </trkpt>
      <trkpt lat="48.6421" lon="-2.46336">
        <ele>44</ele>
        <time>2014-10-20T15:06:09.1Z</time>
      </trkpt>
      <trkpt lat="48.64206" lon="-2.46336">
        <ele>44</ele>
        <time>2014-10-20T15:06:12.1Z</time>
      </trkpt>
      <trkpt lat="48.64204" lon="-2.46336">
        <ele>44</ele>
        <time>2014-10-20T15:06:14.1Z</time>
      </trkpt>
      <trkpt lat="48.64201" lon="-2.46336">
        <ele>45</ele>
        <time>2014-10-20T15:06:17.1Z</time>
      </trkpt>
      <trkpt lat="48.64198" lon="-2.46336">
        <ele>45</ele>
        <time>2014-10-20T15:06:20.1Z</time>
      </trkpt>
      <trkpt lat="48.64196" lon="-2.46337">
        <ele>45</ele>
        <time>2014-10-20T15:06:22.1Z</time>
      </trkpt>
      <trkpt lat="48.64194" lon="-2.4634">
        <ele>45</ele>
        <time>2014-10-20T15:06:24.1Z</time>
      </trkpt>
      <trkpt lat="48.64192" lon="-2.46344">
        <ele>45</ele>
        <time>2014-10-20T15:06:27.1Z</time>
      </trkpt>
      <trkpt lat="48.64191" lon="-2.46347">
        <ele>46</ele>
        <time>2014-10-20T15:06:29.1Z</time>
      </trkpt>
      <trkpt lat="48.64189" lon="-2.46353">
        <ele>46</ele>
        <time>2014-10-20T15:06:32.1Z</time>
      </trkpt>
      <trkpt lat="48.64188" lon="-2.46356">
        <ele>46</ele>
        <time>2014-10-20T15:06:35.1Z</time>
      </trkpt>
      <trkpt lat="48.64186" lon="-2.46358">
        <ele>46</ele>
        <time>2014-10-20T15:06:37.1Z</time>
      </trkpt>
      <trkpt lat="48.64185" lon="-2.46361">
        <ele>47</ele>
        <time>2014-10-20T15:06:40.1Z</time>
      </trkpt>
      <trkpt lat="48.64182" lon="-2.46364">
        <ele>47</ele>
        <time>2014-10-20T15:06:43.1Z</time>
      </trkpt>
      <trkpt lat="48.6418" lon="-2.46364">
        <ele>47</ele>
        <time>2014-10-20T15:06:45.1Z</time>
      </trkpt>
      <trkpt lat="48.64177" lon="-2.46364">
        <ele>47</ele>
        <time>2014-10-20T15:06:47.1Z</time>
      </trkpt>
      <trkpt lat="48.64174" lon="-2.46364">
        <ele>48</ele>
        <time>2014-10-20T15:06:50.1Z</time>
      </trkpt>
      <trkpt lat="48.64172" lon="-2.46364">
        <ele>48</ele>
        <time>2014-10-20T15:06:52.1Z</time>
      </trkpt>
      <trkpt lat="48.64169" lon="-2.46364">
        <ele>48</ele>
        <time>2014-10-20T15:06:54.1Z</time>
      </trkpt>
      <trkpt lat="48.64167" lon="-2.46365">
        <ele>48</ele>
        <time>2014-10-20T15:06:57.1Z</time>
      </trkpt>
      <trkpt lat="48.64164" lon="-2.46367">
        <ele>48</ele>
        <time>2014-10-20T15:06:59.1Z</time>
      </trkpt>
      <trkpt lat="48.64162" lon="-2.4637">
        <ele>48</ele>
        <time>2014-10-20T15:07:02.1Z</time>
      </trkpt>
      <trkpt lat="48.6416" lon="-2.46372">
        <ele>48</ele>
        <time>2014-10-20T15:07:04.1Z</time>
      </trkpt>
      <trkpt lat="48.64159" lon="-2.46373">
        <ele>48</ele>
        <time>2014-10-20T15:07:06.1Z</time>
      </trkpt>
      <trkpt lat="48.64159" lon="-2.46374">
        <ele>49</ele>
        <time>2014-10-20T15:07:08.1Z</time>
      </trkpt>
      <trkpt lat="48.64158" lon="-2.46375">
        <ele>49</ele>
        <time>2014-10-20T15:07:11.1Z</time>
      </trkpt>
      <trkpt lat="48.64157" lon="-2.46375">
        <ele>49</ele>
        <time>2014-10-20T15:07:13.1Z</time>
      </trkpt>
      <trkpt lat="48.64157" lon="-2.46375">
        <ele>48</ele>
        <time>2014-10-20T15:07:15.1Z</time>
      </trkpt>
      <trkpt lat="48.64157" lon="-2.46375">
        <ele>48</ele>
        <time>2014-10-20T15:07:18.1Z</time>
      </trkpt>
      <trkpt lat="48.64157" lon="-2.46374">
        <ele>49</ele>
        <time>2014-10-20T15:07:20.1Z</time>
      </trkpt>
      <trkpt lat="48.64158" lon="-2.46375">
        <ele>49</ele>
        <time>2014-10-20T15:07:23.1Z</time>
      </trkpt>
      <trkpt lat="48.6416" lon="-2.46376">
        <ele>49</ele>
        <time>2014-10-20T15:07:26.1Z</time>
      </trkpt>
      <trkpt lat="48.64161" lon="-2.46379">
        <ele>49</ele>
        <time>2014-10-20T15:07:28.1Z</time>
      </trkpt>
      <trkpt lat="48.64161" lon="-2.46383">
        <ele>49</ele>
        <time>2014-10-20T15:07:30.1Z</time>
      </trkpt>
      <trkpt lat="48.64161" lon="-2.46387">
        <ele>49</ele>
        <time>2014-10-20T15:07:32.1Z</time>
      </trkpt>
      <trkpt lat="48.64161" lon="-2.46391">
        <ele>49</ele>
        <time>2014-10-20T15:07:35.1Z</time>
      </trkpt>
      <trkpt lat="48.64161" lon="-2.46392">
        <ele>48</ele>
        <time>2014-10-20T15:07:37.1Z</time>
      </trkpt>
      <trkpt lat="48.64162" lon="-2.46392">
        <ele>48</ele>
        <time>2014-10-20T15:07:39.1Z</time>
      </trkpt>
      <trkpt lat="48.64161" lon="-2.46392">
        <ele>48</ele>
        <time>2014-10-20T15:07:42.1Z</time>
      </trkpt>
      <trkpt lat="48.64161" lon="-2.46392">
        <ele>48</ele>
        <time>2014-10-20T15:07:45.1Z</time>
      </trkpt>
      <trkpt lat="48.64161" lon="-2.46392">
        <ele>48</ele>
        <time>2014-10-20T15:07:48.1Z</time>
      </trkpt>
      <trkpt lat="48.64161" lon="-2.46392">
        <ele>49</ele>
        <time>2014-10-20T15:07:51.1Z</time>
      </trkpt>
      <trkpt lat="48.64161" lon="-2.46392">
        <ele>49</ele>
        <time>2014-10-20T15:07:53.1Z</time>
      </trkpt>
      <trkpt lat="48.64162" lon="-2.46391">
        <ele>49</ele>
        <time>2014-10-20T15:07:57.1Z</time>
      </trkpt>
      <trkpt lat="48.64162" lon="-2.46392">
        <ele>49</ele>
        <time>2014-10-20T15:07:59.1Z</time>
      </trkpt>
      <trkpt lat="48.64161" lon="-2.46392">
        <ele>48</ele>
        <time>2014-10-20T15:08:02.1Z</time>
      </trkpt>
      <trkpt lat="48.64161" lon="-2.46392">
        <ele>48</ele>
        <time>2014-10-20T15:08:04.1Z</time>
      </trkpt>
      <trkpt lat="48.6416" lon="-2.46393">
        <ele>48</ele>
        <time>2014-10-20T15:08:07.1Z</time>
      </trkpt>
      <trkpt lat="48.64159" lon="-2.46393">
        <ele>48</ele>
        <time>2014-10-20T15:08:09.1Z</time>
      </trkpt>
      <trkpt lat="48.64157" lon="-2.46393">
        <ele>48</ele>
        <time>2014-10-20T15:08:12.1Z</time>
      </trkpt>
      <trkpt lat="48.64157" lon="-2.46393">
        <ele>49</ele>
        <time>2014-10-20T15:08:14.1Z</time>
      </trkpt>
      <trkpt lat="48.64157" lon="-2.46393">
        <ele>49</ele>
        <time>2014-10-20T15:08:18.1Z</time>
      </trkpt>
      <trkpt lat="48.64159" lon="-2.46393">
        <ele>49</ele>
        <time>2014-10-20T15:08:20.1Z</time>
      </trkpt>
      <trkpt lat="48.6416" lon="-2.46393">
        <ele>48</ele>
        <time>2014-10-20T15:08:23.1Z</time>
      </trkpt>
      <trkpt lat="48.6416" lon="-2.46391">
        <ele>48</ele>
        <time>2014-10-20T15:08:25.1Z</time>
      </trkpt>
      <trkpt lat="48.64161" lon="-2.46386">
        <ele>48</ele>
        <time>2014-10-20T15:08:28.1Z</time>
      </trkpt>
      <trkpt lat="48.64161" lon="-2.46384">
        <ele>48</ele>
        <time>2014-10-20T15:08:29.1Z</time>
      </trkpt>
    </trkseg>
  </trk>
</gpx>